<?xml version="1.0" encoding="UTF-8" standalone="no" ?>
<gpx xmlns="http://www.topografix.com/GPX/1/1" xmlns:xsi="http://www.w3.org/2001/XMLSchema-instance" xsi:schemaLocation="http://www.topografix.com/GPX/1/1 http://www.topografix.com/GPX/1/1/gpx.xsd" version="1.1" creator="VisuGPX - https://www.visugpx.com">
  <metadata>
    <name>cime de rocca sièra</name>
    <desc><![CDATA[Grosse balade!]]></desc>
  </metadata>
  <trk>
    <name><![CDATA[(null)]]></name>
    <desc><![CDATA[(null)]]></desc>
    <trkseg>
      <trkpt lat="43.83602" lon="7.35253">
        <ele>381.448799</ele>
        <time>2011-11-19T08:21:02Z</time>
      </trkpt>
      <trkpt lat="43.83602" lon="7.35253">
        <ele>381.448799</ele>
        <time>2011-11-19T08:21:03Z</time>
      </trkpt>
      <trkpt lat="43.83602" lon="7.35253">
        <ele>381.448799</ele>
        <time>2011-11-19T08:21:05Z</time>
      </trkpt>
      <trkpt lat="43.83611" lon="7.35246">
        <ele>384.448792</ele>
        <time>2011-11-19T08:21:28Z</time>
      </trkpt>
      <trkpt lat="43.83619" lon="7.35236">
        <ele>384.448792</ele>
        <time>2011-11-19T08:21:33Z</time>
      </trkpt>
      <trkpt lat="43.83627" lon="7.35227">
        <ele>384.44878</ele>
        <time>2011-11-19T08:21:36Z</time>
      </trkpt>
      <trkpt lat="43.8363" lon="7.35224">
        <ele>384.448776</ele>
        <time>2011-11-19T08:21:37Z</time>
      </trkpt>
      <trkpt lat="43.83637" lon="7.35215">
        <ele>384.448769</ele>
        <time>2011-11-19T08:21:40Z</time>
      </trkpt>
      <trkpt lat="43.83646" lon="7.35209">
        <ele>385.448765</ele>
        <time>2011-11-19T08:21:43Z</time>
      </trkpt>
      <trkpt lat="43.83655" lon="7.35204">
        <ele>384.448765</ele>
        <time>2011-11-19T08:21:46Z</time>
      </trkpt>
      <trkpt lat="43.83664" lon="7.35197">
        <ele>385.448765</ele>
        <time>2011-11-19T08:21:50Z</time>
      </trkpt>
      <trkpt lat="43.83674" lon="7.3519">
        <ele>384.448761</ele>
        <time>2011-11-19T08:21:54Z</time>
      </trkpt>
      <trkpt lat="43.83682" lon="7.35183">
        <ele>384.448753</ele>
        <time>2011-11-19T08:21:57Z</time>
      </trkpt>
      <trkpt lat="43.83691" lon="7.35173">
        <ele>384.44875</ele>
        <time>2011-11-19T08:22:00Z</time>
      </trkpt>
      <trkpt lat="43.83699" lon="7.35162">
        <ele>385.448742</ele>
        <time>2011-11-19T08:22:03Z</time>
      </trkpt>
      <trkpt lat="43.83709" lon="7.3515">
        <ele>385.448723</ele>
        <time>2011-11-19T08:22:06Z</time>
      </trkpt>
      <trkpt lat="43.83717" lon="7.35138">
        <ele>385.448711</ele>
        <time>2011-11-19T08:22:09Z</time>
      </trkpt>
      <trkpt lat="43.83723" lon="7.35126">
        <ele>386.4487</ele>
        <time>2011-11-19T08:22:12Z</time>
      </trkpt>
      <trkpt lat="43.83728" lon="7.35113">
        <ele>386.448677</ele>
        <time>2011-11-19T08:22:15Z</time>
      </trkpt>
      <trkpt lat="43.83732" lon="7.351">
        <ele>386.448654</ele>
        <time>2011-11-19T08:22:18Z</time>
      </trkpt>
      <trkpt lat="43.83737" lon="7.35088">
        <ele>386.448631</ele>
        <time>2011-11-19T08:22:21Z</time>
      </trkpt>
      <trkpt lat="43.83741" lon="7.35076">
        <ele>386.448616</ele>
        <time>2011-11-19T08:22:24Z</time>
      </trkpt>
      <trkpt lat="43.83747" lon="7.35064">
        <ele>386.448597</ele>
        <time>2011-11-19T08:22:27Z</time>
      </trkpt>
      <trkpt lat="43.83748" lon="7.3506">
        <ele>386.448589</ele>
        <time>2011-11-19T08:22:28Z</time>
      </trkpt>
      <trkpt lat="43.83752" lon="7.35046">
        <ele>386.44857</ele>
        <time>2011-11-19T08:22:31Z</time>
      </trkpt>
      <trkpt lat="43.83756" lon="7.35033">
        <ele>386.448544</ele>
        <time>2011-11-19T08:22:34Z</time>
      </trkpt>
      <trkpt lat="43.8376" lon="7.3502">
        <ele>386.448524</ele>
        <time>2011-11-19T08:22:37Z</time>
      </trkpt>
      <trkpt lat="43.83762" lon="7.35008">
        <ele>385.448502</ele>
        <time>2011-11-19T08:22:40Z</time>
      </trkpt>
      <trkpt lat="43.83765" lon="7.34996">
        <ele>385.448486</ele>
        <time>2011-11-19T08:22:43Z</time>
      </trkpt>
      <trkpt lat="43.83767" lon="7.34988">
        <ele>386.448463</ele>
        <time>2011-11-19T08:22:45Z</time>
      </trkpt>
      <trkpt lat="43.8377" lon="7.34973">
        <ele>386.448437</ele>
        <time>2011-11-19T08:22:49Z</time>
      </trkpt>
      <trkpt lat="43.83775" lon="7.34961">
        <ele>385.448421</ele>
        <time>2011-11-19T08:22:52Z</time>
      </trkpt>
      <trkpt lat="43.83778" lon="7.34956">
        <ele>385.448418</ele>
        <time>2011-11-19T08:22:53Z</time>
      </trkpt>
      <trkpt lat="43.83783" lon="7.34943">
        <ele>386.448395</ele>
        <time>2011-11-19T08:22:56Z</time>
      </trkpt>
      <trkpt lat="43.83789" lon="7.3493">
        <ele>389.448372</ele>
        <time>2011-11-19T08:22:59Z</time>
      </trkpt>
      <trkpt lat="43.83795" lon="7.34919">
        <ele>390.448357</ele>
        <time>2011-11-19T08:23:02Z</time>
      </trkpt>
      <trkpt lat="43.83802" lon="7.34909">
        <ele>392.448349</ele>
        <time>2011-11-19T08:23:05Z</time>
      </trkpt>
      <trkpt lat="43.83809" lon="7.34901">
        <ele>394.448341</ele>
        <time>2011-11-19T08:23:08Z</time>
      </trkpt>
      <trkpt lat="43.83816" lon="7.34893">
        <ele>395.448334</ele>
        <time>2011-11-19T08:23:11Z</time>
      </trkpt>
      <trkpt lat="43.83824" lon="7.34885">
        <ele>394.44833</ele>
        <time>2011-11-19T08:23:14Z</time>
      </trkpt>
      <trkpt lat="43.83833" lon="7.34876">
        <ele>394.448322</ele>
        <time>2011-11-19T08:23:18Z</time>
      </trkpt>
      <trkpt lat="43.83844" lon="7.3487">
        <ele>396.448326</ele>
        <time>2011-11-19T08:23:22Z</time>
      </trkpt>
      <trkpt lat="43.83853" lon="7.34869">
        <ele>396.448334</ele>
        <time>2011-11-19T08:23:25Z</time>
      </trkpt>
      <trkpt lat="43.83862" lon="7.34868">
        <ele>396.448341</ele>
        <time>2011-11-19T08:23:28Z</time>
      </trkpt>
      <trkpt lat="43.83865" lon="7.34867">
        <ele>396.448345</ele>
        <time>2011-11-19T08:23:29Z</time>
      </trkpt>
      <trkpt lat="43.83875" lon="7.34862">
        <ele>397.448349</ele>
        <time>2011-11-19T08:23:32Z</time>
      </trkpt>
      <trkpt lat="43.83884" lon="7.34855">
        <ele>396.448345</ele>
        <time>2011-11-19T08:23:35Z</time>
      </trkpt>
      <trkpt lat="43.83892" lon="7.34846">
        <ele>395.448338</ele>
        <time>2011-11-19T08:23:38Z</time>
      </trkpt>
      <trkpt lat="43.839" lon="7.34837">
        <ele>395.448326</ele>
        <time>2011-11-19T08:23:41Z</time>
      </trkpt>
      <trkpt lat="43.83909" lon="7.34829">
        <ele>395.448326</ele>
        <time>2011-11-19T08:23:44Z</time>
      </trkpt>
      <trkpt lat="43.83918" lon="7.34824">
        <ele>394.448326</ele>
        <time>2011-11-19T08:23:47Z</time>
      </trkpt>
      <trkpt lat="43.83924" lon="7.34821">
        <ele>394.448326</ele>
        <time>2011-11-19T08:23:49Z</time>
      </trkpt>
      <trkpt lat="43.83934" lon="7.34815">
        <ele>395.448334</ele>
        <time>2011-11-19T08:23:53Z</time>
      </trkpt>
      <trkpt lat="43.83937" lon="7.34814">
        <ele>395.448326</ele>
        <time>2011-11-19T08:23:54Z</time>
      </trkpt>
      <trkpt lat="43.83947" lon="7.34809">
        <ele>395.448334</ele>
        <time>2011-11-19T08:23:59Z</time>
      </trkpt>
      <trkpt lat="43.83956" lon="7.34804">
        <ele>396.448334</ele>
        <time>2011-11-19T08:24:04Z</time>
      </trkpt>
      <trkpt lat="43.83959" lon="7.34803">
        <ele>395.448334</ele>
        <time>2011-11-19T08:24:06Z</time>
      </trkpt>
      <trkpt lat="43.83974" lon="7.34807">
        <ele>399.448364</ele>
        <time>2011-11-19T08:24:22Z</time>
      </trkpt>
      <trkpt lat="43.83983" lon="7.34808">
        <ele>400.44838</ele>
        <time>2011-11-19T08:24:27Z</time>
      </trkpt>
      <trkpt lat="43.83996" lon="7.34812">
        <ele>398.448402</ele>
        <time>2011-11-19T08:24:35Z</time>
      </trkpt>
      <trkpt lat="43.84005" lon="7.34816">
        <ele>398.448421</ele>
        <time>2011-11-19T08:24:41Z</time>
      </trkpt>
      <trkpt lat="43.84006" lon="7.34816">
        <ele>398.448425</ele>
        <time>2011-11-19T08:24:42Z</time>
      </trkpt>
      <trkpt lat="43.84016" lon="7.34822">
        <ele>396.448448</ele>
        <time>2011-11-19T08:24:49Z</time>
      </trkpt>
      <trkpt lat="43.84017" lon="7.34822">
        <ele>396.448452</ele>
        <time>2011-11-19T08:24:50Z</time>
      </trkpt>
      <trkpt lat="43.84038" lon="7.34823">
        <ele>397.448483</ele>
        <time>2011-11-19T08:25:05Z</time>
      </trkpt>
      <trkpt lat="43.8404" lon="7.34821">
        <ele>396.448479</ele>
        <time>2011-11-19T08:25:06Z</time>
      </trkpt>
      <trkpt lat="43.84046" lon="7.34806">
        <ele>393.448456</ele>
        <time>2011-11-19T08:25:11Z</time>
      </trkpt>
      <trkpt lat="43.8405" lon="7.34787">
        <ele>392.448421</ele>
        <time>2011-11-19T08:25:16Z</time>
      </trkpt>
      <trkpt lat="43.84051" lon="7.34775">
        <ele>392.448402</ele>
        <time>2011-11-19T08:25:20Z</time>
      </trkpt>
      <trkpt lat="43.84045" lon="7.34755">
        <ele>391.448349</ele>
        <time>2011-11-19T08:25:33Z</time>
      </trkpt>
      <trkpt lat="43.84046" lon="7.34733">
        <ele>398.448303</ele>
        <time>2011-11-19T08:25:51Z</time>
      </trkpt>
      <trkpt lat="43.8405" lon="7.34722">
        <ele>399.448288</ele>
        <time>2011-11-19T08:25:57Z</time>
      </trkpt>
      <trkpt lat="43.84057" lon="7.34707">
        <ele>400.448265</ele>
        <time>2011-11-19T08:26:04Z</time>
      </trkpt>
      <trkpt lat="43.84064" lon="7.34697">
        <ele>401.448257</ele>
        <time>2011-11-19T08:26:10Z</time>
      </trkpt>
      <trkpt lat="43.84071" lon="7.34687">
        <ele>401.448246</ele>
        <time>2011-11-19T08:26:21Z</time>
      </trkpt>
      <trkpt lat="43.84083" lon="7.34675">
        <ele>404.448235</ele>
        <time>2011-11-19T08:26:33Z</time>
      </trkpt>
      <trkpt lat="43.84091" lon="7.34669">
        <ele>405.448235</ele>
        <time>2011-11-19T08:26:39Z</time>
      </trkpt>
      <trkpt lat="43.84101" lon="7.34661">
        <ele>407.448227</ele>
        <time>2011-11-19T08:26:49Z</time>
      </trkpt>
      <trkpt lat="43.84102" lon="7.34659">
        <ele>407.448227</ele>
        <time>2011-11-19T08:26:50Z</time>
      </trkpt>
      <trkpt lat="43.84109" lon="7.34639">
        <ele>410.448196</ele>
        <time>2011-11-19T08:27:00Z</time>
      </trkpt>
      <trkpt lat="43.84111" lon="7.34626">
        <ele>408.44817</ele>
        <time>2011-11-19T08:27:05Z</time>
      </trkpt>
      <trkpt lat="43.84113" lon="7.34607">
        <ele>407.448135</ele>
        <time>2011-11-19T08:27:12Z</time>
      </trkpt>
      <trkpt lat="43.84116" lon="7.3459">
        <ele>408.448105</ele>
        <time>2011-11-19T08:27:21Z</time>
      </trkpt>
      <trkpt lat="43.8412" lon="7.34574">
        <ele>410.448071</ele>
        <time>2011-11-19T08:27:30Z</time>
      </trkpt>
      <trkpt lat="43.84126" lon="7.34561">
        <ele>413.448051</ele>
        <time>2011-11-19T08:27:38Z</time>
      </trkpt>
      <trkpt lat="43.84138" lon="7.34547">
        <ele>413.44804</ele>
        <time>2011-11-19T08:27:45Z</time>
      </trkpt>
      <trkpt lat="43.84145" lon="7.34534">
        <ele>413.448021</ele>
        <time>2011-11-19T08:27:49Z</time>
      </trkpt>
      <trkpt lat="43.8415" lon="7.34523">
        <ele>413.448006</ele>
        <time>2011-11-19T08:27:52Z</time>
      </trkpt>
      <trkpt lat="43.84157" lon="7.3451">
        <ele>414.44799</ele>
        <time>2011-11-19T08:27:56Z</time>
      </trkpt>
      <trkpt lat="43.84163" lon="7.34501">
        <ele>415.447975</ele>
        <time>2011-11-19T08:27:59Z</time>
      </trkpt>
      <trkpt lat="43.8417" lon="7.3449">
        <ele>416.447964</ele>
        <time>2011-11-19T08:28:03Z</time>
      </trkpt>
      <trkpt lat="43.84178" lon="7.3448">
        <ele>416.447952</ele>
        <time>2011-11-19T08:28:07Z</time>
      </trkpt>
      <trkpt lat="43.84185" lon="7.3447">
        <ele>416.447945</ele>
        <time>2011-11-19T08:28:11Z</time>
      </trkpt>
      <trkpt lat="43.84192" lon="7.34459">
        <ele>416.447929</ele>
        <time>2011-11-19T08:28:15Z</time>
      </trkpt>
      <trkpt lat="43.842" lon="7.34447">
        <ele>416.447914</ele>
        <time>2011-11-19T08:28:19Z</time>
      </trkpt>
      <trkpt lat="43.84209" lon="7.34436">
        <ele>416.447906</ele>
        <time>2011-11-19T08:28:23Z</time>
      </trkpt>
      <trkpt lat="43.84218" lon="7.34427">
        <ele>417.447899</ele>
        <time>2011-11-19T08:28:27Z</time>
      </trkpt>
      <trkpt lat="43.84227" lon="7.3442">
        <ele>417.447899</ele>
        <time>2011-11-19T08:28:31Z</time>
      </trkpt>
      <trkpt lat="43.84229" lon="7.34418">
        <ele>416.447891</ele>
        <time>2011-11-19T08:28:32Z</time>
      </trkpt>
      <trkpt lat="43.84238" lon="7.3441">
        <ele>416.447887</ele>
        <time>2011-11-19T08:28:37Z</time>
      </trkpt>
      <trkpt lat="43.84247" lon="7.34404">
        <ele>416.447887</ele>
        <time>2011-11-19T08:28:42Z</time>
      </trkpt>
      <trkpt lat="43.84254" lon="7.34397">
        <ele>417.44788</ele>
        <time>2011-11-19T08:28:47Z</time>
      </trkpt>
      <trkpt lat="43.8426" lon="7.34387">
        <ele>418.447868</ele>
        <time>2011-11-19T08:28:52Z</time>
      </trkpt>
      <trkpt lat="43.84265" lon="7.34376">
        <ele>418.447853</ele>
        <time>2011-11-19T08:28:57Z</time>
      </trkpt>
      <trkpt lat="43.84272" lon="7.34352">
        <ele>421.447815</ele>
        <time>2011-11-19T08:29:07Z</time>
      </trkpt>
      <trkpt lat="43.84275" lon="7.34337">
        <ele>422.447784</ele>
        <time>2011-11-19T08:29:11Z</time>
      </trkpt>
      <trkpt lat="43.84277" lon="7.34317">
        <ele>421.447746</ele>
        <time>2011-11-19T08:29:16Z</time>
      </trkpt>
      <trkpt lat="43.8428" lon="7.34298">
        <ele>421.447708</ele>
        <time>2011-11-19T08:29:22Z</time>
      </trkpt>
      <trkpt lat="43.84281" lon="7.34284">
        <ele>421.447681</ele>
        <time>2011-11-19T08:29:25Z</time>
      </trkpt>
      <trkpt lat="43.84281" lon="7.3427">
        <ele>419.447655</ele>
        <time>2011-11-19T08:29:28Z</time>
      </trkpt>
      <trkpt lat="43.84279" lon="7.34254">
        <ele>418.44762</ele>
        <time>2011-11-19T08:29:32Z</time>
      </trkpt>
      <trkpt lat="43.84275" lon="7.34241">
        <ele>419.447586</ele>
        <time>2011-11-19T08:29:36Z</time>
      </trkpt>
      <trkpt lat="43.84264" lon="7.34223">
        <ele>418.447533</ele>
        <time>2011-11-19T08:29:48Z</time>
      </trkpt>
      <trkpt lat="43.84264" lon="7.34222">
        <ele>418.447529</ele>
        <time>2011-11-19T08:29:49Z</time>
      </trkpt>
      <trkpt lat="43.84262" lon="7.34207">
        <ele>419.447498</ele>
        <time>2011-11-19T08:29:55Z</time>
      </trkpt>
      <trkpt lat="43.84261" lon="7.34192">
        <ele>419.447464</ele>
        <time>2011-11-19T08:29:59Z</time>
      </trkpt>
      <trkpt lat="43.84261" lon="7.34179">
        <ele>420.447441</ele>
        <time>2011-11-19T08:30:02Z</time>
      </trkpt>
      <trkpt lat="43.84263" lon="7.34155">
        <ele>420.447392</ele>
        <time>2011-11-19T08:30:08Z</time>
      </trkpt>
      <trkpt lat="43.84264" lon="7.3414">
        <ele>420.447365</ele>
        <time>2011-11-19T08:30:12Z</time>
      </trkpt>
      <trkpt lat="43.84262" lon="7.34125">
        <ele>419.447327</ele>
        <time>2011-11-19T08:30:16Z</time>
      </trkpt>
      <trkpt lat="43.84261" lon="7.34118">
        <ele>419.447311</ele>
        <time>2011-11-19T08:30:18Z</time>
      </trkpt>
      <trkpt lat="43.84256" lon="7.341">
        <ele>418.447266</ele>
        <time>2011-11-19T08:30:26Z</time>
      </trkpt>
      <trkpt lat="43.84263" lon="7.34083">
        <ele>419.447243</ele>
        <time>2011-11-19T08:30:32Z</time>
      </trkpt>
      <trkpt lat="43.84267" lon="7.34068">
        <ele>419.447216</ele>
        <time>2011-11-19T08:30:36Z</time>
      </trkpt>
      <trkpt lat="43.84268" lon="7.34054">
        <ele>420.447189</ele>
        <time>2011-11-19T08:30:39Z</time>
      </trkpt>
      <trkpt lat="43.84267" lon="7.34041">
        <ele>419.447159</ele>
        <time>2011-11-19T08:30:42Z</time>
      </trkpt>
      <trkpt lat="43.84264" lon="7.34029">
        <ele>418.447136</ele>
        <time>2011-11-19T08:30:45Z</time>
      </trkpt>
      <trkpt lat="43.84259" lon="7.34015">
        <ele>416.447094</ele>
        <time>2011-11-19T08:30:49Z</time>
      </trkpt>
      <trkpt lat="43.84253" lon="7.34001">
        <ele>415.44706</ele>
        <time>2011-11-19T08:30:53Z</time>
      </trkpt>
      <trkpt lat="43.84252" lon="7.33987">
        <ele>416.447025</ele>
        <time>2011-11-19T08:30:57Z</time>
      </trkpt>
      <trkpt lat="43.84255" lon="7.33973">
        <ele>417.446999</ele>
        <time>2011-11-19T08:31:01Z</time>
      </trkpt>
      <trkpt lat="43.84254" lon="7.33958">
        <ele>416.446968</ele>
        <time>2011-11-19T08:31:05Z</time>
      </trkpt>
      <trkpt lat="43.84251" lon="7.33942">
        <ele>416.446938</ele>
        <time>2011-11-19T08:31:09Z</time>
      </trkpt>
      <trkpt lat="43.84248" lon="7.33929">
        <ele>416.446903</ele>
        <time>2011-11-19T08:31:13Z</time>
      </trkpt>
      <trkpt lat="43.84244" lon="7.33916">
        <ele>416.446869</ele>
        <time>2011-11-19T08:31:17Z</time>
      </trkpt>
      <trkpt lat="43.84239" lon="7.33904">
        <ele>416.446838</ele>
        <time>2011-11-19T08:31:21Z</time>
      </trkpt>
      <trkpt lat="43.84237" lon="7.33892">
        <ele>418.446815</ele>
        <time>2011-11-19T08:31:25Z</time>
      </trkpt>
      <trkpt lat="43.84235" lon="7.33879">
        <ele>420.446781</ele>
        <time>2011-11-19T08:31:30Z</time>
      </trkpt>
      <trkpt lat="43.84232" lon="7.33866">
        <ele>422.446747</ele>
        <time>2011-11-19T08:31:36Z</time>
      </trkpt>
      <trkpt lat="43.84227" lon="7.33855">
        <ele>423.44672</ele>
        <time>2011-11-19T08:31:41Z</time>
      </trkpt>
      <trkpt lat="43.84223" lon="7.33843">
        <ele>423.44669</ele>
        <time>2011-11-19T08:31:46Z</time>
      </trkpt>
      <trkpt lat="43.84218" lon="7.33831">
        <ele>424.446663</ele>
        <time>2011-11-19T08:31:51Z</time>
      </trkpt>
      <trkpt lat="43.84213" lon="7.33818">
        <ele>425.446625</ele>
        <time>2011-11-19T08:31:56Z</time>
      </trkpt>
      <trkpt lat="43.84209" lon="7.33803">
        <ele>426.446587</ele>
        <time>2011-11-19T08:32:01Z</time>
      </trkpt>
      <trkpt lat="43.84207" lon="7.3379">
        <ele>424.446556</ele>
        <time>2011-11-19T08:32:05Z</time>
      </trkpt>
      <trkpt lat="43.84207" lon="7.33787">
        <ele>424.446556</ele>
        <time>2011-11-19T08:32:06Z</time>
      </trkpt>
      <trkpt lat="43.84206" lon="7.33774">
        <ele>423.446526</ele>
        <time>2011-11-19T08:32:09Z</time>
      </trkpt>
      <trkpt lat="43.84202" lon="7.33759">
        <ele>424.446487</ele>
        <time>2011-11-19T08:32:13Z</time>
      </trkpt>
      <trkpt lat="43.842" lon="7.33756">
        <ele>425.44648</ele>
        <time>2011-11-19T08:32:14Z</time>
      </trkpt>
      <trkpt lat="43.84195" lon="7.33745">
        <ele>426.446453</ele>
        <time>2011-11-19T08:32:18Z</time>
      </trkpt>
      <trkpt lat="43.84191" lon="7.33734">
        <ele>427.446419</ele>
        <time>2011-11-19T08:32:22Z</time>
      </trkpt>
      <trkpt lat="43.8419" lon="7.33721">
        <ele>427.446392</ele>
        <time>2011-11-19T08:32:26Z</time>
      </trkpt>
      <trkpt lat="43.84192" lon="7.33708">
        <ele>427.446365</ele>
        <time>2011-11-19T08:32:30Z</time>
      </trkpt>
      <trkpt lat="43.84194" lon="7.33693">
        <ele>428.446339</ele>
        <time>2011-11-19T08:32:34Z</time>
      </trkpt>
      <trkpt lat="43.84195" lon="7.3368">
        <ele>428.446312</ele>
        <time>2011-11-19T08:32:37Z</time>
      </trkpt>
      <trkpt lat="43.84194" lon="7.33664">
        <ele>428.446281</ele>
        <time>2011-11-19T08:32:41Z</time>
      </trkpt>
      <trkpt lat="43.84193" lon="7.33652">
        <ele>429.446251</ele>
        <time>2011-11-19T08:32:44Z</time>
      </trkpt>
      <trkpt lat="43.84191" lon="7.33639">
        <ele>428.44622</ele>
        <time>2011-11-19T08:32:47Z</time>
      </trkpt>
      <trkpt lat="43.84187" lon="7.33625">
        <ele>429.44619</ele>
        <time>2011-11-19T08:32:51Z</time>
      </trkpt>
      <trkpt lat="43.84183" lon="7.33612">
        <ele>432.446156</ele>
        <time>2011-11-19T08:32:56Z</time>
      </trkpt>
      <trkpt lat="43.84178" lon="7.33599">
        <ele>433.446125</ele>
        <time>2011-11-19T08:33:00Z</time>
      </trkpt>
      <trkpt lat="43.84171" lon="7.33586">
        <ele>434.446083</ele>
        <time>2011-11-19T08:33:04Z</time>
      </trkpt>
      <trkpt lat="43.84161" lon="7.33581">
        <ele>435.446068</ele>
        <time>2011-11-19T08:33:08Z</time>
      </trkpt>
      <trkpt lat="43.84151" lon="7.33577">
        <ele>436.446045</ele>
        <time>2011-11-19T08:33:13Z</time>
      </trkpt>
      <trkpt lat="43.84141" lon="7.33572">
        <ele>437.446018</ele>
        <time>2011-11-19T08:33:20Z</time>
      </trkpt>
      <trkpt lat="43.84126" lon="7.33568">
        <ele>439.445992</ele>
        <time>2011-11-19T08:33:26Z</time>
      </trkpt>
      <trkpt lat="43.84113" lon="7.33566">
        <ele>440.445969</ele>
        <time>2011-11-19T08:33:29Z</time>
      </trkpt>
      <trkpt lat="43.84102" lon="7.33566">
        <ele>440.445953</ele>
        <time>2011-11-19T08:33:32Z</time>
      </trkpt>
      <trkpt lat="43.84092" lon="7.33567">
        <ele>441.445938</ele>
        <time>2011-11-19T08:33:35Z</time>
      </trkpt>
      <trkpt lat="43.84082" lon="7.33566">
        <ele>441.44593</ele>
        <time>2011-11-19T08:33:38Z</time>
      </trkpt>
      <trkpt lat="43.84072" lon="7.33563">
        <ele>442.445904</ele>
        <time>2011-11-19T08:33:42Z</time>
      </trkpt>
      <trkpt lat="43.84067" lon="7.33562">
        <ele>442.4459</ele>
        <time>2011-11-19T08:33:44Z</time>
      </trkpt>
      <trkpt lat="43.84057" lon="7.33562">
        <ele>444.445885</ele>
        <time>2011-11-19T08:33:48Z</time>
      </trkpt>
      <trkpt lat="43.84052" lon="7.33562">
        <ele>445.445877</ele>
        <time>2011-11-19T08:33:51Z</time>
      </trkpt>
      <trkpt lat="43.84059" lon="7.33553">
        <ele>451.445869</ele>
        <time>2011-11-19T08:34:08Z</time>
      </trkpt>
      <trkpt lat="43.84068" lon="7.33548">
        <ele>451.445869</ele>
        <time>2011-11-19T08:34:13Z</time>
      </trkpt>
      <trkpt lat="43.84071" lon="7.33535">
        <ele>452.445847</ele>
        <time>2011-11-19T08:34:18Z</time>
      </trkpt>
      <trkpt lat="43.8407" lon="7.3353">
        <ele>452.445839</ele>
        <time>2011-11-19T08:34:20Z</time>
      </trkpt>
      <trkpt lat="43.84053" lon="7.33528">
        <ele>454.445808</ele>
        <time>2011-11-19T08:34:32Z</time>
      </trkpt>
      <trkpt lat="43.84044" lon="7.33526">
        <ele>452.445793</ele>
        <time>2011-11-19T08:34:40Z</time>
      </trkpt>
      <trkpt lat="43.84044" lon="7.33526">
        <ele>452.445793</ele>
        <time>2011-11-19T08:34:41Z</time>
      </trkpt>
      <trkpt lat="43.84035" lon="7.33518">
        <ele>452.445766</ele>
        <time>2011-11-19T08:34:47Z</time>
      </trkpt>
      <trkpt lat="43.84033" lon="7.33517">
        <ele>452.445759</ele>
        <time>2011-11-19T08:34:52Z</time>
      </trkpt>
      <trkpt lat="43.84021" lon="7.33511">
        <ele>453.445732</ele>
        <time>2011-11-19T08:34:54Z</time>
      </trkpt>
      <trkpt lat="43.84019" lon="7.3351">
        <ele>453.445728</ele>
        <time>2011-11-19T08:34:55Z</time>
      </trkpt>
      <trkpt lat="43.84011" lon="7.33505">
        <ele>451.445709</ele>
        <time>2011-11-19T08:35:03Z</time>
      </trkpt>
      <trkpt lat="43.84009" lon="7.33506">
        <ele>451.445702</ele>
        <time>2011-11-19T08:35:07Z</time>
      </trkpt>
      <trkpt lat="43.84002" lon="7.33513">
        <ele>451.445709</ele>
        <time>2011-11-19T08:35:11Z</time>
      </trkpt>
      <trkpt lat="43.83991" lon="7.3352">
        <ele>449.445709</ele>
        <time>2011-11-19T08:35:30Z</time>
      </trkpt>
      <trkpt lat="43.84" lon="7.33517">
        <ele>439.445717</ele>
        <time>2011-11-19T08:36:55Z</time>
      </trkpt>
      <trkpt lat="43.84011" lon="7.33522">
        <ele>438.44574</ele>
        <time>2011-11-19T08:37:02Z</time>
      </trkpt>
      <trkpt lat="43.84021" lon="7.33526">
        <ele>437.445763</ele>
        <time>2011-11-19T08:37:04Z</time>
      </trkpt>
      <trkpt lat="43.84031" lon="7.33529">
        <ele>436.445786</ele>
        <time>2011-11-19T08:37:06Z</time>
      </trkpt>
      <trkpt lat="43.84042" lon="7.33529">
        <ele>436.445801</ele>
        <time>2011-11-19T08:37:09Z</time>
      </trkpt>
      <trkpt lat="43.84051" lon="7.33524">
        <ele>438.445797</ele>
        <time>2011-11-19T08:37:14Z</time>
      </trkpt>
      <trkpt lat="43.84058" lon="7.33514">
        <ele>439.445786</ele>
        <time>2011-11-19T08:37:20Z</time>
      </trkpt>
      <trkpt lat="43.84067" lon="7.33492">
        <ele>438.445747</ele>
        <time>2011-11-19T08:37:31Z</time>
      </trkpt>
      <trkpt lat="43.84067" lon="7.33479">
        <ele>438.445724</ele>
        <time>2011-11-19T08:37:36Z</time>
      </trkpt>
      <trkpt lat="43.84068" lon="7.33465">
        <ele>438.445698</ele>
        <time>2011-11-19T08:37:42Z</time>
      </trkpt>
      <trkpt lat="43.84069" lon="7.33453">
        <ele>439.445671</ele>
        <time>2011-11-19T08:37:48Z</time>
      </trkpt>
      <trkpt lat="43.84071" lon="7.33438">
        <ele>442.445648</ele>
        <time>2011-11-19T08:37:55Z</time>
      </trkpt>
      <trkpt lat="43.84074" lon="7.33404">
        <ele>444.44558</ele>
        <time>2011-11-19T08:38:07Z</time>
      </trkpt>
      <trkpt lat="43.84072" lon="7.33391">
        <ele>445.445545</ele>
        <time>2011-11-19T08:38:09Z</time>
      </trkpt>
      <trkpt lat="43.84069" lon="7.33378">
        <ele>445.445518</ele>
        <time>2011-11-19T08:38:11Z</time>
      </trkpt>
      <trkpt lat="43.84064" lon="7.33357">
        <ele>446.445465</ele>
        <time>2011-11-19T08:38:14Z</time>
      </trkpt>
      <trkpt lat="43.84063" lon="7.33349">
        <ele>446.445446</ele>
        <time>2011-11-19T08:38:15Z</time>
      </trkpt>
      <trkpt lat="43.84065" lon="7.33336">
        <ele>445.445427</ele>
        <time>2011-11-19T08:38:17Z</time>
      </trkpt>
      <trkpt lat="43.84072" lon="7.33322">
        <ele>445.445408</ele>
        <time>2011-11-19T08:38:20Z</time>
      </trkpt>
      <trkpt lat="43.84074" lon="7.33318">
        <ele>445.4454</ele>
        <time>2011-11-19T08:38:21Z</time>
      </trkpt>
      <trkpt lat="43.84084" lon="7.33314">
        <ele>447.445404</ele>
        <time>2011-11-19T08:38:32Z</time>
      </trkpt>
      <trkpt lat="43.84092" lon="7.33331">
        <ele>447.445454</ele>
        <time>2011-11-19T08:38:40Z</time>
      </trkpt>
      <trkpt lat="43.84089" lon="7.33343">
        <ele>448.445473</ele>
        <time>2011-11-19T08:38:44Z</time>
      </trkpt>
      <trkpt lat="43.84097" lon="7.33356">
        <ele>448.445511</ele>
        <time>2011-11-19T08:38:49Z</time>
      </trkpt>
      <trkpt lat="43.84108" lon="7.33361">
        <ele>448.445534</ele>
        <time>2011-11-19T08:38:51Z</time>
      </trkpt>
      <trkpt lat="43.84117" lon="7.33368">
        <ele>448.445557</ele>
        <time>2011-11-19T08:38:53Z</time>
      </trkpt>
      <trkpt lat="43.84124" lon="7.33375">
        <ele>448.44558</ele>
        <time>2011-11-19T08:38:55Z</time>
      </trkpt>
      <trkpt lat="43.84132" lon="7.33381">
        <ele>448.44561</ele>
        <time>2011-11-19T08:38:58Z</time>
      </trkpt>
      <trkpt lat="43.84123" lon="7.33402">
        <ele>447.445641</ele>
        <time>2011-11-19T08:39:11Z</time>
      </trkpt>
      <trkpt lat="43.84118" lon="7.33418">
        <ele>445.445667</ele>
        <time>2011-11-19T08:39:18Z</time>
      </trkpt>
      <trkpt lat="43.84116" lon="7.33432">
        <ele>447.445694</ele>
        <time>2011-11-19T08:39:24Z</time>
      </trkpt>
      <trkpt lat="43.84116" lon="7.33446">
        <ele>449.445717</ele>
        <time>2011-11-19T08:39:30Z</time>
      </trkpt>
      <trkpt lat="43.84123" lon="7.33457">
        <ele>451.445751</ele>
        <time>2011-11-19T08:39:36Z</time>
      </trkpt>
      <trkpt lat="43.84128" lon="7.33457">
        <ele>453.445763</ele>
        <time>2011-11-19T08:39:38Z</time>
      </trkpt>
      <trkpt lat="43.84142" lon="7.3345">
        <ele>454.445766</ele>
        <time>2011-11-19T08:39:44Z</time>
      </trkpt>
      <trkpt lat="43.84148" lon="7.33439">
        <ele>453.445751</ele>
        <time>2011-11-19T08:39:48Z</time>
      </trkpt>
      <trkpt lat="43.84151" lon="7.33424">
        <ele>453.445724</ele>
        <time>2011-11-19T08:39:53Z</time>
      </trkpt>
      <trkpt lat="43.84151" lon="7.3341">
        <ele>453.445694</ele>
        <time>2011-11-19T08:39:58Z</time>
      </trkpt>
      <trkpt lat="43.84154" lon="7.33395">
        <ele>453.445663</ele>
        <time>2011-11-19T08:40:03Z</time>
      </trkpt>
      <trkpt lat="43.84158" lon="7.33377">
        <ele>453.445633</ele>
        <time>2011-11-19T08:40:09Z</time>
      </trkpt>
      <trkpt lat="43.8416" lon="7.33363">
        <ele>454.44561</ele>
        <time>2011-11-19T08:40:15Z</time>
      </trkpt>
      <trkpt lat="43.84163" lon="7.33345">
        <ele>454.445572</ele>
        <time>2011-11-19T08:40:22Z</time>
      </trkpt>
      <trkpt lat="43.84165" lon="7.33332">
        <ele>455.445549</ele>
        <time>2011-11-19T08:40:27Z</time>
      </trkpt>
      <trkpt lat="43.84166" lon="7.33319">
        <ele>455.445526</ele>
        <time>2011-11-19T08:40:32Z</time>
      </trkpt>
      <trkpt lat="43.84167" lon="7.33302">
        <ele>454.445488</ele>
        <time>2011-11-19T08:40:38Z</time>
      </trkpt>
      <trkpt lat="43.84168" lon="7.33287">
        <ele>457.445461</ele>
        <time>2011-11-19T08:40:43Z</time>
      </trkpt>
      <trkpt lat="43.84166" lon="7.33271">
        <ele>458.445427</ele>
        <time>2011-11-19T08:40:49Z</time>
      </trkpt>
      <trkpt lat="43.84163" lon="7.33256">
        <ele>460.445389</ele>
        <time>2011-11-19T08:40:55Z</time>
      </trkpt>
      <trkpt lat="43.8416" lon="7.33239">
        <ele>460.445351</ele>
        <time>2011-11-19T08:41:02Z</time>
      </trkpt>
      <trkpt lat="43.84158" lon="7.3322">
        <ele>461.445305</ele>
        <time>2011-11-19T08:41:10Z</time>
      </trkpt>
      <trkpt lat="43.84159" lon="7.33206">
        <ele>462.445282</ele>
        <time>2011-11-19T08:41:17Z</time>
      </trkpt>
      <trkpt lat="43.84163" lon="7.33192">
        <ele>462.445255</ele>
        <time>2011-11-19T08:41:23Z</time>
      </trkpt>
      <trkpt lat="43.84165" lon="7.33174">
        <ele>462.445225</ele>
        <time>2011-11-19T08:41:30Z</time>
      </trkpt>
      <trkpt lat="43.84167" lon="7.33155">
        <ele>465.445183</ele>
        <time>2011-11-19T08:41:38Z</time>
      </trkpt>
      <trkpt lat="43.84177" lon="7.33151">
        <ele>466.44519</ele>
        <time>2011-11-19T08:41:44Z</time>
      </trkpt>
      <trkpt lat="43.84186" lon="7.33159">
        <ele>467.445213</ele>
        <time>2011-11-19T08:41:49Z</time>
      </trkpt>
      <trkpt lat="43.84193" lon="7.33168">
        <ele>469.445244</ele>
        <time>2011-11-19T08:41:54Z</time>
      </trkpt>
      <trkpt lat="43.842" lon="7.33179">
        <ele>472.445278</ele>
        <time>2011-11-19T08:42:00Z</time>
      </trkpt>
      <trkpt lat="43.84212" lon="7.33191">
        <ele>471.44532</ele>
        <time>2011-11-19T08:42:09Z</time>
      </trkpt>
      <trkpt lat="43.84221" lon="7.33189">
        <ele>470.445328</ele>
        <time>2011-11-19T08:42:14Z</time>
      </trkpt>
      <trkpt lat="43.84222" lon="7.33189">
        <ele>470.445328</ele>
        <time>2011-11-19T08:42:15Z</time>
      </trkpt>
      <trkpt lat="43.84232" lon="7.33181">
        <ele>471.445328</ele>
        <time>2011-11-19T08:42:20Z</time>
      </trkpt>
      <trkpt lat="43.84241" lon="7.33172">
        <ele>473.445316</ele>
        <time>2011-11-19T08:42:24Z</time>
      </trkpt>
      <trkpt lat="43.8425" lon="7.33163">
        <ele>473.445312</ele>
        <time>2011-11-19T08:42:27Z</time>
      </trkpt>
      <trkpt lat="43.84259" lon="7.33156">
        <ele>473.445312</ele>
        <time>2011-11-19T08:42:30Z</time>
      </trkpt>
      <trkpt lat="43.84269" lon="7.33153">
        <ele>474.445316</ele>
        <time>2011-11-19T08:42:33Z</time>
      </trkpt>
      <trkpt lat="43.84271" lon="7.33154">
        <ele>474.44532</ele>
        <time>2011-11-19T08:42:34Z</time>
      </trkpt>
      <trkpt lat="43.84279" lon="7.33161">
        <ele>477.445347</ele>
        <time>2011-11-19T08:42:38Z</time>
      </trkpt>
      <trkpt lat="43.84287" lon="7.33167">
        <ele>476.445374</ele>
        <time>2011-11-19T08:42:42Z</time>
      </trkpt>
      <trkpt lat="43.84297" lon="7.33169">
        <ele>477.445389</ele>
        <time>2011-11-19T08:42:46Z</time>
      </trkpt>
      <trkpt lat="43.84308" lon="7.33165">
        <ele>477.445389</ele>
        <time>2011-11-19T08:42:50Z</time>
      </trkpt>
      <trkpt lat="43.84319" lon="7.3316">
        <ele>477.445396</ele>
        <time>2011-11-19T08:42:54Z</time>
      </trkpt>
      <trkpt lat="43.8433" lon="7.33158">
        <ele>477.445412</ele>
        <time>2011-11-19T08:42:58Z</time>
      </trkpt>
      <trkpt lat="43.8434" lon="7.33159">
        <ele>477.445427</ele>
        <time>2011-11-19T08:43:02Z</time>
      </trkpt>
      <trkpt lat="43.8435" lon="7.33158">
        <ele>478.445435</ele>
        <time>2011-11-19T08:43:06Z</time>
      </trkpt>
      <trkpt lat="43.8436" lon="7.33155">
        <ele>478.445442</ele>
        <time>2011-11-19T08:43:10Z</time>
      </trkpt>
      <trkpt lat="43.84371" lon="7.33154">
        <ele>478.445457</ele>
        <time>2011-11-19T08:43:14Z</time>
      </trkpt>
      <trkpt lat="43.84381" lon="7.33152">
        <ele>478.445465</ele>
        <time>2011-11-19T08:43:18Z</time>
      </trkpt>
      <trkpt lat="43.8439" lon="7.33147">
        <ele>477.445465</ele>
        <time>2011-11-19T08:43:22Z</time>
      </trkpt>
      <trkpt lat="43.84392" lon="7.33146">
        <ele>478.445465</ele>
        <time>2011-11-19T08:43:23Z</time>
      </trkpt>
      <trkpt lat="43.84399" lon="7.33138">
        <ele>478.445457</ele>
        <time>2011-11-19T08:43:27Z</time>
      </trkpt>
      <trkpt lat="43.84407" lon="7.33126">
        <ele>479.445442</ele>
        <time>2011-11-19T08:43:32Z</time>
      </trkpt>
      <trkpt lat="43.84413" lon="7.33116">
        <ele>479.445431</ele>
        <time>2011-11-19T08:43:36Z</time>
      </trkpt>
      <trkpt lat="43.84419" lon="7.33106">
        <ele>479.445423</ele>
        <time>2011-11-19T08:43:40Z</time>
      </trkpt>
      <trkpt lat="43.84426" lon="7.33098">
        <ele>480.445412</ele>
        <time>2011-11-19T08:43:44Z</time>
      </trkpt>
      <trkpt lat="43.84434" lon="7.33089">
        <ele>485.445404</ele>
        <time>2011-11-19T08:43:48Z</time>
      </trkpt>
      <trkpt lat="43.84445" lon="7.33086">
        <ele>487.445412</ele>
        <time>2011-11-19T08:43:52Z</time>
      </trkpt>
      <trkpt lat="43.84455" lon="7.33087">
        <ele>487.445427</ele>
        <time>2011-11-19T08:43:56Z</time>
      </trkpt>
      <trkpt lat="43.84464" lon="7.33088">
        <ele>488.445442</ele>
        <time>2011-11-19T08:44:00Z</time>
      </trkpt>
      <trkpt lat="43.84473" lon="7.33084">
        <ele>490.445446</ele>
        <time>2011-11-19T08:44:05Z</time>
      </trkpt>
      <trkpt lat="43.84482" lon="7.33077">
        <ele>491.445442</ele>
        <time>2011-11-19T08:44:10Z</time>
      </trkpt>
      <trkpt lat="43.8449" lon="7.33068">
        <ele>493.445435</ele>
        <time>2011-11-19T08:44:15Z</time>
      </trkpt>
      <trkpt lat="43.84497" lon="7.33058">
        <ele>493.445427</ele>
        <time>2011-11-19T08:44:20Z</time>
      </trkpt>
      <trkpt lat="43.84505" lon="7.3305">
        <ele>493.445415</ele>
        <time>2011-11-19T08:44:25Z</time>
      </trkpt>
      <trkpt lat="43.84512" lon="7.33042">
        <ele>493.445408</ele>
        <time>2011-11-19T08:44:30Z</time>
      </trkpt>
      <trkpt lat="43.84518" lon="7.33032">
        <ele>492.445396</ele>
        <time>2011-11-19T08:44:35Z</time>
      </trkpt>
      <trkpt lat="43.84526" lon="7.33019">
        <ele>492.445381</ele>
        <time>2011-11-19T08:44:43Z</time>
      </trkpt>
      <trkpt lat="43.84531" lon="7.33007">
        <ele>492.445366</ele>
        <time>2011-11-19T08:44:50Z</time>
      </trkpt>
      <trkpt lat="43.84532" lon="7.32995">
        <ele>497.445339</ele>
        <time>2011-11-19T08:45:05Z</time>
      </trkpt>
      <trkpt lat="43.84539" lon="7.32986">
        <ele>498.445332</ele>
        <time>2011-11-19T08:45:35Z</time>
      </trkpt>
      <trkpt lat="43.84546" lon="7.32974">
        <ele>497.445316</ele>
        <time>2011-11-19T08:45:38Z</time>
      </trkpt>
      <trkpt lat="43.84552" lon="7.32963">
        <ele>496.445305</ele>
        <time>2011-11-19T08:45:40Z</time>
      </trkpt>
      <trkpt lat="43.84561" lon="7.32952">
        <ele>496.44529</ele>
        <time>2011-11-19T08:45:42Z</time>
      </trkpt>
      <trkpt lat="43.84569" lon="7.32941">
        <ele>495.445274</ele>
        <time>2011-11-19T08:45:44Z</time>
      </trkpt>
      <trkpt lat="43.84575" lon="7.32929">
        <ele>495.445259</ele>
        <time>2011-11-19T08:45:46Z</time>
      </trkpt>
      <trkpt lat="43.84583" lon="7.32915">
        <ele>495.44524</ele>
        <time>2011-11-19T08:45:49Z</time>
      </trkpt>
      <trkpt lat="43.84596" lon="7.3291">
        <ele>494.445248</ele>
        <time>2011-11-19T08:45:52Z</time>
      </trkpt>
      <trkpt lat="43.84607" lon="7.32912">
        <ele>494.445267</ele>
        <time>2011-11-19T08:45:54Z</time>
      </trkpt>
      <trkpt lat="43.84614" lon="7.32914">
        <ele>494.445282</ele>
        <time>2011-11-19T08:45:55Z</time>
      </trkpt>
      <trkpt lat="43.84627" lon="7.32922">
        <ele>494.445312</ele>
        <time>2011-11-19T08:45:57Z</time>
      </trkpt>
      <trkpt lat="43.84641" lon="7.32932">
        <ele>494.445358</ele>
        <time>2011-11-19T08:45:59Z</time>
      </trkpt>
      <trkpt lat="43.84655" lon="7.3294">
        <ele>494.445389</ele>
        <time>2011-11-19T08:46:01Z</time>
      </trkpt>
      <trkpt lat="43.84669" lon="7.32947">
        <ele>493.445419</ele>
        <time>2011-11-19T08:46:03Z</time>
      </trkpt>
      <trkpt lat="43.84682" lon="7.32954">
        <ele>493.445457</ele>
        <time>2011-11-19T08:46:05Z</time>
      </trkpt>
      <trkpt lat="43.84693" lon="7.32962">
        <ele>493.445488</ele>
        <time>2011-11-19T08:46:07Z</time>
      </trkpt>
      <trkpt lat="43.84702" lon="7.32972">
        <ele>492.445518</ele>
        <time>2011-11-19T08:46:09Z</time>
      </trkpt>
      <trkpt lat="43.84712" lon="7.32979">
        <ele>491.445549</ele>
        <time>2011-11-19T08:46:11Z</time>
      </trkpt>
      <trkpt lat="43.84721" lon="7.32986">
        <ele>490.445576</ele>
        <time>2011-11-19T08:46:13Z</time>
      </trkpt>
      <trkpt lat="43.8473" lon="7.32989">
        <ele>490.445587</ele>
        <time>2011-11-19T08:46:15Z</time>
      </trkpt>
      <trkpt lat="43.8474" lon="7.32986">
        <ele>490.445602</ele>
        <time>2011-11-19T08:46:17Z</time>
      </trkpt>
      <trkpt lat="43.84749" lon="7.32979">
        <ele>490.445595</ele>
        <time>2011-11-19T08:46:19Z</time>
      </trkpt>
      <trkpt lat="43.84758" lon="7.32975">
        <ele>489.445602</ele>
        <time>2011-11-19T08:46:21Z</time>
      </trkpt>
      <trkpt lat="43.84768" lon="7.3298">
        <ele>488.445625</ele>
        <time>2011-11-19T08:46:24Z</time>
      </trkpt>
      <trkpt lat="43.84774" lon="7.32992">
        <ele>489.445656</ele>
        <time>2011-11-19T08:46:28Z</time>
      </trkpt>
      <trkpt lat="43.84776" lon="7.32998">
        <ele>488.445671</ele>
        <time>2011-11-19T08:46:31Z</time>
      </trkpt>
      <trkpt lat="43.84784" lon="7.33019">
        <ele>485.445724</ele>
        <time>2011-11-19T08:46:44Z</time>
      </trkpt>
      <trkpt lat="43.84788" lon="7.33032">
        <ele>484.445759</ele>
        <time>2011-11-19T08:46:51Z</time>
      </trkpt>
      <trkpt lat="43.84792" lon="7.33044">
        <ele>484.445786</ele>
        <time>2011-11-19T08:46:58Z</time>
      </trkpt>
      <trkpt lat="43.84799" lon="7.33053">
        <ele>483.445816</ele>
        <time>2011-11-19T08:47:04Z</time>
      </trkpt>
      <trkpt lat="43.84806" lon="7.33062">
        <ele>482.445847</ele>
        <time>2011-11-19T08:47:10Z</time>
      </trkpt>
      <trkpt lat="43.84814" lon="7.3307">
        <ele>481.445873</ele>
        <time>2011-11-19T08:47:15Z</time>
      </trkpt>
      <trkpt lat="43.84823" lon="7.3308">
        <ele>482.4459</ele>
        <time>2011-11-19T08:47:21Z</time>
      </trkpt>
      <trkpt lat="43.84839" lon="7.33091">
        <ele>484.445946</ele>
        <time>2011-11-19T08:47:30Z</time>
      </trkpt>
      <trkpt lat="43.84848" lon="7.33088">
        <ele>485.445953</ele>
        <time>2011-11-19T08:47:35Z</time>
      </trkpt>
      <trkpt lat="43.84856" lon="7.33081">
        <ele>487.445946</ele>
        <time>2011-11-19T08:47:40Z</time>
      </trkpt>
      <trkpt lat="43.84864" lon="7.33072">
        <ele>486.445942</ele>
        <time>2011-11-19T08:47:45Z</time>
      </trkpt>
      <trkpt lat="43.84871" lon="7.33061">
        <ele>486.44593</ele>
        <time>2011-11-19T08:47:51Z</time>
      </trkpt>
      <trkpt lat="43.84879" lon="7.3305">
        <ele>487.445919</ele>
        <time>2011-11-19T08:47:57Z</time>
      </trkpt>
      <trkpt lat="43.84891" lon="7.33032">
        <ele>488.445892</ele>
        <time>2011-11-19T08:48:07Z</time>
      </trkpt>
      <trkpt lat="43.849" lon="7.33021">
        <ele>488.445885</ele>
        <time>2011-11-19T08:48:14Z</time>
      </trkpt>
      <trkpt lat="43.8491" lon="7.3301">
        <ele>491.445877</ele>
        <time>2011-11-19T08:48:21Z</time>
      </trkpt>
      <trkpt lat="43.84918" lon="7.33002">
        <ele>492.445869</ele>
        <time>2011-11-19T08:48:27Z</time>
      </trkpt>
      <trkpt lat="43.84927" lon="7.32995">
        <ele>494.445869</ele>
        <time>2011-11-19T08:48:33Z</time>
      </trkpt>
      <trkpt lat="43.84935" lon="7.32989">
        <ele>497.445869</ele>
        <time>2011-11-19T08:48:39Z</time>
      </trkpt>
      <trkpt lat="43.84944" lon="7.32982">
        <ele>497.445862</ele>
        <time>2011-11-19T08:48:45Z</time>
      </trkpt>
      <trkpt lat="43.84953" lon="7.32976">
        <ele>498.445858</ele>
        <time>2011-11-19T08:48:51Z</time>
      </trkpt>
      <trkpt lat="43.84961" lon="7.32969">
        <ele>498.445858</ele>
        <time>2011-11-19T08:48:57Z</time>
      </trkpt>
      <trkpt lat="43.84969" lon="7.32963">
        <ele>500.445854</ele>
        <time>2011-11-19T08:49:03Z</time>
      </trkpt>
      <trkpt lat="43.84976" lon="7.32955">
        <ele>500.445854</ele>
        <time>2011-11-19T08:49:09Z</time>
      </trkpt>
      <trkpt lat="43.84984" lon="7.32947">
        <ele>499.445843</ele>
        <time>2011-11-19T08:49:15Z</time>
      </trkpt>
      <trkpt lat="43.84992" lon="7.32939">
        <ele>501.445835</ele>
        <time>2011-11-19T08:49:20Z</time>
      </trkpt>
      <trkpt lat="43.84999" lon="7.3293">
        <ele>502.445827</ele>
        <time>2011-11-19T08:49:25Z</time>
      </trkpt>
      <trkpt lat="43.85005" lon="7.3292">
        <ele>504.445816</ele>
        <time>2011-11-19T08:49:30Z</time>
      </trkpt>
      <trkpt lat="43.85013" lon="7.32901">
        <ele>504.445786</ele>
        <time>2011-11-19T08:49:37Z</time>
      </trkpt>
      <trkpt lat="43.85018" lon="7.32888">
        <ele>503.44577</ele>
        <time>2011-11-19T08:49:42Z</time>
      </trkpt>
      <trkpt lat="43.85024" lon="7.32875">
        <ele>504.445747</ele>
        <time>2011-11-19T08:49:47Z</time>
      </trkpt>
      <trkpt lat="43.85025" lon="7.32872">
        <ele>504.44574</ele>
        <time>2011-11-19T08:49:48Z</time>
      </trkpt>
      <trkpt lat="43.85033" lon="7.32861">
        <ele>505.445732</ele>
        <time>2011-11-19T08:49:52Z</time>
      </trkpt>
      <trkpt lat="43.85043" lon="7.32853">
        <ele>505.445724</ele>
        <time>2011-11-19T08:49:56Z</time>
      </trkpt>
      <trkpt lat="43.85052" lon="7.32854">
        <ele>505.44574</ele>
        <time>2011-11-19T08:50:00Z</time>
      </trkpt>
      <trkpt lat="43.85061" lon="7.32862">
        <ele>504.44577</ele>
        <time>2011-11-19T08:50:05Z</time>
      </trkpt>
      <trkpt lat="43.85068" lon="7.3287">
        <ele>505.445797</ele>
        <time>2011-11-19T08:50:10Z</time>
      </trkpt>
      <trkpt lat="43.85076" lon="7.32885">
        <ele>506.445839</ele>
        <time>2011-11-19T08:50:19Z</time>
      </trkpt>
      <trkpt lat="43.85083" lon="7.32896">
        <ele>508.445869</ele>
        <time>2011-11-19T08:50:26Z</time>
      </trkpt>
      <trkpt lat="43.85092" lon="7.32901">
        <ele>510.445892</ele>
        <time>2011-11-19T08:50:32Z</time>
      </trkpt>
      <trkpt lat="43.85102" lon="7.32902">
        <ele>509.445908</ele>
        <time>2011-11-19T08:50:38Z</time>
      </trkpt>
      <trkpt lat="43.85114" lon="7.32901">
        <ele>509.445923</ele>
        <time>2011-11-19T08:50:45Z</time>
      </trkpt>
      <trkpt lat="43.85124" lon="7.32897">
        <ele>510.445927</ele>
        <time>2011-11-19T08:50:51Z</time>
      </trkpt>
      <trkpt lat="43.85125" lon="7.32897">
        <ele>510.44593</ele>
        <time>2011-11-19T08:50:52Z</time>
      </trkpt>
      <trkpt lat="43.85135" lon="7.32891">
        <ele>510.445927</ele>
        <time>2011-11-19T08:50:58Z</time>
      </trkpt>
      <trkpt lat="43.85136" lon="7.32891">
        <ele>511.44593</ele>
        <time>2011-11-19T08:50:59Z</time>
      </trkpt>
      <trkpt lat="43.85145" lon="7.32885">
        <ele>512.44593</ele>
        <time>2011-11-19T08:51:05Z</time>
      </trkpt>
      <trkpt lat="43.85155" lon="7.32876">
        <ele>512.445923</ele>
        <time>2011-11-19T08:51:13Z</time>
      </trkpt>
      <trkpt lat="43.85162" lon="7.32867">
        <ele>514.445915</ele>
        <time>2011-11-19T08:51:20Z</time>
      </trkpt>
      <trkpt lat="43.85162" lon="7.32867">
        <ele>514.445915</ele>
        <time>2011-11-19T08:51:22Z</time>
      </trkpt>
      <trkpt lat="43.85169" lon="7.32858">
        <ele>515.445904</ele>
        <time>2011-11-19T08:51:27Z</time>
      </trkpt>
      <trkpt lat="43.85176" lon="7.3284">
        <ele>518.445877</ele>
        <time>2011-11-19T08:51:36Z</time>
      </trkpt>
      <trkpt lat="43.85179" lon="7.32827">
        <ele>518.445854</ele>
        <time>2011-11-19T08:51:42Z</time>
      </trkpt>
      <trkpt lat="43.85181" lon="7.32809">
        <ele>517.44582</ele>
        <time>2011-11-19T08:51:51Z</time>
      </trkpt>
      <trkpt lat="43.85182" lon="7.32792">
        <ele>519.445786</ele>
        <time>2011-11-19T08:51:58Z</time>
      </trkpt>
      <trkpt lat="43.85183" lon="7.3279">
        <ele>519.445782</ele>
        <time>2011-11-19T08:51:59Z</time>
      </trkpt>
      <trkpt lat="43.85183" lon="7.32777">
        <ele>521.445755</ele>
        <time>2011-11-19T08:52:04Z</time>
      </trkpt>
      <trkpt lat="43.85184" lon="7.32764">
        <ele>521.445732</ele>
        <time>2011-11-19T08:52:09Z</time>
      </trkpt>
      <trkpt lat="43.85184" lon="7.32749">
        <ele>519.445702</ele>
        <time>2011-11-19T08:52:15Z</time>
      </trkpt>
      <trkpt lat="43.85185" lon="7.32735">
        <ele>520.445671</ele>
        <time>2011-11-19T08:52:21Z</time>
      </trkpt>
      <trkpt lat="43.85185" lon="7.3272">
        <ele>523.445641</ele>
        <time>2011-11-19T08:52:27Z</time>
      </trkpt>
      <trkpt lat="43.85185" lon="7.32699">
        <ele>523.445595</ele>
        <time>2011-11-19T08:52:36Z</time>
      </trkpt>
      <trkpt lat="43.85184" lon="7.32687">
        <ele>524.445572</ele>
        <time>2011-11-19T08:52:42Z</time>
      </trkpt>
      <trkpt lat="43.85182" lon="7.32674">
        <ele>524.445541</ele>
        <time>2011-11-19T08:52:49Z</time>
      </trkpt>
      <trkpt lat="43.85182" lon="7.32672">
        <ele>524.445538</ele>
        <time>2011-11-19T08:52:50Z</time>
      </trkpt>
      <trkpt lat="43.85182" lon="7.32658">
        <ele>526.445507</ele>
        <time>2011-11-19T08:52:57Z</time>
      </trkpt>
      <trkpt lat="43.8518" lon="7.32646">
        <ele>530.44548</ele>
        <time>2011-11-19T08:53:03Z</time>
      </trkpt>
      <trkpt lat="43.85178" lon="7.3263">
        <ele>533.445442</ele>
        <time>2011-11-19T08:53:11Z</time>
      </trkpt>
      <trkpt lat="43.85174" lon="7.32616">
        <ele>536.445412</ele>
        <time>2011-11-19T08:53:18Z</time>
      </trkpt>
      <trkpt lat="43.85169" lon="7.32605">
        <ele>539.445381</ele>
        <time>2011-11-19T08:53:25Z</time>
      </trkpt>
      <trkpt lat="43.85166" lon="7.32592">
        <ele>540.445351</ele>
        <time>2011-11-19T08:53:32Z</time>
      </trkpt>
      <trkpt lat="43.85166" lon="7.32577">
        <ele>542.445316</ele>
        <time>2011-11-19T08:53:40Z</time>
      </trkpt>
      <trkpt lat="43.85167" lon="7.32562">
        <ele>544.445293</ele>
        <time>2011-11-19T08:53:47Z</time>
      </trkpt>
      <trkpt lat="43.85169" lon="7.3254">
        <ele>545.445251</ele>
        <time>2011-11-19T08:53:57Z</time>
      </trkpt>
      <trkpt lat="43.85173" lon="7.32522">
        <ele>546.445213</ele>
        <time>2011-11-19T08:54:06Z</time>
      </trkpt>
      <trkpt lat="43.85175" lon="7.32506">
        <ele>552.445183</ele>
        <time>2011-11-19T08:54:13Z</time>
      </trkpt>
      <trkpt lat="43.85175" lon="7.32492">
        <ele>556.445152</ele>
        <time>2011-11-19T08:54:19Z</time>
      </trkpt>
      <trkpt lat="43.85167" lon="7.32466">
        <ele>556.445091</ele>
        <time>2011-11-19T08:54:29Z</time>
      </trkpt>
      <trkpt lat="43.85159" lon="7.32457">
        <ele>557.445061</ele>
        <time>2011-11-19T08:54:34Z</time>
      </trkpt>
      <trkpt lat="43.85156" lon="7.32456">
        <ele>557.445053</ele>
        <time>2011-11-19T08:54:35Z</time>
      </trkpt>
      <trkpt lat="43.85147" lon="7.32454">
        <ele>555.445042</ele>
        <time>2011-11-19T08:54:39Z</time>
      </trkpt>
      <trkpt lat="43.85145" lon="7.32454">
        <ele>555.445038</ele>
        <time>2011-11-19T08:54:40Z</time>
      </trkpt>
      <trkpt lat="43.85135" lon="7.32455">
        <ele>555.445026</ele>
        <time>2011-11-19T08:54:44Z</time>
      </trkpt>
      <trkpt lat="43.85125" lon="7.32456">
        <ele>556.445015</ele>
        <time>2011-11-19T08:54:49Z</time>
      </trkpt>
      <trkpt lat="43.85111" lon="7.32449">
        <ele>556.444977</ele>
        <time>2011-11-19T08:54:58Z</time>
      </trkpt>
      <trkpt lat="43.85105" lon="7.3244">
        <ele>556.444954</ele>
        <time>2011-11-19T08:55:05Z</time>
      </trkpt>
      <trkpt lat="43.85098" lon="7.32431">
        <ele>557.444923</ele>
        <time>2011-11-19T08:55:11Z</time>
      </trkpt>
      <trkpt lat="43.85095" lon="7.32425">
        <ele>556.444908</ele>
        <time>2011-11-19T08:55:14Z</time>
      </trkpt>
      <trkpt lat="43.85087" lon="7.32416">
        <ele>558.444878</ele>
        <time>2011-11-19T08:55:21Z</time>
      </trkpt>
      <trkpt lat="43.85078" lon="7.32406">
        <ele>561.444847</ele>
        <time>2011-11-19T08:55:27Z</time>
      </trkpt>
      <trkpt lat="43.85071" lon="7.32399">
        <ele>561.444824</ele>
        <time>2011-11-19T08:55:32Z</time>
      </trkpt>
      <trkpt lat="43.85058" lon="7.32389">
        <ele>562.444786</ele>
        <time>2011-11-19T08:55:39Z</time>
      </trkpt>
      <trkpt lat="43.8505" lon="7.32383">
        <ele>562.444759</ele>
        <time>2011-11-19T08:55:44Z</time>
      </trkpt>
      <trkpt lat="43.85041" lon="7.32375">
        <ele>562.444729</ele>
        <time>2011-11-19T08:55:51Z</time>
      </trkpt>
      <trkpt lat="43.85033" lon="7.32366">
        <ele>564.444702</ele>
        <time>2011-11-19T08:55:58Z</time>
      </trkpt>
      <trkpt lat="43.8502" lon="7.32352">
        <ele>564.444656</ele>
        <time>2011-11-19T08:56:08Z</time>
      </trkpt>
      <trkpt lat="43.85013" lon="7.32341">
        <ele>566.444622</ele>
        <time>2011-11-19T08:56:15Z</time>
      </trkpt>
      <trkpt lat="43.85009" lon="7.32328">
        <ele>565.444595</ele>
        <time>2011-11-19T08:56:22Z</time>
      </trkpt>
      <trkpt lat="43.85008" lon="7.32313">
        <ele>566.444561</ele>
        <time>2011-11-19T08:56:29Z</time>
      </trkpt>
      <trkpt lat="43.85009" lon="7.32301">
        <ele>568.444534</ele>
        <time>2011-11-19T08:56:36Z</time>
      </trkpt>
      <trkpt lat="43.85012" lon="7.32285">
        <ele>568.444504</ele>
        <time>2011-11-19T08:56:45Z</time>
      </trkpt>
      <trkpt lat="43.85017" lon="7.32273">
        <ele>567.444489</ele>
        <time>2011-11-19T08:56:53Z</time>
      </trkpt>
      <trkpt lat="43.85021" lon="7.32262">
        <ele>567.444473</ele>
        <time>2011-11-19T08:57:00Z</time>
      </trkpt>
      <trkpt lat="43.85024" lon="7.32249">
        <ele>569.44445</ele>
        <time>2011-11-19T08:57:07Z</time>
      </trkpt>
      <trkpt lat="43.85024" lon="7.32249">
        <ele>569.44445</ele>
        <time>2011-11-19T08:57:08Z</time>
      </trkpt>
      <trkpt lat="43.85028" lon="7.32238">
        <ele>570.444427</ele>
        <time>2011-11-19T08:57:13Z</time>
      </trkpt>
      <trkpt lat="43.85029" lon="7.32236">
        <ele>569.444424</ele>
        <time>2011-11-19T08:57:14Z</time>
      </trkpt>
      <trkpt lat="43.85034" lon="7.32221">
        <ele>570.444405</ele>
        <time>2011-11-19T08:57:22Z</time>
      </trkpt>
      <trkpt lat="43.85039" lon="7.32209">
        <ele>571.444389</ele>
        <time>2011-11-19T08:57:29Z</time>
      </trkpt>
      <trkpt lat="43.85042" lon="7.32197">
        <ele>572.444366</ele>
        <time>2011-11-19T08:57:35Z</time>
      </trkpt>
      <trkpt lat="43.85044" lon="7.3218">
        <ele>576.444332</ele>
        <time>2011-11-19T08:57:43Z</time>
      </trkpt>
      <trkpt lat="43.85046" lon="7.32167">
        <ele>577.444305</ele>
        <time>2011-11-19T08:57:49Z</time>
      </trkpt>
      <trkpt lat="43.85045" lon="7.32153">
        <ele>579.444279</ele>
        <time>2011-11-19T08:57:56Z</time>
      </trkpt>
      <trkpt lat="43.85045" lon="7.32151">
        <ele>579.444275</ele>
        <time>2011-11-19T08:57:57Z</time>
      </trkpt>
      <trkpt lat="43.85046" lon="7.32137">
        <ele>581.444248</ele>
        <time>2011-11-19T08:58:05Z</time>
      </trkpt>
      <trkpt lat="43.85047" lon="7.32129">
        <ele>581.444229</ele>
        <time>2011-11-19T08:58:09Z</time>
      </trkpt>
      <trkpt lat="43.85045" lon="7.32111">
        <ele>585.444191</ele>
        <time>2011-11-19T08:58:18Z</time>
      </trkpt>
      <trkpt lat="43.85045" lon="7.32108">
        <ele>585.444187</ele>
        <time>2011-11-19T08:58:19Z</time>
      </trkpt>
      <trkpt lat="43.85046" lon="7.32089">
        <ele>587.444145</ele>
        <time>2011-11-19T08:58:29Z</time>
      </trkpt>
      <trkpt lat="43.85043" lon="7.32085">
        <ele>589.444134</ele>
        <time>2011-11-19T08:58:32Z</time>
      </trkpt>
      <trkpt lat="43.85035" lon="7.32092">
        <ele>592.444138</ele>
        <time>2011-11-19T08:58:41Z</time>
      </trkpt>
      <trkpt lat="43.85035" lon="7.32093">
        <ele>592.444141</ele>
        <time>2011-11-19T08:58:42Z</time>
      </trkpt>
      <trkpt lat="43.85033" lon="7.32107">
        <ele>594.444164</ele>
        <time>2011-11-19T08:58:49Z</time>
      </trkpt>
      <trkpt lat="43.85027" lon="7.32128">
        <ele>599.444202</ele>
        <time>2011-11-19T08:59:02Z</time>
      </trkpt>
      <trkpt lat="43.85017" lon="7.32147">
        <ele>598.444229</ele>
        <time>2011-11-19T08:59:15Z</time>
      </trkpt>
      <trkpt lat="43.85011" lon="7.32157">
        <ele>598.444241</ele>
        <time>2011-11-19T08:59:23Z</time>
      </trkpt>
      <trkpt lat="43.85004" lon="7.32168">
        <ele>602.444252</ele>
        <time>2011-11-19T08:59:33Z</time>
      </trkpt>
      <trkpt lat="43.84998" lon="7.32176">
        <ele>607.44426</ele>
        <time>2011-11-19T08:59:42Z</time>
      </trkpt>
      <trkpt lat="43.84991" lon="7.32184">
        <ele>608.444267</ele>
        <time>2011-11-19T08:59:51Z</time>
      </trkpt>
      <trkpt lat="43.84984" lon="7.32192">
        <ele>608.444279</ele>
        <time>2011-11-19T08:59:59Z</time>
      </trkpt>
      <trkpt lat="43.84976" lon="7.322">
        <ele>611.444283</ele>
        <time>2011-11-19T09:00:08Z</time>
      </trkpt>
      <trkpt lat="43.84974" lon="7.32203">
        <ele>611.444286</ele>
        <time>2011-11-19T09:00:10Z</time>
      </trkpt>
      <trkpt lat="43.84965" lon="7.32211">
        <ele>613.444294</ele>
        <time>2011-11-19T09:00:18Z</time>
      </trkpt>
      <trkpt lat="43.84959" lon="7.3222">
        <ele>612.444298</ele>
        <time>2011-11-19T09:00:23Z</time>
      </trkpt>
      <trkpt lat="43.84951" lon="7.32229">
        <ele>610.444313</ele>
        <time>2011-11-19T09:00:29Z</time>
      </trkpt>
      <trkpt lat="43.84942" lon="7.32236">
        <ele>610.444313</ele>
        <time>2011-11-19T09:00:36Z</time>
      </trkpt>
      <trkpt lat="43.8494" lon="7.32238">
        <ele>611.444313</ele>
        <time>2011-11-19T09:00:39Z</time>
      </trkpt>
      <trkpt lat="43.84929" lon="7.32244">
        <ele>612.444313</ele>
        <time>2011-11-19T09:00:49Z</time>
      </trkpt>
      <trkpt lat="43.8492" lon="7.32244">
        <ele>617.444302</ele>
        <time>2011-11-19T09:00:59Z</time>
      </trkpt>
      <trkpt lat="43.84911" lon="7.32243">
        <ele>619.444283</ele>
        <time>2011-11-19T09:01:08Z</time>
      </trkpt>
      <trkpt lat="43.84899" lon="7.32237">
        <ele>622.44426</ele>
        <time>2011-11-19T09:01:25Z</time>
      </trkpt>
      <trkpt lat="43.84891" lon="7.3223">
        <ele>624.444229</ele>
        <time>2011-11-19T09:01:34Z</time>
      </trkpt>
      <trkpt lat="43.84883" lon="7.32222">
        <ele>623.444202</ele>
        <time>2011-11-19T09:01:40Z</time>
      </trkpt>
      <trkpt lat="43.84875" lon="7.32215">
        <ele>622.444176</ele>
        <time>2011-11-19T09:01:45Z</time>
      </trkpt>
      <trkpt lat="43.84868" lon="7.32207">
        <ele>622.444153</ele>
        <time>2011-11-19T09:01:51Z</time>
      </trkpt>
      <trkpt lat="43.8486" lon="7.32199">
        <ele>622.444122</ele>
        <time>2011-11-19T09:01:57Z</time>
      </trkpt>
      <trkpt lat="43.84852" lon="7.32189">
        <ele>622.444096</ele>
        <time>2011-11-19T09:02:06Z</time>
      </trkpt>
      <trkpt lat="43.84846" lon="7.3218">
        <ele>623.444069</ele>
        <time>2011-11-19T09:02:13Z</time>
      </trkpt>
      <trkpt lat="43.84828" lon="7.32183">
        <ele>626.44405</ele>
        <time>2011-11-19T09:02:31Z</time>
      </trkpt>
      <trkpt lat="43.84825" lon="7.32186">
        <ele>626.44405</ele>
        <time>2011-11-19T09:02:33Z</time>
      </trkpt>
      <trkpt lat="43.84818" lon="7.32195">
        <ele>628.444061</ele>
        <time>2011-11-19T09:02:38Z</time>
      </trkpt>
      <trkpt lat="43.84811" lon="7.32205">
        <ele>628.444069</ele>
        <time>2011-11-19T09:02:42Z</time>
      </trkpt>
      <trkpt lat="43.84803" lon="7.32213">
        <ele>628.44408</ele>
        <time>2011-11-19T09:02:46Z</time>
      </trkpt>
      <trkpt lat="43.84796" lon="7.32221">
        <ele>629.444084</ele>
        <time>2011-11-19T09:02:50Z</time>
      </trkpt>
      <trkpt lat="43.84787" lon="7.3223">
        <ele>631.444092</ele>
        <time>2011-11-19T09:02:55Z</time>
      </trkpt>
      <trkpt lat="43.84777" lon="7.32236">
        <ele>633.444092</ele>
        <time>2011-11-19T09:03:00Z</time>
      </trkpt>
      <trkpt lat="43.84761" lon="7.32237">
        <ele>637.444073</ele>
        <time>2011-11-19T09:03:10Z</time>
      </trkpt>
      <trkpt lat="43.84748" lon="7.32224">
        <ele>639.444027</ele>
        <time>2011-11-19T09:03:21Z</time>
      </trkpt>
      <trkpt lat="43.84742" lon="7.32215">
        <ele>639.444</ele>
        <time>2011-11-19T09:03:27Z</time>
      </trkpt>
      <trkpt lat="43.84736" lon="7.32203">
        <ele>639.44397</ele>
        <time>2011-11-19T09:03:34Z</time>
      </trkpt>
      <trkpt lat="43.8473" lon="7.32192">
        <ele>642.443932</ele>
        <time>2011-11-19T09:03:41Z</time>
      </trkpt>
      <trkpt lat="43.84723" lon="7.32181">
        <ele>640.443905</ele>
        <time>2011-11-19T09:03:49Z</time>
      </trkpt>
      <trkpt lat="43.84717" lon="7.32172">
        <ele>639.443878</ele>
        <time>2011-11-19T09:03:58Z</time>
      </trkpt>
      <trkpt lat="43.84707" lon="7.32168">
        <ele>642.443855</ele>
        <time>2011-11-19T09:04:10Z</time>
      </trkpt>
      <trkpt lat="43.847" lon="7.32167">
        <ele>645.44384</ele>
        <time>2011-11-19T09:04:18Z</time>
      </trkpt>
      <trkpt lat="43.8469" lon="7.32164">
        <ele>646.443825</ele>
        <time>2011-11-19T09:04:23Z</time>
      </trkpt>
      <trkpt lat="43.84674" lon="7.32156">
        <ele>646.443787</ele>
        <time>2011-11-19T09:04:35Z</time>
      </trkpt>
      <trkpt lat="43.84672" lon="7.32155">
        <ele>646.443779</ele>
        <time>2011-11-19T09:04:36Z</time>
      </trkpt>
      <trkpt lat="43.84664" lon="7.32148">
        <ele>646.443756</ele>
        <time>2011-11-19T09:04:43Z</time>
      </trkpt>
      <trkpt lat="43.84674" lon="7.32148">
        <ele>650.443768</ele>
        <time>2011-11-19T09:04:57Z</time>
      </trkpt>
      <trkpt lat="43.84677" lon="7.32151">
        <ele>651.443779</ele>
        <time>2011-11-19T09:05:00Z</time>
      </trkpt>
      <trkpt lat="43.84687" lon="7.32155">
        <ele>649.443802</ele>
        <time>2011-11-19T09:05:09Z</time>
      </trkpt>
      <trkpt lat="43.84701" lon="7.32152">
        <ele>653.443817</ele>
        <time>2011-11-19T09:05:22Z</time>
      </trkpt>
      <trkpt lat="43.8471" lon="7.32149">
        <ele>652.443817</ele>
        <time>2011-11-19T09:05:30Z</time>
      </trkpt>
      <trkpt lat="43.84719" lon="7.32147">
        <ele>653.443829</ele>
        <time>2011-11-19T09:05:37Z</time>
      </trkpt>
      <trkpt lat="43.84723" lon="7.32148">
        <ele>655.443836</ele>
        <time>2011-11-19T09:05:40Z</time>
      </trkpt>
      <trkpt lat="43.84732" lon="7.32151">
        <ele>656.443855</ele>
        <time>2011-11-19T09:05:46Z</time>
      </trkpt>
      <trkpt lat="43.84741" lon="7.32157">
        <ele>658.443878</ele>
        <time>2011-11-19T09:05:52Z</time>
      </trkpt>
      <trkpt lat="43.8475" lon="7.32164">
        <ele>661.443909</ele>
        <time>2011-11-19T09:05:58Z</time>
      </trkpt>
      <trkpt lat="43.84759" lon="7.32169">
        <ele>661.443924</ele>
        <time>2011-11-19T09:06:04Z</time>
      </trkpt>
      <trkpt lat="43.8477" lon="7.32171">
        <ele>663.443947</ele>
        <time>2011-11-19T09:06:10Z</time>
      </trkpt>
      <trkpt lat="43.84783" lon="7.32164">
        <ele>666.443947</ele>
        <time>2011-11-19T09:06:19Z</time>
      </trkpt>
      <trkpt lat="43.84786" lon="7.32152">
        <ele>666.443928</ele>
        <time>2011-11-19T09:06:25Z</time>
      </trkpt>
      <trkpt lat="43.84785" lon="7.32138">
        <ele>667.443897</ele>
        <time>2011-11-19T09:06:31Z</time>
      </trkpt>
      <trkpt lat="43.84786" lon="7.32118">
        <ele>667.443859</ele>
        <time>2011-11-19T09:06:41Z</time>
      </trkpt>
      <trkpt lat="43.84787" lon="7.32115">
        <ele>667.443855</ele>
        <time>2011-11-19T09:06:43Z</time>
      </trkpt>
      <trkpt lat="43.84795" lon="7.32108">
        <ele>669.443851</ele>
        <time>2011-11-19T09:06:51Z</time>
      </trkpt>
      <trkpt lat="43.84805" lon="7.32106">
        <ele>672.443859</ele>
        <time>2011-11-19T09:06:57Z</time>
      </trkpt>
      <trkpt lat="43.84814" lon="7.32104">
        <ele>674.443867</ele>
        <time>2011-11-19T09:07:02Z</time>
      </trkpt>
      <trkpt lat="43.84823" lon="7.32102">
        <ele>676.443871</ele>
        <time>2011-11-19T09:07:08Z</time>
      </trkpt>
      <trkpt lat="43.84833" lon="7.32101">
        <ele>678.443882</ele>
        <time>2011-11-19T09:07:15Z</time>
      </trkpt>
      <trkpt lat="43.84844" lon="7.32103">
        <ele>680.443905</ele>
        <time>2011-11-19T09:07:22Z</time>
      </trkpt>
      <trkpt lat="43.84853" lon="7.32105">
        <ele>680.44392</ele>
        <time>2011-11-19T09:07:28Z</time>
      </trkpt>
      <trkpt lat="43.84856" lon="7.32106">
        <ele>680.443932</ele>
        <time>2011-11-19T09:07:30Z</time>
      </trkpt>
      <trkpt lat="43.84866" lon="7.32109">
        <ele>681.443947</ele>
        <time>2011-11-19T09:07:36Z</time>
      </trkpt>
      <trkpt lat="43.84876" lon="7.32112">
        <ele>684.443962</ele>
        <time>2011-11-19T09:07:42Z</time>
      </trkpt>
      <trkpt lat="43.84886" lon="7.32113">
        <ele>683.443985</ele>
        <time>2011-11-19T09:07:48Z</time>
      </trkpt>
      <trkpt lat="43.8489" lon="7.32114">
        <ele>683.443985</ele>
        <time>2011-11-19T09:07:50Z</time>
      </trkpt>
      <trkpt lat="43.849" lon="7.32113">
        <ele>686.444</ele>
        <time>2011-11-19T09:07:56Z</time>
      </trkpt>
      <trkpt lat="43.84909" lon="7.3211">
        <ele>687.444008</ele>
        <time>2011-11-19T09:08:02Z</time>
      </trkpt>
      <trkpt lat="43.84918" lon="7.32105">
        <ele>688.444008</ele>
        <time>2011-11-19T09:08:09Z</time>
      </trkpt>
      <trkpt lat="43.84925" lon="7.32097">
        <ele>688.444</ele>
        <time>2011-11-19T09:08:17Z</time>
      </trkpt>
      <trkpt lat="43.84926" lon="7.32096">
        <ele>688.444</ele>
        <time>2011-11-19T09:08:18Z</time>
      </trkpt>
      <trkpt lat="43.84914" lon="7.32088">
        <ele>690.44397</ele>
        <time>2011-11-19T09:08:32Z</time>
      </trkpt>
      <trkpt lat="43.84905" lon="7.32087">
        <ele>690.443954</ele>
        <time>2011-11-19T09:08:39Z</time>
      </trkpt>
      <trkpt lat="43.84896" lon="7.32084">
        <ele>690.443932</ele>
        <time>2011-11-19T09:08:45Z</time>
      </trkpt>
      <trkpt lat="43.84886" lon="7.32079">
        <ele>692.443909</ele>
        <time>2011-11-19T09:08:52Z</time>
      </trkpt>
      <trkpt lat="43.84882" lon="7.32077">
        <ele>692.443901</ele>
        <time>2011-11-19T09:08:55Z</time>
      </trkpt>
      <trkpt lat="43.84867" lon="7.32067">
        <ele>694.443863</ele>
        <time>2011-11-19T09:09:03Z</time>
      </trkpt>
      <trkpt lat="43.84866" lon="7.32065">
        <ele>694.443855</ele>
        <time>2011-11-19T09:09:08Z</time>
      </trkpt>
      <trkpt lat="43.84857" lon="7.32062">
        <ele>694.443832</ele>
        <time>2011-11-19T09:09:12Z</time>
      </trkpt>
      <trkpt lat="43.84848" lon="7.32059">
        <ele>695.443817</ele>
        <time>2011-11-19T09:09:19Z</time>
      </trkpt>
      <trkpt lat="43.8483" lon="7.32052">
        <ele>696.443779</ele>
        <time>2011-11-19T09:09:34Z</time>
      </trkpt>
      <trkpt lat="43.8482" lon="7.32049">
        <ele>699.443764</ele>
        <time>2011-11-19T09:09:41Z</time>
      </trkpt>
      <trkpt lat="43.84809" lon="7.32049">
        <ele>700.443745</ele>
        <time>2011-11-19T09:09:49Z</time>
      </trkpt>
      <trkpt lat="43.84797" lon="7.32049">
        <ele>702.443729</ele>
        <time>2011-11-19T09:09:58Z</time>
      </trkpt>
      <trkpt lat="43.84788" lon="7.32052">
        <ele>704.443726</ele>
        <time>2011-11-19T09:10:06Z</time>
      </trkpt>
      <trkpt lat="43.84786" lon="7.32052">
        <ele>704.443722</ele>
        <time>2011-11-19T09:10:08Z</time>
      </trkpt>
      <trkpt lat="43.84773" lon="7.32056">
        <ele>707.44371</ele>
        <time>2011-11-19T09:10:18Z</time>
      </trkpt>
      <trkpt lat="43.84768" lon="7.32056">
        <ele>708.443703</ele>
        <time>2011-11-19T09:10:21Z</time>
      </trkpt>
      <trkpt lat="43.84755" lon="7.32053">
        <ele>709.44368</ele>
        <time>2011-11-19T09:10:31Z</time>
      </trkpt>
      <trkpt lat="43.84745" lon="7.32048">
        <ele>708.443657</ele>
        <time>2011-11-19T09:10:38Z</time>
      </trkpt>
      <trkpt lat="43.84735" lon="7.32042">
        <ele>708.443634</ele>
        <time>2011-11-19T09:10:46Z</time>
      </trkpt>
      <trkpt lat="43.84726" lon="7.32041">
        <ele>709.443615</ele>
        <time>2011-11-19T09:10:54Z</time>
      </trkpt>
      <trkpt lat="43.84717" lon="7.32043">
        <ele>710.443611</ele>
        <time>2011-11-19T09:11:01Z</time>
      </trkpt>
      <trkpt lat="43.84707" lon="7.32041">
        <ele>712.443596</ele>
        <time>2011-11-19T09:11:09Z</time>
      </trkpt>
      <trkpt lat="43.84712" lon="7.3203">
        <ele>715.443581</ele>
        <time>2011-11-19T09:11:19Z</time>
      </trkpt>
      <trkpt lat="43.84722" lon="7.32029">
        <ele>716.443588</ele>
        <time>2011-11-19T09:11:24Z</time>
      </trkpt>
      <trkpt lat="43.84731" lon="7.32029">
        <ele>717.4436</ele>
        <time>2011-11-19T09:11:29Z</time>
      </trkpt>
      <trkpt lat="43.84741" lon="7.32031">
        <ele>717.443619</ele>
        <time>2011-11-19T09:11:34Z</time>
      </trkpt>
      <trkpt lat="43.8475" lon="7.32034">
        <ele>717.443634</ele>
        <time>2011-11-19T09:11:39Z</time>
      </trkpt>
      <trkpt lat="43.84759" lon="7.32038">
        <ele>719.443657</ele>
        <time>2011-11-19T09:11:45Z</time>
      </trkpt>
      <trkpt lat="43.84769" lon="7.32038">
        <ele>719.443672</ele>
        <time>2011-11-19T09:11:51Z</time>
      </trkpt>
      <trkpt lat="43.84779" lon="7.32034">
        <ele>720.443676</ele>
        <time>2011-11-19T09:11:58Z</time>
      </trkpt>
      <trkpt lat="43.8478" lon="7.32034">
        <ele>720.443672</ele>
        <time>2011-11-19T09:11:59Z</time>
      </trkpt>
      <trkpt lat="43.84789" lon="7.32027">
        <ele>724.443672</ele>
        <time>2011-11-19T09:12:05Z</time>
      </trkpt>
      <trkpt lat="43.84798" lon="7.3202">
        <ele>726.443668</ele>
        <time>2011-11-19T09:12:11Z</time>
      </trkpt>
      <trkpt lat="43.84807" lon="7.32013">
        <ele>726.443672</ele>
        <time>2011-11-19T09:12:17Z</time>
      </trkpt>
      <trkpt lat="43.84816" lon="7.32008">
        <ele>725.443668</ele>
        <time>2011-11-19T09:12:23Z</time>
      </trkpt>
      <trkpt lat="43.84826" lon="7.32004">
        <ele>726.443676</ele>
        <time>2011-11-19T09:12:29Z</time>
      </trkpt>
      <trkpt lat="43.84835" lon="7.32002">
        <ele>728.443684</ele>
        <time>2011-11-19T09:12:34Z</time>
      </trkpt>
      <trkpt lat="43.84843" lon="7.31993">
        <ele>730.443676</ele>
        <time>2011-11-19T09:12:39Z</time>
      </trkpt>
      <trkpt lat="43.84842" lon="7.31977">
        <ele>731.443642</ele>
        <time>2011-11-19T09:12:43Z</time>
      </trkpt>
      <trkpt lat="43.84835" lon="7.3196">
        <ele>734.443596</ele>
        <time>2011-11-19T09:12:49Z</time>
      </trkpt>
      <trkpt lat="43.84829" lon="7.3195">
        <ele>735.443569</ele>
        <time>2011-11-19T09:12:53Z</time>
      </trkpt>
      <trkpt lat="43.84822" lon="7.3194">
        <ele>735.443539</ele>
        <time>2011-11-19T09:12:57Z</time>
      </trkpt>
      <trkpt lat="43.84815" lon="7.31932">
        <ele>737.443512</ele>
        <time>2011-11-19T09:13:01Z</time>
      </trkpt>
      <trkpt lat="43.84808" lon="7.31924">
        <ele>737.443481</ele>
        <time>2011-11-19T09:13:05Z</time>
      </trkpt>
      <trkpt lat="43.848" lon="7.31916">
        <ele>736.443459</ele>
        <time>2011-11-19T09:13:09Z</time>
      </trkpt>
      <trkpt lat="43.84793" lon="7.31906">
        <ele>736.443428</ele>
        <time>2011-11-19T09:13:13Z</time>
      </trkpt>
      <trkpt lat="43.84788" lon="7.319">
        <ele>736.443405</ele>
        <time>2011-11-19T09:13:16Z</time>
      </trkpt>
      <trkpt lat="43.8478" lon="7.31889">
        <ele>737.443375</ele>
        <time>2011-11-19T09:13:21Z</time>
      </trkpt>
      <trkpt lat="43.84774" lon="7.31879">
        <ele>737.443344</ele>
        <time>2011-11-19T09:13:27Z</time>
      </trkpt>
      <trkpt lat="43.84771" lon="7.31865">
        <ele>740.443314</ele>
        <time>2011-11-19T09:13:33Z</time>
      </trkpt>
      <trkpt lat="43.8477" lon="7.31852">
        <ele>741.443283</ele>
        <time>2011-11-19T09:13:38Z</time>
      </trkpt>
      <trkpt lat="43.84772" lon="7.31839">
        <ele>742.44326</ele>
        <time>2011-11-19T09:13:43Z</time>
      </trkpt>
      <trkpt lat="43.84773" lon="7.31825">
        <ele>742.44323</ele>
        <time>2011-11-19T09:13:49Z</time>
      </trkpt>
      <trkpt lat="43.84771" lon="7.31811">
        <ele>742.443199</ele>
        <time>2011-11-19T09:13:55Z</time>
      </trkpt>
      <trkpt lat="43.84765" lon="7.31799">
        <ele>742.443169</ele>
        <time>2011-11-19T09:14:02Z</time>
      </trkpt>
      <trkpt lat="43.8476" lon="7.31787">
        <ele>743.443138</ele>
        <time>2011-11-19T09:14:09Z</time>
      </trkpt>
      <trkpt lat="43.84757" lon="7.31774">
        <ele>747.443108</ele>
        <time>2011-11-19T09:14:15Z</time>
      </trkpt>
      <trkpt lat="43.84754" lon="7.31755">
        <ele>750.443062</ele>
        <time>2011-11-19T09:14:24Z</time>
      </trkpt>
      <trkpt lat="43.84755" lon="7.31739">
        <ele>752.443027</ele>
        <time>2011-11-19T09:14:30Z</time>
      </trkpt>
      <trkpt lat="43.84753" lon="7.31721">
        <ele>751.442986</ele>
        <time>2011-11-19T09:14:37Z</time>
      </trkpt>
      <trkpt lat="43.84748" lon="7.31696">
        <ele>753.442928</ele>
        <time>2011-11-19T09:14:48Z</time>
      </trkpt>
      <trkpt lat="43.84742" lon="7.31678">
        <ele>754.442886</ele>
        <time>2011-11-19T09:14:57Z</time>
      </trkpt>
      <trkpt lat="43.8474" lon="7.31671">
        <ele>753.442867</ele>
        <time>2011-11-19T09:15:01Z</time>
      </trkpt>
      <trkpt lat="43.8474" lon="7.31658">
        <ele>758.442841</ele>
        <time>2011-11-19T09:15:09Z</time>
      </trkpt>
      <trkpt lat="43.84741" lon="7.31656">
        <ele>759.442841</ele>
        <time>2011-11-19T09:15:10Z</time>
      </trkpt>
      <trkpt lat="43.84743" lon="7.31639">
        <ele>764.442806</ele>
        <time>2011-11-19T09:15:21Z</time>
      </trkpt>
      <trkpt lat="43.84745" lon="7.31626">
        <ele>766.442783</ele>
        <time>2011-11-19T09:15:32Z</time>
      </trkpt>
      <trkpt lat="43.84745" lon="7.31622">
        <ele>767.442772</ele>
        <time>2011-11-19T09:15:38Z</time>
      </trkpt>
      <trkpt lat="43.84736" lon="7.31618">
        <ele>769.442749</ele>
        <time>2011-11-19T09:16:43Z</time>
      </trkpt>
      <trkpt lat="43.84735" lon="7.31619">
        <ele>768.442757</ele>
        <time>2011-11-19T09:16:44Z</time>
      </trkpt>
      <trkpt lat="43.84765" lon="7.31639">
        <ele>769.442833</ele>
        <time>2011-11-19T09:17:14Z</time>
      </trkpt>
      <trkpt lat="43.84776" lon="7.31639">
        <ele>771.442856</ele>
        <time>2011-11-19T09:17:17Z</time>
      </trkpt>
      <trkpt lat="43.84786" lon="7.3164">
        <ele>773.442863</ele>
        <time>2011-11-19T09:17:19Z</time>
      </trkpt>
      <trkpt lat="43.84795" lon="7.31642">
        <ele>775.442886</ele>
        <time>2011-11-19T09:17:21Z</time>
      </trkpt>
      <trkpt lat="43.84807" lon="7.31644">
        <ele>777.442902</ele>
        <time>2011-11-19T09:17:24Z</time>
      </trkpt>
      <trkpt lat="43.84816" lon="7.31644">
        <ele>778.442913</ele>
        <time>2011-11-19T09:17:27Z</time>
      </trkpt>
      <trkpt lat="43.84826" lon="7.31642">
        <ele>778.442924</ele>
        <time>2011-11-19T09:17:30Z</time>
      </trkpt>
      <trkpt lat="43.84834" lon="7.3164">
        <ele>777.442928</ele>
        <time>2011-11-19T09:17:33Z</time>
      </trkpt>
      <trkpt lat="43.84845" lon="7.31638">
        <ele>777.44294</ele>
        <time>2011-11-19T09:17:37Z</time>
      </trkpt>
      <trkpt lat="43.84855" lon="7.31635">
        <ele>776.442947</ele>
        <time>2011-11-19T09:17:41Z</time>
      </trkpt>
      <trkpt lat="43.84867" lon="7.31633">
        <ele>776.442959</ele>
        <time>2011-11-19T09:17:45Z</time>
      </trkpt>
      <trkpt lat="43.84877" lon="7.31632">
        <ele>776.44297</ele>
        <time>2011-11-19T09:17:49Z</time>
      </trkpt>
      <trkpt lat="43.84888" lon="7.31633">
        <ele>776.442989</ele>
        <time>2011-11-19T09:17:53Z</time>
      </trkpt>
      <trkpt lat="43.84898" lon="7.31633">
        <ele>777.443001</ele>
        <time>2011-11-19T09:17:57Z</time>
      </trkpt>
      <trkpt lat="43.84902" lon="7.31631">
        <ele>778.443001</ele>
        <time>2011-11-19T09:17:59Z</time>
      </trkpt>
      <trkpt lat="43.84912" lon="7.31626">
        <ele>779.443008</ele>
        <time>2011-11-19T09:18:03Z</time>
      </trkpt>
      <trkpt lat="43.84914" lon="7.31625">
        <ele>780.443008</ele>
        <time>2011-11-19T09:18:04Z</time>
      </trkpt>
      <trkpt lat="43.84925" lon="7.31621">
        <ele>779.443008</ele>
        <time>2011-11-19T09:18:08Z</time>
      </trkpt>
      <trkpt lat="43.84935" lon="7.31617">
        <ele>779.44302</ele>
        <time>2011-11-19T09:18:11Z</time>
      </trkpt>
      <trkpt lat="43.84939" lon="7.31616">
        <ele>779.443024</ele>
        <time>2011-11-19T09:18:12Z</time>
      </trkpt>
      <trkpt lat="43.84948" lon="7.31612">
        <ele>779.443027</ele>
        <time>2011-11-19T09:18:15Z</time>
      </trkpt>
      <trkpt lat="43.84958" lon="7.31607">
        <ele>777.443027</ele>
        <time>2011-11-19T09:18:18Z</time>
      </trkpt>
      <trkpt lat="43.8497" lon="7.31598">
        <ele>775.443027</ele>
        <time>2011-11-19T09:18:21Z</time>
      </trkpt>
      <trkpt lat="43.84979" lon="7.31591">
        <ele>774.443024</ele>
        <time>2011-11-19T09:18:23Z</time>
      </trkpt>
      <trkpt lat="43.84988" lon="7.31586">
        <ele>774.443027</ele>
        <time>2011-11-19T09:18:25Z</time>
      </trkpt>
      <trkpt lat="43.84992" lon="7.31584">
        <ele>774.443024</ele>
        <time>2011-11-19T09:18:26Z</time>
      </trkpt>
      <trkpt lat="43.85003" lon="7.31581">
        <ele>773.443031</ele>
        <time>2011-11-19T09:18:29Z</time>
      </trkpt>
      <trkpt lat="43.85013" lon="7.31572">
        <ele>770.443031</ele>
        <time>2011-11-19T09:18:33Z</time>
      </trkpt>
      <trkpt lat="43.85022" lon="7.31567">
        <ele>770.443031</ele>
        <time>2011-11-19T09:18:36Z</time>
      </trkpt>
      <trkpt lat="43.85032" lon="7.31565">
        <ele>770.443039</ele>
        <time>2011-11-19T09:18:39Z</time>
      </trkpt>
      <trkpt lat="43.85035" lon="7.31566">
        <ele>770.443047</ele>
        <time>2011-11-19T09:18:40Z</time>
      </trkpt>
      <trkpt lat="43.85046" lon="7.31572">
        <ele>771.443069</ele>
        <time>2011-11-19T09:18:43Z</time>
      </trkpt>
      <trkpt lat="43.85056" lon="7.31581">
        <ele>770.443108</ele>
        <time>2011-11-19T09:18:46Z</time>
      </trkpt>
      <trkpt lat="43.85066" lon="7.3159">
        <ele>768.443138</ele>
        <time>2011-11-19T09:18:49Z</time>
      </trkpt>
      <trkpt lat="43.85074" lon="7.31602">
        <ele>769.443172</ele>
        <time>2011-11-19T09:18:52Z</time>
      </trkpt>
      <trkpt lat="43.85081" lon="7.31613">
        <ele>769.443207</ele>
        <time>2011-11-19T09:18:55Z</time>
      </trkpt>
      <trkpt lat="43.85088" lon="7.31621">
        <ele>769.44323</ele>
        <time>2011-11-19T09:18:58Z</time>
      </trkpt>
      <trkpt lat="43.85091" lon="7.31638">
        <ele>769.443268</ele>
        <time>2011-11-19T09:19:02Z</time>
      </trkpt>
      <trkpt lat="43.85093" lon="7.31655">
        <ele>769.44331</ele>
        <time>2011-11-19T09:19:05Z</time>
      </trkpt>
      <trkpt lat="43.85095" lon="7.31661">
        <ele>769.443321</ele>
        <time>2011-11-19T09:19:06Z</time>
      </trkpt>
      <trkpt lat="43.85099" lon="7.31674">
        <ele>770.443359</ele>
        <time>2011-11-19T09:19:08Z</time>
      </trkpt>
      <trkpt lat="43.85105" lon="7.31683">
        <ele>771.443386</ele>
        <time>2011-11-19T09:19:10Z</time>
      </trkpt>
      <trkpt lat="43.85115" lon="7.31689">
        <ele>772.443409</ele>
        <time>2011-11-19T09:19:12Z</time>
      </trkpt>
      <trkpt lat="43.85125" lon="7.3169">
        <ele>771.44342</ele>
        <time>2011-11-19T09:19:14Z</time>
      </trkpt>
      <trkpt lat="43.85136" lon="7.31689">
        <ele>771.443436</ele>
        <time>2011-11-19T09:19:16Z</time>
      </trkpt>
      <trkpt lat="43.85145" lon="7.31684">
        <ele>770.443439</ele>
        <time>2011-11-19T09:19:18Z</time>
      </trkpt>
      <trkpt lat="43.85155" lon="7.31681">
        <ele>770.443451</ele>
        <time>2011-11-19T09:19:20Z</time>
      </trkpt>
      <trkpt lat="43.85167" lon="7.31678">
        <ele>770.443455</ele>
        <time>2011-11-19T09:19:23Z</time>
      </trkpt>
      <trkpt lat="43.85175" lon="7.31691">
        <ele>769.443497</ele>
        <time>2011-11-19T09:19:26Z</time>
      </trkpt>
      <trkpt lat="43.85181" lon="7.31706">
        <ele>769.443535</ele>
        <time>2011-11-19T09:19:29Z</time>
      </trkpt>
      <trkpt lat="43.85188" lon="7.3172">
        <ele>769.443569</ele>
        <time>2011-11-19T09:19:32Z</time>
      </trkpt>
      <trkpt lat="43.85194" lon="7.31734">
        <ele>768.443611</ele>
        <time>2011-11-19T09:19:35Z</time>
      </trkpt>
      <trkpt lat="43.85199" lon="7.31748">
        <ele>767.443645</ele>
        <time>2011-11-19T09:19:38Z</time>
      </trkpt>
      <trkpt lat="43.85203" lon="7.3176">
        <ele>765.443676</ele>
        <time>2011-11-19T09:19:41Z</time>
      </trkpt>
      <trkpt lat="43.85209" lon="7.3177">
        <ele>760.443703</ele>
        <time>2011-11-19T09:19:47Z</time>
      </trkpt>
      <trkpt lat="43.85219" lon="7.31773">
        <ele>758.443726</ele>
        <time>2011-11-19T09:19:50Z</time>
      </trkpt>
      <trkpt lat="43.85229" lon="7.31774">
        <ele>757.443737</ele>
        <time>2011-11-19T09:19:53Z</time>
      </trkpt>
      <trkpt lat="43.8524" lon="7.31772">
        <ele>755.443748</ele>
        <time>2011-11-19T09:19:56Z</time>
      </trkpt>
      <trkpt lat="43.8525" lon="7.3177">
        <ele>752.443756</ele>
        <time>2011-11-19T09:19:59Z</time>
      </trkpt>
      <trkpt lat="43.85261" lon="7.31769">
        <ele>750.443771</ele>
        <time>2011-11-19T09:20:02Z</time>
      </trkpt>
      <trkpt lat="43.85271" lon="7.31771">
        <ele>749.44379</ele>
        <time>2011-11-19T09:20:05Z</time>
      </trkpt>
      <trkpt lat="43.8528" lon="7.31777">
        <ele>749.443813</ele>
        <time>2011-11-19T09:20:08Z</time>
      </trkpt>
      <trkpt lat="43.85289" lon="7.31784">
        <ele>750.44384</ele>
        <time>2011-11-19T09:20:11Z</time>
      </trkpt>
      <trkpt lat="43.85298" lon="7.3179">
        <ele>751.443867</ele>
        <time>2011-11-19T09:20:13Z</time>
      </trkpt>
      <trkpt lat="43.85307" lon="7.31795">
        <ele>751.443886</ele>
        <time>2011-11-19T09:20:15Z</time>
      </trkpt>
      <trkpt lat="43.85319" lon="7.31802">
        <ele>752.443916</ele>
        <time>2011-11-19T09:20:18Z</time>
      </trkpt>
      <trkpt lat="43.8533" lon="7.31812">
        <ele>754.443951</ele>
        <time>2011-11-19T09:20:21Z</time>
      </trkpt>
      <trkpt lat="43.8534" lon="7.31824">
        <ele>754.443989</ele>
        <time>2011-11-19T09:20:24Z</time>
      </trkpt>
      <trkpt lat="43.85344" lon="7.31831">
        <ele>754.444012</ele>
        <time>2011-11-19T09:20:26Z</time>
      </trkpt>
      <trkpt lat="43.85353" lon="7.31839">
        <ele>754.444038</ele>
        <time>2011-11-19T09:20:29Z</time>
      </trkpt>
      <trkpt lat="43.85363" lon="7.31841">
        <ele>754.444061</ele>
        <time>2011-11-19T09:20:32Z</time>
      </trkpt>
      <trkpt lat="43.85374" lon="7.31841">
        <ele>754.444077</ele>
        <time>2011-11-19T09:20:35Z</time>
      </trkpt>
      <trkpt lat="43.85385" lon="7.31845">
        <ele>753.444096</ele>
        <time>2011-11-19T09:20:38Z</time>
      </trkpt>
      <trkpt lat="43.85389" lon="7.31847">
        <ele>753.444107</ele>
        <time>2011-11-19T09:20:39Z</time>
      </trkpt>
      <trkpt lat="43.854" lon="7.31854">
        <ele>753.44413</ele>
        <time>2011-11-19T09:20:42Z</time>
      </trkpt>
      <trkpt lat="43.85411" lon="7.3186">
        <ele>751.44416</ele>
        <time>2011-11-19T09:20:45Z</time>
      </trkpt>
      <trkpt lat="43.85422" lon="7.31867">
        <ele>749.444187</ele>
        <time>2011-11-19T09:20:48Z</time>
      </trkpt>
      <trkpt lat="43.85431" lon="7.31878">
        <ele>748.444225</ele>
        <time>2011-11-19T09:20:51Z</time>
      </trkpt>
      <trkpt lat="43.85437" lon="7.31892">
        <ele>747.44426</ele>
        <time>2011-11-19T09:20:54Z</time>
      </trkpt>
      <trkpt lat="43.85443" lon="7.31901">
        <ele>746.44429</ele>
        <time>2011-11-19T09:20:57Z</time>
      </trkpt>
      <trkpt lat="43.85452" lon="7.31909">
        <ele>745.444321</ele>
        <time>2011-11-19T09:21:00Z</time>
      </trkpt>
      <trkpt lat="43.85461" lon="7.31913">
        <ele>743.444336</ele>
        <time>2011-11-19T09:21:03Z</time>
      </trkpt>
      <trkpt lat="43.8547" lon="7.31922">
        <ele>742.444366</ele>
        <time>2011-11-19T09:21:07Z</time>
      </trkpt>
      <trkpt lat="43.85479" lon="7.31929">
        <ele>739.444389</ele>
        <time>2011-11-19T09:21:11Z</time>
      </trkpt>
      <trkpt lat="43.85489" lon="7.31932">
        <ele>737.444412</ele>
        <time>2011-11-19T09:21:15Z</time>
      </trkpt>
      <trkpt lat="43.85499" lon="7.3193">
        <ele>737.444424</ele>
        <time>2011-11-19T09:21:18Z</time>
      </trkpt>
      <trkpt lat="43.85506" lon="7.31928">
        <ele>737.444427</ele>
        <time>2011-11-19T09:21:20Z</time>
      </trkpt>
      <trkpt lat="43.85516" lon="7.31924">
        <ele>736.444435</ele>
        <time>2011-11-19T09:21:23Z</time>
      </trkpt>
      <trkpt lat="43.85526" lon="7.31919">
        <ele>734.444439</ele>
        <time>2011-11-19T09:21:26Z</time>
      </trkpt>
      <trkpt lat="43.85529" lon="7.31918">
        <ele>734.444439</ele>
        <time>2011-11-19T09:21:27Z</time>
      </trkpt>
      <trkpt lat="43.85538" lon="7.31912">
        <ele>734.444439</ele>
        <time>2011-11-19T09:21:30Z</time>
      </trkpt>
      <trkpt lat="43.85546" lon="7.31895">
        <ele>732.444416</ele>
        <time>2011-11-19T09:21:36Z</time>
      </trkpt>
      <trkpt lat="43.85561" lon="7.31886">
        <ele>730.444416</ele>
        <time>2011-11-19T09:21:42Z</time>
      </trkpt>
      <trkpt lat="43.85575" lon="7.31885">
        <ele>730.444427</ele>
        <time>2011-11-19T09:21:46Z</time>
      </trkpt>
      <trkpt lat="43.85586" lon="7.31885">
        <ele>730.444447</ele>
        <time>2011-11-19T09:21:49Z</time>
      </trkpt>
      <trkpt lat="43.856" lon="7.31886">
        <ele>731.444473</ele>
        <time>2011-11-19T09:21:55Z</time>
      </trkpt>
      <trkpt lat="43.85622" lon="7.31885">
        <ele>731.444496</ele>
        <time>2011-11-19T09:22:20Z</time>
      </trkpt>
      <trkpt lat="43.85633" lon="7.31889">
        <ele>730.444523</ele>
        <time>2011-11-19T09:22:23Z</time>
      </trkpt>
      <trkpt lat="43.85638" lon="7.31891">
        <ele>730.444527</ele>
        <time>2011-11-19T09:22:24Z</time>
      </trkpt>
      <trkpt lat="43.85647" lon="7.31891">
        <ele>730.444538</ele>
        <time>2011-11-19T09:22:26Z</time>
      </trkpt>
      <trkpt lat="43.85659" lon="7.31893">
        <ele>729.444557</ele>
        <time>2011-11-19T09:22:29Z</time>
      </trkpt>
      <trkpt lat="43.8567" lon="7.31898">
        <ele>728.444588</ele>
        <time>2011-11-19T09:22:32Z</time>
      </trkpt>
      <trkpt lat="43.85676" lon="7.31906">
        <ele>727.444614</ele>
        <time>2011-11-19T09:22:35Z</time>
      </trkpt>
      <trkpt lat="43.85673" lon="7.31922">
        <ele>724.444641</ele>
        <time>2011-11-19T09:22:38Z</time>
      </trkpt>
      <trkpt lat="43.85668" lon="7.31939">
        <ele>721.444668</ele>
        <time>2011-11-19T09:22:41Z</time>
      </trkpt>
      <trkpt lat="43.8567" lon="7.31954">
        <ele>720.444702</ele>
        <time>2011-11-19T09:22:44Z</time>
      </trkpt>
      <trkpt lat="43.85674" lon="7.31969">
        <ele>717.44474</ele>
        <time>2011-11-19T09:22:50Z</time>
      </trkpt>
      <trkpt lat="43.85675" lon="7.31972">
        <ele>717.444744</ele>
        <time>2011-11-19T09:22:51Z</time>
      </trkpt>
      <trkpt lat="43.85685" lon="7.31991">
        <ele>711.444798</ele>
        <time>2011-11-19T09:22:59Z</time>
      </trkpt>
      <trkpt lat="43.85709" lon="7.3201">
        <ele>704.44487</ele>
        <time>2011-11-19T09:23:33Z</time>
      </trkpt>
      <trkpt lat="43.85709" lon="7.3201">
        <ele>704.44487</ele>
        <time>2011-11-19T09:23:54Z</time>
      </trkpt>
      <trkpt lat="43.85719" lon="7.32017">
        <ele>694.444901</ele>
        <time>2011-11-19T09:25:11Z</time>
      </trkpt>
      <trkpt lat="43.8573" lon="7.32021">
        <ele>692.444923</ele>
        <time>2011-11-19T09:25:17Z</time>
      </trkpt>
      <trkpt lat="43.8574" lon="7.32022">
        <ele>691.444939</ele>
        <time>2011-11-19T09:25:21Z</time>
      </trkpt>
      <trkpt lat="43.85751" lon="7.32022">
        <ele>692.444954</ele>
        <time>2011-11-19T09:25:25Z</time>
      </trkpt>
      <trkpt lat="43.85762" lon="7.32026">
        <ele>694.444973</ele>
        <time>2011-11-19T09:25:29Z</time>
      </trkpt>
      <trkpt lat="43.85772" lon="7.32031">
        <ele>696.445</ele>
        <time>2011-11-19T09:25:33Z</time>
      </trkpt>
      <trkpt lat="43.85779" lon="7.32044">
        <ele>697.445034</ele>
        <time>2011-11-19T09:25:36Z</time>
      </trkpt>
      <trkpt lat="43.85784" lon="7.32052">
        <ele>698.445057</ele>
        <time>2011-11-19T09:25:38Z</time>
      </trkpt>
      <trkpt lat="43.85792" lon="7.32065">
        <ele>699.445095</ele>
        <time>2011-11-19T09:25:41Z</time>
      </trkpt>
      <trkpt lat="43.85801" lon="7.32075">
        <ele>699.445129</ele>
        <time>2011-11-19T09:25:44Z</time>
      </trkpt>
      <trkpt lat="43.85812" lon="7.32082">
        <ele>699.44516</ele>
        <time>2011-11-19T09:25:47Z</time>
      </trkpt>
      <trkpt lat="43.85824" lon="7.32084">
        <ele>699.445179</ele>
        <time>2011-11-19T09:25:50Z</time>
      </trkpt>
      <trkpt lat="43.85835" lon="7.32085">
        <ele>699.445198</ele>
        <time>2011-11-19T09:25:53Z</time>
      </trkpt>
      <trkpt lat="43.85848" lon="7.32087">
        <ele>699.445217</ele>
        <time>2011-11-19T09:25:56Z</time>
      </trkpt>
      <trkpt lat="43.8586" lon="7.32088">
        <ele>699.445236</ele>
        <time>2011-11-19T09:25:58Z</time>
      </trkpt>
      <trkpt lat="43.85872" lon="7.3209">
        <ele>698.445255</ele>
        <time>2011-11-19T09:26:00Z</time>
      </trkpt>
      <trkpt lat="43.85883" lon="7.32091">
        <ele>697.445274</ele>
        <time>2011-11-19T09:26:02Z</time>
      </trkpt>
      <trkpt lat="43.85893" lon="7.32089">
        <ele>696.445282</ele>
        <time>2011-11-19T09:26:04Z</time>
      </trkpt>
      <trkpt lat="43.85903" lon="7.32087">
        <ele>695.44529</ele>
        <time>2011-11-19T09:26:06Z</time>
      </trkpt>
      <trkpt lat="43.85914" lon="7.32083">
        <ele>696.445297</ele>
        <time>2011-11-19T09:26:09Z</time>
      </trkpt>
      <trkpt lat="43.85924" lon="7.32085">
        <ele>695.445312</ele>
        <time>2011-11-19T09:26:15Z</time>
      </trkpt>
      <trkpt lat="43.85935" lon="7.32088">
        <ele>693.445335</ele>
        <time>2011-11-19T09:26:19Z</time>
      </trkpt>
      <trkpt lat="43.85946" lon="7.32082">
        <ele>690.445335</ele>
        <time>2011-11-19T09:26:22Z</time>
      </trkpt>
      <trkpt lat="43.8595" lon="7.3208">
        <ele>689.445343</ele>
        <time>2011-11-19T09:26:23Z</time>
      </trkpt>
      <trkpt lat="43.85962" lon="7.32073">
        <ele>687.445339</ele>
        <time>2011-11-19T09:26:26Z</time>
      </trkpt>
      <trkpt lat="43.85973" lon="7.32065">
        <ele>686.445339</ele>
        <time>2011-11-19T09:26:29Z</time>
      </trkpt>
      <trkpt lat="43.85983" lon="7.32057">
        <ele>683.445335</ele>
        <time>2011-11-19T09:26:32Z</time>
      </trkpt>
      <trkpt lat="43.85993" lon="7.3205">
        <ele>681.445332</ele>
        <time>2011-11-19T09:26:35Z</time>
      </trkpt>
      <trkpt lat="43.86005" lon="7.32055">
        <ele>678.445358</ele>
        <time>2011-11-19T09:26:38Z</time>
      </trkpt>
      <trkpt lat="43.86014" lon="7.32059">
        <ele>676.445381</ele>
        <time>2011-11-19T09:26:41Z</time>
      </trkpt>
      <trkpt lat="43.86022" lon="7.32067">
        <ele>651.445412</ele>
        <time>2011-11-19T09:30:06Z</time>
      </trkpt>
      <trkpt lat="43.86025" lon="7.3208">
        <ele>652.445442</ele>
        <time>2011-11-19T09:30:11Z</time>
      </trkpt>
      <trkpt lat="43.86032" lon="7.3209">
        <ele>655.445465</ele>
        <time>2011-11-19T09:30:16Z</time>
      </trkpt>
      <trkpt lat="43.86034" lon="7.32103">
        <ele>655.445503</ele>
        <time>2011-11-19T09:30:23Z</time>
      </trkpt>
      <trkpt lat="43.8604" lon="7.32124">
        <ele>656.445549</ele>
        <time>2011-11-19T09:30:33Z</time>
      </trkpt>
      <trkpt lat="43.86041" lon="7.32136">
        <ele>656.445576</ele>
        <time>2011-11-19T09:30:38Z</time>
      </trkpt>
      <trkpt lat="43.86037" lon="7.32154">
        <ele>657.44561</ele>
        <time>2011-11-19T09:30:46Z</time>
      </trkpt>
      <trkpt lat="43.86036" lon="7.32156">
        <ele>657.44561</ele>
        <time>2011-11-19T09:30:47Z</time>
      </trkpt>
      <trkpt lat="43.86033" lon="7.32168">
        <ele>658.445633</ele>
        <time>2011-11-19T09:30:52Z</time>
      </trkpt>
      <trkpt lat="43.86032" lon="7.3217">
        <ele>657.445633</ele>
        <time>2011-11-19T09:30:53Z</time>
      </trkpt>
      <trkpt lat="43.86028" lon="7.32183">
        <ele>658.445656</ele>
        <time>2011-11-19T09:30:58Z</time>
      </trkpt>
      <trkpt lat="43.86028" lon="7.32185">
        <ele>659.445663</ele>
        <time>2011-11-19T09:30:59Z</time>
      </trkpt>
      <trkpt lat="43.86028" lon="7.32199">
        <ele>662.445686</ele>
        <time>2011-11-19T09:31:04Z</time>
      </trkpt>
      <trkpt lat="43.86032" lon="7.3221">
        <ele>664.445717</ele>
        <time>2011-11-19T09:31:09Z</time>
      </trkpt>
      <trkpt lat="43.8604" lon="7.32225">
        <ele>664.445759</ele>
        <time>2011-11-19T09:31:17Z</time>
      </trkpt>
      <trkpt lat="43.86047" lon="7.32235">
        <ele>662.445789</ele>
        <time>2011-11-19T09:31:28Z</time>
      </trkpt>
      <trkpt lat="43.86047" lon="7.32236">
        <ele>662.445793</ele>
        <time>2011-11-19T09:31:29Z</time>
      </trkpt>
      <trkpt lat="43.86049" lon="7.3225">
        <ele>663.445824</ele>
        <time>2011-11-19T09:31:37Z</time>
      </trkpt>
      <trkpt lat="43.86053" lon="7.32262">
        <ele>664.445854</ele>
        <time>2011-11-19T09:31:47Z</time>
      </trkpt>
      <trkpt lat="43.86058" lon="7.32275">
        <ele>667.445885</ele>
        <time>2011-11-19T09:31:56Z</time>
      </trkpt>
      <trkpt lat="43.86064" lon="7.32285">
        <ele>669.445915</ele>
        <time>2011-11-19T09:32:02Z</time>
      </trkpt>
      <trkpt lat="43.86064" lon="7.32285">
        <ele>669.445915</ele>
        <time>2011-11-19T09:32:05Z</time>
      </trkpt>
      <trkpt lat="43.86071" lon="7.32297">
        <ele>668.445953</ele>
        <time>2011-11-19T09:32:08Z</time>
      </trkpt>
      <trkpt lat="43.8608" lon="7.32319">
        <ele>667.446007</ele>
        <time>2011-11-19T09:32:19Z</time>
      </trkpt>
      <trkpt lat="43.86085" lon="7.3233">
        <ele>667.446037</ele>
        <time>2011-11-19T09:32:25Z</time>
      </trkpt>
      <trkpt lat="43.86091" lon="7.32341">
        <ele>668.446068</ele>
        <time>2011-11-19T09:32:32Z</time>
      </trkpt>
      <trkpt lat="43.86095" lon="7.32354">
        <ele>668.446098</ele>
        <time>2011-11-19T09:32:43Z</time>
      </trkpt>
      <trkpt lat="43.86097" lon="7.32368">
        <ele>672.446133</ele>
        <time>2011-11-19T09:32:55Z</time>
      </trkpt>
      <trkpt lat="43.86101" lon="7.3238">
        <ele>675.446163</ele>
        <time>2011-11-19T09:33:07Z</time>
      </trkpt>
      <trkpt lat="43.86104" lon="7.32393">
        <ele>678.446194</ele>
        <time>2011-11-19T09:33:25Z</time>
      </trkpt>
      <trkpt lat="43.86106" lon="7.32406">
        <ele>679.446224</ele>
        <time>2011-11-19T09:33:33Z</time>
      </trkpt>
      <trkpt lat="43.8611" lon="7.32425">
        <ele>680.44627</ele>
        <time>2011-11-19T09:33:44Z</time>
      </trkpt>
      <trkpt lat="43.86119" lon="7.32435">
        <ele>682.446297</ele>
        <time>2011-11-19T09:33:53Z</time>
      </trkpt>
      <trkpt lat="43.86127" lon="7.32442">
        <ele>679.446323</ele>
        <time>2011-11-19T09:34:00Z</time>
      </trkpt>
      <trkpt lat="43.86142" lon="7.32441">
        <ele>680.446342</ele>
        <time>2011-11-19T09:34:08Z</time>
      </trkpt>
      <trkpt lat="43.86151" lon="7.32437">
        <ele>683.446346</ele>
        <time>2011-11-19T09:34:13Z</time>
      </trkpt>
      <trkpt lat="43.86161" lon="7.32432">
        <ele>683.44635</ele>
        <time>2011-11-19T09:34:19Z</time>
      </trkpt>
      <trkpt lat="43.86171" lon="7.3243">
        <ele>685.446358</ele>
        <time>2011-11-19T09:34:25Z</time>
      </trkpt>
      <trkpt lat="43.8618" lon="7.32425">
        <ele>685.446365</ele>
        <time>2011-11-19T09:34:30Z</time>
      </trkpt>
      <trkpt lat="43.86184" lon="7.32422">
        <ele>685.446358</ele>
        <time>2011-11-19T09:34:33Z</time>
      </trkpt>
      <trkpt lat="43.86194" lon="7.32417">
        <ele>686.446362</ele>
        <time>2011-11-19T09:34:39Z</time>
      </trkpt>
      <trkpt lat="43.86202" lon="7.32411">
        <ele>689.446362</ele>
        <time>2011-11-19T09:34:45Z</time>
      </trkpt>
      <trkpt lat="43.8621" lon="7.32405">
        <ele>690.446358</ele>
        <time>2011-11-19T09:34:51Z</time>
      </trkpt>
      <trkpt lat="43.8621" lon="7.32405">
        <ele>690.446358</ele>
        <time>2011-11-19T09:34:54Z</time>
      </trkpt>
      <trkpt lat="43.86218" lon="7.32399">
        <ele>689.446358</ele>
        <time>2011-11-19T09:35:00Z</time>
      </trkpt>
      <trkpt lat="43.86227" lon="7.32394">
        <ele>689.446358</ele>
        <time>2011-11-19T09:35:06Z</time>
      </trkpt>
      <trkpt lat="43.86236" lon="7.32389">
        <ele>689.446362</ele>
        <time>2011-11-19T09:35:11Z</time>
      </trkpt>
      <trkpt lat="43.86242" lon="7.32386">
        <ele>690.446358</ele>
        <time>2011-11-19T09:35:14Z</time>
      </trkpt>
      <trkpt lat="43.86251" lon="7.32383">
        <ele>691.446373</ele>
        <time>2011-11-19T09:35:17Z</time>
      </trkpt>
      <trkpt lat="43.86263" lon="7.32381">
        <ele>692.446381</ele>
        <time>2011-11-19T09:35:21Z</time>
      </trkpt>
      <trkpt lat="43.86272" lon="7.32382">
        <ele>695.446392</ele>
        <time>2011-11-19T09:35:25Z</time>
      </trkpt>
      <trkpt lat="43.86282" lon="7.32383">
        <ele>697.446407</ele>
        <time>2011-11-19T09:35:30Z</time>
      </trkpt>
      <trkpt lat="43.86287" lon="7.32383">
        <ele>697.446415</ele>
        <time>2011-11-19T09:35:33Z</time>
      </trkpt>
      <trkpt lat="43.86298" lon="7.3238">
        <ele>698.446426</ele>
        <time>2011-11-19T09:35:39Z</time>
      </trkpt>
      <trkpt lat="43.86306" lon="7.32377">
        <ele>698.446434</ele>
        <time>2011-11-19T09:35:44Z</time>
      </trkpt>
      <trkpt lat="43.86315" lon="7.32375">
        <ele>700.446434</ele>
        <time>2011-11-19T09:35:50Z</time>
      </trkpt>
      <trkpt lat="43.86317" lon="7.32374">
        <ele>702.446442</ele>
        <time>2011-11-19T09:35:56Z</time>
      </trkpt>
      <trkpt lat="43.86324" lon="7.32366">
        <ele>702.446434</ele>
        <time>2011-11-19T09:36:05Z</time>
      </trkpt>
      <trkpt lat="43.86325" lon="7.32365">
        <ele>702.44643</ele>
        <time>2011-11-19T09:36:06Z</time>
      </trkpt>
      <trkpt lat="43.86332" lon="7.32356">
        <ele>703.446419</ele>
        <time>2011-11-19T09:36:14Z</time>
      </trkpt>
      <trkpt lat="43.86334" lon="7.32353">
        <ele>702.446419</ele>
        <time>2011-11-19T09:36:19Z</time>
      </trkpt>
      <trkpt lat="43.86341" lon="7.32344">
        <ele>704.446411</ele>
        <time>2011-11-19T09:36:25Z</time>
      </trkpt>
      <trkpt lat="43.86343" lon="7.32343">
        <ele>705.446411</ele>
        <time>2011-11-19T09:36:27Z</time>
      </trkpt>
      <trkpt lat="43.86352" lon="7.32344">
        <ele>706.446419</ele>
        <time>2011-11-19T09:36:49Z</time>
      </trkpt>
      <trkpt lat="43.86361" lon="7.32343">
        <ele>696.446434</ele>
        <time>2011-11-19T09:37:30Z</time>
      </trkpt>
      <trkpt lat="43.8637" lon="7.32333">
        <ele>699.446423</ele>
        <time>2011-11-19T09:37:41Z</time>
      </trkpt>
      <trkpt lat="43.8637" lon="7.32332">
        <ele>699.446423</ele>
        <time>2011-11-19T09:37:42Z</time>
      </trkpt>
      <trkpt lat="43.86379" lon="7.32326">
        <ele>700.446426</ele>
        <time>2011-11-19T09:37:56Z</time>
      </trkpt>
      <trkpt lat="43.86389" lon="7.32322">
        <ele>701.44643</ele>
        <time>2011-11-19T09:38:01Z</time>
      </trkpt>
      <trkpt lat="43.86399" lon="7.32317">
        <ele>704.446434</ele>
        <time>2011-11-19T09:38:07Z</time>
      </trkpt>
      <trkpt lat="43.86409" lon="7.32314">
        <ele>707.446438</ele>
        <time>2011-11-19T09:38:11Z</time>
      </trkpt>
      <trkpt lat="43.8642" lon="7.32311">
        <ele>706.446445</ele>
        <time>2011-11-19T09:38:15Z</time>
      </trkpt>
      <trkpt lat="43.8643" lon="7.32306">
        <ele>707.446449</ele>
        <time>2011-11-19T09:38:19Z</time>
      </trkpt>
      <trkpt lat="43.86439" lon="7.323">
        <ele>707.446449</ele>
        <time>2011-11-19T09:38:23Z</time>
      </trkpt>
      <trkpt lat="43.86448" lon="7.32296">
        <ele>709.446453</ele>
        <time>2011-11-19T09:38:27Z</time>
      </trkpt>
      <trkpt lat="43.86458" lon="7.32294">
        <ele>711.446461</ele>
        <time>2011-11-19T09:38:32Z</time>
      </trkpt>
      <trkpt lat="43.86467" lon="7.32294">
        <ele>713.446472</ele>
        <time>2011-11-19T09:38:37Z</time>
      </trkpt>
      <trkpt lat="43.86477" lon="7.32297">
        <ele>717.446487</ele>
        <time>2011-11-19T09:38:42Z</time>
      </trkpt>
      <trkpt lat="43.86487" lon="7.323">
        <ele>719.44651</ele>
        <time>2011-11-19T09:38:46Z</time>
      </trkpt>
      <trkpt lat="43.86498" lon="7.323">
        <ele>721.446526</ele>
        <time>2011-11-19T09:38:50Z</time>
      </trkpt>
      <trkpt lat="43.86506" lon="7.32307">
        <ele>721.446556</ele>
        <time>2011-11-19T09:38:55Z</time>
      </trkpt>
      <trkpt lat="43.86509" lon="7.3232">
        <ele>721.446587</ele>
        <time>2011-11-19T09:39:00Z</time>
      </trkpt>
      <trkpt lat="43.86511" lon="7.32331">
        <ele>720.446606</ele>
        <time>2011-11-19T09:39:04Z</time>
      </trkpt>
      <trkpt lat="43.86515" lon="7.32343">
        <ele>718.44664</ele>
        <time>2011-11-19T09:39:09Z</time>
      </trkpt>
      <trkpt lat="43.86519" lon="7.32354">
        <ele>717.446671</ele>
        <time>2011-11-19T09:39:14Z</time>
      </trkpt>
      <trkpt lat="43.86525" lon="7.32365">
        <ele>717.446693</ele>
        <time>2011-11-19T09:39:19Z</time>
      </trkpt>
      <trkpt lat="43.86533" lon="7.32372">
        <ele>718.446724</ele>
        <time>2011-11-19T09:39:24Z</time>
      </trkpt>
      <trkpt lat="43.86535" lon="7.32373">
        <ele>717.446728</ele>
        <time>2011-11-19T09:39:25Z</time>
      </trkpt>
      <trkpt lat="43.86544" lon="7.32378">
        <ele>716.446747</ele>
        <time>2011-11-19T09:39:30Z</time>
      </trkpt>
      <trkpt lat="43.86554" lon="7.32379">
        <ele>717.446762</ele>
        <time>2011-11-19T09:39:36Z</time>
      </trkpt>
      <trkpt lat="43.86563" lon="7.32376">
        <ele>718.446774</ele>
        <time>2011-11-19T09:39:42Z</time>
      </trkpt>
      <trkpt lat="43.86573" lon="7.32371">
        <ele>719.446774</ele>
        <time>2011-11-19T09:39:48Z</time>
      </trkpt>
      <trkpt lat="43.86581" lon="7.32364">
        <ele>720.44677</ele>
        <time>2011-11-19T09:39:53Z</time>
      </trkpt>
      <trkpt lat="43.86596" lon="7.32354">
        <ele>723.44677</ele>
        <time>2011-11-19T09:40:07Z</time>
      </trkpt>
      <trkpt lat="43.86605" lon="7.3236">
        <ele>723.446793</ele>
        <time>2011-11-19T09:40:10Z</time>
      </trkpt>
      <trkpt lat="43.86614" lon="7.32366">
        <ele>724.446819</ele>
        <time>2011-11-19T09:40:13Z</time>
      </trkpt>
      <trkpt lat="43.86625" lon="7.32375">
        <ele>725.446854</ele>
        <time>2011-11-19T09:40:16Z</time>
      </trkpt>
      <trkpt lat="43.86634" lon="7.32382">
        <ele>725.446877</ele>
        <time>2011-11-19T09:40:18Z</time>
      </trkpt>
      <trkpt lat="43.86643" lon="7.32388">
        <ele>725.446899</ele>
        <time>2011-11-19T09:40:20Z</time>
      </trkpt>
      <trkpt lat="43.86655" lon="7.32393">
        <ele>724.44693</ele>
        <time>2011-11-19T09:40:23Z</time>
      </trkpt>
      <trkpt lat="43.86667" lon="7.32394">
        <ele>724.446945</ele>
        <time>2011-11-19T09:40:27Z</time>
      </trkpt>
      <trkpt lat="43.86676" lon="7.32393">
        <ele>725.44696</ele>
        <time>2011-11-19T09:40:30Z</time>
      </trkpt>
      <trkpt lat="43.86686" lon="7.32388">
        <ele>726.44696</ele>
        <time>2011-11-19T09:40:33Z</time>
      </trkpt>
      <trkpt lat="43.86698" lon="7.32383">
        <ele>726.44696</ele>
        <time>2011-11-19T09:40:36Z</time>
      </trkpt>
      <trkpt lat="43.86708" lon="7.32376">
        <ele>726.446968</ele>
        <time>2011-11-19T09:40:39Z</time>
      </trkpt>
      <trkpt lat="43.86714" lon="7.32373">
        <ele>727.446968</ele>
        <time>2011-11-19T09:40:41Z</time>
      </trkpt>
      <trkpt lat="43.86725" lon="7.32365">
        <ele>725.44696</ele>
        <time>2011-11-19T09:42:29Z</time>
      </trkpt>
      <trkpt lat="43.86733" lon="7.32356">
        <ele>725.446953</ele>
        <time>2011-11-19T09:42:31Z</time>
      </trkpt>
      <trkpt lat="43.86741" lon="7.32345">
        <ele>724.446945</ele>
        <time>2011-11-19T09:42:33Z</time>
      </trkpt>
      <trkpt lat="43.86748" lon="7.32335">
        <ele>724.446934</ele>
        <time>2011-11-19T09:42:35Z</time>
      </trkpt>
      <trkpt lat="43.86753" lon="7.32331">
        <ele>724.44693</ele>
        <time>2011-11-19T09:42:36Z</time>
      </trkpt>
      <trkpt lat="43.86765" lon="7.32326">
        <ele>724.446941</ele>
        <time>2011-11-19T09:42:39Z</time>
      </trkpt>
      <trkpt lat="43.86773" lon="7.3232">
        <ele>724.446938</ele>
        <time>2011-11-19T09:42:42Z</time>
      </trkpt>
      <trkpt lat="43.86781" lon="7.32314">
        <ele>725.446934</ele>
        <time>2011-11-19T09:42:45Z</time>
      </trkpt>
      <trkpt lat="43.86792" lon="7.32315">
        <ele>723.446953</ele>
        <time>2011-11-19T09:42:48Z</time>
      </trkpt>
      <trkpt lat="43.86804" lon="7.32313">
        <ele>723.446964</ele>
        <time>2011-11-19T09:42:51Z</time>
      </trkpt>
      <trkpt lat="43.86814" lon="7.32309">
        <ele>722.446968</ele>
        <time>2011-11-19T09:42:54Z</time>
      </trkpt>
      <trkpt lat="43.86825" lon="7.32305">
        <ele>724.446976</ele>
        <time>2011-11-19T09:42:57Z</time>
      </trkpt>
      <trkpt lat="43.86832" lon="7.32301">
        <ele>725.446976</ele>
        <time>2011-11-19T09:42:59Z</time>
      </trkpt>
      <trkpt lat="43.86843" lon="7.32296">
        <ele>726.44698</ele>
        <time>2011-11-19T09:43:02Z</time>
      </trkpt>
      <trkpt lat="43.86855" lon="7.3229">
        <ele>725.446987</ele>
        <time>2011-11-19T09:43:05Z</time>
      </trkpt>
      <trkpt lat="43.86866" lon="7.32285">
        <ele>725.446987</ele>
        <time>2011-11-19T09:43:08Z</time>
      </trkpt>
      <trkpt lat="43.86876" lon="7.32279">
        <ele>726.446991</ele>
        <time>2011-11-19T09:43:11Z</time>
      </trkpt>
      <trkpt lat="43.86886" lon="7.32274">
        <ele>726.446995</ele>
        <time>2011-11-19T09:43:14Z</time>
      </trkpt>
      <trkpt lat="43.86897" lon="7.32269">
        <ele>726.446999</ele>
        <time>2011-11-19T09:43:17Z</time>
      </trkpt>
      <trkpt lat="43.86908" lon="7.32264">
        <ele>725.446999</ele>
        <time>2011-11-19T09:43:20Z</time>
      </trkpt>
      <trkpt lat="43.8692" lon="7.32259">
        <ele>725.447006</ele>
        <time>2011-11-19T09:43:23Z</time>
      </trkpt>
      <trkpt lat="43.86933" lon="7.32252">
        <ele>725.447006</ele>
        <time>2011-11-19T09:43:26Z</time>
      </trkpt>
      <trkpt lat="43.86943" lon="7.32247">
        <ele>725.447014</ele>
        <time>2011-11-19T09:43:28Z</time>
      </trkpt>
      <trkpt lat="43.86955" lon="7.3224">
        <ele>725.447014</ele>
        <time>2011-11-19T09:43:30Z</time>
      </trkpt>
      <trkpt lat="43.86965" lon="7.32231">
        <ele>725.447014</ele>
        <time>2011-11-19T09:43:32Z</time>
      </trkpt>
      <trkpt lat="43.86975" lon="7.32221">
        <ele>726.447002</ele>
        <time>2011-11-19T09:43:34Z</time>
      </trkpt>
      <trkpt lat="43.86984" lon="7.32211">
        <ele>727.446999</ele>
        <time>2011-11-19T09:43:36Z</time>
      </trkpt>
      <trkpt lat="43.86992" lon="7.322">
        <ele>728.446983</ele>
        <time>2011-11-19T09:43:38Z</time>
      </trkpt>
      <trkpt lat="43.87" lon="7.3219">
        <ele>728.446976</ele>
        <time>2011-11-19T09:43:40Z</time>
      </trkpt>
      <trkpt lat="43.87008" lon="7.32178">
        <ele>729.44696</ele>
        <time>2011-11-19T09:43:43Z</time>
      </trkpt>
      <trkpt lat="43.87014" lon="7.32168">
        <ele>729.446945</ele>
        <time>2011-11-19T09:43:46Z</time>
      </trkpt>
      <trkpt lat="43.87025" lon="7.32166">
        <ele>729.446957</ele>
        <time>2011-11-19T09:43:50Z</time>
      </trkpt>
      <trkpt lat="43.87028" lon="7.32165">
        <ele>729.446957</ele>
        <time>2011-11-19T09:43:51Z</time>
      </trkpt>
      <trkpt lat="43.87036" lon="7.32159">
        <ele>730.446957</ele>
        <time>2011-11-19T09:43:54Z</time>
      </trkpt>
      <trkpt lat="43.87045" lon="7.32155">
        <ele>732.44696</ele>
        <time>2011-11-19T09:43:57Z</time>
      </trkpt>
      <trkpt lat="43.87054" lon="7.32154">
        <ele>733.446968</ele>
        <time>2011-11-19T09:44:00Z</time>
      </trkpt>
      <trkpt lat="43.87064" lon="7.32153">
        <ele>733.446983</ele>
        <time>2011-11-19T09:44:03Z</time>
      </trkpt>
      <trkpt lat="43.87074" lon="7.32155">
        <ele>734.446999</ele>
        <time>2011-11-19T09:44:06Z</time>
      </trkpt>
      <trkpt lat="43.87083" lon="7.32158">
        <ele>736.447021</ele>
        <time>2011-11-19T09:44:09Z</time>
      </trkpt>
      <trkpt lat="43.87092" lon="7.32164">
        <ele>738.447041</ele>
        <time>2011-11-19T09:44:13Z</time>
      </trkpt>
      <trkpt lat="43.87096" lon="7.32177">
        <ele>732.447075</ele>
        <time>2011-11-19T09:44:41Z</time>
      </trkpt>
      <trkpt lat="43.87098" lon="7.32194">
        <ele>731.447113</ele>
        <time>2011-11-19T09:44:47Z</time>
      </trkpt>
      <trkpt lat="43.871" lon="7.32208">
        <ele>733.447144</ele>
        <time>2011-11-19T09:44:53Z</time>
      </trkpt>
      <trkpt lat="43.87107" lon="7.32228">
        <ele>735.447197</ele>
        <time>2011-11-19T09:45:03Z</time>
      </trkpt>
      <trkpt lat="43.87113" lon="7.32244">
        <ele>736.447235</ele>
        <time>2011-11-19T09:45:11Z</time>
      </trkpt>
      <trkpt lat="43.8712" lon="7.32254">
        <ele>739.447266</ele>
        <time>2011-11-19T09:45:17Z</time>
      </trkpt>
      <trkpt lat="43.87133" lon="7.32262">
        <ele>740.447296</ele>
        <time>2011-11-19T09:45:27Z</time>
      </trkpt>
      <trkpt lat="43.87142" lon="7.32268">
        <ele>740.447319</ele>
        <time>2011-11-19T09:45:34Z</time>
      </trkpt>
      <trkpt lat="43.87158" lon="7.32278">
        <ele>740.447369</ele>
        <time>2011-11-19T09:45:46Z</time>
      </trkpt>
      <trkpt lat="43.87167" lon="7.32284">
        <ele>740.447392</ele>
        <time>2011-11-19T09:45:53Z</time>
      </trkpt>
      <trkpt lat="43.87178" lon="7.3229">
        <ele>742.447418</ele>
        <time>2011-11-19T09:46:03Z</time>
      </trkpt>
      <trkpt lat="43.87188" lon="7.32289">
        <ele>744.447426</ele>
        <time>2011-11-19T09:46:13Z</time>
      </trkpt>
      <trkpt lat="43.872" lon="7.32295">
        <ele>743.447456</ele>
        <time>2011-11-19T09:46:22Z</time>
      </trkpt>
      <trkpt lat="43.87209" lon="7.32296">
        <ele>745.447472</ele>
        <time>2011-11-19T09:46:29Z</time>
      </trkpt>
      <trkpt lat="43.87214" lon="7.32296">
        <ele>746.447475</ele>
        <time>2011-11-19T09:46:33Z</time>
      </trkpt>
      <trkpt lat="43.87224" lon="7.32294">
        <ele>748.447487</ele>
        <time>2011-11-19T09:46:42Z</time>
      </trkpt>
      <trkpt lat="43.87233" lon="7.32293">
        <ele>749.447495</ele>
        <time>2011-11-19T09:46:50Z</time>
      </trkpt>
      <trkpt lat="43.87243" lon="7.32292">
        <ele>753.44751</ele>
        <time>2011-11-19T09:46:59Z</time>
      </trkpt>
      <trkpt lat="43.87253" lon="7.32293">
        <ele>753.447525</ele>
        <time>2011-11-19T09:47:09Z</time>
      </trkpt>
      <trkpt lat="43.87262" lon="7.32291">
        <ele>755.447533</ele>
        <time>2011-11-19T09:47:18Z</time>
      </trkpt>
      <trkpt lat="43.87272" lon="7.32291">
        <ele>759.44754</ele>
        <time>2011-11-19T09:47:26Z</time>
      </trkpt>
      <trkpt lat="43.87274" lon="7.32291">
        <ele>759.447544</ele>
        <time>2011-11-19T09:47:28Z</time>
      </trkpt>
      <trkpt lat="43.87283" lon="7.32292">
        <ele>763.447563</ele>
        <time>2011-11-19T09:47:38Z</time>
      </trkpt>
      <trkpt lat="43.87293" lon="7.32292">
        <ele>762.447575</ele>
        <time>2011-11-19T09:47:51Z</time>
      </trkpt>
      <trkpt lat="43.87302" lon="7.32292">
        <ele>763.447586</ele>
        <time>2011-11-19T09:48:04Z</time>
      </trkpt>
      <trkpt lat="43.87311" lon="7.32294">
        <ele>766.447601</ele>
        <time>2011-11-19T09:48:15Z</time>
      </trkpt>
      <trkpt lat="43.8732" lon="7.32296">
        <ele>767.44762</ele>
        <time>2011-11-19T09:48:26Z</time>
      </trkpt>
      <trkpt lat="43.8733" lon="7.323">
        <ele>769.447639</ele>
        <time>2011-11-19T09:48:38Z</time>
      </trkpt>
      <trkpt lat="43.87338" lon="7.32306">
        <ele>772.447662</ele>
        <time>2011-11-19T09:48:48Z</time>
      </trkpt>
      <trkpt lat="43.87347" lon="7.32313">
        <ele>770.447693</ele>
        <time>2011-11-19T09:48:57Z</time>
      </trkpt>
      <trkpt lat="43.87354" lon="7.3232">
        <ele>769.447712</ele>
        <time>2011-11-19T09:49:05Z</time>
      </trkpt>
      <trkpt lat="43.87357" lon="7.32323">
        <ele>768.447723</ele>
        <time>2011-11-19T09:49:08Z</time>
      </trkpt>
      <trkpt lat="43.87363" lon="7.32332">
        <ele>769.447754</ele>
        <time>2011-11-19T09:49:17Z</time>
      </trkpt>
      <trkpt lat="43.87374" lon="7.32342">
        <ele>775.447784</ele>
        <time>2011-11-19T09:49:41Z</time>
      </trkpt>
      <trkpt lat="43.87384" lon="7.32351">
        <ele>777.447823</ele>
        <time>2011-11-19T09:50:04Z</time>
      </trkpt>
      <trkpt lat="43.87393" lon="7.32348">
        <ele>783.447823</ele>
        <time>2011-11-19T09:50:25Z</time>
      </trkpt>
      <trkpt lat="43.87402" lon="7.32349">
        <ele>786.447838</ele>
        <time>2011-11-19T09:50:45Z</time>
      </trkpt>
      <trkpt lat="43.87412" lon="7.32355">
        <ele>791.447865</ele>
        <time>2011-11-19T09:51:03Z</time>
      </trkpt>
      <trkpt lat="43.87421" lon="7.32357">
        <ele>794.447884</ele>
        <time>2011-11-19T09:51:22Z</time>
      </trkpt>
      <trkpt lat="43.8743" lon="7.32364">
        <ele>796.44791</ele>
        <time>2011-11-19T09:51:35Z</time>
      </trkpt>
      <trkpt lat="43.87436" lon="7.32374">
        <ele>800.447937</ele>
        <time>2011-11-19T09:51:44Z</time>
      </trkpt>
      <trkpt lat="43.87438" lon="7.32387">
        <ele>802.44796</ele>
        <time>2011-11-19T09:52:21Z</time>
      </trkpt>
      <trkpt lat="43.87435" lon="7.32402">
        <ele>802.44799</ele>
        <time>2011-11-19T09:52:25Z</time>
      </trkpt>
      <trkpt lat="43.87428" lon="7.32417">
        <ele>803.448009</ele>
        <time>2011-11-19T09:52:28Z</time>
      </trkpt>
      <trkpt lat="43.87421" lon="7.32426">
        <ele>803.448021</ele>
        <time>2011-11-19T09:52:30Z</time>
      </trkpt>
      <trkpt lat="43.87417" lon="7.3243">
        <ele>803.448021</ele>
        <time>2011-11-19T09:52:31Z</time>
      </trkpt>
      <trkpt lat="43.87409" lon="7.32437">
        <ele>803.448029</ele>
        <time>2011-11-19T09:52:33Z</time>
      </trkpt>
      <trkpt lat="43.87397" lon="7.32442">
        <ele>803.448029</ele>
        <time>2011-11-19T09:52:36Z</time>
      </trkpt>
      <trkpt lat="43.87386" lon="7.32447">
        <ele>804.448017</ele>
        <time>2011-11-19T09:52:39Z</time>
      </trkpt>
      <trkpt lat="43.87377" lon="7.32454">
        <ele>805.448025</ele>
        <time>2011-11-19T09:52:42Z</time>
      </trkpt>
      <trkpt lat="43.8737" lon="7.32464">
        <ele>806.448036</ele>
        <time>2011-11-19T09:52:45Z</time>
      </trkpt>
      <trkpt lat="43.87364" lon="7.32476">
        <ele>807.448048</ele>
        <time>2011-11-19T09:52:48Z</time>
      </trkpt>
      <trkpt lat="43.8736" lon="7.32488">
        <ele>807.448071</ele>
        <time>2011-11-19T09:52:51Z</time>
      </trkpt>
      <trkpt lat="43.87357" lon="7.32501">
        <ele>808.44809</ele>
        <time>2011-11-19T09:52:54Z</time>
      </trkpt>
      <trkpt lat="43.87353" lon="7.32516">
        <ele>809.448116</ele>
        <time>2011-11-19T09:52:58Z</time>
      </trkpt>
      <trkpt lat="43.87352" lon="7.3252">
        <ele>809.44812</ele>
        <time>2011-11-19T09:52:59Z</time>
      </trkpt>
      <trkpt lat="43.87347" lon="7.32533">
        <ele>810.448143</ele>
        <time>2011-11-19T09:53:03Z</time>
      </trkpt>
      <trkpt lat="43.87342" lon="7.32548">
        <ele>811.448166</ele>
        <time>2011-11-19T09:53:07Z</time>
      </trkpt>
      <trkpt lat="43.8734" lon="7.3256">
        <ele>812.448189</ele>
        <time>2011-11-19T09:53:10Z</time>
      </trkpt>
      <trkpt lat="43.8734" lon="7.32572">
        <ele>814.448219</ele>
        <time>2011-11-19T09:53:13Z</time>
      </trkpt>
      <trkpt lat="43.87339" lon="7.32587">
        <ele>810.448246</ele>
        <time>2011-11-19T09:55:28Z</time>
      </trkpt>
      <trkpt lat="43.87331" lon="7.326">
        <ele>811.448261</ele>
        <time>2011-11-19T09:55:31Z</time>
      </trkpt>
      <trkpt lat="43.87328" lon="7.32603">
        <ele>811.448265</ele>
        <time>2011-11-19T09:55:32Z</time>
      </trkpt>
      <trkpt lat="43.8732" lon="7.32615">
        <ele>811.44828</ele>
        <time>2011-11-19T09:55:35Z</time>
      </trkpt>
      <trkpt lat="43.87313" lon="7.32626">
        <ele>811.448288</ele>
        <time>2011-11-19T09:55:38Z</time>
      </trkpt>
      <trkpt lat="43.87306" lon="7.32638">
        <ele>812.448303</ele>
        <time>2011-11-19T09:55:41Z</time>
      </trkpt>
      <trkpt lat="43.873" lon="7.32651">
        <ele>813.448326</ele>
        <time>2011-11-19T09:55:44Z</time>
      </trkpt>
      <trkpt lat="43.87298" lon="7.32655">
        <ele>814.44833</ele>
        <time>2011-11-19T09:55:45Z</time>
      </trkpt>
      <trkpt lat="43.87293" lon="7.32669">
        <ele>815.448349</ele>
        <time>2011-11-19T09:55:48Z</time>
      </trkpt>
      <trkpt lat="43.87292" lon="7.32674">
        <ele>815.44836</ele>
        <time>2011-11-19T09:55:49Z</time>
      </trkpt>
      <trkpt lat="43.87295" lon="7.32691">
        <ele>816.448402</ele>
        <time>2011-11-19T09:55:52Z</time>
      </trkpt>
      <trkpt lat="43.87306" lon="7.32702">
        <ele>816.448441</ele>
        <time>2011-11-19T09:55:55Z</time>
      </trkpt>
      <trkpt lat="43.87318" lon="7.3271">
        <ele>817.448471</ele>
        <time>2011-11-19T09:55:58Z</time>
      </trkpt>
      <trkpt lat="43.8733" lon="7.32716">
        <ele>817.448498</ele>
        <time>2011-11-19T09:56:01Z</time>
      </trkpt>
      <trkpt lat="43.87334" lon="7.32717">
        <ele>818.448509</ele>
        <time>2011-11-19T09:56:02Z</time>
      </trkpt>
      <trkpt lat="43.87345" lon="7.32719">
        <ele>819.448528</ele>
        <time>2011-11-19T09:56:05Z</time>
      </trkpt>
      <trkpt lat="43.87355" lon="7.3272">
        <ele>818.44854</ele>
        <time>2011-11-19T09:56:08Z</time>
      </trkpt>
      <trkpt lat="43.87364" lon="7.32722">
        <ele>818.448559</ele>
        <time>2011-11-19T09:56:11Z</time>
      </trkpt>
      <trkpt lat="43.87373" lon="7.32726">
        <ele>818.448578</ele>
        <time>2011-11-19T09:56:14Z</time>
      </trkpt>
      <trkpt lat="43.87383" lon="7.32735">
        <ele>819.448608</ele>
        <time>2011-11-19T09:56:18Z</time>
      </trkpt>
      <trkpt lat="43.87385" lon="7.32738">
        <ele>818.44862</ele>
        <time>2011-11-19T09:56:19Z</time>
      </trkpt>
      <trkpt lat="43.87395" lon="7.32744">
        <ele>817.448643</ele>
        <time>2011-11-19T09:56:24Z</time>
      </trkpt>
      <trkpt lat="43.87405" lon="7.32744">
        <ele>816.448658</ele>
        <time>2011-11-19T09:56:29Z</time>
      </trkpt>
      <trkpt lat="43.87407" lon="7.32744">
        <ele>815.448658</ele>
        <time>2011-11-19T09:56:30Z</time>
      </trkpt>
      <trkpt lat="43.87422" lon="7.32736">
        <ele>802.448662</ele>
        <time>2011-11-19T09:56:55Z</time>
      </trkpt>
      <trkpt lat="43.87433" lon="7.32738">
        <ele>803.448685</ele>
        <time>2011-11-19T09:57:00Z</time>
      </trkpt>
      <trkpt lat="43.87443" lon="7.32745">
        <ele>803.448708</ele>
        <time>2011-11-19T09:57:03Z</time>
      </trkpt>
      <trkpt lat="43.87453" lon="7.32752">
        <ele>804.448738</ele>
        <time>2011-11-19T09:57:06Z</time>
      </trkpt>
      <trkpt lat="43.87463" lon="7.32755">
        <ele>805.448753</ele>
        <time>2011-11-19T09:57:09Z</time>
      </trkpt>
      <trkpt lat="43.87474" lon="7.32755">
        <ele>806.448769</ele>
        <time>2011-11-19T09:57:13Z</time>
      </trkpt>
      <trkpt lat="43.87484" lon="7.32761">
        <ele>806.448799</ele>
        <time>2011-11-19T09:57:18Z</time>
      </trkpt>
      <trkpt lat="43.87485" lon="7.32763">
        <ele>807.448807</ele>
        <time>2011-11-19T09:57:19Z</time>
      </trkpt>
      <trkpt lat="43.87491" lon="7.32773">
        <ele>806.44883</ele>
        <time>2011-11-19T09:57:24Z</time>
      </trkpt>
      <trkpt lat="43.87495" lon="7.32774">
        <ele>807.448841</ele>
        <time>2011-11-19T09:57:26Z</time>
      </trkpt>
      <trkpt lat="43.87505" lon="7.32774">
        <ele>808.448856</ele>
        <time>2011-11-19T09:57:31Z</time>
      </trkpt>
      <trkpt lat="43.87509" lon="7.32774">
        <ele>809.44886</ele>
        <time>2011-11-19T09:57:35Z</time>
      </trkpt>
      <trkpt lat="43.87512" lon="7.32788">
        <ele>804.448891</ele>
        <time>2011-11-19T09:58:07Z</time>
      </trkpt>
      <trkpt lat="43.87513" lon="7.32796">
        <ele>804.448906</ele>
        <time>2011-11-19T09:58:10Z</time>
      </trkpt>
      <trkpt lat="43.87513" lon="7.32809">
        <ele>802.448936</ele>
        <time>2011-11-19T09:58:15Z</time>
      </trkpt>
      <trkpt lat="43.87511" lon="7.32821">
        <ele>800.448959</ele>
        <time>2011-11-19T09:58:20Z</time>
      </trkpt>
      <trkpt lat="43.8751" lon="7.32834">
        <ele>800.448986</ele>
        <time>2011-11-19T09:58:26Z</time>
      </trkpt>
      <trkpt lat="43.87511" lon="7.32848">
        <ele>799.449013</ele>
        <time>2011-11-19T09:58:32Z</time>
      </trkpt>
      <trkpt lat="43.87513" lon="7.32861">
        <ele>800.449043</ele>
        <time>2011-11-19T09:58:37Z</time>
      </trkpt>
      <trkpt lat="43.87516" lon="7.32874">
        <ele>802.449074</ele>
        <time>2011-11-19T09:58:42Z</time>
      </trkpt>
      <trkpt lat="43.87521" lon="7.32889">
        <ele>805.449112</ele>
        <time>2011-11-19T09:58:49Z</time>
      </trkpt>
      <trkpt lat="43.87525" lon="7.32894">
        <ele>804.449127</ele>
        <time>2011-11-19T09:58:54Z</time>
      </trkpt>
      <trkpt lat="43.8753" lon="7.32906">
        <ele>801.449158</ele>
        <time>2011-11-19T09:59:02Z</time>
      </trkpt>
      <trkpt lat="43.87531" lon="7.3292">
        <ele>800.449188</ele>
        <time>2011-11-19T09:59:06Z</time>
      </trkpt>
      <trkpt lat="43.87532" lon="7.32923">
        <ele>800.449196</ele>
        <time>2011-11-19T09:59:07Z</time>
      </trkpt>
      <trkpt lat="43.87537" lon="7.3294">
        <ele>799.449242</ele>
        <time>2011-11-19T09:59:15Z</time>
      </trkpt>
      <trkpt lat="43.87539" lon="7.32953">
        <ele>800.449265</ele>
        <time>2011-11-19T09:59:20Z</time>
      </trkpt>
      <trkpt lat="43.8754" lon="7.32957">
        <ele>800.44928</ele>
        <time>2011-11-19T09:59:25Z</time>
      </trkpt>
      <trkpt lat="43.87543" lon="7.3297">
        <ele>800.449303</ele>
        <time>2011-11-19T09:59:27Z</time>
      </trkpt>
      <trkpt lat="43.87544" lon="7.32974">
        <ele>801.449318</ele>
        <time>2011-11-19T09:59:29Z</time>
      </trkpt>
      <trkpt lat="43.87547" lon="7.32986">
        <ele>801.449348</ele>
        <time>2011-11-19T09:59:35Z</time>
      </trkpt>
      <trkpt lat="43.87551" lon="7.32997">
        <ele>800.449379</ele>
        <time>2011-11-19T09:59:40Z</time>
      </trkpt>
      <trkpt lat="43.87552" lon="7.32999">
        <ele>800.449379</ele>
        <time>2011-11-19T09:59:41Z</time>
      </trkpt>
      <trkpt lat="43.87557" lon="7.33012">
        <ele>801.449417</ele>
        <time>2011-11-19T09:59:47Z</time>
      </trkpt>
      <trkpt lat="43.87561" lon="7.33023">
        <ele>799.44944</ele>
        <time>2011-11-19T09:59:52Z</time>
      </trkpt>
      <trkpt lat="43.87566" lon="7.33037">
        <ele>798.449478</ele>
        <time>2011-11-19T09:59:59Z</time>
      </trkpt>
      <trkpt lat="43.87567" lon="7.33041">
        <ele>798.44949</ele>
        <time>2011-11-19T10:00:01Z</time>
      </trkpt>
      <trkpt lat="43.8757" lon="7.33058">
        <ele>799.449524</ele>
        <time>2011-11-19T10:00:10Z</time>
      </trkpt>
      <trkpt lat="43.87574" lon="7.33071">
        <ele>800.449554</ele>
        <time>2011-11-19T10:00:17Z</time>
      </trkpt>
      <trkpt lat="43.87581" lon="7.3308">
        <ele>802.449585</ele>
        <time>2011-11-19T10:00:27Z</time>
      </trkpt>
      <trkpt lat="43.8759" lon="7.33085">
        <ele>802.449612</ele>
        <time>2011-11-19T10:00:39Z</time>
      </trkpt>
      <trkpt lat="43.876" lon="7.33085">
        <ele>804.449623</ele>
        <time>2011-11-19T10:00:50Z</time>
      </trkpt>
      <trkpt lat="43.87609" lon="7.33083">
        <ele>804.449631</ele>
        <time>2011-11-19T10:00:57Z</time>
      </trkpt>
      <trkpt lat="43.87619" lon="7.33086">
        <ele>807.44965</ele>
        <time>2011-11-19T10:01:03Z</time>
      </trkpt>
      <trkpt lat="43.87628" lon="7.3309">
        <ele>808.449669</ele>
        <time>2011-11-19T10:01:08Z</time>
      </trkpt>
      <trkpt lat="43.87638" lon="7.33088">
        <ele>809.449677</ele>
        <time>2011-11-19T10:01:14Z</time>
      </trkpt>
      <trkpt lat="43.87649" lon="7.33072">
        <ele>811.449661</ele>
        <time>2011-11-19T10:01:23Z</time>
      </trkpt>
      <trkpt lat="43.87652" lon="7.33066">
        <ele>811.449654</ele>
        <time>2011-11-19T10:01:26Z</time>
      </trkpt>
      <trkpt lat="43.87657" lon="7.33052">
        <ele>814.449631</ele>
        <time>2011-11-19T10:01:45Z</time>
      </trkpt>
      <trkpt lat="43.87666" lon="7.3305">
        <ele>815.449635</ele>
        <time>2011-11-19T10:01:53Z</time>
      </trkpt>
      <trkpt lat="43.87677" lon="7.33049">
        <ele>816.44965</ele>
        <time>2011-11-19T10:01:58Z</time>
      </trkpt>
      <trkpt lat="43.87686" lon="7.33047">
        <ele>818.449661</ele>
        <time>2011-11-19T10:02:03Z</time>
      </trkpt>
      <trkpt lat="43.877" lon="7.33047">
        <ele>823.449677</ele>
        <time>2011-11-19T10:02:10Z</time>
      </trkpt>
      <trkpt lat="43.87709" lon="7.33046">
        <ele>825.449684</ele>
        <time>2011-11-19T10:02:15Z</time>
      </trkpt>
      <trkpt lat="43.87724" lon="7.33045">
        <ele>829.449707</ele>
        <time>2011-11-19T10:02:23Z</time>
      </trkpt>
      <trkpt lat="43.87734" lon="7.33042">
        <ele>831.449707</ele>
        <time>2011-11-19T10:02:28Z</time>
      </trkpt>
      <trkpt lat="43.87736" lon="7.33041">
        <ele>832.449711</ele>
        <time>2011-11-19T10:02:29Z</time>
      </trkpt>
      <trkpt lat="43.87745" lon="7.33035">
        <ele>835.449715</ele>
        <time>2011-11-19T10:02:34Z</time>
      </trkpt>
      <trkpt lat="43.87754" lon="7.33033">
        <ele>835.449715</ele>
        <time>2011-11-19T10:02:39Z</time>
      </trkpt>
      <trkpt lat="43.87758" lon="7.33031">
        <ele>835.449722</ele>
        <time>2011-11-19T10:02:41Z</time>
      </trkpt>
      <trkpt lat="43.87767" lon="7.33028">
        <ele>836.44973</ele>
        <time>2011-11-19T10:02:46Z</time>
      </trkpt>
      <trkpt lat="43.87768" lon="7.33027">
        <ele>837.449722</ele>
        <time>2011-11-19T10:02:47Z</time>
      </trkpt>
      <trkpt lat="43.87783" lon="7.33016">
        <ele>837.449722</ele>
        <time>2011-11-19T10:02:57Z</time>
      </trkpt>
      <trkpt lat="43.87795" lon="7.33007">
        <ele>839.449722</ele>
        <time>2011-11-19T10:03:08Z</time>
      </trkpt>
      <trkpt lat="43.87798" lon="7.33005">
        <ele>840.449722</ele>
        <time>2011-11-19T10:03:11Z</time>
      </trkpt>
      <trkpt lat="43.87809" lon="7.33003">
        <ele>839.44973</ele>
        <time>2011-11-19T10:03:25Z</time>
      </trkpt>
      <trkpt lat="43.87819" lon="7.33008">
        <ele>837.44976</ele>
        <time>2011-11-19T10:03:29Z</time>
      </trkpt>
      <trkpt lat="43.8783" lon="7.33011">
        <ele>837.449776</ele>
        <time>2011-11-19T10:03:33Z</time>
      </trkpt>
      <trkpt lat="43.87832" lon="7.33011">
        <ele>837.449776</ele>
        <time>2011-11-19T10:03:34Z</time>
      </trkpt>
      <trkpt lat="43.87842" lon="7.33014">
        <ele>839.449799</ele>
        <time>2011-11-19T10:03:39Z</time>
      </trkpt>
      <trkpt lat="43.87851" lon="7.33019">
        <ele>840.449818</ele>
        <time>2011-11-19T10:03:45Z</time>
      </trkpt>
      <trkpt lat="43.8786" lon="7.33027">
        <ele>842.449848</ele>
        <time>2011-11-19T10:03:51Z</time>
      </trkpt>
      <trkpt lat="43.87869" lon="7.33034">
        <ele>842.449875</ele>
        <time>2011-11-19T10:03:54Z</time>
      </trkpt>
      <trkpt lat="43.8788" lon="7.33043">
        <ele>841.449905</ele>
        <time>2011-11-19T10:03:57Z</time>
      </trkpt>
      <trkpt lat="43.87888" lon="7.33049">
        <ele>841.449932</ele>
        <time>2011-11-19T10:03:59Z</time>
      </trkpt>
      <trkpt lat="43.87898" lon="7.33057">
        <ele>839.449963</ele>
        <time>2011-11-19T10:04:02Z</time>
      </trkpt>
      <trkpt lat="43.87906" lon="7.33066">
        <ele>838.449993</ele>
        <time>2011-11-19T10:04:05Z</time>
      </trkpt>
      <trkpt lat="43.87912" lon="7.33076">
        <ele>838.45002</ele>
        <time>2011-11-19T10:04:08Z</time>
      </trkpt>
      <trkpt lat="43.87918" lon="7.33089">
        <ele>838.450054</ele>
        <time>2011-11-19T10:04:12Z</time>
      </trkpt>
      <trkpt lat="43.87925" lon="7.33101">
        <ele>838.450089</ele>
        <time>2011-11-19T10:04:16Z</time>
      </trkpt>
      <trkpt lat="43.87932" lon="7.33111">
        <ele>838.450119</ele>
        <time>2011-11-19T10:04:20Z</time>
      </trkpt>
      <trkpt lat="43.87939" lon="7.3312">
        <ele>838.450142</ele>
        <time>2011-11-19T10:04:24Z</time>
      </trkpt>
      <trkpt lat="43.87949" lon="7.33129">
        <ele>837.450176</ele>
        <time>2011-11-19T10:04:28Z</time>
      </trkpt>
      <trkpt lat="43.87952" lon="7.33131">
        <ele>837.450188</ele>
        <time>2011-11-19T10:04:29Z</time>
      </trkpt>
      <trkpt lat="43.87963" lon="7.33139">
        <ele>836.450214</ele>
        <time>2011-11-19T10:04:33Z</time>
      </trkpt>
      <trkpt lat="43.87973" lon="7.33147">
        <ele>835.450241</ele>
        <time>2011-11-19T10:04:36Z</time>
      </trkpt>
      <trkpt lat="43.87979" lon="7.3315">
        <ele>834.450256</ele>
        <time>2011-11-19T10:04:38Z</time>
      </trkpt>
      <trkpt lat="43.87989" lon="7.33153">
        <ele>833.450279</ele>
        <time>2011-11-19T10:04:41Z</time>
      </trkpt>
      <trkpt lat="43.87999" lon="7.33157">
        <ele>833.450298</ele>
        <time>2011-11-19T10:04:44Z</time>
      </trkpt>
      <trkpt lat="43.88006" lon="7.33164">
        <ele>833.450325</ele>
        <time>2011-11-19T10:04:46Z</time>
      </trkpt>
      <trkpt lat="43.8801" lon="7.33168">
        <ele>833.45034</ele>
        <time>2011-11-19T10:04:47Z</time>
      </trkpt>
      <trkpt lat="43.88018" lon="7.33175">
        <ele>832.450363</ele>
        <time>2011-11-19T10:04:49Z</time>
      </trkpt>
      <trkpt lat="43.88026" lon="7.33182">
        <ele>832.450386</ele>
        <time>2011-11-19T10:04:51Z</time>
      </trkpt>
      <trkpt lat="43.88036" lon="7.3319">
        <ele>833.45042</ele>
        <time>2011-11-19T10:04:54Z</time>
      </trkpt>
      <trkpt lat="43.8804" lon="7.33193">
        <ele>833.450428</ele>
        <time>2011-11-19T10:04:56Z</time>
      </trkpt>
      <trkpt lat="43.88055" lon="7.33197">
        <ele>832.450462</ele>
        <time>2011-11-19T10:05:05Z</time>
      </trkpt>
      <trkpt lat="43.88066" lon="7.33199">
        <ele>830.450478</ele>
        <time>2011-11-19T10:05:11Z</time>
      </trkpt>
      <trkpt lat="43.88067" lon="7.332">
        <ele>831.450481</ele>
        <time>2011-11-19T10:05:12Z</time>
      </trkpt>
      <trkpt lat="43.88077" lon="7.33204">
        <ele>830.450504</ele>
        <time>2011-11-19T10:05:17Z</time>
      </trkpt>
      <trkpt lat="43.88086" lon="7.3321">
        <ele>829.450527</ele>
        <time>2011-11-19T10:05:22Z</time>
      </trkpt>
      <trkpt lat="43.88095" lon="7.33215">
        <ele>829.450554</ele>
        <time>2011-11-19T10:05:27Z</time>
      </trkpt>
      <trkpt lat="43.88106" lon="7.33225">
        <ele>830.450584</ele>
        <time>2011-11-19T10:05:31Z</time>
      </trkpt>
      <trkpt lat="43.88115" lon="7.33235">
        <ele>830.450615</ele>
        <time>2011-11-19T10:05:34Z</time>
      </trkpt>
      <trkpt lat="43.88124" lon="7.33246">
        <ele>830.450653</ele>
        <time>2011-11-19T10:05:37Z</time>
      </trkpt>
      <trkpt lat="43.88126" lon="7.33249">
        <ele>830.450661</ele>
        <time>2011-11-19T10:05:38Z</time>
      </trkpt>
      <trkpt lat="43.8813" lon="7.33262">
        <ele>831.450691</ele>
        <time>2011-11-19T10:05:42Z</time>
      </trkpt>
      <trkpt lat="43.88128" lon="7.33265">
        <ele>829.450699</ele>
        <time>2011-11-19T10:05:47Z</time>
      </trkpt>
      <trkpt lat="43.8813" lon="7.3328">
        <ele>820.450729</ele>
        <time>2011-11-19T10:06:03Z</time>
      </trkpt>
      <trkpt lat="43.88129" lon="7.33282">
        <ele>819.450729</ele>
        <time>2011-11-19T10:06:05Z</time>
      </trkpt>
      <trkpt lat="43.88124" lon="7.33293">
        <ele>818.450745</ele>
        <time>2011-11-19T10:06:09Z</time>
      </trkpt>
      <trkpt lat="43.88117" lon="7.33302">
        <ele>817.45076</ele>
        <time>2011-11-19T10:06:11Z</time>
      </trkpt>
      <trkpt lat="43.88107" lon="7.33313">
        <ele>817.450768</ele>
        <time>2011-11-19T10:06:13Z</time>
      </trkpt>
      <trkpt lat="43.88095" lon="7.33328">
        <ele>816.450783</ele>
        <time>2011-11-19T10:06:15Z</time>
      </trkpt>
      <trkpt lat="43.88082" lon="7.33345">
        <ele>816.450798</ele>
        <time>2011-11-19T10:06:17Z</time>
      </trkpt>
      <trkpt lat="43.88071" lon="7.33364">
        <ele>816.450825</ele>
        <time>2011-11-19T10:06:19Z</time>
      </trkpt>
      <trkpt lat="43.88062" lon="7.33383">
        <ele>817.450851</ele>
        <time>2011-11-19T10:06:21Z</time>
      </trkpt>
      <trkpt lat="43.88055" lon="7.33401">
        <ele>817.450882</ele>
        <time>2011-11-19T10:06:23Z</time>
      </trkpt>
      <trkpt lat="43.88049" lon="7.33418">
        <ele>818.450905</ele>
        <time>2011-11-19T10:06:25Z</time>
      </trkpt>
      <trkpt lat="43.88045" lon="7.33432">
        <ele>818.450928</ele>
        <time>2011-11-19T10:06:27Z</time>
      </trkpt>
      <trkpt lat="43.88041" lon="7.33448">
        <ele>819.450958</ele>
        <time>2011-11-19T10:06:30Z</time>
      </trkpt>
      <trkpt lat="43.88036" lon="7.3346">
        <ele>819.450974</ele>
        <time>2011-11-19T10:06:33Z</time>
      </trkpt>
      <trkpt lat="43.88031" lon="7.33472">
        <ele>819.450989</ele>
        <time>2011-11-19T10:06:36Z</time>
      </trkpt>
      <trkpt lat="43.88029" lon="7.33475">
        <ele>819.450996</ele>
        <time>2011-11-19T10:06:37Z</time>
      </trkpt>
      <trkpt lat="43.88025" lon="7.33491">
        <ele>820.451023</ele>
        <time>2011-11-19T10:06:41Z</time>
      </trkpt>
      <trkpt lat="43.88021" lon="7.33505">
        <ele>821.45105</ele>
        <time>2011-11-19T10:06:45Z</time>
      </trkpt>
      <trkpt lat="43.88015" lon="7.3352">
        <ele>821.451073</ele>
        <time>2011-11-19T10:06:49Z</time>
      </trkpt>
      <trkpt lat="43.88009" lon="7.33532">
        <ele>821.451088</ele>
        <time>2011-11-19T10:06:52Z</time>
      </trkpt>
      <trkpt lat="43.88" lon="7.33542">
        <ele>821.451096</ele>
        <time>2011-11-19T10:06:55Z</time>
      </trkpt>
      <trkpt lat="43.87991" lon="7.33548">
        <ele>820.451096</ele>
        <time>2011-11-19T10:06:57Z</time>
      </trkpt>
      <trkpt lat="43.87982" lon="7.33554">
        <ele>820.451096</ele>
        <time>2011-11-19T10:06:59Z</time>
      </trkpt>
      <trkpt lat="43.87973" lon="7.33561">
        <ele>821.451099</ele>
        <time>2011-11-19T10:07:01Z</time>
      </trkpt>
      <trkpt lat="43.87964" lon="7.33569">
        <ele>821.451103</ele>
        <time>2011-11-19T10:07:03Z</time>
      </trkpt>
      <trkpt lat="43.87954" lon="7.33578">
        <ele>822.451107</ele>
        <time>2011-11-19T10:07:05Z</time>
      </trkpt>
      <trkpt lat="43.87943" lon="7.33588">
        <ele>822.451115</ele>
        <time>2011-11-19T10:07:07Z</time>
      </trkpt>
      <trkpt lat="43.87933" lon="7.336">
        <ele>822.451126</ele>
        <time>2011-11-19T10:07:09Z</time>
      </trkpt>
      <trkpt lat="43.87923" lon="7.33613">
        <ele>822.451138</ele>
        <time>2011-11-19T10:07:11Z</time>
      </trkpt>
      <trkpt lat="43.87913" lon="7.33626">
        <ele>822.451153</ele>
        <time>2011-11-19T10:07:13Z</time>
      </trkpt>
      <trkpt lat="43.87902" lon="7.33638">
        <ele>821.451164</ele>
        <time>2011-11-19T10:07:15Z</time>
      </trkpt>
      <trkpt lat="43.87894" lon="7.33647">
        <ele>821.451172</ele>
        <time>2011-11-19T10:07:17Z</time>
      </trkpt>
      <trkpt lat="43.87889" lon="7.33658">
        <ele>820.451187</ele>
        <time>2011-11-19T10:07:21Z</time>
      </trkpt>
      <trkpt lat="43.87897" lon="7.33666">
        <ele>821.45121</ele>
        <time>2011-11-19T10:07:28Z</time>
      </trkpt>
      <trkpt lat="43.87906" lon="7.33662">
        <ele>821.451218</ele>
        <time>2011-11-19T10:07:34Z</time>
      </trkpt>
      <trkpt lat="43.87915" lon="7.33659">
        <ele>822.451225</ele>
        <time>2011-11-19T10:07:43Z</time>
      </trkpt>
      <trkpt lat="43.87929" lon="7.33654">
        <ele>824.451233</ele>
        <time>2011-11-19T10:07:58Z</time>
      </trkpt>
      <trkpt lat="43.87937" lon="7.33648">
        <ele>825.451233</ele>
        <time>2011-11-19T10:08:05Z</time>
      </trkpt>
      <trkpt lat="43.87945" lon="7.33641">
        <ele>825.451225</ele>
        <time>2011-11-19T10:08:13Z</time>
      </trkpt>
      <trkpt lat="43.87953" lon="7.33633">
        <ele>828.451221</ele>
        <time>2011-11-19T10:08:22Z</time>
      </trkpt>
      <trkpt lat="43.87965" lon="7.33617">
        <ele>836.45121</ele>
        <time>2011-11-19T10:09:02Z</time>
      </trkpt>
      <trkpt lat="43.87976" lon="7.33619">
        <ele>822.451218</ele>
        <time>2011-11-19T10:09:27Z</time>
      </trkpt>
      <trkpt lat="43.87985" lon="7.33613">
        <ele>820.451221</ele>
        <time>2011-11-19T10:09:33Z</time>
      </trkpt>
      <trkpt lat="43.87992" lon="7.33606">
        <ele>818.451218</ele>
        <time>2011-11-19T10:09:38Z</time>
      </trkpt>
      <trkpt lat="43.88" lon="7.33598">
        <ele>816.45121</ele>
        <time>2011-11-19T10:09:43Z</time>
      </trkpt>
      <trkpt lat="43.88007" lon="7.33589">
        <ele>817.451202</ele>
        <time>2011-11-19T10:09:48Z</time>
      </trkpt>
      <trkpt lat="43.88016" lon="7.33579">
        <ele>815.451195</ele>
        <time>2011-11-19T10:09:55Z</time>
      </trkpt>
      <trkpt lat="43.88024" lon="7.33569">
        <ele>816.451187</ele>
        <time>2011-11-19T10:10:01Z</time>
      </trkpt>
      <trkpt lat="43.88034" lon="7.33558">
        <ele>816.451176</ele>
        <time>2011-11-19T10:10:08Z</time>
      </trkpt>
      <trkpt lat="43.8805" lon="7.33541">
        <ele>817.45116</ele>
        <time>2011-11-19T10:10:20Z</time>
      </trkpt>
      <trkpt lat="43.88057" lon="7.33532">
        <ele>816.451153</ele>
        <time>2011-11-19T10:10:27Z</time>
      </trkpt>
      <trkpt lat="43.8807" lon="7.33522">
        <ele>817.451149</ele>
        <time>2011-11-19T10:10:38Z</time>
      </trkpt>
      <trkpt lat="43.88078" lon="7.33515">
        <ele>818.451141</ele>
        <time>2011-11-19T10:10:45Z</time>
      </trkpt>
      <trkpt lat="43.88086" lon="7.33505">
        <ele>819.451134</ele>
        <time>2011-11-19T10:10:53Z</time>
      </trkpt>
      <trkpt lat="43.88095" lon="7.33488">
        <ele>820.451111</ele>
        <time>2011-11-19T10:11:04Z</time>
      </trkpt>
      <trkpt lat="43.88102" lon="7.33477">
        <ele>821.451099</ele>
        <time>2011-11-19T10:11:11Z</time>
      </trkpt>
      <trkpt lat="43.88109" lon="7.33468">
        <ele>823.451092</ele>
        <time>2011-11-19T10:11:17Z</time>
      </trkpt>
      <trkpt lat="43.88119" lon="7.33454">
        <ele>823.451073</ele>
        <time>2011-11-19T10:11:26Z</time>
      </trkpt>
      <trkpt lat="43.88126" lon="7.33444">
        <ele>823.451061</ele>
        <time>2011-11-19T10:11:32Z</time>
      </trkpt>
      <trkpt lat="43.88131" lon="7.33431">
        <ele>823.451042</ele>
        <time>2011-11-19T10:11:39Z</time>
      </trkpt>
      <trkpt lat="43.88134" lon="7.3342">
        <ele>825.451023</ele>
        <time>2011-11-19T10:11:46Z</time>
      </trkpt>
      <trkpt lat="43.88139" lon="7.33407">
        <ele>826.451004</ele>
        <time>2011-11-19T10:11:53Z</time>
      </trkpt>
      <trkpt lat="43.88147" lon="7.33386">
        <ele>828.450974</ele>
        <time>2011-11-19T10:12:05Z</time>
      </trkpt>
      <trkpt lat="43.88148" lon="7.33385">
        <ele>828.45097</ele>
        <time>2011-11-19T10:12:06Z</time>
      </trkpt>
      <trkpt lat="43.88159" lon="7.3337">
        <ele>830.450954</ele>
        <time>2011-11-19T10:12:18Z</time>
      </trkpt>
      <trkpt lat="43.88171" lon="7.33357">
        <ele>831.450943</ele>
        <time>2011-11-19T10:12:31Z</time>
      </trkpt>
      <trkpt lat="43.8818" lon="7.3334">
        <ele>831.45092</ele>
        <time>2011-11-19T10:12:44Z</time>
      </trkpt>
      <trkpt lat="43.88184" lon="7.33319">
        <ele>833.450882</ele>
        <time>2011-11-19T10:12:57Z</time>
      </trkpt>
      <trkpt lat="43.8819" lon="7.33304">
        <ele>835.450859</ele>
        <time>2011-11-19T10:13:09Z</time>
      </trkpt>
      <trkpt lat="43.882" lon="7.333">
        <ele>838.450867</ele>
        <time>2011-11-19T10:13:17Z</time>
      </trkpt>
      <trkpt lat="43.88212" lon="7.333">
        <ele>840.450882</ele>
        <time>2011-11-19T10:13:26Z</time>
      </trkpt>
      <trkpt lat="43.88227" lon="7.333">
        <ele>842.450897</ele>
        <time>2011-11-19T10:13:37Z</time>
      </trkpt>
      <trkpt lat="43.8824" lon="7.33299">
        <ele>844.450916</ele>
        <time>2011-11-19T10:13:46Z</time>
      </trkpt>
      <trkpt lat="43.88241" lon="7.33299">
        <ele>844.45092</ele>
        <time>2011-11-19T10:13:47Z</time>
      </trkpt>
      <trkpt lat="43.88251" lon="7.33298">
        <ele>846.450928</ele>
        <time>2011-11-19T10:13:54Z</time>
      </trkpt>
      <trkpt lat="43.8826" lon="7.33298">
        <ele>846.450939</ele>
        <time>2011-11-19T10:14:01Z</time>
      </trkpt>
      <trkpt lat="43.88272" lon="7.33298">
        <ele>847.450958</ele>
        <time>2011-11-19T10:14:10Z</time>
      </trkpt>
      <trkpt lat="43.88282" lon="7.33298">
        <ele>847.450974</ele>
        <time>2011-11-19T10:14:17Z</time>
      </trkpt>
      <trkpt lat="43.88291" lon="7.33296">
        <ele>848.450977</ele>
        <time>2011-11-19T10:14:25Z</time>
      </trkpt>
      <trkpt lat="43.883" lon="7.33291">
        <ele>850.450981</ele>
        <time>2011-11-19T10:14:34Z</time>
      </trkpt>
      <trkpt lat="43.88309" lon="7.33288">
        <ele>852.450985</ele>
        <time>2011-11-19T10:14:42Z</time>
      </trkpt>
      <trkpt lat="43.88318" lon="7.33283">
        <ele>855.450989</ele>
        <time>2011-11-19T10:14:50Z</time>
      </trkpt>
      <trkpt lat="43.88329" lon="7.33277">
        <ele>857.450989</ele>
        <time>2011-11-19T10:15:01Z</time>
      </trkpt>
      <trkpt lat="43.88338" lon="7.33272">
        <ele>857.450989</ele>
        <time>2011-11-19T10:15:08Z</time>
      </trkpt>
      <trkpt lat="43.88348" lon="7.33272">
        <ele>858.451004</ele>
        <time>2011-11-19T10:15:15Z</time>
      </trkpt>
      <trkpt lat="43.88358" lon="7.33269">
        <ele>859.451012</ele>
        <time>2011-11-19T10:15:23Z</time>
      </trkpt>
      <trkpt lat="43.88343" lon="7.33263">
        <ele>863.450981</ele>
        <time>2011-11-19T10:15:43Z</time>
      </trkpt>
      <trkpt lat="43.88333" lon="7.33262">
        <ele>867.450966</ele>
        <time>2011-11-19T10:15:50Z</time>
      </trkpt>
      <trkpt lat="43.88323" lon="7.3326">
        <ele>868.450951</ele>
        <time>2011-11-19T10:15:58Z</time>
      </trkpt>
      <trkpt lat="43.88313" lon="7.33255">
        <ele>869.45092</ele>
        <time>2011-11-19T10:16:05Z</time>
      </trkpt>
      <trkpt lat="43.883" lon="7.33242">
        <ele>872.450882</ele>
        <time>2011-11-19T10:16:12Z</time>
      </trkpt>
      <trkpt lat="43.88295" lon="7.3323">
        <ele>872.450851</ele>
        <time>2011-11-19T10:16:19Z</time>
      </trkpt>
      <trkpt lat="43.88293" lon="7.33216">
        <ele>873.450813</ele>
        <time>2011-11-19T10:16:25Z</time>
      </trkpt>
      <trkpt lat="43.88292" lon="7.332">
        <ele>875.450783</ele>
        <time>2011-11-19T10:16:30Z</time>
      </trkpt>
      <trkpt lat="43.88292" lon="7.332">
        <ele>875.450783</ele>
        <time>2011-11-19T10:16:31Z</time>
      </trkpt>
      <trkpt lat="43.88291" lon="7.33185">
        <ele>875.450752</ele>
        <time>2011-11-19T10:16:35Z</time>
      </trkpt>
      <trkpt lat="43.88294" lon="7.33162">
        <ele>875.450706</ele>
        <time>2011-11-19T10:16:46Z</time>
      </trkpt>
      <trkpt lat="43.88297" lon="7.33148">
        <ele>876.450684</ele>
        <time>2011-11-19T10:16:52Z</time>
      </trkpt>
      <trkpt lat="43.88302" lon="7.33129">
        <ele>877.450649</ele>
        <time>2011-11-19T10:17:01Z</time>
      </trkpt>
      <trkpt lat="43.88311" lon="7.33124">
        <ele>878.450649</ele>
        <time>2011-11-19T10:17:12Z</time>
      </trkpt>
      <trkpt lat="43.88309" lon="7.33141">
        <ele>880.45068</ele>
        <time>2011-11-19T10:17:23Z</time>
      </trkpt>
      <trkpt lat="43.88309" lon="7.33154">
        <ele>881.45071</ele>
        <time>2011-11-19T10:17:29Z</time>
      </trkpt>
      <trkpt lat="43.88315" lon="7.33167">
        <ele>882.450745</ele>
        <time>2011-11-19T10:17:37Z</time>
      </trkpt>
      <trkpt lat="43.88325" lon="7.33174">
        <ele>887.450775</ele>
        <time>2011-11-19T10:17:47Z</time>
      </trkpt>
      <trkpt lat="43.88334" lon="7.33178">
        <ele>894.45079</ele>
        <time>2011-11-19T10:17:54Z</time>
      </trkpt>
      <trkpt lat="43.88345" lon="7.33177">
        <ele>896.450806</ele>
        <time>2011-11-19T10:18:03Z</time>
      </trkpt>
      <trkpt lat="43.88354" lon="7.3317">
        <ele>896.450798</ele>
        <time>2011-11-19T10:18:10Z</time>
      </trkpt>
      <trkpt lat="43.88361" lon="7.33163">
        <ele>896.450798</ele>
        <time>2011-11-19T10:18:19Z</time>
      </trkpt>
      <trkpt lat="43.88373" lon="7.33156">
        <ele>897.450798</ele>
        <time>2011-11-19T10:18:28Z</time>
      </trkpt>
      <trkpt lat="43.88383" lon="7.33154">
        <ele>898.450809</ele>
        <time>2011-11-19T10:18:35Z</time>
      </trkpt>
      <trkpt lat="43.88391" lon="7.33149">
        <ele>900.450809</ele>
        <time>2011-11-19T10:18:44Z</time>
      </trkpt>
      <trkpt lat="43.88388" lon="7.33136">
        <ele>902.450783</ele>
        <time>2011-11-19T10:18:59Z</time>
      </trkpt>
      <trkpt lat="43.88386" lon="7.33133">
        <ele>902.450768</ele>
        <time>2011-11-19T10:19:01Z</time>
      </trkpt>
      <trkpt lat="43.88381" lon="7.33117">
        <ele>902.450729</ele>
        <time>2011-11-19T10:19:08Z</time>
      </trkpt>
      <trkpt lat="43.88377" lon="7.33104">
        <ele>903.450699</ele>
        <time>2011-11-19T10:19:14Z</time>
      </trkpt>
      <trkpt lat="43.88374" lon="7.33091">
        <ele>904.450668</ele>
        <time>2011-11-19T10:19:21Z</time>
      </trkpt>
      <trkpt lat="43.88374" lon="7.33089">
        <ele>904.450665</ele>
        <time>2011-11-19T10:19:22Z</time>
      </trkpt>
      <trkpt lat="43.88376" lon="7.33076">
        <ele>905.450638</ele>
        <time>2011-11-19T10:19:31Z</time>
      </trkpt>
      <trkpt lat="43.88382" lon="7.3309">
        <ele>903.450676</ele>
        <time>2011-11-19T10:19:43Z</time>
      </trkpt>
      <trkpt lat="43.88383" lon="7.33092">
        <ele>903.45068</ele>
        <time>2011-11-19T10:19:44Z</time>
      </trkpt>
      <trkpt lat="43.88388" lon="7.33104">
        <ele>903.450714</ele>
        <time>2011-11-19T10:19:49Z</time>
      </trkpt>
      <trkpt lat="43.88397" lon="7.33091">
        <ele>904.450699</ele>
        <time>2011-11-19T10:20:08Z</time>
      </trkpt>
      <trkpt lat="43.88399" lon="7.33068">
        <ele>907.450653</ele>
        <time>2011-11-19T10:20:20Z</time>
      </trkpt>
      <trkpt lat="43.88402" lon="7.33044">
        <ele>907.450607</ele>
        <time>2011-11-19T10:20:31Z</time>
      </trkpt>
      <trkpt lat="43.88396" lon="7.33028">
        <ele>912.450569</ele>
        <time>2011-11-19T10:20:46Z</time>
      </trkpt>
      <trkpt lat="43.88386" lon="7.33021">
        <ele>913.450539</ele>
        <time>2011-11-19T10:20:57Z</time>
      </trkpt>
      <trkpt lat="43.88381" lon="7.33007">
        <ele>918.4505</ele>
        <time>2011-11-19T10:21:11Z</time>
      </trkpt>
      <trkpt lat="43.88391" lon="7.33003">
        <ele>920.450504</ele>
        <time>2011-11-19T10:21:23Z</time>
      </trkpt>
      <trkpt lat="43.88402" lon="7.32994">
        <ele>921.450508</ele>
        <time>2011-11-19T10:21:34Z</time>
      </trkpt>
      <trkpt lat="43.88414" lon="7.32985">
        <ele>924.4505</ele>
        <time>2011-11-19T10:21:45Z</time>
      </trkpt>
      <trkpt lat="43.88426" lon="7.32976">
        <ele>926.4505</ele>
        <time>2011-11-19T10:21:56Z</time>
      </trkpt>
      <trkpt lat="43.88435" lon="7.32961">
        <ele>927.450485</ele>
        <time>2011-11-19T10:22:09Z</time>
      </trkpt>
      <trkpt lat="43.8844" lon="7.32951">
        <ele>927.450462</ele>
        <time>2011-11-19T10:22:16Z</time>
      </trkpt>
      <trkpt lat="43.88446" lon="7.32941">
        <ele>931.450451</ele>
        <time>2011-11-19T10:22:24Z</time>
      </trkpt>
      <trkpt lat="43.8846" lon="7.3293">
        <ele>936.450447</ele>
        <time>2011-11-19T10:22:37Z</time>
      </trkpt>
      <trkpt lat="43.88468" lon="7.32925">
        <ele>937.450455</ele>
        <time>2011-11-19T10:22:45Z</time>
      </trkpt>
      <trkpt lat="43.88483" lon="7.32932">
        <ele>937.450485</ele>
        <time>2011-11-19T10:22:58Z</time>
      </trkpt>
      <trkpt lat="43.88487" lon="7.32944">
        <ele>938.450516</ele>
        <time>2011-11-19T10:23:04Z</time>
      </trkpt>
      <trkpt lat="43.88492" lon="7.32959">
        <ele>937.450554</ele>
        <time>2011-11-19T10:23:12Z</time>
      </trkpt>
      <trkpt lat="43.88494" lon="7.32964">
        <ele>938.450565</ele>
        <time>2011-11-19T10:23:15Z</time>
      </trkpt>
      <trkpt lat="43.88501" lon="7.32979">
        <ele>938.450607</ele>
        <time>2011-11-19T10:23:25Z</time>
      </trkpt>
      <trkpt lat="43.88511" lon="7.32993">
        <ele>941.450645</ele>
        <time>2011-11-19T10:23:36Z</time>
      </trkpt>
      <trkpt lat="43.88518" lon="7.33002">
        <ele>944.450672</ele>
        <time>2011-11-19T10:23:43Z</time>
      </trkpt>
      <trkpt lat="43.88527" lon="7.3301">
        <ele>947.450706</ele>
        <time>2011-11-19T10:23:52Z</time>
      </trkpt>
      <trkpt lat="43.88536" lon="7.33011">
        <ele>949.450722</ele>
        <time>2011-11-19T10:23:59Z</time>
      </trkpt>
      <trkpt lat="43.8855" lon="7.33015">
        <ele>950.450745</ele>
        <time>2011-11-19T10:24:09Z</time>
      </trkpt>
      <trkpt lat="43.88556" lon="7.33027">
        <ele>954.450775</ele>
        <time>2011-11-19T10:24:16Z</time>
      </trkpt>
      <trkpt lat="43.88562" lon="7.33037">
        <ele>956.450806</ele>
        <time>2011-11-19T10:24:21Z</time>
      </trkpt>
      <trkpt lat="43.8857" lon="7.33046">
        <ele>958.450836</ele>
        <time>2011-11-19T10:24:27Z</time>
      </trkpt>
      <trkpt lat="43.88581" lon="7.33049">
        <ele>961.450859</ele>
        <time>2011-11-19T10:24:34Z</time>
      </trkpt>
      <trkpt lat="43.88595" lon="7.3305">
        <ele>964.450878</ele>
        <time>2011-11-19T10:24:44Z</time>
      </trkpt>
      <trkpt lat="43.88607" lon="7.33051">
        <ele>969.450897</ele>
        <time>2011-11-19T10:24:51Z</time>
      </trkpt>
      <trkpt lat="43.88616" lon="7.33051">
        <ele>975.450905</ele>
        <time>2011-11-19T10:24:58Z</time>
      </trkpt>
      <trkpt lat="43.88626" lon="7.33053">
        <ele>979.450928</ele>
        <time>2011-11-19T10:25:05Z</time>
      </trkpt>
      <trkpt lat="43.88636" lon="7.33044">
        <ele>982.45092</ele>
        <time>2011-11-19T10:25:19Z</time>
      </trkpt>
      <trkpt lat="43.88628" lon="7.33036">
        <ele>982.450893</ele>
        <time>2011-11-19T10:25:26Z</time>
      </trkpt>
      <trkpt lat="43.88627" lon="7.33035">
        <ele>982.45089</ele>
        <time>2011-11-19T10:25:27Z</time>
      </trkpt>
      <trkpt lat="43.88618" lon="7.3303">
        <ele>986.450867</ele>
        <time>2011-11-19T10:25:38Z</time>
      </trkpt>
      <trkpt lat="43.8861" lon="7.33022">
        <ele>987.450844</ele>
        <time>2011-11-19T10:25:45Z</time>
      </trkpt>
      <trkpt lat="43.88601" lon="7.33012">
        <ele>988.450806</ele>
        <time>2011-11-19T10:25:50Z</time>
      </trkpt>
      <trkpt lat="43.88594" lon="7.33004">
        <ele>988.450779</ele>
        <time>2011-11-19T10:25:54Z</time>
      </trkpt>
      <trkpt lat="43.88583" lon="7.3299">
        <ele>989.450737</ele>
        <time>2011-11-19T10:26:01Z</time>
      </trkpt>
      <trkpt lat="43.88576" lon="7.3298">
        <ele>990.450706</ele>
        <time>2011-11-19T10:26:05Z</time>
      </trkpt>
      <trkpt lat="43.88569" lon="7.32971">
        <ele>991.450684</ele>
        <time>2011-11-19T10:26:15Z</time>
      </trkpt>
      <trkpt lat="43.88563" lon="7.32959">
        <ele>991.450649</ele>
        <time>2011-11-19T10:26:23Z</time>
      </trkpt>
      <trkpt lat="43.8856" lon="7.32947">
        <ele>991.450623</ele>
        <time>2011-11-19T10:26:29Z</time>
      </trkpt>
      <trkpt lat="43.88557" lon="7.32935">
        <ele>991.450592</ele>
        <time>2011-11-19T10:26:35Z</time>
      </trkpt>
      <trkpt lat="43.88556" lon="7.32929">
        <ele>993.450577</ele>
        <time>2011-11-19T10:26:45Z</time>
      </trkpt>
      <trkpt lat="43.88547" lon="7.32925">
        <ele>995.450554</ele>
        <time>2011-11-19T10:27:09Z</time>
      </trkpt>
      <trkpt lat="43.88549" lon="7.32931">
        <ele>995.450569</ele>
        <time>2011-11-19T10:27:55Z</time>
      </trkpt>
      <trkpt lat="43.88558" lon="7.32931">
        <ele>985.450584</ele>
        <time>2011-11-19T10:29:55Z</time>
      </trkpt>
      <trkpt lat="43.88556" lon="7.32929">
        <ele>986.450577</ele>
        <time>2011-11-19T10:30:37Z</time>
      </trkpt>
      <trkpt lat="43.88552" lon="7.32918">
        <ele>990.450546</ele>
        <time>2011-11-19T10:31:14Z</time>
      </trkpt>
      <trkpt lat="43.88544" lon="7.32905">
        <ele>986.450508</ele>
        <time>2011-11-19T10:35:30Z</time>
      </trkpt>
      <trkpt lat="43.88536" lon="7.32891">
        <ele>986.45047</ele>
        <time>2011-11-19T10:35:33Z</time>
      </trkpt>
      <trkpt lat="43.88529" lon="7.32875">
        <ele>987.450432</ele>
        <time>2011-11-19T10:35:36Z</time>
      </trkpt>
      <trkpt lat="43.88526" lon="7.32864">
        <ele>988.450401</ele>
        <time>2011-11-19T10:35:40Z</time>
      </trkpt>
      <trkpt lat="43.88535" lon="7.32866">
        <ele>976.450417</ele>
        <time>2011-11-19T10:40:05Z</time>
      </trkpt>
      <trkpt lat="43.88543" lon="7.32876">
        <ele>981.450447</ele>
        <time>2011-11-19T10:40:22Z</time>
      </trkpt>
      <trkpt lat="43.88546" lon="7.32882">
        <ele>982.450462</ele>
        <time>2011-11-19T10:40:25Z</time>
      </trkpt>
      <trkpt lat="43.88552" lon="7.32896">
        <ele>984.450504</ele>
        <time>2011-11-19T10:40:31Z</time>
      </trkpt>
      <trkpt lat="43.88556" lon="7.32909">
        <ele>985.450535</ele>
        <time>2011-11-19T10:40:37Z</time>
      </trkpt>
      <trkpt lat="43.88559" lon="7.32922">
        <ele>982.450565</ele>
        <time>2011-11-19T10:40:49Z</time>
      </trkpt>
      <trkpt lat="43.8855" lon="7.32925">
        <ele>984.450562</ele>
        <time>2011-11-19T10:41:40Z</time>
      </trkpt>
      <trkpt lat="43.88548" lon="7.32925">
        <ele>984.450562</ele>
        <time>2011-11-19T10:41:41Z</time>
      </trkpt>
      <trkpt lat="43.88557" lon="7.32924">
        <ele>975.450569</ele>
        <time>2011-11-19T10:44:02Z</time>
      </trkpt>
      <trkpt lat="43.88558" lon="7.32938">
        <ele>992.450592</ele>
        <time>2011-11-19T10:49:52Z</time>
      </trkpt>
      <trkpt lat="43.88563" lon="7.3295">
        <ele>995.45063</ele>
        <time>2011-11-19T10:50:02Z</time>
      </trkpt>
      <trkpt lat="43.8857" lon="7.32958">
        <ele>996.450653</ele>
        <time>2011-11-19T10:50:08Z</time>
      </trkpt>
      <trkpt lat="43.88579" lon="7.3297">
        <ele>998.450691</ele>
        <time>2011-11-19T10:50:15Z</time>
      </trkpt>
      <trkpt lat="43.88588" lon="7.32977">
        <ele>999.450714</ele>
        <time>2011-11-19T10:50:20Z</time>
      </trkpt>
      <trkpt lat="43.88597" lon="7.32982">
        <ele>999.450741</ele>
        <time>2011-11-19T10:50:25Z</time>
      </trkpt>
      <trkpt lat="43.88607" lon="7.32987">
        <ele>1000.450764</ele>
        <time>2011-11-19T10:50:30Z</time>
      </trkpt>
      <trkpt lat="43.88618" lon="7.3299">
        <ele>999.450783</ele>
        <time>2011-11-19T10:50:35Z</time>
      </trkpt>
      <trkpt lat="43.88628" lon="7.32994">
        <ele>999.450806</ele>
        <time>2011-11-19T10:50:40Z</time>
      </trkpt>
      <trkpt lat="43.88638" lon="7.32999">
        <ele>1000.450829</ele>
        <time>2011-11-19T10:50:45Z</time>
      </trkpt>
      <trkpt lat="43.88648" lon="7.33002">
        <ele>1000.450848</ele>
        <time>2011-11-19T10:50:50Z</time>
      </trkpt>
      <trkpt lat="43.88658" lon="7.33004">
        <ele>1001.450867</ele>
        <time>2011-11-19T10:50:55Z</time>
      </trkpt>
      <trkpt lat="43.88669" lon="7.33004">
        <ele>1001.450882</ele>
        <time>2011-11-19T10:51:00Z</time>
      </trkpt>
      <trkpt lat="43.88679" lon="7.33005">
        <ele>1003.450897</ele>
        <time>2011-11-19T10:51:05Z</time>
      </trkpt>
      <trkpt lat="43.8869" lon="7.33006">
        <ele>1003.450912</ele>
        <time>2011-11-19T10:51:10Z</time>
      </trkpt>
      <trkpt lat="43.88702" lon="7.33007">
        <ele>1004.450935</ele>
        <time>2011-11-19T10:51:15Z</time>
      </trkpt>
      <trkpt lat="43.88713" lon="7.33009">
        <ele>1005.450951</ele>
        <time>2011-11-19T10:51:20Z</time>
      </trkpt>
      <trkpt lat="43.88722" lon="7.33011">
        <ele>1006.450966</ele>
        <time>2011-11-19T10:51:24Z</time>
      </trkpt>
      <trkpt lat="43.88731" lon="7.33013">
        <ele>1006.450981</ele>
        <time>2011-11-19T10:51:28Z</time>
      </trkpt>
      <trkpt lat="43.88741" lon="7.33014">
        <ele>1007.450996</ele>
        <time>2011-11-19T10:51:32Z</time>
      </trkpt>
      <trkpt lat="43.88751" lon="7.33014">
        <ele>1008.451012</ele>
        <time>2011-11-19T10:51:36Z</time>
      </trkpt>
      <trkpt lat="43.88761" lon="7.33015">
        <ele>1008.451027</ele>
        <time>2011-11-19T10:51:40Z</time>
      </trkpt>
      <trkpt lat="43.88771" lon="7.33016">
        <ele>1009.451042</ele>
        <time>2011-11-19T10:51:44Z</time>
      </trkpt>
      <trkpt lat="43.88781" lon="7.33016">
        <ele>1010.45105</ele>
        <time>2011-11-19T10:51:48Z</time>
      </trkpt>
      <trkpt lat="43.88791" lon="7.33017">
        <ele>1010.451073</ele>
        <time>2011-11-19T10:51:52Z</time>
      </trkpt>
      <trkpt lat="43.88801" lon="7.33018">
        <ele>1011.451084</ele>
        <time>2011-11-19T10:51:56Z</time>
      </trkpt>
      <trkpt lat="43.8881" lon="7.33019">
        <ele>1012.451099</ele>
        <time>2011-11-19T10:52:00Z</time>
      </trkpt>
      <trkpt lat="43.8882" lon="7.3302">
        <ele>1012.451111</ele>
        <time>2011-11-19T10:52:04Z</time>
      </trkpt>
      <trkpt lat="43.8883" lon="7.33022">
        <ele>1012.451134</ele>
        <time>2011-11-19T10:52:08Z</time>
      </trkpt>
      <trkpt lat="43.88839" lon="7.33026">
        <ele>1013.451157</ele>
        <time>2011-11-19T10:52:12Z</time>
      </trkpt>
      <trkpt lat="43.88848" lon="7.33032">
        <ele>1013.45118</ele>
        <time>2011-11-19T10:52:16Z</time>
      </trkpt>
      <trkpt lat="43.88856" lon="7.33038">
        <ele>1013.451202</ele>
        <time>2011-11-19T10:52:20Z</time>
      </trkpt>
      <trkpt lat="43.88865" lon="7.33046">
        <ele>1015.451225</ele>
        <time>2011-11-19T10:52:24Z</time>
      </trkpt>
      <trkpt lat="43.88874" lon="7.33053">
        <ele>1015.451256</ele>
        <time>2011-11-19T10:52:28Z</time>
      </trkpt>
      <trkpt lat="43.88882" lon="7.33062">
        <ele>1015.451279</ele>
        <time>2011-11-19T10:52:32Z</time>
      </trkpt>
      <trkpt lat="43.88889" lon="7.33071">
        <ele>1015.451309</ele>
        <time>2011-11-19T10:52:36Z</time>
      </trkpt>
      <trkpt lat="43.88895" lon="7.33081">
        <ele>1015.451344</ele>
        <time>2011-11-19T10:52:40Z</time>
      </trkpt>
      <trkpt lat="43.88901" lon="7.33091">
        <ele>1016.45137</ele>
        <time>2011-11-19T10:52:44Z</time>
      </trkpt>
      <trkpt lat="43.88906" lon="7.33102">
        <ele>1016.451393</ele>
        <time>2011-11-19T10:52:48Z</time>
      </trkpt>
      <trkpt lat="43.88913" lon="7.33114">
        <ele>1015.451435</ele>
        <time>2011-11-19T10:52:53Z</time>
      </trkpt>
      <trkpt lat="43.8892" lon="7.33123">
        <ele>1016.451458</ele>
        <time>2011-11-19T10:52:57Z</time>
      </trkpt>
      <trkpt lat="43.88928" lon="7.33131">
        <ele>1016.451492</ele>
        <time>2011-11-19T10:53:01Z</time>
      </trkpt>
      <trkpt lat="43.88936" lon="7.33138">
        <ele>1016.451511</ele>
        <time>2011-11-19T10:53:05Z</time>
      </trkpt>
      <trkpt lat="43.88944" lon="7.33145">
        <ele>1018.451538</ele>
        <time>2011-11-19T10:53:09Z</time>
      </trkpt>
      <trkpt lat="43.88952" lon="7.33152">
        <ele>1018.451565</ele>
        <time>2011-11-19T10:53:13Z</time>
      </trkpt>
      <trkpt lat="43.88961" lon="7.33157">
        <ele>1019.451584</ele>
        <time>2011-11-19T10:53:17Z</time>
      </trkpt>
      <trkpt lat="43.88965" lon="7.33159">
        <ele>1020.451599</ele>
        <time>2011-11-19T10:53:19Z</time>
      </trkpt>
      <trkpt lat="43.88974" lon="7.33164">
        <ele>1021.451614</ele>
        <time>2011-11-19T10:53:23Z</time>
      </trkpt>
      <trkpt lat="43.88983" lon="7.33168">
        <ele>1020.451637</ele>
        <time>2011-11-19T10:53:27Z</time>
      </trkpt>
      <trkpt lat="43.88992" lon="7.33173">
        <ele>1021.45166</ele>
        <time>2011-11-19T10:53:31Z</time>
      </trkpt>
      <trkpt lat="43.89001" lon="7.33178">
        <ele>1021.451679</ele>
        <time>2011-11-19T10:53:35Z</time>
      </trkpt>
      <trkpt lat="43.89009" lon="7.33183">
        <ele>1023.451702</ele>
        <time>2011-11-19T10:53:39Z</time>
      </trkpt>
      <trkpt lat="43.89018" lon="7.3319">
        <ele>1023.451729</ele>
        <time>2011-11-19T10:53:43Z</time>
      </trkpt>
      <trkpt lat="43.89022" lon="7.33193">
        <ele>1023.451736</ele>
        <time>2011-11-19T10:53:45Z</time>
      </trkpt>
      <trkpt lat="43.8903" lon="7.332">
        <ele>1023.451767</ele>
        <time>2011-11-19T10:53:49Z</time>
      </trkpt>
      <trkpt lat="43.89038" lon="7.33208">
        <ele>1023.451794</ele>
        <time>2011-11-19T10:53:53Z</time>
      </trkpt>
      <trkpt lat="43.89046" lon="7.33217">
        <ele>1023.45182</ele>
        <time>2011-11-19T10:53:57Z</time>
      </trkpt>
      <trkpt lat="43.89053" lon="7.33227">
        <ele>1023.451851</ele>
        <time>2011-11-19T10:54:01Z</time>
      </trkpt>
      <trkpt lat="43.89057" lon="7.33232">
        <ele>1024.45187</ele>
        <time>2011-11-19T10:54:03Z</time>
      </trkpt>
      <trkpt lat="43.89063" lon="7.33244">
        <ele>1025.4519</ele>
        <time>2011-11-19T10:54:07Z</time>
      </trkpt>
      <trkpt lat="43.89068" lon="7.33255">
        <ele>1025.451927</ele>
        <time>2011-11-19T10:54:11Z</time>
      </trkpt>
      <trkpt lat="43.89074" lon="7.33268">
        <ele>1026.451965</ele>
        <time>2011-11-19T10:54:16Z</time>
      </trkpt>
      <trkpt lat="43.89078" lon="7.33276">
        <ele>1026.451988</ele>
        <time>2011-11-19T10:54:19Z</time>
      </trkpt>
      <trkpt lat="43.89082" lon="7.33287">
        <ele>1027.452015</ele>
        <time>2011-11-19T10:54:23Z</time>
      </trkpt>
      <trkpt lat="43.89087" lon="7.33298">
        <ele>1028.452042</ele>
        <time>2011-11-19T10:54:27Z</time>
      </trkpt>
      <trkpt lat="43.89091" lon="7.33307">
        <ele>1027.452065</ele>
        <time>2011-11-19T10:54:30Z</time>
      </trkpt>
      <trkpt lat="43.89096" lon="7.3332">
        <ele>1027.452099</ele>
        <time>2011-11-19T10:54:34Z</time>
      </trkpt>
      <trkpt lat="43.89102" lon="7.33334">
        <ele>1028.452133</ele>
        <time>2011-11-19T10:54:38Z</time>
      </trkpt>
      <trkpt lat="43.89107" lon="7.33349">
        <ele>1028.452175</ele>
        <time>2011-11-19T10:54:42Z</time>
      </trkpt>
      <trkpt lat="43.89112" lon="7.33361">
        <ele>1028.452206</ele>
        <time>2011-11-19T10:54:45Z</time>
      </trkpt>
      <trkpt lat="43.89117" lon="7.33374">
        <ele>1030.45224</ele>
        <time>2011-11-19T10:54:48Z</time>
      </trkpt>
      <trkpt lat="43.89123" lon="7.3339">
        <ele>1030.452278</ele>
        <time>2011-11-19T10:54:51Z</time>
      </trkpt>
      <trkpt lat="43.89128" lon="7.33401">
        <ele>1030.452309</ele>
        <time>2011-11-19T10:54:53Z</time>
      </trkpt>
      <trkpt lat="43.89132" lon="7.33412">
        <ele>1030.452335</ele>
        <time>2011-11-19T10:54:55Z</time>
      </trkpt>
      <trkpt lat="43.89137" lon="7.33424">
        <ele>1031.45237</ele>
        <time>2011-11-19T10:54:57Z</time>
      </trkpt>
      <trkpt lat="43.89141" lon="7.33435">
        <ele>1030.452396</ele>
        <time>2011-11-19T10:54:59Z</time>
      </trkpt>
      <trkpt lat="43.89146" lon="7.33446">
        <ele>1030.452427</ele>
        <time>2011-11-19T10:55:01Z</time>
      </trkpt>
      <trkpt lat="43.8915" lon="7.33457">
        <ele>1030.452454</ele>
        <time>2011-11-19T10:55:03Z</time>
      </trkpt>
      <trkpt lat="43.89155" lon="7.33468">
        <ele>1031.452484</ele>
        <time>2011-11-19T10:55:05Z</time>
      </trkpt>
      <trkpt lat="43.89159" lon="7.33479">
        <ele>1030.452511</ele>
        <time>2011-11-19T10:55:07Z</time>
      </trkpt>
      <trkpt lat="43.89164" lon="7.33491">
        <ele>1030.452538</ele>
        <time>2011-11-19T10:55:09Z</time>
      </trkpt>
      <trkpt lat="43.8917" lon="7.33501">
        <ele>1030.452576</ele>
        <time>2011-11-19T10:55:11Z</time>
      </trkpt>
      <trkpt lat="43.89177" lon="7.3351">
        <ele>1031.452602</ele>
        <time>2011-11-19T10:55:13Z</time>
      </trkpt>
      <trkpt lat="43.89187" lon="7.33517">
        <ele>1031.452629</ele>
        <time>2011-11-19T10:55:15Z</time>
      </trkpt>
      <trkpt lat="43.89197" lon="7.33521">
        <ele>1031.452648</ele>
        <time>2011-11-19T10:55:17Z</time>
      </trkpt>
      <trkpt lat="43.89208" lon="7.33523">
        <ele>1032.452663</ele>
        <time>2011-11-19T10:55:19Z</time>
      </trkpt>
      <trkpt lat="43.89218" lon="7.33526">
        <ele>1031.45269</ele>
        <time>2011-11-19T10:55:21Z</time>
      </trkpt>
      <trkpt lat="43.89228" lon="7.33531">
        <ele>1031.452705</ele>
        <time>2011-11-19T10:55:23Z</time>
      </trkpt>
      <trkpt lat="43.89237" lon="7.33538">
        <ele>1031.452736</ele>
        <time>2011-11-19T10:55:25Z</time>
      </trkpt>
      <trkpt lat="43.89244" lon="7.33548">
        <ele>1031.452763</ele>
        <time>2011-11-19T10:55:27Z</time>
      </trkpt>
      <trkpt lat="43.89248" lon="7.33561">
        <ele>1031.452797</ele>
        <time>2011-11-19T10:55:29Z</time>
      </trkpt>
      <trkpt lat="43.89251" lon="7.33575">
        <ele>1030.452835</ele>
        <time>2011-11-19T10:55:31Z</time>
      </trkpt>
      <trkpt lat="43.89252" lon="7.33582">
        <ele>1030.452847</ele>
        <time>2011-11-19T10:55:32Z</time>
      </trkpt>
      <trkpt lat="43.89253" lon="7.33596">
        <ele>1030.452873</ele>
        <time>2011-11-19T10:55:34Z</time>
      </trkpt>
      <trkpt lat="43.89256" lon="7.3361">
        <ele>1030.452911</ele>
        <time>2011-11-19T10:55:36Z</time>
      </trkpt>
      <trkpt lat="43.89261" lon="7.33623">
        <ele>1030.452946</ele>
        <time>2011-11-19T10:55:38Z</time>
      </trkpt>
      <trkpt lat="43.89269" lon="7.33633">
        <ele>1031.452972</ele>
        <time>2011-11-19T10:55:40Z</time>
      </trkpt>
      <trkpt lat="43.89277" lon="7.33641">
        <ele>1032.453003</ele>
        <time>2011-11-19T10:55:42Z</time>
      </trkpt>
      <trkpt lat="43.89286" lon="7.33647">
        <ele>1033.453026</ele>
        <time>2011-11-19T10:55:44Z</time>
      </trkpt>
      <trkpt lat="43.89295" lon="7.33651">
        <ele>1034.453041</ele>
        <time>2011-11-19T10:55:46Z</time>
      </trkpt>
      <trkpt lat="43.89303" lon="7.33653">
        <ele>1034.453064</ele>
        <time>2011-11-19T10:55:48Z</time>
      </trkpt>
      <trkpt lat="43.89313" lon="7.33654">
        <ele>1035.453075</ele>
        <time>2011-11-19T10:55:50Z</time>
      </trkpt>
      <trkpt lat="43.89326" lon="7.33652">
        <ele>1036.453091</ele>
        <time>2011-11-19T10:55:53Z</time>
      </trkpt>
      <trkpt lat="43.89339" lon="7.33649">
        <ele>1037.453098</ele>
        <time>2011-11-19T10:55:56Z</time>
      </trkpt>
      <trkpt lat="43.8935" lon="7.33646">
        <ele>1037.45311</ele>
        <time>2011-11-19T10:55:59Z</time>
      </trkpt>
      <trkpt lat="43.89354" lon="7.33645">
        <ele>1037.45311</ele>
        <time>2011-11-19T10:56:00Z</time>
      </trkpt>
      <trkpt lat="43.89366" lon="7.33643">
        <ele>1039.453121</ele>
        <time>2011-11-19T10:56:03Z</time>
      </trkpt>
      <trkpt lat="43.89377" lon="7.33643">
        <ele>1039.45314</ele>
        <time>2011-11-19T10:56:06Z</time>
      </trkpt>
      <trkpt lat="43.89387" lon="7.33648">
        <ele>1038.453163</ele>
        <time>2011-11-19T10:56:09Z</time>
      </trkpt>
      <trkpt lat="43.8939" lon="7.33651">
        <ele>1038.453171</ele>
        <time>2011-11-19T10:56:10Z</time>
      </trkpt>
      <trkpt lat="43.89398" lon="7.33665">
        <ele>1038.453213</ele>
        <time>2011-11-19T10:56:13Z</time>
      </trkpt>
      <trkpt lat="43.89406" lon="7.3368">
        <ele>1039.453251</ele>
        <time>2011-11-19T10:56:16Z</time>
      </trkpt>
      <trkpt lat="43.89409" lon="7.33685">
        <ele>1040.45327</ele>
        <time>2011-11-19T10:56:17Z</time>
      </trkpt>
      <trkpt lat="43.89415" lon="7.33694">
        <ele>1041.453297</ele>
        <time>2011-11-19T10:56:19Z</time>
      </trkpt>
      <trkpt lat="43.89422" lon="7.33702">
        <ele>1042.453323</ele>
        <time>2011-11-19T10:56:21Z</time>
      </trkpt>
      <trkpt lat="43.89433" lon="7.33714">
        <ele>1042.453354</ele>
        <time>2011-11-19T10:56:24Z</time>
      </trkpt>
      <trkpt lat="43.8944" lon="7.33722">
        <ele>1042.453384</ele>
        <time>2011-11-19T10:56:26Z</time>
      </trkpt>
      <trkpt lat="43.89448" lon="7.33731">
        <ele>1042.453415</ele>
        <time>2011-11-19T10:56:28Z</time>
      </trkpt>
      <trkpt lat="43.89456" lon="7.33739">
        <ele>1042.453438</ele>
        <time>2011-11-19T10:56:30Z</time>
      </trkpt>
      <trkpt lat="43.89464" lon="7.33746">
        <ele>1042.453465</ele>
        <time>2011-11-19T10:56:32Z</time>
      </trkpt>
      <trkpt lat="43.89471" lon="7.33754">
        <ele>1042.453491</ele>
        <time>2011-11-19T10:56:34Z</time>
      </trkpt>
      <trkpt lat="43.89479" lon="7.33761">
        <ele>1042.453518</ele>
        <time>2011-11-19T10:56:36Z</time>
      </trkpt>
      <trkpt lat="43.89487" lon="7.33769">
        <ele>1042.453545</ele>
        <time>2011-11-19T10:56:38Z</time>
      </trkpt>
      <trkpt lat="43.89495" lon="7.33777">
        <ele>1043.453568</ele>
        <time>2011-11-19T10:56:40Z</time>
      </trkpt>
      <trkpt lat="43.89502" lon="7.33785">
        <ele>1042.453598</ele>
        <time>2011-11-19T10:56:42Z</time>
      </trkpt>
      <trkpt lat="43.8951" lon="7.33793">
        <ele>1041.453625</ele>
        <time>2011-11-19T10:56:44Z</time>
      </trkpt>
      <trkpt lat="43.89518" lon="7.33801">
        <ele>1042.453651</ele>
        <time>2011-11-19T10:56:46Z</time>
      </trkpt>
      <trkpt lat="43.89526" lon="7.33807">
        <ele>1042.453674</ele>
        <time>2011-11-19T10:56:48Z</time>
      </trkpt>
      <trkpt lat="43.8953" lon="7.3381">
        <ele>1042.453686</ele>
        <time>2011-11-19T10:56:49Z</time>
      </trkpt>
      <trkpt lat="43.89541" lon="7.33818">
        <ele>1041.453716</ele>
        <time>2011-11-19T10:56:52Z</time>
      </trkpt>
      <trkpt lat="43.89553" lon="7.33825">
        <ele>1039.453751</ele>
        <time>2011-11-19T10:56:55Z</time>
      </trkpt>
      <trkpt lat="43.89565" lon="7.3383">
        <ele>1038.453773</ele>
        <time>2011-11-19T10:56:58Z</time>
      </trkpt>
      <trkpt lat="43.89577" lon="7.33834">
        <ele>1039.453796</ele>
        <time>2011-11-19T10:57:01Z</time>
      </trkpt>
      <trkpt lat="43.8959" lon="7.33837">
        <ele>1039.453819</ele>
        <time>2011-11-19T10:57:04Z</time>
      </trkpt>
      <trkpt lat="43.89601" lon="7.33844">
        <ele>1041.453846</ele>
        <time>2011-11-19T10:57:07Z</time>
      </trkpt>
      <trkpt lat="43.89606" lon="7.33858">
        <ele>1041.453888</ele>
        <time>2011-11-19T10:57:10Z</time>
      </trkpt>
      <trkpt lat="43.89601" lon="7.33871">
        <ele>1042.453903</ele>
        <time>2011-11-19T10:57:13Z</time>
      </trkpt>
      <trkpt lat="43.89594" lon="7.33881">
        <ele>1043.453918</ele>
        <time>2011-11-19T10:57:16Z</time>
      </trkpt>
      <trkpt lat="43.89589" lon="7.33893">
        <ele>1041.453934</ele>
        <time>2011-11-19T10:57:20Z</time>
      </trkpt>
      <trkpt lat="43.89588" lon="7.33897">
        <ele>1042.453941</ele>
        <time>2011-11-19T10:57:21Z</time>
      </trkpt>
      <trkpt lat="43.89586" lon="7.33909">
        <ele>1042.453964</ele>
        <time>2011-11-19T10:57:26Z</time>
      </trkpt>
      <trkpt lat="43.89588" lon="7.33925">
        <ele>1043.453999</ele>
        <time>2011-11-19T10:57:31Z</time>
      </trkpt>
      <trkpt lat="43.89589" lon="7.33931">
        <ele>1044.45401</ele>
        <time>2011-11-19T10:57:33Z</time>
      </trkpt>
      <trkpt lat="43.89593" lon="7.33943">
        <ele>1044.454037</ele>
        <time>2011-11-19T10:57:37Z</time>
      </trkpt>
      <trkpt lat="43.89597" lon="7.33954">
        <ele>1044.454071</ele>
        <time>2011-11-19T10:57:41Z</time>
      </trkpt>
      <trkpt lat="43.89602" lon="7.33965">
        <ele>1044.454098</ele>
        <time>2011-11-19T10:57:45Z</time>
      </trkpt>
      <trkpt lat="43.89609" lon="7.33988">
        <ele>1043.454155</ele>
        <time>2011-11-19T10:57:53Z</time>
      </trkpt>
      <trkpt lat="43.89634" lon="7.34003">
        <ele>1041.454224</ele>
        <time>2011-11-19T10:58:05Z</time>
      </trkpt>
      <trkpt lat="43.89637" lon="7.34003">
        <ele>1041.454224</ele>
        <time>2011-11-19T10:58:10Z</time>
      </trkpt>
      <trkpt lat="43.8965" lon="7.34001">
        <ele>1040.454239</ele>
        <time>2011-11-19T10:58:12Z</time>
      </trkpt>
      <trkpt lat="43.89659" lon="7.33994">
        <ele>1040.454231</ele>
        <time>2011-11-19T10:58:16Z</time>
      </trkpt>
      <trkpt lat="43.89666" lon="7.33986">
        <ele>1040.454227</ele>
        <time>2011-11-19T10:58:19Z</time>
      </trkpt>
      <trkpt lat="43.89673" lon="7.33975">
        <ele>1039.454212</ele>
        <time>2011-11-19T10:58:22Z</time>
      </trkpt>
      <trkpt lat="43.89685" lon="7.33959">
        <ele>1040.454201</ele>
        <time>2011-11-19T10:58:27Z</time>
      </trkpt>
      <trkpt lat="43.89694" lon="7.33951">
        <ele>1040.454193</ele>
        <time>2011-11-19T10:58:30Z</time>
      </trkpt>
      <trkpt lat="43.89704" lon="7.33947">
        <ele>1040.454193</ele>
        <time>2011-11-19T10:58:33Z</time>
      </trkpt>
      <trkpt lat="43.89715" lon="7.33946">
        <ele>1042.454208</ele>
        <time>2011-11-19T10:58:36Z</time>
      </trkpt>
      <trkpt lat="43.89724" lon="7.33953">
        <ele>1043.454239</ele>
        <time>2011-11-19T10:58:39Z</time>
      </trkpt>
      <trkpt lat="43.89729" lon="7.33965">
        <ele>1044.454269</ele>
        <time>2011-11-19T10:58:42Z</time>
      </trkpt>
      <trkpt lat="43.89731" lon="7.3398">
        <ele>1045.4543</ele>
        <time>2011-11-19T10:58:45Z</time>
      </trkpt>
      <trkpt lat="43.89727" lon="7.33992">
        <ele>1046.454319</ele>
        <time>2011-11-19T10:58:48Z</time>
      </trkpt>
      <trkpt lat="43.89723" lon="7.34005">
        <ele>1047.454342</ele>
        <time>2011-11-19T10:58:51Z</time>
      </trkpt>
      <trkpt lat="43.89724" lon="7.34018">
        <ele>1048.454369</ele>
        <time>2011-11-19T10:58:54Z</time>
      </trkpt>
      <trkpt lat="43.89727" lon="7.34029">
        <ele>1050.454399</ele>
        <time>2011-11-19T10:58:57Z</time>
      </trkpt>
      <trkpt lat="43.89732" lon="7.34043">
        <ele>1052.45443</ele>
        <time>2011-11-19T10:59:01Z</time>
      </trkpt>
      <trkpt lat="43.89736" lon="7.34057">
        <ele>1052.454468</ele>
        <time>2011-11-19T10:59:05Z</time>
      </trkpt>
      <trkpt lat="43.8974" lon="7.34061">
        <ele>1052.454483</ele>
        <time>2011-11-19T10:59:07Z</time>
      </trkpt>
      <trkpt lat="43.8975" lon="7.34068">
        <ele>1053.454506</ele>
        <time>2011-11-19T10:59:11Z</time>
      </trkpt>
      <trkpt lat="43.8976" lon="7.34066">
        <ele>1054.454517</ele>
        <time>2011-11-19T10:59:14Z</time>
      </trkpt>
      <trkpt lat="43.89769" lon="7.3406">
        <ele>1055.454517</ele>
        <time>2011-11-19T10:59:17Z</time>
      </trkpt>
      <trkpt lat="43.89777" lon="7.34052">
        <ele>1055.454506</ele>
        <time>2011-11-19T10:59:20Z</time>
      </trkpt>
      <trkpt lat="43.8978" lon="7.34049">
        <ele>1054.454506</ele>
        <time>2011-11-19T10:59:21Z</time>
      </trkpt>
      <trkpt lat="43.8979" lon="7.34041">
        <ele>1053.454506</ele>
        <time>2011-11-19T10:59:24Z</time>
      </trkpt>
      <trkpt lat="43.89801" lon="7.34037">
        <ele>1053.454514</ele>
        <time>2011-11-19T10:59:27Z</time>
      </trkpt>
      <trkpt lat="43.89811" lon="7.34041">
        <ele>1054.454536</ele>
        <time>2011-11-19T10:59:30Z</time>
      </trkpt>
      <trkpt lat="43.89821" lon="7.34048">
        <ele>1053.454559</ele>
        <time>2011-11-19T10:59:33Z</time>
      </trkpt>
      <trkpt lat="43.8983" lon="7.34055">
        <ele>1052.454586</ele>
        <time>2011-11-19T10:59:36Z</time>
      </trkpt>
      <trkpt lat="43.8984" lon="7.34062">
        <ele>1052.454613</ele>
        <time>2011-11-19T10:59:39Z</time>
      </trkpt>
      <trkpt lat="43.89847" lon="7.34067">
        <ele>1052.454636</ele>
        <time>2011-11-19T10:59:41Z</time>
      </trkpt>
      <trkpt lat="43.89857" lon="7.34074">
        <ele>1052.454659</ele>
        <time>2011-11-19T10:59:44Z</time>
      </trkpt>
      <trkpt lat="43.89868" lon="7.3408">
        <ele>1052.454689</ele>
        <time>2011-11-19T10:59:47Z</time>
      </trkpt>
      <trkpt lat="43.89875" lon="7.34085">
        <ele>1052.454708</ele>
        <time>2011-11-19T10:59:49Z</time>
      </trkpt>
      <trkpt lat="43.89886" lon="7.34091">
        <ele>1052.454735</ele>
        <time>2011-11-19T10:59:52Z</time>
      </trkpt>
      <trkpt lat="43.89896" lon="7.34098">
        <ele>1051.454765</ele>
        <time>2011-11-19T10:59:55Z</time>
      </trkpt>
      <trkpt lat="43.89905" lon="7.34105">
        <ele>1050.454788</ele>
        <time>2011-11-19T10:59:58Z</time>
      </trkpt>
      <trkpt lat="43.89909" lon="7.34106">
        <ele>1050.454796</ele>
        <time>2011-11-19T10:59:59Z</time>
      </trkpt>
      <trkpt lat="43.89919" lon="7.34111">
        <ele>1050.454819</ele>
        <time>2011-11-19T11:00:02Z</time>
      </trkpt>
      <trkpt lat="43.89927" lon="7.34116">
        <ele>1049.454842</ele>
        <time>2011-11-19T11:00:05Z</time>
      </trkpt>
      <trkpt lat="43.89937" lon="7.3412">
        <ele>1049.454861</ele>
        <time>2011-11-19T11:00:09Z</time>
      </trkpt>
      <trkpt lat="43.89947" lon="7.34124">
        <ele>1048.454887</ele>
        <time>2011-11-19T11:00:13Z</time>
      </trkpt>
      <trkpt lat="43.8995" lon="7.34125">
        <ele>1048.454887</ele>
        <time>2011-11-19T11:00:14Z</time>
      </trkpt>
      <trkpt lat="43.89959" lon="7.34129">
        <ele>1047.45491</ele>
        <time>2011-11-19T11:00:18Z</time>
      </trkpt>
      <trkpt lat="43.89969" lon="7.34132">
        <ele>1047.454933</ele>
        <time>2011-11-19T11:00:23Z</time>
      </trkpt>
      <trkpt lat="43.89979" lon="7.34136">
        <ele>1047.454952</ele>
        <time>2011-11-19T11:00:28Z</time>
      </trkpt>
      <trkpt lat="43.89988" lon="7.34138">
        <ele>1046.454967</ele>
        <time>2011-11-19T11:00:33Z</time>
      </trkpt>
      <trkpt lat="43.89996" lon="7.34146">
        <ele>1047.454994</ele>
        <time>2011-11-19T11:00:38Z</time>
      </trkpt>
      <trkpt lat="43.90005" lon="7.34152">
        <ele>1048.455017</ele>
        <time>2011-11-19T11:00:43Z</time>
      </trkpt>
      <trkpt lat="43.90021" lon="7.34161">
        <ele>1048.455063</ele>
        <time>2011-11-19T11:00:52Z</time>
      </trkpt>
      <trkpt lat="43.90034" lon="7.34166">
        <ele>1049.455082</ele>
        <time>2011-11-19T11:01:01Z</time>
      </trkpt>
      <trkpt lat="43.90042" lon="7.3417">
        <ele>1050.455105</ele>
        <time>2011-11-19T11:01:06Z</time>
      </trkpt>
      <trkpt lat="43.90053" lon="7.34175">
        <ele>1051.455128</ele>
        <time>2011-11-19T11:01:11Z</time>
      </trkpt>
      <trkpt lat="43.90072" lon="7.34168">
        <ele>1055.455139</ele>
        <time>2011-11-19T11:01:20Z</time>
      </trkpt>
      <trkpt lat="43.90074" lon="7.34164">
        <ele>1055.455132</ele>
        <time>2011-11-19T11:01:22Z</time>
      </trkpt>
      <trkpt lat="43.90082" lon="7.34151">
        <ele>1057.455116</ele>
        <time>2011-11-19T11:01:29Z</time>
      </trkpt>
      <trkpt lat="43.90084" lon="7.34136">
        <ele>1055.455093</ele>
        <time>2011-11-19T11:01:35Z</time>
      </trkpt>
      <trkpt lat="43.90084" lon="7.34132">
        <ele>1054.455078</ele>
        <time>2011-11-19T11:01:37Z</time>
      </trkpt>
      <trkpt lat="43.90086" lon="7.34116">
        <ele>1051.455051</ele>
        <time>2011-11-19T11:01:39Z</time>
      </trkpt>
      <trkpt lat="43.90087" lon="7.34099">
        <ele>1050.455017</ele>
        <time>2011-11-19T11:01:42Z</time>
      </trkpt>
      <trkpt lat="43.90087" lon="7.34083">
        <ele>1049.454987</ele>
        <time>2011-11-19T11:01:45Z</time>
      </trkpt>
      <trkpt lat="43.90088" lon="7.34069">
        <ele>1047.454956</ele>
        <time>2011-11-19T11:01:48Z</time>
      </trkpt>
      <trkpt lat="43.90087" lon="7.34056">
        <ele>1046.454926</ele>
        <time>2011-11-19T11:01:51Z</time>
      </trkpt>
      <trkpt lat="43.90087" lon="7.34051">
        <ele>1045.454918</ele>
        <time>2011-11-19T11:01:52Z</time>
      </trkpt>
      <trkpt lat="43.90087" lon="7.34038">
        <ele>1043.454895</ele>
        <time>2011-11-19T11:01:55Z</time>
      </trkpt>
      <trkpt lat="43.90087" lon="7.34025">
        <ele>1040.454868</ele>
        <time>2011-11-19T11:01:58Z</time>
      </trkpt>
      <trkpt lat="43.90086" lon="7.3401">
        <ele>1037.454838</ele>
        <time>2011-11-19T11:02:02Z</time>
      </trkpt>
      <trkpt lat="43.90085" lon="7.33997">
        <ele>1036.454811</ele>
        <time>2011-11-19T11:02:06Z</time>
      </trkpt>
      <trkpt lat="43.90084" lon="7.33985">
        <ele>1037.454781</ele>
        <time>2011-11-19T11:02:10Z</time>
      </trkpt>
      <trkpt lat="43.90082" lon="7.33971">
        <ele>1037.454746</ele>
        <time>2011-11-19T11:02:15Z</time>
      </trkpt>
      <trkpt lat="43.90081" lon="7.33968">
        <ele>1037.454742</ele>
        <time>2011-11-19T11:02:16Z</time>
      </trkpt>
      <trkpt lat="43.90079" lon="7.33954">
        <ele>1038.454712</ele>
        <time>2011-11-19T11:02:21Z</time>
      </trkpt>
      <trkpt lat="43.90081" lon="7.3394">
        <ele>1039.454689</ele>
        <time>2011-11-19T11:02:26Z</time>
      </trkpt>
      <trkpt lat="43.90087" lon="7.33929">
        <ele>1039.454666</ele>
        <time>2011-11-19T11:02:30Z</time>
      </trkpt>
      <trkpt lat="43.90094" lon="7.33921">
        <ele>1039.454666</ele>
        <time>2011-11-19T11:02:34Z</time>
      </trkpt>
      <trkpt lat="43.90102" lon="7.33913">
        <ele>1039.454659</ele>
        <time>2011-11-19T11:02:38Z</time>
      </trkpt>
      <trkpt lat="43.90107" lon="7.33902">
        <ele>1039.454639</ele>
        <time>2011-11-19T11:02:42Z</time>
      </trkpt>
      <trkpt lat="43.90108" lon="7.33899">
        <ele>1039.454639</ele>
        <time>2011-11-19T11:02:43Z</time>
      </trkpt>
      <trkpt lat="43.9011" lon="7.33887">
        <ele>1040.454613</ele>
        <time>2011-11-19T11:02:47Z</time>
      </trkpt>
      <trkpt lat="43.90112" lon="7.33874">
        <ele>1039.45459</ele>
        <time>2011-11-19T11:02:51Z</time>
      </trkpt>
      <trkpt lat="43.90114" lon="7.33861">
        <ele>1038.454567</ele>
        <time>2011-11-19T11:02:55Z</time>
      </trkpt>
      <trkpt lat="43.90117" lon="7.33847">
        <ele>1038.454544</ele>
        <time>2011-11-19T11:03:00Z</time>
      </trkpt>
      <trkpt lat="43.90121" lon="7.33835">
        <ele>1041.454521</ele>
        <time>2011-11-19T11:03:05Z</time>
      </trkpt>
      <trkpt lat="43.90129" lon="7.33828">
        <ele>1042.454521</ele>
        <time>2011-11-19T11:03:11Z</time>
      </trkpt>
      <trkpt lat="43.90138" lon="7.33823">
        <ele>1043.454517</ele>
        <time>2011-11-19T11:03:16Z</time>
      </trkpt>
      <trkpt lat="43.90142" lon="7.33822">
        <ele>1043.454521</ele>
        <time>2011-11-19T11:03:18Z</time>
      </trkpt>
      <trkpt lat="43.90152" lon="7.33818">
        <ele>1043.454529</ele>
        <time>2011-11-19T11:03:23Z</time>
      </trkpt>
      <trkpt lat="43.90163" lon="7.33815">
        <ele>1045.454536</ele>
        <time>2011-11-19T11:03:28Z</time>
      </trkpt>
      <trkpt lat="43.90173" lon="7.33812">
        <ele>1046.454544</ele>
        <time>2011-11-19T11:03:34Z</time>
      </trkpt>
      <trkpt lat="43.90184" lon="7.33812">
        <ele>1048.454559</ele>
        <time>2011-11-19T11:03:40Z</time>
      </trkpt>
      <trkpt lat="43.90195" lon="7.33811">
        <ele>1050.454571</ele>
        <time>2011-11-19T11:03:45Z</time>
      </trkpt>
      <trkpt lat="43.90197" lon="7.33811">
        <ele>1050.454575</ele>
        <time>2011-11-19T11:03:46Z</time>
      </trkpt>
      <trkpt lat="43.90208" lon="7.33813">
        <ele>1050.454594</ele>
        <time>2011-11-19T11:03:50Z</time>
      </trkpt>
      <trkpt lat="43.90219" lon="7.33815">
        <ele>1051.454617</ele>
        <time>2011-11-19T11:03:54Z</time>
      </trkpt>
      <trkpt lat="43.90228" lon="7.33817">
        <ele>1051.454628</ele>
        <time>2011-11-19T11:03:57Z</time>
      </trkpt>
      <trkpt lat="43.90237" lon="7.33818">
        <ele>1052.454643</ele>
        <time>2011-11-19T11:04:00Z</time>
      </trkpt>
      <trkpt lat="43.90247" lon="7.33819">
        <ele>1052.454659</ele>
        <time>2011-11-19T11:04:03Z</time>
      </trkpt>
      <trkpt lat="43.90256" lon="7.33819">
        <ele>1053.45467</ele>
        <time>2011-11-19T11:04:06Z</time>
      </trkpt>
      <trkpt lat="43.90265" lon="7.33819">
        <ele>1053.454681</ele>
        <time>2011-11-19T11:04:09Z</time>
      </trkpt>
      <trkpt lat="43.90275" lon="7.3382">
        <ele>1053.454697</ele>
        <time>2011-11-19T11:04:13Z</time>
      </trkpt>
      <trkpt lat="43.90286" lon="7.33824">
        <ele>1053.45472</ele>
        <time>2011-11-19T11:04:17Z</time>
      </trkpt>
      <trkpt lat="43.90293" lon="7.33832">
        <ele>1053.454742</ele>
        <time>2011-11-19T11:04:20Z</time>
      </trkpt>
      <trkpt lat="43.90299" lon="7.33841">
        <ele>1053.454773</ele>
        <time>2011-11-19T11:04:23Z</time>
      </trkpt>
      <trkpt lat="43.90304" lon="7.33853">
        <ele>1054.454803</ele>
        <time>2011-11-19T11:04:27Z</time>
      </trkpt>
      <trkpt lat="43.90305" lon="7.33857">
        <ele>1055.454811</ele>
        <time>2011-11-19T11:04:28Z</time>
      </trkpt>
      <trkpt lat="43.90307" lon="7.3387">
        <ele>1055.454842</ele>
        <time>2011-11-19T11:04:32Z</time>
      </trkpt>
      <trkpt lat="43.9031" lon="7.33884">
        <ele>1054.454876</ele>
        <time>2011-11-19T11:04:36Z</time>
      </trkpt>
      <trkpt lat="43.90314" lon="7.33901">
        <ele>1054.45491</ele>
        <time>2011-11-19T11:04:40Z</time>
      </trkpt>
      <trkpt lat="43.90315" lon="7.33911">
        <ele>1054.454941</ele>
        <time>2011-11-19T11:04:42Z</time>
      </trkpt>
      <trkpt lat="43.90318" lon="7.33924">
        <ele>1054.454971</ele>
        <time>2011-11-19T11:04:45Z</time>
      </trkpt>
      <trkpt lat="43.90323" lon="7.33938">
        <ele>1054.455002</ele>
        <time>2011-11-19T11:04:49Z</time>
      </trkpt>
      <trkpt lat="43.90331" lon="7.33946">
        <ele>1054.455025</ele>
        <time>2011-11-19T11:04:53Z</time>
      </trkpt>
      <trkpt lat="43.90342" lon="7.3394">
        <ele>1055.455032</ele>
        <time>2011-11-19T11:05:00Z</time>
      </trkpt>
      <trkpt lat="43.90351" lon="7.33934">
        <ele>1056.455032</ele>
        <time>2011-11-19T11:05:03Z</time>
      </trkpt>
      <trkpt lat="43.9036" lon="7.33926">
        <ele>1057.455029</ele>
        <time>2011-11-19T11:05:05Z</time>
      </trkpt>
      <trkpt lat="43.90369" lon="7.33919">
        <ele>1057.455025</ele>
        <time>2011-11-19T11:05:07Z</time>
      </trkpt>
      <trkpt lat="43.90378" lon="7.33913">
        <ele>1058.455025</ele>
        <time>2011-11-19T11:05:09Z</time>
      </trkpt>
      <trkpt lat="43.90386" lon="7.33909">
        <ele>1058.455025</ele>
        <time>2011-11-19T11:05:11Z</time>
      </trkpt>
      <trkpt lat="43.90398" lon="7.33902">
        <ele>1058.455025</ele>
        <time>2011-11-19T11:05:14Z</time>
      </trkpt>
      <trkpt lat="43.9041" lon="7.339">
        <ele>1059.45504</ele>
        <time>2011-11-19T11:05:17Z</time>
      </trkpt>
      <trkpt lat="43.90423" lon="7.33901">
        <ele>1060.455063</ele>
        <time>2011-11-19T11:05:20Z</time>
      </trkpt>
      <trkpt lat="43.90435" lon="7.33904">
        <ele>1061.455082</ele>
        <time>2011-11-19T11:05:23Z</time>
      </trkpt>
      <trkpt lat="43.90446" lon="7.33914">
        <ele>1062.455116</ele>
        <time>2011-11-19T11:05:26Z</time>
      </trkpt>
      <trkpt lat="43.90454" lon="7.33921">
        <ele>1061.455143</ele>
        <time>2011-11-19T11:05:28Z</time>
      </trkpt>
      <trkpt lat="43.90461" lon="7.3393">
        <ele>1061.45517</ele>
        <time>2011-11-19T11:05:30Z</time>
      </trkpt>
      <trkpt lat="43.90469" lon="7.33946">
        <ele>1061.455215</ele>
        <time>2011-11-19T11:05:33Z</time>
      </trkpt>
      <trkpt lat="43.90475" lon="7.33958">
        <ele>1061.455242</ele>
        <time>2011-11-19T11:05:35Z</time>
      </trkpt>
      <trkpt lat="43.90481" lon="7.33969">
        <ele>1060.455276</ele>
        <time>2011-11-19T11:05:37Z</time>
      </trkpt>
      <trkpt lat="43.90488" lon="7.33979">
        <ele>1060.455307</ele>
        <time>2011-11-19T11:05:40Z</time>
      </trkpt>
      <trkpt lat="43.90497" lon="7.33991">
        <ele>1061.455345</ele>
        <time>2011-11-19T11:05:44Z</time>
      </trkpt>
      <trkpt lat="43.90508" lon="7.33998">
        <ele>1061.455368</ele>
        <time>2011-11-19T11:05:47Z</time>
      </trkpt>
      <trkpt lat="43.90518" lon="7.34001">
        <ele>1061.455391</ele>
        <time>2011-11-19T11:05:50Z</time>
      </trkpt>
      <trkpt lat="43.90528" lon="7.33999">
        <ele>1062.455399</ele>
        <time>2011-11-19T11:05:53Z</time>
      </trkpt>
      <trkpt lat="43.90536" lon="7.33994">
        <ele>1062.455402</ele>
        <time>2011-11-19T11:05:56Z</time>
      </trkpt>
      <trkpt lat="43.90544" lon="7.33985">
        <ele>1063.455391</ele>
        <time>2011-11-19T11:05:59Z</time>
      </trkpt>
      <trkpt lat="43.90547" lon="7.33974">
        <ele>1064.455376</ele>
        <time>2011-11-19T11:06:01Z</time>
      </trkpt>
      <trkpt lat="43.9055" lon="7.33962">
        <ele>1064.455353</ele>
        <time>2011-11-19T11:06:03Z</time>
      </trkpt>
      <trkpt lat="43.90553" lon="7.33947">
        <ele>1065.455322</ele>
        <time>2011-11-19T11:06:05Z</time>
      </trkpt>
      <trkpt lat="43.90555" lon="7.33933">
        <ele>1066.455299</ele>
        <time>2011-11-19T11:06:07Z</time>
      </trkpt>
      <trkpt lat="43.90557" lon="7.3392">
        <ele>1066.45528</ele>
        <time>2011-11-19T11:06:09Z</time>
      </trkpt>
      <trkpt lat="43.90561" lon="7.33906">
        <ele>1066.455254</ele>
        <time>2011-11-19T11:06:12Z</time>
      </trkpt>
      <trkpt lat="43.90563" lon="7.33902">
        <ele>1066.455246</ele>
        <time>2011-11-19T11:06:13Z</time>
      </trkpt>
      <trkpt lat="43.90571" lon="7.33892">
        <ele>1065.455238</ele>
        <time>2011-11-19T11:06:17Z</time>
      </trkpt>
      <trkpt lat="43.9058" lon="7.33886">
        <ele>1065.455235</ele>
        <time>2011-11-19T11:06:21Z</time>
      </trkpt>
      <trkpt lat="43.9059" lon="7.33883">
        <ele>1064.455246</ele>
        <time>2011-11-19T11:06:25Z</time>
      </trkpt>
      <trkpt lat="43.906" lon="7.3388">
        <ele>1064.455254</ele>
        <time>2011-11-19T11:06:30Z</time>
      </trkpt>
      <trkpt lat="43.9061" lon="7.33883">
        <ele>1065.455269</ele>
        <time>2011-11-19T11:06:36Z</time>
      </trkpt>
      <trkpt lat="43.90621" lon="7.33879">
        <ele>1065.455276</ele>
        <time>2011-11-19T11:06:42Z</time>
      </trkpt>
      <trkpt lat="43.90629" lon="7.3387">
        <ele>1065.455269</ele>
        <time>2011-11-19T11:06:47Z</time>
      </trkpt>
      <trkpt lat="43.90634" lon="7.33858">
        <ele>1065.455254</ele>
        <time>2011-11-19T11:06:51Z</time>
      </trkpt>
      <trkpt lat="43.90643" lon="7.33863">
        <ele>1065.455276</ele>
        <time>2011-11-19T11:06:59Z</time>
      </trkpt>
      <trkpt lat="43.9064" lon="7.33849">
        <ele>1065.455242</ele>
        <time>2011-11-19T11:07:08Z</time>
      </trkpt>
      <trkpt lat="43.9064" lon="7.33843">
        <ele>1064.455231</ele>
        <time>2011-11-19T11:07:10Z</time>
      </trkpt>
      <trkpt lat="43.90641" lon="7.3383">
        <ele>1064.455204</ele>
        <time>2011-11-19T11:07:14Z</time>
      </trkpt>
      <trkpt lat="43.90642" lon="7.33815">
        <ele>1063.455177</ele>
        <time>2011-11-19T11:07:19Z</time>
      </trkpt>
      <trkpt lat="43.90645" lon="7.33792">
        <ele>1061.455132</ele>
        <time>2011-11-19T11:07:26Z</time>
      </trkpt>
      <trkpt lat="43.90644" lon="7.3378">
        <ele>1060.455109</ele>
        <time>2011-11-19T11:07:31Z</time>
      </trkpt>
      <trkpt lat="43.90644" lon="7.3378">
        <ele>1060.455109</ele>
        <time>2011-11-19T11:07:33Z</time>
      </trkpt>
      <trkpt lat="43.90646" lon="7.33767">
        <ele>1061.455078</ele>
        <time>2011-11-19T11:07:40Z</time>
      </trkpt>
      <trkpt lat="43.90647" lon="7.33751">
        <ele>1061.455051</ele>
        <time>2011-11-19T11:07:45Z</time>
      </trkpt>
      <trkpt lat="43.90648" lon="7.33738">
        <ele>1062.455025</ele>
        <time>2011-11-19T11:07:49Z</time>
      </trkpt>
      <trkpt lat="43.90651" lon="7.3372">
        <ele>1061.454994</ele>
        <time>2011-11-19T11:07:55Z</time>
      </trkpt>
      <trkpt lat="43.90654" lon="7.33707">
        <ele>1061.454971</ele>
        <time>2011-11-19T11:08:01Z</time>
      </trkpt>
      <trkpt lat="43.90657" lon="7.33694">
        <ele>1060.454948</ele>
        <time>2011-11-19T11:08:06Z</time>
      </trkpt>
      <trkpt lat="43.90663" lon="7.33674">
        <ele>1061.454914</ele>
        <time>2011-11-19T11:08:14Z</time>
      </trkpt>
      <trkpt lat="43.90668" lon="7.33663">
        <ele>1061.454899</ele>
        <time>2011-11-19T11:08:20Z</time>
      </trkpt>
      <trkpt lat="43.90668" lon="7.33663">
        <ele>1061.454899</ele>
        <time>2011-11-19T11:08:21Z</time>
      </trkpt>
      <trkpt lat="43.90671" lon="7.3365">
        <ele>1062.454876</ele>
        <time>2011-11-19T11:08:26Z</time>
      </trkpt>
      <trkpt lat="43.90673" lon="7.33637">
        <ele>1062.454849</ele>
        <time>2011-11-19T11:08:32Z</time>
      </trkpt>
      <trkpt lat="43.90674" lon="7.33623">
        <ele>1063.454826</ele>
        <time>2011-11-19T11:08:37Z</time>
      </trkpt>
      <trkpt lat="43.90676" lon="7.33611">
        <ele>1063.454803</ele>
        <time>2011-11-19T11:08:42Z</time>
      </trkpt>
      <trkpt lat="43.9068" lon="7.33596">
        <ele>1064.454781</ele>
        <time>2011-11-19T11:08:47Z</time>
      </trkpt>
      <trkpt lat="43.90684" lon="7.33583">
        <ele>1065.454758</ele>
        <time>2011-11-19T11:08:51Z</time>
      </trkpt>
      <trkpt lat="43.90686" lon="7.33569">
        <ele>1066.454731</ele>
        <time>2011-11-19T11:08:56Z</time>
      </trkpt>
      <trkpt lat="43.90686" lon="7.33568">
        <ele>1066.454731</ele>
        <time>2011-11-19T11:08:58Z</time>
      </trkpt>
      <trkpt lat="43.90684" lon="7.33553">
        <ele>1067.454689</ele>
        <time>2011-11-19T11:09:05Z</time>
      </trkpt>
      <trkpt lat="43.90682" lon="7.33539">
        <ele>1068.454662</ele>
        <time>2011-11-19T11:09:08Z</time>
      </trkpt>
      <trkpt lat="43.90681" lon="7.33524">
        <ele>1069.454632</ele>
        <time>2011-11-19T11:09:11Z</time>
      </trkpt>
      <trkpt lat="43.90681" lon="7.3351">
        <ele>1071.454597</ele>
        <time>2011-11-19T11:09:14Z</time>
      </trkpt>
      <trkpt lat="43.90679" lon="7.33496">
        <ele>1072.454575</ele>
        <time>2011-11-19T11:09:17Z</time>
      </trkpt>
      <trkpt lat="43.90677" lon="7.33481">
        <ele>1072.454536</ele>
        <time>2011-11-19T11:09:20Z</time>
      </trkpt>
      <trkpt lat="43.90675" lon="7.33466">
        <ele>1072.454506</ele>
        <time>2011-11-19T11:09:23Z</time>
      </trkpt>
      <trkpt lat="43.90675" lon="7.3345">
        <ele>1073.454472</ele>
        <time>2011-11-19T11:09:26Z</time>
      </trkpt>
      <trkpt lat="43.90676" lon="7.33433">
        <ele>1073.454437</ele>
        <time>2011-11-19T11:09:29Z</time>
      </trkpt>
      <trkpt lat="43.90678" lon="7.33416">
        <ele>1073.454407</ele>
        <time>2011-11-19T11:09:32Z</time>
      </trkpt>
      <trkpt lat="43.90681" lon="7.334">
        <ele>1073.454376</ele>
        <time>2011-11-19T11:09:35Z</time>
      </trkpt>
      <trkpt lat="43.90686" lon="7.33389">
        <ele>1073.454361</ele>
        <time>2011-11-19T11:09:38Z</time>
      </trkpt>
      <trkpt lat="43.90695" lon="7.33383">
        <ele>1074.454361</ele>
        <time>2011-11-19T11:09:41Z</time>
      </trkpt>
      <trkpt lat="43.90706" lon="7.33383">
        <ele>1074.454376</ele>
        <time>2011-11-19T11:09:44Z</time>
      </trkpt>
      <trkpt lat="43.90715" lon="7.33387">
        <ele>1074.454399</ele>
        <time>2011-11-19T11:09:46Z</time>
      </trkpt>
      <trkpt lat="43.90725" lon="7.33391">
        <ele>1074.454418</ele>
        <time>2011-11-19T11:09:48Z</time>
      </trkpt>
      <trkpt lat="43.90735" lon="7.33394">
        <ele>1075.454437</ele>
        <time>2011-11-19T11:09:50Z</time>
      </trkpt>
      <trkpt lat="43.90745" lon="7.33394">
        <ele>1076.454453</ele>
        <time>2011-11-19T11:09:52Z</time>
      </trkpt>
      <trkpt lat="43.90753" lon="7.33389">
        <ele>1076.454453</ele>
        <time>2011-11-19T11:09:54Z</time>
      </trkpt>
      <trkpt lat="43.90759" lon="7.33373">
        <ele>1078.45443</ele>
        <time>2011-11-19T11:09:57Z</time>
      </trkpt>
      <trkpt lat="43.9076" lon="7.33355">
        <ele>1079.454391</ele>
        <time>2011-11-19T11:10:00Z</time>
      </trkpt>
      <trkpt lat="43.90757" lon="7.3334">
        <ele>1081.454353</ele>
        <time>2011-11-19T11:10:03Z</time>
      </trkpt>
      <trkpt lat="43.90754" lon="7.33328">
        <ele>1082.454327</ele>
        <time>2011-11-19T11:10:07Z</time>
      </trkpt>
      <trkpt lat="43.90756" lon="7.33315">
        <ele>1083.454304</ele>
        <time>2011-11-19T11:10:16Z</time>
      </trkpt>
      <trkpt lat="43.90756" lon="7.33301">
        <ele>1084.454277</ele>
        <time>2011-11-19T11:10:28Z</time>
      </trkpt>
      <trkpt lat="43.90754" lon="7.33289">
        <ele>1091.454247</ele>
        <time>2011-11-19T11:13:04Z</time>
      </trkpt>
      <trkpt lat="43.90754" lon="7.33286">
        <ele>1089.454239</ele>
        <time>2011-11-19T11:13:13Z</time>
      </trkpt>
      <trkpt lat="43.90748" lon="7.33296">
        <ele>1097.454254</ele>
        <time>2011-11-19T11:21:30Z</time>
      </trkpt>
      <trkpt lat="43.90748" lon="7.33308">
        <ele>1088.454281</ele>
        <time>2011-11-19T11:30:33Z</time>
      </trkpt>
      <trkpt lat="43.90748" lon="7.33309">
        <ele>1088.454281</ele>
        <time>2011-11-19T11:30:38Z</time>
      </trkpt>
      <trkpt lat="43.90745" lon="7.33297">
        <ele>1088.454254</ele>
        <time>2011-11-19T11:31:28Z</time>
      </trkpt>
      <trkpt lat="43.90751" lon="7.33309">
        <ele>1080.454285</ele>
        <time>2011-11-19T11:32:02Z</time>
      </trkpt>
      <trkpt lat="43.90751" lon="7.33309">
        <ele>1080.454285</ele>
        <time>2011-11-19T11:32:04Z</time>
      </trkpt>
      <trkpt lat="43.90763" lon="7.33305">
        <ele>1080.454292</ele>
        <time>2011-11-19T11:32:17Z</time>
      </trkpt>
      <trkpt lat="43.90771" lon="7.33298">
        <ele>1080.454285</ele>
        <time>2011-11-19T11:32:24Z</time>
      </trkpt>
      <trkpt lat="43.90781" lon="7.33294">
        <ele>1081.454292</ele>
        <time>2011-11-19T11:32:30Z</time>
      </trkpt>
      <trkpt lat="43.90795" lon="7.33286">
        <ele>1081.454296</ele>
        <time>2011-11-19T11:32:39Z</time>
      </trkpt>
      <trkpt lat="43.90811" lon="7.33274">
        <ele>1084.454292</ele>
        <time>2011-11-19T11:32:50Z</time>
      </trkpt>
      <trkpt lat="43.9082" lon="7.33269">
        <ele>1084.454296</ele>
        <time>2011-11-19T11:32:55Z</time>
      </trkpt>
      <trkpt lat="43.90832" lon="7.33263">
        <ele>1085.4543</ele>
        <time>2011-11-19T11:33:01Z</time>
      </trkpt>
      <trkpt lat="43.90842" lon="7.33257">
        <ele>1086.4543</ele>
        <time>2011-11-19T11:33:06Z</time>
      </trkpt>
      <trkpt lat="43.90852" lon="7.33252">
        <ele>1086.4543</ele>
        <time>2011-11-19T11:33:11Z</time>
      </trkpt>
      <trkpt lat="43.90854" lon="7.33251">
        <ele>1086.4543</ele>
        <time>2011-11-19T11:33:12Z</time>
      </trkpt>
      <trkpt lat="43.90863" lon="7.33245">
        <ele>1087.454308</ele>
        <time>2011-11-19T11:33:16Z</time>
      </trkpt>
      <trkpt lat="43.90865" lon="7.33244">
        <ele>1087.454304</ele>
        <time>2011-11-19T11:33:17Z</time>
      </trkpt>
      <trkpt lat="43.90874" lon="7.33236">
        <ele>1089.4543</ele>
        <time>2011-11-19T11:33:21Z</time>
      </trkpt>
      <trkpt lat="43.90884" lon="7.33221">
        <ele>1090.454285</ele>
        <time>2011-11-19T11:33:27Z</time>
      </trkpt>
      <trkpt lat="43.9089" lon="7.33208">
        <ele>1090.454262</ele>
        <time>2011-11-19T11:33:31Z</time>
      </trkpt>
      <trkpt lat="43.90899" lon="7.33186">
        <ele>1088.454231</ele>
        <time>2011-11-19T11:33:38Z</time>
      </trkpt>
      <trkpt lat="43.90905" lon="7.33177">
        <ele>1089.45422</ele>
        <time>2011-11-19T11:33:45Z</time>
      </trkpt>
      <trkpt lat="43.90914" lon="7.33172">
        <ele>1092.45422</ele>
        <time>2011-11-19T11:33:52Z</time>
      </trkpt>
      <trkpt lat="43.90917" lon="7.3317">
        <ele>1093.45422</ele>
        <time>2011-11-19T11:33:54Z</time>
      </trkpt>
      <trkpt lat="43.90927" lon="7.33156">
        <ele>1095.454208</ele>
        <time>2011-11-19T11:34:02Z</time>
      </trkpt>
      <trkpt lat="43.9093" lon="7.3315">
        <ele>1096.454201</ele>
        <time>2011-11-19T11:34:05Z</time>
      </trkpt>
      <trkpt lat="43.90939" lon="7.33132">
        <ele>1099.454174</ele>
        <time>2011-11-19T11:34:13Z</time>
      </trkpt>
      <trkpt lat="43.90944" lon="7.3312">
        <ele>1099.454155</ele>
        <time>2011-11-19T11:34:18Z</time>
      </trkpt>
      <trkpt lat="43.90949" lon="7.33108">
        <ele>1101.45414</ele>
        <time>2011-11-19T11:34:23Z</time>
      </trkpt>
      <trkpt lat="43.90955" lon="7.33098">
        <ele>1101.454124</ele>
        <time>2011-11-19T11:34:29Z</time>
      </trkpt>
      <trkpt lat="43.90964" lon="7.33093">
        <ele>1102.454128</ele>
        <time>2011-11-19T11:34:36Z</time>
      </trkpt>
      <trkpt lat="43.90974" lon="7.33092">
        <ele>1103.454136</ele>
        <time>2011-11-19T11:34:42Z</time>
      </trkpt>
      <trkpt lat="43.90988" lon="7.3309">
        <ele>1105.454151</ele>
        <time>2011-11-19T11:34:51Z</time>
      </trkpt>
      <trkpt lat="43.90999" lon="7.33083">
        <ele>1108.454155</ele>
        <time>2011-11-19T11:34:58Z</time>
      </trkpt>
      <trkpt lat="43.91008" lon="7.33077">
        <ele>1111.454151</ele>
        <time>2011-11-19T11:35:04Z</time>
      </trkpt>
      <trkpt lat="43.91021" lon="7.33066">
        <ele>1116.454147</ele>
        <time>2011-11-19T11:35:13Z</time>
      </trkpt>
      <trkpt lat="43.91029" lon="7.3306">
        <ele>1118.454144</ele>
        <time>2011-11-19T11:35:19Z</time>
      </trkpt>
      <trkpt lat="43.91038" lon="7.33054">
        <ele>1120.454147</ele>
        <time>2011-11-19T11:35:25Z</time>
      </trkpt>
      <trkpt lat="43.91047" lon="7.3305">
        <ele>1121.454147</ele>
        <time>2011-11-19T11:35:31Z</time>
      </trkpt>
      <trkpt lat="43.91056" lon="7.33046">
        <ele>1121.454155</ele>
        <time>2011-11-19T11:35:37Z</time>
      </trkpt>
      <trkpt lat="43.91066" lon="7.33043">
        <ele>1122.454159</ele>
        <time>2011-11-19T11:35:44Z</time>
      </trkpt>
      <trkpt lat="43.91075" lon="7.3304">
        <ele>1121.454166</ele>
        <time>2011-11-19T11:35:51Z</time>
      </trkpt>
      <trkpt lat="43.91085" lon="7.33038">
        <ele>1122.454174</ele>
        <time>2011-11-19T11:35:58Z</time>
      </trkpt>
      <trkpt lat="43.91095" lon="7.33034">
        <ele>1122.454178</ele>
        <time>2011-11-19T11:36:05Z</time>
      </trkpt>
      <trkpt lat="43.91104" lon="7.3303">
        <ele>1120.454185</ele>
        <time>2011-11-19T11:36:11Z</time>
      </trkpt>
      <trkpt lat="43.91113" lon="7.33024">
        <ele>1120.454185</ele>
        <time>2011-11-19T11:36:18Z</time>
      </trkpt>
      <trkpt lat="43.9112" lon="7.33016">
        <ele>1122.454178</ele>
        <time>2011-11-19T11:36:25Z</time>
      </trkpt>
      <trkpt lat="43.91126" lon="7.33004">
        <ele>1122.454163</ele>
        <time>2011-11-19T11:36:32Z</time>
      </trkpt>
      <trkpt lat="43.91131" lon="7.32988">
        <ele>1123.454136</ele>
        <time>2011-11-19T11:36:41Z</time>
      </trkpt>
      <trkpt lat="43.91136" lon="7.32977">
        <ele>1123.454117</ele>
        <time>2011-11-19T11:36:46Z</time>
      </trkpt>
      <trkpt lat="43.91143" lon="7.32964">
        <ele>1125.454102</ele>
        <time>2011-11-19T11:36:52Z</time>
      </trkpt>
      <trkpt lat="43.91149" lon="7.32954">
        <ele>1126.454086</ele>
        <time>2011-11-19T11:36:57Z</time>
      </trkpt>
      <trkpt lat="43.91155" lon="7.32944">
        <ele>1127.454079</ele>
        <time>2011-11-19T11:37:02Z</time>
      </trkpt>
      <trkpt lat="43.91162" lon="7.32935">
        <ele>1128.454067</ele>
        <time>2011-11-19T11:37:06Z</time>
      </trkpt>
      <trkpt lat="43.9117" lon="7.32925">
        <ele>1129.45406</ele>
        <time>2011-11-19T11:37:11Z</time>
      </trkpt>
      <trkpt lat="43.91178" lon="7.32917">
        <ele>1129.454056</ele>
        <time>2011-11-19T11:37:16Z</time>
      </trkpt>
      <trkpt lat="43.91194" lon="7.3291">
        <ele>1131.45406</ele>
        <time>2011-11-19T11:37:25Z</time>
      </trkpt>
      <trkpt lat="43.91204" lon="7.32907">
        <ele>1132.454067</ele>
        <time>2011-11-19T11:37:30Z</time>
      </trkpt>
      <trkpt lat="43.91213" lon="7.32906">
        <ele>1134.454079</ele>
        <time>2011-11-19T11:37:34Z</time>
      </trkpt>
      <trkpt lat="43.91223" lon="7.32902">
        <ele>1136.454086</ele>
        <time>2011-11-19T11:37:38Z</time>
      </trkpt>
      <trkpt lat="43.91233" lon="7.32893">
        <ele>1139.454079</ele>
        <time>2011-11-19T11:37:42Z</time>
      </trkpt>
      <trkpt lat="43.91236" lon="7.32891">
        <ele>1138.454079</ele>
        <time>2011-11-19T11:37:43Z</time>
      </trkpt>
      <trkpt lat="43.91246" lon="7.32884">
        <ele>1138.454075</ele>
        <time>2011-11-19T11:37:46Z</time>
      </trkpt>
      <trkpt lat="43.91254" lon="7.3288">
        <ele>1139.454079</ele>
        <time>2011-11-19T11:37:48Z</time>
      </trkpt>
      <trkpt lat="43.91267" lon="7.32875">
        <ele>1142.454082</ele>
        <time>2011-11-19T11:37:51Z</time>
      </trkpt>
      <trkpt lat="43.91271" lon="7.32873">
        <ele>1143.454086</ele>
        <time>2011-11-19T11:37:52Z</time>
      </trkpt>
      <trkpt lat="43.9128" lon="7.32866">
        <ele>1144.454086</ele>
        <time>2011-11-19T11:37:54Z</time>
      </trkpt>
      <trkpt lat="43.91288" lon="7.32859">
        <ele>1145.454082</ele>
        <time>2011-11-19T11:37:56Z</time>
      </trkpt>
      <trkpt lat="43.91297" lon="7.32851">
        <ele>1145.454079</ele>
        <time>2011-11-19T11:37:58Z</time>
      </trkpt>
      <trkpt lat="43.91305" lon="7.32843">
        <ele>1145.454071</ele>
        <time>2011-11-19T11:38:00Z</time>
      </trkpt>
      <trkpt lat="43.91313" lon="7.32837">
        <ele>1145.454071</ele>
        <time>2011-11-19T11:38:02Z</time>
      </trkpt>
      <trkpt lat="43.91324" lon="7.32831">
        <ele>1146.454071</ele>
        <time>2011-11-19T11:38:05Z</time>
      </trkpt>
      <trkpt lat="43.91333" lon="7.32825">
        <ele>1148.454067</ele>
        <time>2011-11-19T11:38:08Z</time>
      </trkpt>
      <trkpt lat="43.91335" lon="7.32823">
        <ele>1148.454067</ele>
        <time>2011-11-19T11:38:09Z</time>
      </trkpt>
      <trkpt lat="43.91344" lon="7.32817">
        <ele>1150.454071</ele>
        <time>2011-11-19T11:38:12Z</time>
      </trkpt>
      <trkpt lat="43.91351" lon="7.32809">
        <ele>1151.454063</ele>
        <time>2011-11-19T11:38:15Z</time>
      </trkpt>
      <trkpt lat="43.91354" lon="7.32807">
        <ele>1151.454063</ele>
        <time>2011-11-19T11:38:16Z</time>
      </trkpt>
      <trkpt lat="43.91362" lon="7.32797">
        <ele>1151.454056</ele>
        <time>2011-11-19T11:38:20Z</time>
      </trkpt>
      <trkpt lat="43.9137" lon="7.3279">
        <ele>1150.454048</ele>
        <time>2011-11-19T11:38:24Z</time>
      </trkpt>
      <trkpt lat="43.91381" lon="7.32782">
        <ele>1152.454048</ele>
        <time>2011-11-19T11:38:30Z</time>
      </trkpt>
      <trkpt lat="43.91386" lon="7.32778">
        <ele>1153.454048</ele>
        <time>2011-11-19T11:38:33Z</time>
      </trkpt>
      <trkpt lat="43.91396" lon="7.32774">
        <ele>1154.454048</ele>
        <time>2011-11-19T11:38:39Z</time>
      </trkpt>
      <trkpt lat="43.91412" lon="7.32764">
        <ele>1157.454048</ele>
        <time>2011-11-19T11:38:49Z</time>
      </trkpt>
      <trkpt lat="43.91422" lon="7.32758">
        <ele>1157.454056</ele>
        <time>2011-11-19T11:38:54Z</time>
      </trkpt>
      <trkpt lat="43.91433" lon="7.32751">
        <ele>1157.454052</ele>
        <time>2011-11-19T11:38:59Z</time>
      </trkpt>
      <trkpt lat="43.91433" lon="7.32751">
        <ele>1157.454052</ele>
        <time>2011-11-19T11:39:00Z</time>
      </trkpt>
      <trkpt lat="43.91441" lon="7.32744">
        <ele>1158.454048</ele>
        <time>2011-11-19T11:39:02Z</time>
      </trkpt>
      <trkpt lat="43.91443" lon="7.32742">
        <ele>1158.454048</ele>
        <time>2011-11-19T11:39:03Z</time>
      </trkpt>
      <trkpt lat="43.91454" lon="7.32729">
        <ele>1159.454037</ele>
        <time>2011-11-19T11:39:08Z</time>
      </trkpt>
      <trkpt lat="43.91459" lon="7.32717">
        <ele>1159.454021</ele>
        <time>2011-11-19T11:39:11Z</time>
      </trkpt>
      <trkpt lat="43.91462" lon="7.32704">
        <ele>1158.453999</ele>
        <time>2011-11-19T11:39:14Z</time>
      </trkpt>
      <trkpt lat="43.91465" lon="7.32689">
        <ele>1157.453972</ele>
        <time>2011-11-19T11:39:17Z</time>
      </trkpt>
      <trkpt lat="43.91466" lon="7.32684">
        <ele>1156.45396</ele>
        <time>2011-11-19T11:39:18Z</time>
      </trkpt>
      <trkpt lat="43.9147" lon="7.32669">
        <ele>1154.453934</ele>
        <time>2011-11-19T11:39:21Z</time>
      </trkpt>
      <trkpt lat="43.91473" lon="7.32654">
        <ele>1152.453911</ele>
        <time>2011-11-19T11:39:24Z</time>
      </trkpt>
      <trkpt lat="43.91477" lon="7.32638">
        <ele>1151.45388</ele>
        <time>2011-11-19T11:39:28Z</time>
      </trkpt>
      <trkpt lat="43.9148" lon="7.32623">
        <ele>1151.453854</ele>
        <time>2011-11-19T11:39:31Z</time>
      </trkpt>
      <trkpt lat="43.91481" lon="7.32609">
        <ele>1150.453827</ele>
        <time>2011-11-19T11:39:34Z</time>
      </trkpt>
      <trkpt lat="43.91482" lon="7.32597">
        <ele>1149.453804</ele>
        <time>2011-11-19T11:39:37Z</time>
      </trkpt>
      <trkpt lat="43.91481" lon="7.32583">
        <ele>1147.453773</ele>
        <time>2011-11-19T11:39:41Z</time>
      </trkpt>
      <trkpt lat="43.9148" lon="7.32569">
        <ele>1146.453743</ele>
        <time>2011-11-19T11:39:45Z</time>
      </trkpt>
      <trkpt lat="43.91479" lon="7.32555">
        <ele>1146.453716</ele>
        <time>2011-11-19T11:39:49Z</time>
      </trkpt>
      <trkpt lat="43.91476" lon="7.32542">
        <ele>1145.453682</ele>
        <time>2011-11-19T11:39:53Z</time>
      </trkpt>
      <trkpt lat="43.91478" lon="7.32528">
        <ele>1144.453655</ele>
        <time>2011-11-19T11:40:01Z</time>
      </trkpt>
      <trkpt lat="43.91479" lon="7.32514">
        <ele>1143.453629</ele>
        <time>2011-11-19T11:40:05Z</time>
      </trkpt>
      <trkpt lat="43.91479" lon="7.32496">
        <ele>1143.453594</ele>
        <time>2011-11-19T11:40:08Z</time>
      </trkpt>
      <trkpt lat="43.91477" lon="7.3248">
        <ele>1143.453564</ele>
        <time>2011-11-19T11:40:11Z</time>
      </trkpt>
      <trkpt lat="43.91474" lon="7.32466">
        <ele>1143.453529</ele>
        <time>2011-11-19T11:40:14Z</time>
      </trkpt>
      <trkpt lat="43.91472" lon="7.32454">
        <ele>1143.453499</ele>
        <time>2011-11-19T11:40:17Z</time>
      </trkpt>
      <trkpt lat="43.9147" lon="7.32437">
        <ele>1145.453461</ele>
        <time>2011-11-19T11:40:20Z</time>
      </trkpt>
      <trkpt lat="43.91469" lon="7.32424">
        <ele>1145.453434</ele>
        <time>2011-11-19T11:40:22Z</time>
      </trkpt>
      <trkpt lat="43.91467" lon="7.32407">
        <ele>1146.4534</ele>
        <time>2011-11-19T11:40:25Z</time>
      </trkpt>
      <trkpt lat="43.91466" lon="7.32392">
        <ele>1146.453362</ele>
        <time>2011-11-19T11:40:28Z</time>
      </trkpt>
      <trkpt lat="43.91464" lon="7.32377">
        <ele>1148.453339</ele>
        <time>2011-11-19T11:40:31Z</time>
      </trkpt>
      <trkpt lat="43.91464" lon="7.32363">
        <ele>1148.4533</ele>
        <time>2011-11-19T11:40:35Z</time>
      </trkpt>
      <trkpt lat="43.91462" lon="7.32354">
        <ele>1147.453285</ele>
        <time>2011-11-19T11:40:38Z</time>
      </trkpt>
      <trkpt lat="43.9146" lon="7.32341">
        <ele>1146.453251</ele>
        <time>2011-11-19T11:40:44Z</time>
      </trkpt>
      <trkpt lat="43.91458" lon="7.32328">
        <ele>1146.453224</ele>
        <time>2011-11-19T11:40:50Z</time>
      </trkpt>
      <trkpt lat="43.91457" lon="7.32311">
        <ele>1145.453186</ele>
        <time>2011-11-19T11:40:59Z</time>
      </trkpt>
      <trkpt lat="43.91457" lon="7.323">
        <ele>1143.453163</ele>
        <time>2011-11-19T11:41:09Z</time>
      </trkpt>
      <trkpt lat="43.91459" lon="7.32287">
        <ele>1143.45314</ele>
        <time>2011-11-19T11:41:22Z</time>
      </trkpt>
      <trkpt lat="43.91462" lon="7.32274">
        <ele>1142.453117</ele>
        <time>2011-11-19T11:41:31Z</time>
      </trkpt>
      <trkpt lat="43.91465" lon="7.32261">
        <ele>1141.453094</ele>
        <time>2011-11-19T11:41:36Z</time>
      </trkpt>
      <trkpt lat="43.91467" lon="7.32245">
        <ele>1142.453064</ele>
        <time>2011-11-19T11:41:41Z</time>
      </trkpt>
      <trkpt lat="43.91468" lon="7.32231">
        <ele>1143.453041</ele>
        <time>2011-11-19T11:41:46Z</time>
      </trkpt>
      <trkpt lat="43.91473" lon="7.3222">
        <ele>1143.453018</ele>
        <time>2011-11-19T11:41:50Z</time>
      </trkpt>
      <trkpt lat="43.91479" lon="7.32208">
        <ele>1144.453007</ele>
        <time>2011-11-19T11:41:53Z</time>
      </trkpt>
      <trkpt lat="43.91486" lon="7.32195">
        <ele>1143.452988</ele>
        <time>2011-11-19T11:41:56Z</time>
      </trkpt>
      <trkpt lat="43.91492" lon="7.32183">
        <ele>1144.452972</ele>
        <time>2011-11-19T11:41:59Z</time>
      </trkpt>
      <trkpt lat="43.91496" lon="7.32172">
        <ele>1143.452957</ele>
        <time>2011-11-19T11:42:02Z</time>
      </trkpt>
      <trkpt lat="43.91498" lon="7.32164">
        <ele>1144.452946</ele>
        <time>2011-11-19T11:42:04Z</time>
      </trkpt>
      <trkpt lat="43.91501" lon="7.32149">
        <ele>1144.452915</ele>
        <time>2011-11-19T11:42:11Z</time>
      </trkpt>
      <trkpt lat="43.91504" lon="7.32134">
        <ele>1144.452888</ele>
        <time>2011-11-19T11:42:16Z</time>
      </trkpt>
      <trkpt lat="43.91505" lon="7.32131">
        <ele>1144.452881</ele>
        <time>2011-11-19T11:42:17Z</time>
      </trkpt>
      <trkpt lat="43.9151" lon="7.32116">
        <ele>1144.452862</ele>
        <time>2011-11-19T11:42:21Z</time>
      </trkpt>
      <trkpt lat="43.91515" lon="7.32104">
        <ele>1144.452843</ele>
        <time>2011-11-19T11:42:25Z</time>
      </trkpt>
      <trkpt lat="43.91516" lon="7.32101">
        <ele>1144.452839</ele>
        <time>2011-11-19T11:42:26Z</time>
      </trkpt>
      <trkpt lat="43.91521" lon="7.3209">
        <ele>1145.45282</ele>
        <time>2011-11-19T11:42:30Z</time>
      </trkpt>
      <trkpt lat="43.91526" lon="7.32078">
        <ele>1145.452805</ele>
        <time>2011-11-19T11:42:35Z</time>
      </trkpt>
      <trkpt lat="43.91531" lon="7.32065">
        <ele>1145.452785</ele>
        <time>2011-11-19T11:42:40Z</time>
      </trkpt>
      <trkpt lat="43.91536" lon="7.32052">
        <ele>1146.452766</ele>
        <time>2011-11-19T11:42:45Z</time>
      </trkpt>
      <trkpt lat="43.91542" lon="7.3204">
        <ele>1146.452751</ele>
        <time>2011-11-19T11:42:50Z</time>
      </trkpt>
      <trkpt lat="43.91549" lon="7.3203">
        <ele>1146.452736</ele>
        <time>2011-11-19T11:42:55Z</time>
      </trkpt>
      <trkpt lat="43.91556" lon="7.32019">
        <ele>1146.452724</ele>
        <time>2011-11-19T11:43:01Z</time>
      </trkpt>
      <trkpt lat="43.91559" lon="7.32006">
        <ele>1147.452702</ele>
        <time>2011-11-19T11:43:09Z</time>
      </trkpt>
      <trkpt lat="43.91559" lon="7.32003">
        <ele>1147.452694</ele>
        <time>2011-11-19T11:43:12Z</time>
      </trkpt>
      <trkpt lat="43.91563" lon="7.31991">
        <ele>1149.452675</ele>
        <time>2011-11-19T11:43:23Z</time>
      </trkpt>
      <trkpt lat="43.91565" lon="7.31988">
        <ele>1150.452667</ele>
        <time>2011-11-19T11:43:25Z</time>
      </trkpt>
      <trkpt lat="43.91569" lon="7.31975">
        <ele>1151.452652</ele>
        <time>2011-11-19T11:43:34Z</time>
      </trkpt>
      <trkpt lat="43.91577" lon="7.31964">
        <ele>1152.452637</ele>
        <time>2011-11-19T11:43:47Z</time>
      </trkpt>
      <trkpt lat="43.91585" lon="7.31956">
        <ele>1151.452629</ele>
        <time>2011-11-19T11:43:59Z</time>
      </trkpt>
      <trkpt lat="43.9159" lon="7.31944">
        <ele>1151.452618</ele>
        <time>2011-11-19T11:44:12Z</time>
      </trkpt>
      <trkpt lat="43.91595" lon="7.31933">
        <ele>1151.452599</ele>
        <time>2011-11-19T11:44:23Z</time>
      </trkpt>
      <trkpt lat="43.91604" lon="7.31922">
        <ele>1152.452591</ele>
        <time>2011-11-19T11:44:43Z</time>
      </trkpt>
      <trkpt lat="43.91611" lon="7.31914">
        <ele>1154.452587</ele>
        <time>2011-11-19T11:45:00Z</time>
      </trkpt>
      <trkpt lat="43.91617" lon="7.31905">
        <ele>1156.452572</ele>
        <time>2011-11-19T11:45:16Z</time>
      </trkpt>
      <trkpt lat="43.91622" lon="7.31894">
        <ele>1155.452553</ele>
        <time>2011-11-19T11:45:28Z</time>
      </trkpt>
      <trkpt lat="43.91629" lon="7.31883">
        <ele>1155.452545</ele>
        <time>2011-11-19T11:45:50Z</time>
      </trkpt>
      <trkpt lat="43.91629" lon="7.3188">
        <ele>1155.452538</ele>
        <time>2011-11-19T11:45:56Z</time>
      </trkpt>
      <trkpt lat="43.9163" lon="7.31867">
        <ele>1157.452511</ele>
        <time>2011-11-19T11:46:16Z</time>
      </trkpt>
      <trkpt lat="43.9163" lon="7.31852">
        <ele>1156.452484</ele>
        <time>2011-11-19T11:46:38Z</time>
      </trkpt>
      <trkpt lat="43.91627" lon="7.3184">
        <ele>1159.452454</ele>
        <time>2011-11-19T11:46:57Z</time>
      </trkpt>
      <trkpt lat="43.91622" lon="7.3183">
        <ele>1160.452427</ele>
        <time>2011-11-19T11:47:15Z</time>
      </trkpt>
      <trkpt lat="43.91629" lon="7.31821">
        <ele>1164.452415</ele>
        <time>2011-11-19T11:47:35Z</time>
      </trkpt>
      <trkpt lat="43.91629" lon="7.3182">
        <ele>1164.452415</ele>
        <time>2011-11-19T11:47:37Z</time>
      </trkpt>
      <trkpt lat="43.91623" lon="7.31811">
        <ele>1169.452385</ele>
        <time>2011-11-19T11:48:04Z</time>
      </trkpt>
      <trkpt lat="43.91622" lon="7.31811">
        <ele>1170.452389</ele>
        <time>2011-11-19T11:48:06Z</time>
      </trkpt>
      <trkpt lat="43.91612" lon="7.31806">
        <ele>1171.452362</ele>
        <time>2011-11-19T11:48:23Z</time>
      </trkpt>
      <trkpt lat="43.91604" lon="7.31798">
        <ele>1174.452335</ele>
        <time>2011-11-19T11:48:45Z</time>
      </trkpt>
      <trkpt lat="43.91582" lon="7.31784">
        <ele>1177.452278</ele>
        <time>2011-11-19T11:49:18Z</time>
      </trkpt>
      <trkpt lat="43.9157" lon="7.3178">
        <ele>1177.452251</ele>
        <time>2011-11-19T11:49:33Z</time>
      </trkpt>
      <trkpt lat="43.91561" lon="7.31776">
        <ele>1177.452232</ele>
        <time>2011-11-19T11:49:43Z</time>
      </trkpt>
      <trkpt lat="43.91546" lon="7.3177">
        <ele>1179.452202</ele>
        <time>2011-11-19T11:49:58Z</time>
      </trkpt>
      <trkpt lat="43.91537" lon="7.31765">
        <ele>1181.452179</ele>
        <time>2011-11-19T11:50:10Z</time>
      </trkpt>
      <trkpt lat="43.91529" lon="7.31758">
        <ele>1183.452156</ele>
        <time>2011-11-19T11:50:22Z</time>
      </trkpt>
      <trkpt lat="43.9152" lon="7.31752">
        <ele>1187.452133</ele>
        <time>2011-11-19T11:50:36Z</time>
      </trkpt>
      <trkpt lat="43.91511" lon="7.3175">
        <ele>1190.452114</ele>
        <time>2011-11-19T11:50:50Z</time>
      </trkpt>
      <trkpt lat="43.9148" lon="7.3174">
        <ele>1193.452057</ele>
        <time>2011-11-19T11:51:41Z</time>
      </trkpt>
      <trkpt lat="43.91452" lon="7.31731">
        <ele>1195.451996</ele>
        <time>2011-11-19T11:52:01Z</time>
      </trkpt>
      <trkpt lat="43.91442" lon="7.31726">
        <ele>1197.451973</ele>
        <time>2011-11-19T11:52:10Z</time>
      </trkpt>
      <trkpt lat="43.91432" lon="7.31721">
        <ele>1198.45195</ele>
        <time>2011-11-19T11:52:19Z</time>
      </trkpt>
      <trkpt lat="43.91415" lon="7.31703">
        <ele>1202.451889</ele>
        <time>2011-11-19T11:52:39Z</time>
      </trkpt>
      <trkpt lat="43.91407" lon="7.31696">
        <ele>1203.451866</ele>
        <time>2011-11-19T11:52:51Z</time>
      </trkpt>
      <trkpt lat="43.9139" lon="7.31688">
        <ele>1204.451824</ele>
        <time>2011-11-19T11:53:06Z</time>
      </trkpt>
      <trkpt lat="43.91379" lon="7.31678">
        <ele>1206.45179</ele>
        <time>2011-11-19T11:53:19Z</time>
      </trkpt>
      <trkpt lat="43.91365" lon="7.3167">
        <ele>1208.451756</ele>
        <time>2011-11-19T11:53:37Z</time>
      </trkpt>
      <trkpt lat="43.91361" lon="7.31668">
        <ele>1208.451744</ele>
        <time>2011-11-19T11:53:41Z</time>
      </trkpt>
      <trkpt lat="43.91347" lon="7.31656">
        <ele>1208.451706</ele>
        <time>2011-11-19T11:53:53Z</time>
      </trkpt>
      <trkpt lat="43.91333" lon="7.31645">
        <ele>1211.45166</ele>
        <time>2011-11-19T11:54:06Z</time>
      </trkpt>
      <trkpt lat="43.91332" lon="7.31644">
        <ele>1212.451656</ele>
        <time>2011-11-19T11:54:07Z</time>
      </trkpt>
      <trkpt lat="43.91324" lon="7.31637">
        <ele>1214.45163</ele>
        <time>2011-11-19T11:54:20Z</time>
      </trkpt>
      <trkpt lat="43.91314" lon="7.3163">
        <ele>1215.451607</ele>
        <time>2011-11-19T11:54:40Z</time>
      </trkpt>
      <trkpt lat="43.91303" lon="7.3162">
        <ele>1219.451569</ele>
        <time>2011-11-19T11:54:54Z</time>
      </trkpt>
      <trkpt lat="43.913" lon="7.31607">
        <ele>1223.451538</ele>
        <time>2011-11-19T11:55:03Z</time>
      </trkpt>
      <trkpt lat="43.91293" lon="7.3159">
        <ele>1225.451492</ele>
        <time>2011-11-19T11:55:16Z</time>
      </trkpt>
      <trkpt lat="43.91289" lon="7.31578">
        <ele>1228.451469</ele>
        <time>2011-11-19T11:55:25Z</time>
      </trkpt>
      <trkpt lat="43.91287" lon="7.31563">
        <ele>1230.451431</ele>
        <time>2011-11-19T11:55:38Z</time>
      </trkpt>
      <trkpt lat="43.91288" lon="7.3155">
        <ele>1234.451408</ele>
        <time>2011-11-19T11:55:50Z</time>
      </trkpt>
      <trkpt lat="43.9129" lon="7.31537">
        <ele>1236.451382</ele>
        <time>2011-11-19T11:56:02Z</time>
      </trkpt>
      <trkpt lat="43.91291" lon="7.3152">
        <ele>1239.451347</ele>
        <time>2011-11-19T11:56:14Z</time>
      </trkpt>
      <trkpt lat="43.91291" lon="7.31518">
        <ele>1239.451347</ele>
        <time>2011-11-19T11:56:15Z</time>
      </trkpt>
      <trkpt lat="43.91294" lon="7.31506">
        <ele>1239.451324</ele>
        <time>2011-11-19T11:56:26Z</time>
      </trkpt>
      <trkpt lat="43.91298" lon="7.31494">
        <ele>1239.451305</ele>
        <time>2011-11-19T11:56:34Z</time>
      </trkpt>
      <trkpt lat="43.913" lon="7.31491">
        <ele>1238.451302</ele>
        <time>2011-11-19T11:56:36Z</time>
      </trkpt>
      <trkpt lat="43.91304" lon="7.3148">
        <ele>1245.451283</ele>
        <time>2011-11-19T11:56:54Z</time>
      </trkpt>
      <trkpt lat="43.91304" lon="7.3148">
        <ele>1245.451283</ele>
        <time>2011-11-19T11:56:55Z</time>
      </trkpt>
      <trkpt lat="43.91303" lon="7.31493">
        <ele>1261.451309</ele>
        <time>2011-11-19T12:01:48Z</time>
      </trkpt>
      <trkpt lat="43.91304" lon="7.31479">
        <ele>1259.451279</ele>
        <time>2011-11-19T12:04:56Z</time>
      </trkpt>
      <trkpt lat="43.91304" lon="7.31478">
        <ele>1259.451279</ele>
        <time>2011-11-19T12:04:58Z</time>
      </trkpt>
      <trkpt lat="43.91299" lon="7.31489">
        <ele>1253.451298</ele>
        <time>2011-11-19T12:07:16Z</time>
      </trkpt>
      <trkpt lat="43.91305" lon="7.31456">
        <ele>1253.451233</ele>
        <time>2011-11-19T12:10:06Z</time>
      </trkpt>
      <trkpt lat="43.91314" lon="7.3147">
        <ele>1255.451279</ele>
        <time>2011-11-19T12:10:32Z</time>
      </trkpt>
      <trkpt lat="43.91328" lon="7.31451">
        <ele>1257.451256</ele>
        <time>2011-11-19T12:10:49Z</time>
      </trkpt>
      <trkpt lat="43.91336" lon="7.3144">
        <ele>1258.451244</ele>
        <time>2011-11-19T12:10:53Z</time>
      </trkpt>
      <trkpt lat="43.91339" lon="7.31436">
        <ele>1258.451241</ele>
        <time>2011-11-19T12:10:54Z</time>
      </trkpt>
      <trkpt lat="43.91347" lon="7.31426">
        <ele>1258.451233</ele>
        <time>2011-11-19T12:10:57Z</time>
      </trkpt>
      <trkpt lat="43.91349" lon="7.31422">
        <ele>1258.451225</ele>
        <time>2011-11-19T12:10:58Z</time>
      </trkpt>
      <trkpt lat="43.91357" lon="7.31413">
        <ele>1258.451218</ele>
        <time>2011-11-19T12:11:01Z</time>
      </trkpt>
      <trkpt lat="43.91366" lon="7.31403">
        <ele>1261.45121</ele>
        <time>2011-11-19T12:11:06Z</time>
      </trkpt>
      <trkpt lat="43.91392" lon="7.31383">
        <ele>1271.451202</ele>
        <time>2011-11-19T12:11:18Z</time>
      </trkpt>
      <trkpt lat="43.91401" lon="7.31365">
        <ele>1273.45118</ele>
        <time>2011-11-19T12:11:20Z</time>
      </trkpt>
      <trkpt lat="43.91414" lon="7.31333">
        <ele>1274.451134</ele>
        <time>2011-11-19T12:11:22Z</time>
      </trkpt>
      <trkpt lat="43.91425" lon="7.31308">
        <ele>1274.451096</ele>
        <time>2011-11-19T12:11:23Z</time>
      </trkpt>
      <trkpt lat="43.91435" lon="7.31282">
        <ele>1275.451057</ele>
        <time>2011-11-19T12:11:25Z</time>
      </trkpt>
      <trkpt lat="43.91441" lon="7.3127">
        <ele>1275.451038</ele>
        <time>2011-11-19T12:11:26Z</time>
      </trkpt>
      <trkpt lat="43.9145" lon="7.3125">
        <ele>1276.451012</ele>
        <time>2011-11-19T12:11:28Z</time>
      </trkpt>
      <trkpt lat="43.91455" lon="7.31232">
        <ele>1276.450981</ele>
        <time>2011-11-19T12:11:31Z</time>
      </trkpt>
      <trkpt lat="43.91461" lon="7.31216">
        <ele>1276.450958</ele>
        <time>2011-11-19T12:11:33Z</time>
      </trkpt>
      <trkpt lat="43.91465" lon="7.312">
        <ele>1276.450928</ele>
        <time>2011-11-19T12:11:35Z</time>
      </trkpt>
      <trkpt lat="43.91468" lon="7.31183">
        <ele>1276.450897</ele>
        <time>2011-11-19T12:11:37Z</time>
      </trkpt>
      <trkpt lat="43.91472" lon="7.31171">
        <ele>1276.450878</ele>
        <time>2011-11-19T12:11:39Z</time>
      </trkpt>
      <trkpt lat="43.91476" lon="7.31156">
        <ele>1276.450855</ele>
        <time>2011-11-19T12:11:42Z</time>
      </trkpt>
      <trkpt lat="43.91482" lon="7.31135">
        <ele>1274.450813</ele>
        <time>2011-11-19T12:11:46Z</time>
      </trkpt>
      <trkpt lat="43.91486" lon="7.31122">
        <ele>1274.450798</ele>
        <time>2011-11-19T12:11:49Z</time>
      </trkpt>
      <trkpt lat="43.91494" lon="7.31088">
        <ele>1270.450745</ele>
        <time>2011-11-19T12:11:57Z</time>
      </trkpt>
      <trkpt lat="43.91499" lon="7.31075">
        <ele>1270.450722</ele>
        <time>2011-11-19T12:11:59Z</time>
      </trkpt>
      <trkpt lat="43.91503" lon="7.31063">
        <ele>1271.450703</ele>
        <time>2011-11-19T12:12:02Z</time>
      </trkpt>
      <trkpt lat="43.91515" lon="7.31028">
        <ele>1270.450645</ele>
        <time>2011-11-19T12:12:08Z</time>
      </trkpt>
      <trkpt lat="43.91515" lon="7.31028">
        <ele>1270.450645</ele>
        <time>2011-11-19T12:12:09Z</time>
      </trkpt>
      <trkpt lat="43.91517" lon="7.3101">
        <ele>1267.450615</ele>
        <time>2011-11-19T12:12:18Z</time>
      </trkpt>
      <trkpt lat="43.91536" lon="7.3098">
        <ele>1262.450577</ele>
        <time>2011-11-19T12:12:44Z</time>
      </trkpt>
      <trkpt lat="43.91553" lon="7.30949">
        <ele>1263.450535</ele>
        <time>2011-11-19T12:12:51Z</time>
      </trkpt>
      <trkpt lat="43.9157" lon="7.30913">
        <ele>1264.450485</ele>
        <time>2011-11-19T12:12:57Z</time>
      </trkpt>
      <trkpt lat="43.91592" lon="7.30866">
        <ele>1265.450417</ele>
        <time>2011-11-19T12:13:03Z</time>
      </trkpt>
      <trkpt lat="43.9161" lon="7.30834">
        <ele>1266.450378</ele>
        <time>2011-11-19T12:13:06Z</time>
      </trkpt>
      <trkpt lat="43.9163" lon="7.308">
        <ele>1267.450336</ele>
        <time>2011-11-19T12:13:16Z</time>
      </trkpt>
      <trkpt lat="43.91649" lon="7.30772">
        <ele>1267.450302</ele>
        <time>2011-11-19T12:13:21Z</time>
      </trkpt>
      <trkpt lat="43.91672" lon="7.30749">
        <ele>1267.450287</ele>
        <time>2011-11-19T12:13:30Z</time>
      </trkpt>
      <trkpt lat="43.91692" lon="7.30719">
        <ele>1268.450253</ele>
        <time>2011-11-19T12:13:38Z</time>
      </trkpt>
      <trkpt lat="43.91697" lon="7.30708">
        <ele>1268.450237</ele>
        <time>2011-11-19T12:13:40Z</time>
      </trkpt>
      <trkpt lat="43.91704" lon="7.30691">
        <ele>1268.450211</ele>
        <time>2011-11-19T12:13:43Z</time>
      </trkpt>
      <trkpt lat="43.91709" lon="7.30678">
        <ele>1269.450191</ele>
        <time>2011-11-19T12:13:45Z</time>
      </trkpt>
      <trkpt lat="43.91712" lon="7.30665">
        <ele>1269.450165</ele>
        <time>2011-11-19T12:13:47Z</time>
      </trkpt>
      <trkpt lat="43.91715" lon="7.3065">
        <ele>1269.450142</ele>
        <time>2011-11-19T12:13:49Z</time>
      </trkpt>
      <trkpt lat="43.91718" lon="7.30632">
        <ele>1269.450111</ele>
        <time>2011-11-19T12:13:52Z</time>
      </trkpt>
      <trkpt lat="43.91719" lon="7.30617">
        <ele>1270.450081</ele>
        <time>2011-11-19T12:13:55Z</time>
      </trkpt>
      <trkpt lat="43.91722" lon="7.3058">
        <ele>1273.450005</ele>
        <time>2011-11-19T12:14:09Z</time>
      </trkpt>
      <trkpt lat="43.91719" lon="7.30554">
        <ele>1271.449951</ele>
        <time>2011-11-19T12:14:18Z</time>
      </trkpt>
      <trkpt lat="43.91719" lon="7.30551">
        <ele>1270.449944</ele>
        <time>2011-11-19T12:14:19Z</time>
      </trkpt>
      <trkpt lat="43.91714" lon="7.3054">
        <ele>1267.449917</ele>
        <time>2011-11-19T12:14:27Z</time>
      </trkpt>
      <trkpt lat="43.91713" lon="7.30538">
        <ele>1267.449905</ele>
        <time>2011-11-19T12:14:34Z</time>
      </trkpt>
      <trkpt lat="43.91713" lon="7.30525">
        <ele>1265.449883</ele>
        <time>2011-11-19T12:14:36Z</time>
      </trkpt>
      <trkpt lat="43.91714" lon="7.30518">
        <ele>1264.449875</ele>
        <time>2011-11-19T12:14:40Z</time>
      </trkpt>
      <trkpt lat="43.91714" lon="7.30505">
        <ele>1262.449844</ele>
        <time>2011-11-19T12:14:48Z</time>
      </trkpt>
      <trkpt lat="43.91711" lon="7.30491">
        <ele>1262.449814</ele>
        <time>2011-11-19T12:14:56Z</time>
      </trkpt>
      <trkpt lat="43.91709" lon="7.30477">
        <ele>1261.449783</ele>
        <time>2011-11-19T12:15:03Z</time>
      </trkpt>
      <trkpt lat="43.91709" lon="7.30463">
        <ele>1260.449753</ele>
        <time>2011-11-19T12:15:08Z</time>
      </trkpt>
      <trkpt lat="43.9171" lon="7.30449">
        <ele>1260.449726</ele>
        <time>2011-11-19T12:15:13Z</time>
      </trkpt>
      <trkpt lat="43.91712" lon="7.30431">
        <ele>1257.449692</ele>
        <time>2011-11-19T12:15:19Z</time>
      </trkpt>
      <trkpt lat="43.91714" lon="7.30415">
        <ele>1256.449661</ele>
        <time>2011-11-19T12:15:23Z</time>
      </trkpt>
      <trkpt lat="43.91717" lon="7.304">
        <ele>1256.449631</ele>
        <time>2011-11-19T12:15:26Z</time>
      </trkpt>
      <trkpt lat="43.91721" lon="7.30385">
        <ele>1257.449608</ele>
        <time>2011-11-19T12:15:29Z</time>
      </trkpt>
      <trkpt lat="43.91725" lon="7.30372">
        <ele>1257.449589</ele>
        <time>2011-11-19T12:15:32Z</time>
      </trkpt>
      <trkpt lat="43.9173" lon="7.30359">
        <ele>1256.449566</ele>
        <time>2011-11-19T12:15:37Z</time>
      </trkpt>
      <trkpt lat="43.91733" lon="7.30346">
        <ele>1257.449547</ele>
        <time>2011-11-19T12:15:45Z</time>
      </trkpt>
      <trkpt lat="43.91736" lon="7.30323">
        <ele>1257.449501</ele>
        <time>2011-11-19T12:15:52Z</time>
      </trkpt>
      <trkpt lat="43.91733" lon="7.30296">
        <ele>1259.44944</ele>
        <time>2011-11-19T12:16:05Z</time>
      </trkpt>
      <trkpt lat="43.91721" lon="7.30265">
        <ele>1261.449364</ele>
        <time>2011-11-19T12:16:20Z</time>
      </trkpt>
      <trkpt lat="43.91711" lon="7.30248">
        <ele>1259.449318</ele>
        <time>2011-11-19T12:16:29Z</time>
      </trkpt>
      <trkpt lat="43.917" lon="7.30227">
        <ele>1258.449257</ele>
        <time>2011-11-19T12:16:42Z</time>
      </trkpt>
      <trkpt lat="43.91694" lon="7.30212">
        <ele>1258.449223</ele>
        <time>2011-11-19T12:16:52Z</time>
      </trkpt>
      <trkpt lat="43.91689" lon="7.30201">
        <ele>1258.449192</ele>
        <time>2011-11-19T12:17:01Z</time>
      </trkpt>
      <trkpt lat="43.91684" lon="7.30197">
        <ele>1258.449173</ele>
        <time>2011-11-19T12:17:08Z</time>
      </trkpt>
      <trkpt lat="43.91677" lon="7.30188">
        <ele>1259.44915</ele>
        <time>2011-11-19T12:17:16Z</time>
      </trkpt>
      <trkpt lat="43.91674" lon="7.30178">
        <ele>1258.44912</ele>
        <time>2011-11-19T12:17:23Z</time>
      </trkpt>
      <trkpt lat="43.91669" lon="7.30166">
        <ele>1258.449089</ele>
        <time>2011-11-19T12:17:27Z</time>
      </trkpt>
      <trkpt lat="43.91658" lon="7.30158">
        <ele>1256.449059</ele>
        <time>2011-11-19T12:17:31Z</time>
      </trkpt>
      <trkpt lat="43.91647" lon="7.30152">
        <ele>1256.449036</ele>
        <time>2011-11-19T12:17:33Z</time>
      </trkpt>
      <trkpt lat="43.91637" lon="7.30146">
        <ele>1256.449009</ele>
        <time>2011-11-19T12:17:35Z</time>
      </trkpt>
      <trkpt lat="43.91625" lon="7.30139">
        <ele>1257.448975</ele>
        <time>2011-11-19T12:17:37Z</time>
      </trkpt>
      <trkpt lat="43.91615" lon="7.30133">
        <ele>1257.448952</ele>
        <time>2011-11-19T12:17:39Z</time>
      </trkpt>
      <trkpt lat="43.91606" lon="7.30129">
        <ele>1256.448933</ele>
        <time>2011-11-19T12:17:41Z</time>
      </trkpt>
      <trkpt lat="43.916" lon="7.30126">
        <ele>1254.448914</ele>
        <time>2011-11-19T12:17:43Z</time>
      </trkpt>
      <trkpt lat="43.91586" lon="7.3012">
        <ele>1253.448883</ele>
        <time>2011-11-19T12:17:56Z</time>
      </trkpt>
      <trkpt lat="43.91582" lon="7.30121">
        <ele>1253.448883</ele>
        <time>2011-11-19T12:18:03Z</time>
      </trkpt>
      <trkpt lat="43.91565" lon="7.3009">
        <ele>1255.448792</ele>
        <time>2011-11-19T12:18:13Z</time>
      </trkpt>
      <trkpt lat="43.91561" lon="7.30071">
        <ele>1259.448753</ele>
        <time>2011-11-19T12:18:18Z</time>
      </trkpt>
      <trkpt lat="43.91556" lon="7.30054">
        <ele>1260.448711</ele>
        <time>2011-11-19T12:18:21Z</time>
      </trkpt>
      <trkpt lat="43.91554" lon="7.30049">
        <ele>1260.4487</ele>
        <time>2011-11-19T12:18:22Z</time>
      </trkpt>
      <trkpt lat="43.91546" lon="7.30036">
        <ele>1261.448662</ele>
        <time>2011-11-19T12:18:25Z</time>
      </trkpt>
      <trkpt lat="43.91539" lon="7.30022">
        <ele>1262.448624</ele>
        <time>2011-11-19T12:18:28Z</time>
      </trkpt>
      <trkpt lat="43.91533" lon="7.30011">
        <ele>1264.448593</ele>
        <time>2011-11-19T12:18:30Z</time>
      </trkpt>
      <trkpt lat="43.91527" lon="7.29999">
        <ele>1265.448563</ele>
        <time>2011-11-19T12:18:33Z</time>
      </trkpt>
      <trkpt lat="43.91516" lon="7.29983">
        <ele>1267.448509</ele>
        <time>2011-11-19T12:18:48Z</time>
      </trkpt>
      <trkpt lat="43.91511" lon="7.29973">
        <ele>1268.448486</ele>
        <time>2011-11-19T12:19:01Z</time>
      </trkpt>
      <trkpt lat="43.9151" lon="7.29972">
        <ele>1268.448479</ele>
        <time>2011-11-19T12:19:02Z</time>
      </trkpt>
      <trkpt lat="43.9151" lon="7.29971">
        <ele>1268.448479</ele>
        <time>2011-11-19T12:19:03Z</time>
      </trkpt>
      <trkpt lat="43.91507" lon="7.29954">
        <ele>1259.448441</ele>
        <time>2011-11-19T12:19:16Z</time>
      </trkpt>
      <trkpt lat="43.91507" lon="7.29951">
        <ele>1257.448433</ele>
        <time>2011-11-19T12:19:18Z</time>
      </trkpt>
      <trkpt lat="43.91509" lon="7.29931">
        <ele>1253.448395</ele>
        <time>2011-11-19T12:19:29Z</time>
      </trkpt>
      <trkpt lat="43.91511" lon="7.29919">
        <ele>1253.448376</ele>
        <time>2011-11-19T12:19:39Z</time>
      </trkpt>
      <trkpt lat="43.91513" lon="7.29903">
        <ele>1254.448349</ele>
        <time>2011-11-19T12:19:51Z</time>
      </trkpt>
      <trkpt lat="43.91514" lon="7.29879">
        <ele>1255.448296</ele>
        <time>2011-11-19T12:20:10Z</time>
      </trkpt>
      <trkpt lat="43.91522" lon="7.29851">
        <ele>1258.44825</ele>
        <time>2011-11-19T12:20:31Z</time>
      </trkpt>
      <trkpt lat="43.91523" lon="7.29838">
        <ele>1260.448223</ele>
        <time>2011-11-19T12:20:48Z</time>
      </trkpt>
      <trkpt lat="43.91521" lon="7.2982">
        <ele>1254.448189</ele>
        <time>2011-11-19T12:24:41Z</time>
      </trkpt>
      <trkpt lat="43.91521" lon="7.29824">
        <ele>1246.448193</ele>
        <time>2011-11-19T12:25:57Z</time>
      </trkpt>
      <trkpt lat="43.91521" lon="7.2981">
        <ele>1250.448166</ele>
        <time>2011-11-19T12:26:57Z</time>
      </trkpt>
      <trkpt lat="43.91521" lon="7.2981">
        <ele>1250.448158</ele>
        <time>2011-11-19T12:26:58Z</time>
      </trkpt>
      <trkpt lat="43.9151" lon="7.298">
        <ele>1249.448128</ele>
        <time>2011-11-19T12:27:22Z</time>
      </trkpt>
      <trkpt lat="43.91518" lon="7.29807">
        <ele>1251.448154</ele>
        <time>2011-11-19T12:28:24Z</time>
      </trkpt>
      <trkpt lat="43.91509" lon="7.29807">
        <ele>1253.448143</ele>
        <time>2011-11-19T12:28:32Z</time>
      </trkpt>
      <trkpt lat="43.915" lon="7.29796">
        <ele>1253.448109</ele>
        <time>2011-11-19T12:28:36Z</time>
      </trkpt>
      <trkpt lat="43.91492" lon="7.29787">
        <ele>1252.448082</ele>
        <time>2011-11-19T12:28:39Z</time>
      </trkpt>
      <trkpt lat="43.91482" lon="7.2978">
        <ele>1251.448051</ele>
        <time>2011-11-19T12:28:43Z</time>
      </trkpt>
      <trkpt lat="43.91473" lon="7.29773">
        <ele>1250.448021</ele>
        <time>2011-11-19T12:28:48Z</time>
      </trkpt>
      <trkpt lat="43.91468" lon="7.2976">
        <ele>1249.44799</ele>
        <time>2011-11-19T12:28:54Z</time>
      </trkpt>
      <trkpt lat="43.91469" lon="7.29746">
        <ele>1250.447964</ele>
        <time>2011-11-19T12:28:59Z</time>
      </trkpt>
      <trkpt lat="43.91469" lon="7.29732">
        <ele>1250.447937</ele>
        <time>2011-11-19T12:29:04Z</time>
      </trkpt>
      <trkpt lat="43.91464" lon="7.2972">
        <ele>1250.447906</ele>
        <time>2011-11-19T12:29:08Z</time>
      </trkpt>
      <trkpt lat="43.91457" lon="7.2971">
        <ele>1249.447876</ele>
        <time>2011-11-19T12:29:12Z</time>
      </trkpt>
      <trkpt lat="43.9145" lon="7.29701">
        <ele>1247.447845</ele>
        <time>2011-11-19T12:29:15Z</time>
      </trkpt>
      <trkpt lat="43.91444" lon="7.29695">
        <ele>1246.447823</ele>
        <time>2011-11-19T12:29:17Z</time>
      </trkpt>
      <trkpt lat="43.91433" lon="7.29691">
        <ele>1245.447803</ele>
        <time>2011-11-19T12:29:20Z</time>
      </trkpt>
      <trkpt lat="43.91422" lon="7.2969">
        <ele>1244.447788</ele>
        <time>2011-11-19T12:29:23Z</time>
      </trkpt>
      <trkpt lat="43.91412" lon="7.2969">
        <ele>1242.447773</ele>
        <time>2011-11-19T12:29:26Z</time>
      </trkpt>
      <trkpt lat="43.91406" lon="7.29689">
        <ele>1241.447762</ele>
        <time>2011-11-19T12:29:28Z</time>
      </trkpt>
      <trkpt lat="43.91396" lon="7.29685">
        <ele>1241.447739</ele>
        <time>2011-11-19T12:29:32Z</time>
      </trkpt>
      <trkpt lat="43.91389" lon="7.29677">
        <ele>1239.447716</ele>
        <time>2011-11-19T12:29:36Z</time>
      </trkpt>
      <trkpt lat="43.91383" lon="7.29668">
        <ele>1236.447685</ele>
        <time>2011-11-19T12:29:40Z</time>
      </trkpt>
      <trkpt lat="43.91375" lon="7.2966">
        <ele>1235.447662</ele>
        <time>2011-11-19T12:29:45Z</time>
      </trkpt>
      <trkpt lat="43.91366" lon="7.29655">
        <ele>1236.447639</ele>
        <time>2011-11-19T12:29:51Z</time>
      </trkpt>
      <trkpt lat="43.91358" lon="7.2965">
        <ele>1235.44762</ele>
        <time>2011-11-19T12:29:59Z</time>
      </trkpt>
      <trkpt lat="43.91347" lon="7.2965">
        <ele>1235.447601</ele>
        <time>2011-11-19T12:30:04Z</time>
      </trkpt>
      <trkpt lat="43.91347" lon="7.2965">
        <ele>1235.447601</ele>
        <time>2011-11-19T12:30:07Z</time>
      </trkpt>
      <trkpt lat="43.91336" lon="7.29648">
        <ele>1234.447586</ele>
        <time>2011-11-19T12:30:13Z</time>
      </trkpt>
      <trkpt lat="43.91326" lon="7.29644">
        <ele>1234.447563</ele>
        <time>2011-11-19T12:30:19Z</time>
      </trkpt>
      <trkpt lat="43.91317" lon="7.29641">
        <ele>1234.447548</ele>
        <time>2011-11-19T12:30:24Z</time>
      </trkpt>
      <trkpt lat="43.91304" lon="7.29632">
        <ele>1233.44751</ele>
        <time>2011-11-19T12:30:34Z</time>
      </trkpt>
      <trkpt lat="43.91288" lon="7.29622">
        <ele>1234.447464</ele>
        <time>2011-11-19T12:30:45Z</time>
      </trkpt>
      <trkpt lat="43.91279" lon="7.29621">
        <ele>1234.447456</ele>
        <time>2011-11-19T12:30:50Z</time>
      </trkpt>
      <trkpt lat="43.91275" lon="7.29621">
        <ele>1234.447449</ele>
        <time>2011-11-19T12:30:52Z</time>
      </trkpt>
      <trkpt lat="43.91264" lon="7.29622">
        <ele>1234.447433</ele>
        <time>2011-11-19T12:30:58Z</time>
      </trkpt>
      <trkpt lat="43.91253" lon="7.29625">
        <ele>1236.447426</ele>
        <time>2011-11-19T12:31:02Z</time>
      </trkpt>
      <trkpt lat="43.91241" lon="7.2963">
        <ele>1237.447418</ele>
        <time>2011-11-19T12:31:05Z</time>
      </trkpt>
      <trkpt lat="43.91228" lon="7.29635">
        <ele>1238.447411</ele>
        <time>2011-11-19T12:31:08Z</time>
      </trkpt>
      <trkpt lat="43.91217" lon="7.29642">
        <ele>1239.447407</ele>
        <time>2011-11-19T12:31:11Z</time>
      </trkpt>
      <trkpt lat="43.91206" lon="7.29649">
        <ele>1240.447411</ele>
        <time>2011-11-19T12:31:14Z</time>
      </trkpt>
      <trkpt lat="43.91197" lon="7.29653">
        <ele>1239.447403</ele>
        <time>2011-11-19T12:31:17Z</time>
      </trkpt>
      <trkpt lat="43.91185" lon="7.29656">
        <ele>1242.447395</ele>
        <time>2011-11-19T12:31:21Z</time>
      </trkpt>
      <trkpt lat="43.91178" lon="7.29657">
        <ele>1243.447388</ele>
        <time>2011-11-19T12:31:23Z</time>
      </trkpt>
      <trkpt lat="43.91168" lon="7.29658">
        <ele>1245.44738</ele>
        <time>2011-11-19T12:31:25Z</time>
      </trkpt>
      <trkpt lat="43.91158" lon="7.2966">
        <ele>1247.447365</ele>
        <time>2011-11-19T12:31:27Z</time>
      </trkpt>
      <trkpt lat="43.91148" lon="7.29663">
        <ele>1248.447357</ele>
        <time>2011-11-19T12:31:29Z</time>
      </trkpt>
      <trkpt lat="43.91138" lon="7.29667">
        <ele>1249.447353</ele>
        <time>2011-11-19T12:31:31Z</time>
      </trkpt>
      <trkpt lat="43.91128" lon="7.2967">
        <ele>1250.44735</ele>
        <time>2011-11-19T12:31:33Z</time>
      </trkpt>
      <trkpt lat="43.91119" lon="7.29674">
        <ele>1251.447342</ele>
        <time>2011-11-19T12:31:36Z</time>
      </trkpt>
      <trkpt lat="43.91115" lon="7.29675">
        <ele>1252.447342</ele>
        <time>2011-11-19T12:31:36Z</time>
      </trkpt>
      <trkpt lat="43.91111" lon="7.29677">
        <ele>1253.447342</ele>
        <time>2011-11-19T12:31:37Z</time>
      </trkpt>
      <trkpt lat="43.91107" lon="7.29678">
        <ele>1253.447334</ele>
        <time>2011-11-19T12:31:38Z</time>
      </trkpt>
      <trkpt lat="43.91103" lon="7.29679">
        <ele>1253.447334</ele>
        <time>2011-11-19T12:31:39Z</time>
      </trkpt>
      <trkpt lat="43.91096" lon="7.29679">
        <ele>1254.447327</ele>
        <time>2011-11-19T12:31:41Z</time>
      </trkpt>
      <trkpt lat="43.91083" lon="7.29674">
        <ele>1255.447292</ele>
        <time>2011-11-19T12:31:45Z</time>
      </trkpt>
      <trkpt lat="43.91072" lon="7.29667">
        <ele>1257.447266</ele>
        <time>2011-11-19T12:31:49Z</time>
      </trkpt>
      <trkpt lat="43.91063" lon="7.29664">
        <ele>1259.447247</ele>
        <time>2011-11-19T12:31:52Z</time>
      </trkpt>
      <trkpt lat="43.91052" lon="7.29661">
        <ele>1261.447227</ele>
        <time>2011-11-19T12:31:56Z</time>
      </trkpt>
      <trkpt lat="43.91047" lon="7.29659">
        <ele>1262.447212</ele>
        <time>2011-11-19T12:31:58Z</time>
      </trkpt>
      <trkpt lat="43.91037" lon="7.29652">
        <ele>1265.447189</ele>
        <time>2011-11-19T12:32:02Z</time>
      </trkpt>
      <trkpt lat="43.91031" lon="7.29646">
        <ele>1266.44717</ele>
        <time>2011-11-19T12:32:04Z</time>
      </trkpt>
      <trkpt lat="43.9102" lon="7.2964">
        <ele>1268.447144</ele>
        <time>2011-11-19T12:32:07Z</time>
      </trkpt>
      <trkpt lat="43.91007" lon="7.29639">
        <ele>1269.447121</ele>
        <time>2011-11-19T12:32:10Z</time>
      </trkpt>
      <trkpt lat="43.90996" lon="7.2964">
        <ele>1271.447109</ele>
        <time>2011-11-19T12:32:13Z</time>
      </trkpt>
      <trkpt lat="43.90993" lon="7.29641">
        <ele>1272.447105</ele>
        <time>2011-11-19T12:32:14Z</time>
      </trkpt>
      <trkpt lat="43.90982" lon="7.29644">
        <ele>1272.447098</ele>
        <time>2011-11-19T12:32:18Z</time>
      </trkpt>
      <trkpt lat="43.9098" lon="7.29645">
        <ele>1272.447098</ele>
        <time>2011-11-19T12:32:20Z</time>
      </trkpt>
      <trkpt lat="43.90968" lon="7.29632">
        <ele>1246.447052</ele>
        <time>2011-11-19T12:32:44Z</time>
      </trkpt>
      <trkpt lat="43.90958" lon="7.2963">
        <ele>1245.447037</ele>
        <time>2011-11-19T12:32:52Z</time>
      </trkpt>
      <trkpt lat="43.90947" lon="7.29634">
        <ele>1243.447029</ele>
        <time>2011-11-19T12:32:58Z</time>
      </trkpt>
      <trkpt lat="43.90933" lon="7.29643">
        <ele>1244.447029</ele>
        <time>2011-11-19T12:33:23Z</time>
      </trkpt>
      <trkpt lat="43.90927" lon="7.29654">
        <ele>1239.447044</ele>
        <time>2011-11-19T12:33:44Z</time>
      </trkpt>
      <trkpt lat="43.90918" lon="7.29662">
        <ele>1239.447048</ele>
        <time>2011-11-19T12:33:55Z</time>
      </trkpt>
      <trkpt lat="43.90907" lon="7.29662">
        <ele>1240.447033</ele>
        <time>2011-11-19T12:34:00Z</time>
      </trkpt>
      <trkpt lat="43.909" lon="7.2966">
        <ele>1240.447018</ele>
        <time>2011-11-19T12:34:02Z</time>
      </trkpt>
      <trkpt lat="43.9089" lon="7.29658">
        <ele>1241.446999</ele>
        <time>2011-11-19T12:34:05Z</time>
      </trkpt>
      <trkpt lat="43.9088" lon="7.29656">
        <ele>1241.446983</ele>
        <time>2011-11-19T12:34:09Z</time>
      </trkpt>
      <trkpt lat="43.90866" lon="7.29647">
        <ele>1244.446945</ele>
        <time>2011-11-19T12:34:16Z</time>
      </trkpt>
      <trkpt lat="43.90855" lon="7.29644">
        <ele>1245.446926</ele>
        <time>2011-11-19T12:34:19Z</time>
      </trkpt>
      <trkpt lat="43.90846" lon="7.29644">
        <ele>1247.446907</ele>
        <time>2011-11-19T12:34:21Z</time>
      </trkpt>
      <trkpt lat="43.90835" lon="7.29642">
        <ele>1248.446892</ele>
        <time>2011-11-19T12:34:23Z</time>
      </trkpt>
      <trkpt lat="43.90825" lon="7.29637">
        <ele>1249.446873</ele>
        <time>2011-11-19T12:34:25Z</time>
      </trkpt>
      <trkpt lat="43.90815" lon="7.29634">
        <ele>1251.446854</ele>
        <time>2011-11-19T12:34:27Z</time>
      </trkpt>
      <trkpt lat="43.90804" lon="7.29635">
        <ele>1255.446838</ele>
        <time>2011-11-19T12:34:30Z</time>
      </trkpt>
      <trkpt lat="43.90795" lon="7.29639">
        <ele>1257.446835</ele>
        <time>2011-11-19T12:34:33Z</time>
      </trkpt>
      <trkpt lat="43.90792" lon="7.29641">
        <ele>1257.446835</ele>
        <time>2011-11-19T12:34:37Z</time>
      </trkpt>
      <trkpt lat="43.90781" lon="7.2964">
        <ele>1260.446823</ele>
        <time>2011-11-19T12:34:42Z</time>
      </trkpt>
      <trkpt lat="43.90778" lon="7.2964">
        <ele>1261.446812</ele>
        <time>2011-11-19T12:34:43Z</time>
      </trkpt>
      <trkpt lat="43.90759" lon="7.29631">
        <ele>1264.44677</ele>
        <time>2011-11-19T12:34:54Z</time>
      </trkpt>
      <trkpt lat="43.9075" lon="7.29626">
        <ele>1265.446747</ele>
        <time>2011-11-19T12:34:57Z</time>
      </trkpt>
      <trkpt lat="43.90739" lon="7.29622">
        <ele>1266.446724</ele>
        <time>2011-11-19T12:35:01Z</time>
      </trkpt>
      <trkpt lat="43.90731" lon="7.29616">
        <ele>1268.446701</ele>
        <time>2011-11-19T12:35:05Z</time>
      </trkpt>
      <trkpt lat="43.90727" lon="7.29604">
        <ele>1269.446671</ele>
        <time>2011-11-19T12:35:09Z</time>
      </trkpt>
      <trkpt lat="43.90721" lon="7.29593">
        <ele>1269.44664</ele>
        <time>2011-11-19T12:35:13Z</time>
      </trkpt>
      <trkpt lat="43.90714" lon="7.29583">
        <ele>1271.446609</ele>
        <time>2011-11-19T12:35:17Z</time>
      </trkpt>
      <trkpt lat="43.90706" lon="7.29574">
        <ele>1272.446579</ele>
        <time>2011-11-19T12:35:21Z</time>
      </trkpt>
      <trkpt lat="43.90677" lon="7.29562">
        <ele>1276.446518</ele>
        <time>2011-11-19T12:35:41Z</time>
      </trkpt>
      <trkpt lat="43.9065" lon="7.2955">
        <ele>1263.446457</ele>
        <time>2011-11-19T12:36:04Z</time>
      </trkpt>
      <trkpt lat="43.90638" lon="7.29527">
        <ele>1254.446396</ele>
        <time>2011-11-19T12:36:17Z</time>
      </trkpt>
      <trkpt lat="43.90618" lon="7.29501">
        <ele>1252.446312</ele>
        <time>2011-11-19T12:36:31Z</time>
      </trkpt>
      <trkpt lat="43.90618" lon="7.29501">
        <ele>1252.446312</ele>
        <time>2011-11-19T12:36:34Z</time>
      </trkpt>
      <trkpt lat="43.90598" lon="7.29472">
        <ele>1249.446224</ele>
        <time>2011-11-19T12:36:43Z</time>
      </trkpt>
      <trkpt lat="43.90585" lon="7.29455">
        <ele>1247.446175</ele>
        <time>2011-11-19T12:36:51Z</time>
      </trkpt>
      <trkpt lat="43.90566" lon="7.29429">
        <ele>1246.446095</ele>
        <time>2011-11-19T12:37:05Z</time>
      </trkpt>
      <trkpt lat="43.9056" lon="7.29418">
        <ele>1247.446064</ele>
        <time>2011-11-19T12:37:14Z</time>
      </trkpt>
      <trkpt lat="43.90548" lon="7.29405">
        <ele>1248.446022</ele>
        <time>2011-11-19T12:37:25Z</time>
      </trkpt>
      <trkpt lat="43.90538" lon="7.29389">
        <ele>1248.445976</ele>
        <time>2011-11-19T12:37:37Z</time>
      </trkpt>
      <trkpt lat="43.9053" lon="7.29377">
        <ele>1248.445938</ele>
        <time>2011-11-19T12:37:43Z</time>
      </trkpt>
      <trkpt lat="43.90522" lon="7.29365">
        <ele>1249.445904</ele>
        <time>2011-11-19T12:37:48Z</time>
      </trkpt>
      <trkpt lat="43.90512" lon="7.29353">
        <ele>1249.445866</ele>
        <time>2011-11-19T12:37:55Z</time>
      </trkpt>
      <trkpt lat="43.90503" lon="7.29342">
        <ele>1254.445831</ele>
        <time>2011-11-19T12:38:04Z</time>
      </trkpt>
      <trkpt lat="43.90492" lon="7.29332">
        <ele>1258.445793</ele>
        <time>2011-11-19T12:38:15Z</time>
      </trkpt>
      <trkpt lat="43.90486" lon="7.29321">
        <ele>1260.445763</ele>
        <time>2011-11-19T12:38:23Z</time>
      </trkpt>
      <trkpt lat="43.90481" lon="7.2931">
        <ele>1261.445732</ele>
        <time>2011-11-19T12:38:32Z</time>
      </trkpt>
      <trkpt lat="43.90481" lon="7.29306">
        <ele>1261.445724</ele>
        <time>2011-11-19T12:38:38Z</time>
      </trkpt>
      <trkpt lat="43.90481" lon="7.29291">
        <ele>1263.445698</ele>
        <time>2011-11-19T12:38:39Z</time>
      </trkpt>
      <trkpt lat="43.9048" lon="7.2927">
        <ele>1268.445652</ele>
        <time>2011-11-19T12:38:52Z</time>
      </trkpt>
      <trkpt lat="43.90481" lon="7.29253">
        <ele>1269.445618</ele>
        <time>2011-11-19T12:38:59Z</time>
      </trkpt>
      <trkpt lat="43.90482" lon="7.29245">
        <ele>1269.445602</ele>
        <time>2011-11-19T12:39:07Z</time>
      </trkpt>
      <trkpt lat="43.90485" lon="7.29231">
        <ele>1270.44558</ele>
        <time>2011-11-19T12:39:10Z</time>
      </trkpt>
      <trkpt lat="43.90483" lon="7.29215">
        <ele>1272.445545</ele>
        <time>2011-11-19T12:39:23Z</time>
      </trkpt>
      <trkpt lat="43.90483" lon="7.29213">
        <ele>1272.445541</ele>
        <time>2011-11-19T12:39:24Z</time>
      </trkpt>
      <trkpt lat="43.90486" lon="7.292">
        <ele>1273.445518</ele>
        <time>2011-11-19T12:39:33Z</time>
      </trkpt>
      <trkpt lat="43.90496" lon="7.29178">
        <ele>1274.445488</ele>
        <time>2011-11-19T12:39:41Z</time>
      </trkpt>
      <trkpt lat="43.90504" lon="7.2917">
        <ele>1275.44548</ele>
        <time>2011-11-19T12:39:46Z</time>
      </trkpt>
      <trkpt lat="43.90513" lon="7.29159">
        <ele>1277.445473</ele>
        <time>2011-11-19T12:39:56Z</time>
      </trkpt>
      <trkpt lat="43.90514" lon="7.29158">
        <ele>1277.445469</ele>
        <time>2011-11-19T12:39:57Z</time>
      </trkpt>
      <trkpt lat="43.90523" lon="7.29144">
        <ele>1274.445457</ele>
        <time>2011-11-19T12:40:10Z</time>
      </trkpt>
      <trkpt lat="43.90529" lon="7.29132">
        <ele>1273.445438</ele>
        <time>2011-11-19T12:40:16Z</time>
      </trkpt>
      <trkpt lat="43.90536" lon="7.29115">
        <ele>1274.445412</ele>
        <time>2011-11-19T12:40:24Z</time>
      </trkpt>
      <trkpt lat="43.90538" lon="7.29109">
        <ele>1274.4454</ele>
        <time>2011-11-19T12:40:27Z</time>
      </trkpt>
      <trkpt lat="43.90542" lon="7.29084">
        <ele>1276.445358</ele>
        <time>2011-11-19T12:40:41Z</time>
      </trkpt>
      <trkpt lat="43.90541" lon="7.29064">
        <ele>1274.445312</ele>
        <time>2011-11-19T12:40:54Z</time>
      </trkpt>
      <trkpt lat="43.90539" lon="7.29051">
        <ele>1272.445282</ele>
        <time>2011-11-19T12:41:01Z</time>
      </trkpt>
      <trkpt lat="43.90536" lon="7.29034">
        <ele>1271.445248</ele>
        <time>2011-11-19T12:41:12Z</time>
      </trkpt>
      <trkpt lat="43.90535" lon="7.29031">
        <ele>1272.44524</ele>
        <time>2011-11-19T12:41:14Z</time>
      </trkpt>
      <trkpt lat="43.90532" lon="7.29011">
        <ele>1277.445194</ele>
        <time>2011-11-19T12:41:33Z</time>
      </trkpt>
      <trkpt lat="43.90534" lon="7.28996">
        <ele>1279.445168</ele>
        <time>2011-11-19T12:41:46Z</time>
      </trkpt>
      <trkpt lat="43.90539" lon="7.28981">
        <ele>1279.445141</ele>
        <time>2011-11-19T12:41:59Z</time>
      </trkpt>
      <trkpt lat="43.90548" lon="7.28965">
        <ele>1278.445118</ele>
        <time>2011-11-19T12:42:17Z</time>
      </trkpt>
      <trkpt lat="43.90539" lon="7.28972">
        <ele>1260.445122</ele>
        <time>2011-11-19T12:43:32Z</time>
      </trkpt>
      <trkpt lat="43.9054" lon="7.28972">
        <ele>1263.445122</ele>
        <time>2011-11-19T12:43:35Z</time>
      </trkpt>
      <trkpt lat="43.90543" lon="7.28959">
        <ele>1279.445099</ele>
        <time>2011-11-19T12:44:35Z</time>
      </trkpt>
      <trkpt lat="43.90544" lon="7.28958">
        <ele>1280.445099</ele>
        <time>2011-11-19T12:44:40Z</time>
      </trkpt>
      <trkpt lat="43.9054" lon="7.2897">
        <ele>1269.445122</ele>
        <time>2011-11-19T12:45:27Z</time>
      </trkpt>
      <trkpt lat="43.90536" lon="7.28974">
        <ele>1271.445122</ele>
        <time>2011-11-19T12:45:34Z</time>
      </trkpt>
      <trkpt lat="43.90532" lon="7.28986">
        <ele>1266.445145</ele>
        <time>2011-11-19T12:46:33Z</time>
      </trkpt>
      <trkpt lat="43.90531" lon="7.28987">
        <ele>1265.445145</ele>
        <time>2011-11-19T12:46:36Z</time>
      </trkpt>
      <trkpt lat="43.90528" lon="7.29">
        <ele>1264.445168</ele>
        <time>2011-11-19T12:46:43Z</time>
      </trkpt>
      <trkpt lat="43.90519" lon="7.29009">
        <ele>1267.445175</ele>
        <time>2011-11-19T12:46:55Z</time>
      </trkpt>
      <trkpt lat="43.90517" lon="7.28992">
        <ele>1260.445133</ele>
        <time>2011-11-19T12:47:39Z</time>
      </trkpt>
      <trkpt lat="43.90523" lon="7.28981">
        <ele>1263.445118</ele>
        <time>2011-11-19T12:47:47Z</time>
      </trkpt>
      <trkpt lat="43.90529" lon="7.28972">
        <ele>1265.445107</ele>
        <time>2011-11-19T12:47:54Z</time>
      </trkpt>
      <trkpt lat="43.90538" lon="7.28966">
        <ele>1268.44511</ele>
        <time>2011-11-19T12:48:02Z</time>
      </trkpt>
      <trkpt lat="43.90547" lon="7.28963">
        <ele>1276.445114</ele>
        <time>2011-11-19T12:55:49Z</time>
      </trkpt>
      <trkpt lat="43.90548" lon="7.28963">
        <ele>1276.445114</ele>
        <time>2011-11-19T12:55:50Z</time>
      </trkpt>
      <trkpt lat="43.90539" lon="7.28968">
        <ele>1277.445114</ele>
        <time>2011-11-19T12:56:10Z</time>
      </trkpt>
      <trkpt lat="43.90529" lon="7.28971">
        <ele>1277.445107</ele>
        <time>2011-11-19T12:56:13Z</time>
      </trkpt>
      <trkpt lat="43.90517" lon="7.28968">
        <ele>1276.445084</ele>
        <time>2011-11-19T12:56:16Z</time>
      </trkpt>
      <trkpt lat="43.90506" lon="7.2896">
        <ele>1276.445053</ele>
        <time>2011-11-19T12:56:18Z</time>
      </trkpt>
      <trkpt lat="43.90495" lon="7.28953">
        <ele>1275.445023</ele>
        <time>2011-11-19T12:56:20Z</time>
      </trkpt>
      <trkpt lat="43.90483" lon="7.28948">
        <ele>1275.445</ele>
        <time>2011-11-19T12:56:22Z</time>
      </trkpt>
      <trkpt lat="43.90472" lon="7.28946">
        <ele>1274.444977</ele>
        <time>2011-11-19T12:56:24Z</time>
      </trkpt>
      <trkpt lat="43.90461" lon="7.28945">
        <ele>1274.444962</ele>
        <time>2011-11-19T12:56:26Z</time>
      </trkpt>
      <trkpt lat="43.90456" lon="7.28945">
        <ele>1273.444954</ele>
        <time>2011-11-19T12:56:27Z</time>
      </trkpt>
      <trkpt lat="43.90444" lon="7.28945">
        <ele>1272.444939</ele>
        <time>2011-11-19T12:56:30Z</time>
      </trkpt>
      <trkpt lat="43.90442" lon="7.28945">
        <ele>1272.444939</ele>
        <time>2011-11-19T12:56:31Z</time>
      </trkpt>
      <trkpt lat="43.9044" lon="7.28945">
        <ele>1271.444931</ele>
        <time>2011-11-19T12:56:32Z</time>
      </trkpt>
      <trkpt lat="43.90439" lon="7.28945">
        <ele>1271.444931</ele>
        <time>2011-11-19T12:56:33Z</time>
      </trkpt>
      <trkpt lat="43.90437" lon="7.28945">
        <ele>1271.444931</ele>
        <time>2011-11-19T12:56:34Z</time>
      </trkpt>
      <trkpt lat="43.90426" lon="7.28946">
        <ele>1272.444916</ele>
        <time>2011-11-19T12:56:39Z</time>
      </trkpt>
      <trkpt lat="43.90416" lon="7.28946">
        <ele>1272.444901</ele>
        <time>2011-11-19T12:56:44Z</time>
      </trkpt>
      <trkpt lat="43.90406" lon="7.28938">
        <ele>1273.444878</ele>
        <time>2011-11-19T12:56:49Z</time>
      </trkpt>
      <trkpt lat="43.90401" lon="7.28926">
        <ele>1273.444839</ele>
        <time>2011-11-19T12:56:53Z</time>
      </trkpt>
      <trkpt lat="43.90394" lon="7.28913">
        <ele>1272.444805</ele>
        <time>2011-11-19T12:56:57Z</time>
      </trkpt>
      <trkpt lat="43.90387" lon="7.28903">
        <ele>1274.444775</ele>
        <time>2011-11-19T12:57:00Z</time>
      </trkpt>
      <trkpt lat="43.90381" lon="7.28894">
        <ele>1275.444748</ele>
        <time>2011-11-19T12:57:03Z</time>
      </trkpt>
      <trkpt lat="43.90374" lon="7.28883">
        <ele>1275.444717</ele>
        <time>2011-11-19T12:57:06Z</time>
      </trkpt>
      <trkpt lat="43.90368" lon="7.28872">
        <ele>1276.444687</ele>
        <time>2011-11-19T12:57:09Z</time>
      </trkpt>
      <trkpt lat="43.90362" lon="7.2886">
        <ele>1276.444649</ele>
        <time>2011-11-19T12:57:12Z</time>
      </trkpt>
      <trkpt lat="43.90353" lon="7.28849">
        <ele>1275.444618</ele>
        <time>2011-11-19T12:57:15Z</time>
      </trkpt>
      <trkpt lat="43.90344" lon="7.28839">
        <ele>1275.444588</ele>
        <time>2011-11-19T12:57:18Z</time>
      </trkpt>
      <trkpt lat="43.9034" lon="7.28836">
        <ele>1275.444576</ele>
        <time>2011-11-19T12:57:19Z</time>
      </trkpt>
      <trkpt lat="43.90331" lon="7.2883">
        <ele>1275.44455</ele>
        <time>2011-11-19T12:57:22Z</time>
      </trkpt>
      <trkpt lat="43.9032" lon="7.28827">
        <ele>1276.44453</ele>
        <time>2011-11-19T12:57:28Z</time>
      </trkpt>
      <trkpt lat="43.90312" lon="7.2882">
        <ele>1276.444504</ele>
        <time>2011-11-19T12:57:34Z</time>
      </trkpt>
      <trkpt lat="43.90303" lon="7.28816">
        <ele>1274.444481</ele>
        <time>2011-11-19T12:57:40Z</time>
      </trkpt>
      <trkpt lat="43.90297" lon="7.28806">
        <ele>1273.444454</ele>
        <time>2011-11-19T12:57:43Z</time>
      </trkpt>
      <trkpt lat="43.90288" lon="7.28795">
        <ele>1272.44442</ele>
        <time>2011-11-19T12:57:45Z</time>
      </trkpt>
      <trkpt lat="43.9028" lon="7.28786">
        <ele>1272.444393</ele>
        <time>2011-11-19T12:57:47Z</time>
      </trkpt>
      <trkpt lat="43.90273" lon="7.28779">
        <ele>1270.444366</ele>
        <time>2011-11-19T12:57:49Z</time>
      </trkpt>
      <trkpt lat="43.90264" lon="7.28773">
        <ele>1270.444344</ele>
        <time>2011-11-19T12:57:52Z</time>
      </trkpt>
      <trkpt lat="43.90261" lon="7.28771">
        <ele>1269.444336</ele>
        <time>2011-11-19T12:57:53Z</time>
      </trkpt>
      <trkpt lat="43.90252" lon="7.28765">
        <ele>1268.444313</ele>
        <time>2011-11-19T12:57:57Z</time>
      </trkpt>
      <trkpt lat="43.90242" lon="7.28757">
        <ele>1267.444283</ele>
        <time>2011-11-19T12:58:01Z</time>
      </trkpt>
      <trkpt lat="43.90235" lon="7.28749">
        <ele>1267.444252</ele>
        <time>2011-11-19T12:58:04Z</time>
      </trkpt>
      <trkpt lat="43.90226" lon="7.28739">
        <ele>1266.444221</ele>
        <time>2011-11-19T12:58:07Z</time>
      </trkpt>
      <trkpt lat="43.90217" lon="7.28731">
        <ele>1265.444191</ele>
        <time>2011-11-19T12:58:10Z</time>
      </trkpt>
      <trkpt lat="43.90207" lon="7.28724">
        <ele>1266.444164</ele>
        <time>2011-11-19T12:58:13Z</time>
      </trkpt>
      <trkpt lat="43.90196" lon="7.28717">
        <ele>1265.444138</ele>
        <time>2011-11-19T12:58:17Z</time>
      </trkpt>
      <trkpt lat="43.90187" lon="7.28712">
        <ele>1265.444115</ele>
        <time>2011-11-19T12:58:22Z</time>
      </trkpt>
      <trkpt lat="43.90178" lon="7.28705">
        <ele>1266.444084</ele>
        <time>2011-11-19T12:58:37Z</time>
      </trkpt>
      <trkpt lat="43.90176" lon="7.28703">
        <ele>1266.444077</ele>
        <time>2011-11-19T12:58:45Z</time>
      </trkpt>
      <trkpt lat="43.90162" lon="7.28706">
        <ele>1263.444069</ele>
        <time>2011-11-19T12:59:14Z</time>
      </trkpt>
      <trkpt lat="43.90153" lon="7.28705">
        <ele>1258.44405</ele>
        <time>2011-11-19T12:59:33Z</time>
      </trkpt>
      <trkpt lat="43.90151" lon="7.28705">
        <ele>1258.44405</ele>
        <time>2011-11-19T12:59:35Z</time>
      </trkpt>
      <trkpt lat="43.90141" lon="7.28703">
        <ele>1256.444031</ele>
        <time>2011-11-19T12:59:41Z</time>
      </trkpt>
      <trkpt lat="43.90129" lon="7.287">
        <ele>1253.444016</ele>
        <time>2011-11-19T12:59:45Z</time>
      </trkpt>
      <trkpt lat="43.90121" lon="7.28696">
        <ele>1252.443989</ele>
        <time>2011-11-19T12:59:48Z</time>
      </trkpt>
      <trkpt lat="43.9011" lon="7.28687">
        <ele>1251.443958</ele>
        <time>2011-11-19T12:59:54Z</time>
      </trkpt>
      <trkpt lat="43.90108" lon="7.28685">
        <ele>1251.443954</ele>
        <time>2011-11-19T12:59:55Z</time>
      </trkpt>
      <trkpt lat="43.90101" lon="7.28677">
        <ele>1249.443924</ele>
        <time>2011-11-19T13:00:00Z</time>
      </trkpt>
      <trkpt lat="43.90096" lon="7.28667">
        <ele>1248.443893</ele>
        <time>2011-11-19T13:00:04Z</time>
      </trkpt>
      <trkpt lat="43.90089" lon="7.28657">
        <ele>1247.443867</ele>
        <time>2011-11-19T13:00:08Z</time>
      </trkpt>
      <trkpt lat="43.90077" lon="7.28647">
        <ele>1244.443829</ele>
        <time>2011-11-19T13:00:15Z</time>
      </trkpt>
      <trkpt lat="43.90068" lon="7.28643">
        <ele>1243.443813</ele>
        <time>2011-11-19T13:00:19Z</time>
      </trkpt>
      <trkpt lat="43.90059" lon="7.28641">
        <ele>1241.443794</ele>
        <time>2011-11-19T13:00:21Z</time>
      </trkpt>
      <trkpt lat="43.9005" lon="7.2864">
        <ele>1241.443779</ele>
        <time>2011-11-19T13:00:22Z</time>
      </trkpt>
      <trkpt lat="43.90032" lon="7.28639">
        <ele>1240.443752</ele>
        <time>2011-11-19T13:00:24Z</time>
      </trkpt>
      <trkpt lat="43.90018" lon="7.28636">
        <ele>1238.443726</ele>
        <time>2011-11-19T13:00:26Z</time>
      </trkpt>
      <trkpt lat="43.90004" lon="7.28631">
        <ele>1236.443703</ele>
        <time>2011-11-19T13:00:30Z</time>
      </trkpt>
      <trkpt lat="43.89994" lon="7.28627">
        <ele>1234.44368</ele>
        <time>2011-11-19T13:00:36Z</time>
      </trkpt>
      <trkpt lat="43.89983" lon="7.28634">
        <ele>1225.443676</ele>
        <time>2011-11-19T13:00:56Z</time>
      </trkpt>
      <trkpt lat="43.89969" lon="7.28636">
        <ele>1208.443665</ele>
        <time>2011-11-19T13:02:36Z</time>
      </trkpt>
      <trkpt lat="43.89958" lon="7.28633">
        <ele>1208.443642</ele>
        <time>2011-11-19T13:02:38Z</time>
      </trkpt>
      <trkpt lat="43.89948" lon="7.28629">
        <ele>1209.443615</ele>
        <time>2011-11-19T13:02:40Z</time>
      </trkpt>
      <trkpt lat="43.89939" lon="7.28623">
        <ele>1209.443588</ele>
        <time>2011-11-19T13:02:42Z</time>
      </trkpt>
      <trkpt lat="43.89929" lon="7.28618">
        <ele>1210.443573</ele>
        <time>2011-11-19T13:02:44Z</time>
      </trkpt>
      <trkpt lat="43.89919" lon="7.28614">
        <ele>1210.443546</ele>
        <time>2011-11-19T13:02:46Z</time>
      </trkpt>
      <trkpt lat="43.89914" lon="7.28613">
        <ele>1210.443542</ele>
        <time>2011-11-19T13:02:47Z</time>
      </trkpt>
      <trkpt lat="43.89904" lon="7.28613">
        <ele>1210.443523</ele>
        <time>2011-11-19T13:02:49Z</time>
      </trkpt>
      <trkpt lat="43.89886" lon="7.28615">
        <ele>1210.443504</ele>
        <time>2011-11-19T13:02:53Z</time>
      </trkpt>
      <trkpt lat="43.89873" lon="7.28613">
        <ele>1209.443481</ele>
        <time>2011-11-19T13:02:55Z</time>
      </trkpt>
      <trkpt lat="43.89849" lon="7.28611">
        <ele>1208.443443</ele>
        <time>2011-11-19T13:02:59Z</time>
      </trkpt>
      <trkpt lat="43.89839" lon="7.28609">
        <ele>1207.443432</ele>
        <time>2011-11-19T13:03:02Z</time>
      </trkpt>
      <trkpt lat="43.89828" lon="7.2861">
        <ele>1207.44342</ele>
        <time>2011-11-19T13:03:06Z</time>
      </trkpt>
      <trkpt lat="43.89817" lon="7.28609">
        <ele>1206.443398</ele>
        <time>2011-11-19T13:03:09Z</time>
      </trkpt>
      <trkpt lat="43.89805" lon="7.28607">
        <ele>1206.443378</ele>
        <time>2011-11-19T13:03:12Z</time>
      </trkpt>
      <trkpt lat="43.89796" lon="7.28607">
        <ele>1206.443367</ele>
        <time>2011-11-19T13:03:14Z</time>
      </trkpt>
      <trkpt lat="43.89769" lon="7.28612">
        <ele>1206.443336</ele>
        <time>2011-11-19T13:03:18Z</time>
      </trkpt>
      <trkpt lat="43.89759" lon="7.28616">
        <ele>1206.443336</ele>
        <time>2011-11-19T13:03:20Z</time>
      </trkpt>
      <trkpt lat="43.89742" lon="7.28622">
        <ele>1206.443325</ele>
        <time>2011-11-19T13:03:24Z</time>
      </trkpt>
      <trkpt lat="43.89727" lon="7.28627">
        <ele>1205.443314</ele>
        <time>2011-11-19T13:03:27Z</time>
      </trkpt>
      <trkpt lat="43.89707" lon="7.28635">
        <ele>1204.443298</ele>
        <time>2011-11-19T13:03:31Z</time>
      </trkpt>
      <trkpt lat="43.89696" lon="7.28638">
        <ele>1203.443295</ele>
        <time>2011-11-19T13:03:33Z</time>
      </trkpt>
      <trkpt lat="43.89677" lon="7.28645">
        <ele>1201.443283</ele>
        <time>2011-11-19T13:03:37Z</time>
      </trkpt>
      <trkpt lat="43.89665" lon="7.28652">
        <ele>1199.443283</ele>
        <time>2011-11-19T13:03:40Z</time>
      </trkpt>
      <trkpt lat="43.89655" lon="7.28655">
        <ele>1197.443275</ele>
        <time>2011-11-19T13:03:43Z</time>
      </trkpt>
      <trkpt lat="43.89651" lon="7.28656">
        <ele>1196.443272</ele>
        <time>2011-11-19T13:03:50Z</time>
      </trkpt>
      <trkpt lat="43.89636" lon="7.28672">
        <ele>1184.443283</ele>
        <time>2011-11-19T13:04:09Z</time>
      </trkpt>
      <trkpt lat="43.89625" lon="7.28674">
        <ele>1183.443275</ele>
        <time>2011-11-19T13:04:11Z</time>
      </trkpt>
      <trkpt lat="43.89615" lon="7.28675">
        <ele>1182.443264</ele>
        <time>2011-11-19T13:04:13Z</time>
      </trkpt>
      <trkpt lat="43.89606" lon="7.28675">
        <ele>1180.443249</ele>
        <time>2011-11-19T13:04:15Z</time>
      </trkpt>
      <trkpt lat="43.89593" lon="7.28671">
        <ele>1179.443222</ele>
        <time>2011-11-19T13:04:18Z</time>
      </trkpt>
      <trkpt lat="43.89583" lon="7.28663">
        <ele>1178.443192</ele>
        <time>2011-11-19T13:04:21Z</time>
      </trkpt>
      <trkpt lat="43.89573" lon="7.28654">
        <ele>1177.443157</ele>
        <time>2011-11-19T13:04:24Z</time>
      </trkpt>
      <trkpt lat="43.8957" lon="7.28652">
        <ele>1177.443153</ele>
        <time>2011-11-19T13:04:25Z</time>
      </trkpt>
      <trkpt lat="43.89556" lon="7.28651">
        <ele>1171.44313</ele>
        <time>2011-11-19T13:04:41Z</time>
      </trkpt>
      <trkpt lat="43.89548" lon="7.28657">
        <ele>1172.44313</ele>
        <time>2011-11-19T13:04:44Z</time>
      </trkpt>
      <trkpt lat="43.89535" lon="7.28663">
        <ele>1171.44313</ele>
        <time>2011-11-19T13:04:47Z</time>
      </trkpt>
      <trkpt lat="43.89526" lon="7.28666">
        <ele>1171.443123</ele>
        <time>2011-11-19T13:04:49Z</time>
      </trkpt>
      <trkpt lat="43.89515" lon="7.28667">
        <ele>1170.443111</ele>
        <time>2011-11-19T13:04:51Z</time>
      </trkpt>
      <trkpt lat="43.89509" lon="7.28668">
        <ele>1170.443104</ele>
        <time>2011-11-19T13:04:52Z</time>
      </trkpt>
      <trkpt lat="43.89497" lon="7.28669">
        <ele>1170.443085</ele>
        <time>2011-11-19T13:04:54Z</time>
      </trkpt>
      <trkpt lat="43.89493" lon="7.2867">
        <ele>1169.443085</ele>
        <time>2011-11-19T13:04:55Z</time>
      </trkpt>
      <trkpt lat="43.89484" lon="7.28672">
        <ele>1167.443077</ele>
        <time>2011-11-19T13:04:57Z</time>
      </trkpt>
      <trkpt lat="43.89474" lon="7.2868">
        <ele>1163.443081</ele>
        <time>2011-11-19T13:05:00Z</time>
      </trkpt>
      <trkpt lat="43.89469" lon="7.28685">
        <ele>1160.443085</ele>
        <time>2011-11-19T13:05:02Z</time>
      </trkpt>
      <trkpt lat="43.89453" lon="7.28701">
        <ele>1147.443092</ele>
        <time>2011-11-19T13:05:12Z</time>
      </trkpt>
      <trkpt lat="43.8944" lon="7.28706">
        <ele>1147.443085</ele>
        <time>2011-11-19T13:05:17Z</time>
      </trkpt>
      <trkpt lat="43.89429" lon="7.2871">
        <ele>1146.443081</ele>
        <time>2011-11-19T13:05:20Z</time>
      </trkpt>
      <trkpt lat="43.89421" lon="7.28714">
        <ele>1145.443077</ele>
        <time>2011-11-19T13:05:22Z</time>
      </trkpt>
      <trkpt lat="43.89412" lon="7.28719">
        <ele>1145.443077</ele>
        <time>2011-11-19T13:05:24Z</time>
      </trkpt>
      <trkpt lat="43.89404" lon="7.28726">
        <ele>1145.443077</ele>
        <time>2011-11-19T13:05:26Z</time>
      </trkpt>
      <trkpt lat="43.89394" lon="7.28733">
        <ele>1143.443077</ele>
        <time>2011-11-19T13:05:29Z</time>
      </trkpt>
      <trkpt lat="43.89389" lon="7.28738">
        <ele>1142.443081</ele>
        <time>2011-11-19T13:05:31Z</time>
      </trkpt>
      <trkpt lat="43.8938" lon="7.28745">
        <ele>1142.443085</ele>
        <time>2011-11-19T13:05:34Z</time>
      </trkpt>
      <trkpt lat="43.89371" lon="7.28756">
        <ele>1140.4431</ele>
        <time>2011-11-19T13:05:37Z</time>
      </trkpt>
      <trkpt lat="43.89363" lon="7.28764">
        <ele>1138.4431</ele>
        <time>2011-11-19T13:05:40Z</time>
      </trkpt>
      <trkpt lat="43.8937" lon="7.28777">
        <ele>1124.443138</ele>
        <time>2011-11-19T13:06:07Z</time>
      </trkpt>
      <trkpt lat="43.89358" lon="7.28775">
        <ele>1112.443119</ele>
        <time>2011-11-19T13:08:33Z</time>
      </trkpt>
      <trkpt lat="43.89349" lon="7.28773">
        <ele>1113.443104</ele>
        <time>2011-11-19T13:08:44Z</time>
      </trkpt>
      <trkpt lat="43.89342" lon="7.28764">
        <ele>1112.443069</ele>
        <time>2011-11-19T13:09:17Z</time>
      </trkpt>
      <trkpt lat="43.89339" lon="7.28752">
        <ele>1112.443047</ele>
        <time>2011-11-19T13:09:24Z</time>
      </trkpt>
      <trkpt lat="43.89331" lon="7.28744">
        <ele>1112.443016</ele>
        <time>2011-11-19T13:09:29Z</time>
      </trkpt>
      <trkpt lat="43.89323" lon="7.28735">
        <ele>1110.442989</ele>
        <time>2011-11-19T13:09:38Z</time>
      </trkpt>
      <trkpt lat="43.89313" lon="7.28733">
        <ele>1110.44297</ele>
        <time>2011-11-19T13:09:47Z</time>
      </trkpt>
      <trkpt lat="43.89297" lon="7.28729">
        <ele>1109.442944</ele>
        <time>2011-11-19T13:09:54Z</time>
      </trkpt>
      <trkpt lat="43.89287" lon="7.28727">
        <ele>1109.442924</ele>
        <time>2011-11-19T13:09:58Z</time>
      </trkpt>
      <trkpt lat="43.89273" lon="7.28717">
        <ele>1108.442886</ele>
        <time>2011-11-19T13:10:01Z</time>
      </trkpt>
      <trkpt lat="43.89263" lon="7.28706">
        <ele>1106.442848</ele>
        <time>2011-11-19T13:10:03Z</time>
      </trkpt>
      <trkpt lat="43.89256" lon="7.28695">
        <ele>1104.442814</ele>
        <time>2011-11-19T13:10:05Z</time>
      </trkpt>
      <trkpt lat="43.89249" lon="7.28686">
        <ele>1103.442787</ele>
        <time>2011-11-19T13:10:08Z</time>
      </trkpt>
      <trkpt lat="43.8924" lon="7.28671">
        <ele>1098.442745</ele>
        <time>2011-11-19T13:10:19Z</time>
      </trkpt>
      <trkpt lat="43.89238" lon="7.28666">
        <ele>1098.442734</ele>
        <time>2011-11-19T13:10:22Z</time>
      </trkpt>
      <trkpt lat="43.89245" lon="7.28656">
        <ele>1097.442719</ele>
        <time>2011-11-19T13:10:30Z</time>
      </trkpt>
      <trkpt lat="43.89259" lon="7.28644">
        <ele>1097.442715</ele>
        <time>2011-11-19T13:10:42Z</time>
      </trkpt>
      <trkpt lat="43.89263" lon="7.28632">
        <ele>1098.442696</ele>
        <time>2011-11-19T13:10:49Z</time>
      </trkpt>
      <trkpt lat="43.89262" lon="7.28625">
        <ele>1098.44268</ele>
        <time>2011-11-19T13:10:54Z</time>
      </trkpt>
      <trkpt lat="43.89259" lon="7.2861">
        <ele>1096.442642</ele>
        <time>2011-11-19T13:11:12Z</time>
      </trkpt>
      <trkpt lat="43.89268" lon="7.28605">
        <ele>1094.44265</ele>
        <time>2011-11-19T13:11:28Z</time>
      </trkpt>
      <trkpt lat="43.89279" lon="7.28605">
        <ele>1093.442665</ele>
        <time>2011-11-19T13:11:37Z</time>
      </trkpt>
      <trkpt lat="43.89279" lon="7.28605">
        <ele>1093.442665</ele>
        <time>2011-11-19T13:11:38Z</time>
      </trkpt>
      <trkpt lat="43.89274" lon="7.28583">
        <ele>1097.442608</ele>
        <time>2011-11-19T13:12:03Z</time>
      </trkpt>
      <trkpt lat="43.89272" lon="7.28582">
        <ele>1098.442608</ele>
        <time>2011-11-19T13:12:04Z</time>
      </trkpt>
      <trkpt lat="43.89257" lon="7.28579">
        <ele>1097.442577</ele>
        <time>2011-11-19T13:12:14Z</time>
      </trkpt>
      <trkpt lat="43.89254" lon="7.28578">
        <ele>1096.442574</ele>
        <time>2011-11-19T13:12:17Z</time>
      </trkpt>
      <trkpt lat="43.89239" lon="7.28575">
        <ele>1090.442543</ele>
        <time>2011-11-19T13:12:33Z</time>
      </trkpt>
      <trkpt lat="43.89222" lon="7.28579">
        <ele>1086.442532</ele>
        <time>2011-11-19T13:12:42Z</time>
      </trkpt>
      <trkpt lat="43.89224" lon="7.28579">
        <ele>1083.442535</ele>
        <time>2011-11-19T13:12:57Z</time>
      </trkpt>
      <trkpt lat="43.8923" lon="7.28565">
        <ele>1079.442513</ele>
        <time>2011-11-19T13:13:12Z</time>
      </trkpt>
      <trkpt lat="43.8923" lon="7.28561">
        <ele>1078.442505</ele>
        <time>2011-11-19T13:13:16Z</time>
      </trkpt>
      <trkpt lat="43.8922" lon="7.28557">
        <ele>1072.442482</ele>
        <time>2011-11-19T13:13:24Z</time>
      </trkpt>
      <trkpt lat="43.89211" lon="7.2856">
        <ele>1069.442474</ele>
        <time>2011-11-19T13:13:27Z</time>
      </trkpt>
      <trkpt lat="43.89208" lon="7.28561">
        <ele>1069.442474</ele>
        <time>2011-11-19T13:13:28Z</time>
      </trkpt>
      <trkpt lat="43.89199" lon="7.28553">
        <ele>1055.442444</ele>
        <time>2011-11-19T13:14:02Z</time>
      </trkpt>
      <trkpt lat="43.89201" lon="7.28551">
        <ele>1045.442444</ele>
        <time>2011-11-19T13:14:17Z</time>
      </trkpt>
      <trkpt lat="43.89189" lon="7.28551">
        <ele>1043.442429</ele>
        <time>2011-11-19T13:14:21Z</time>
      </trkpt>
      <trkpt lat="43.8918" lon="7.2855">
        <ele>1043.442413</ele>
        <time>2011-11-19T13:14:23Z</time>
      </trkpt>
      <trkpt lat="43.89168" lon="7.28546">
        <ele>1042.44239</ele>
        <time>2011-11-19T13:14:26Z</time>
      </trkpt>
      <trkpt lat="43.89157" lon="7.2854">
        <ele>1040.442364</ele>
        <time>2011-11-19T13:14:29Z</time>
      </trkpt>
      <trkpt lat="43.89154" lon="7.28539">
        <ele>1040.44236</ele>
        <time>2011-11-19T13:14:30Z</time>
      </trkpt>
      <trkpt lat="43.89142" lon="7.28538">
        <ele>1039.442337</ele>
        <time>2011-11-19T13:14:33Z</time>
      </trkpt>
      <trkpt lat="43.89131" lon="7.28541">
        <ele>1039.442329</ele>
        <time>2011-11-19T13:14:35Z</time>
      </trkpt>
      <trkpt lat="43.89119" lon="7.28546">
        <ele>1039.442322</ele>
        <time>2011-11-19T13:14:37Z</time>
      </trkpt>
      <trkpt lat="43.89108" lon="7.28549">
        <ele>1039.442314</ele>
        <time>2011-11-19T13:14:39Z</time>
      </trkpt>
      <trkpt lat="43.89102" lon="7.28548">
        <ele>1039.442307</ele>
        <time>2011-11-19T13:14:40Z</time>
      </trkpt>
      <trkpt lat="43.89089" lon="7.28549">
        <ele>1039.442291</ele>
        <time>2011-11-19T13:14:43Z</time>
      </trkpt>
      <trkpt lat="43.89082" lon="7.28554">
        <ele>1040.442287</ele>
        <time>2011-11-19T13:14:45Z</time>
      </trkpt>
      <trkpt lat="43.89072" lon="7.28559">
        <ele>1040.442287</ele>
        <time>2011-11-19T13:14:48Z</time>
      </trkpt>
      <trkpt lat="43.89062" lon="7.28561">
        <ele>1041.442276</ele>
        <time>2011-11-19T13:14:51Z</time>
      </trkpt>
      <trkpt lat="43.89052" lon="7.28561">
        <ele>1042.442265</ele>
        <time>2011-11-19T13:14:54Z</time>
      </trkpt>
      <trkpt lat="43.89042" lon="7.28563">
        <ele>1044.442253</ele>
        <time>2011-11-19T13:14:57Z</time>
      </trkpt>
      <trkpt lat="43.89033" lon="7.28567">
        <ele>1045.442249</ele>
        <time>2011-11-19T13:15:01Z</time>
      </trkpt>
      <trkpt lat="43.89022" lon="7.2857">
        <ele>1045.442242</ele>
        <time>2011-11-19T13:15:06Z</time>
      </trkpt>
      <trkpt lat="43.89011" lon="7.28577">
        <ele>1041.442242</ele>
        <time>2011-11-19T13:15:10Z</time>
      </trkpt>
      <trkpt lat="43.89006" lon="7.28601">
        <ele>1031.442284</ele>
        <time>2011-11-19T13:15:18Z</time>
      </trkpt>
      <trkpt lat="43.89001" lon="7.28613">
        <ele>1028.442299</ele>
        <time>2011-11-19T13:15:21Z</time>
      </trkpt>
      <trkpt lat="43.88998" lon="7.28617">
        <ele>1026.442307</ele>
        <time>2011-11-19T13:15:22Z</time>
      </trkpt>
      <trkpt lat="43.88993" lon="7.28632">
        <ele>1017.442329</ele>
        <time>2011-11-19T13:15:25Z</time>
      </trkpt>
      <trkpt lat="43.88993" lon="7.28637">
        <ele>1014.442337</ele>
        <time>2011-11-19T13:15:29Z</time>
      </trkpt>
      <trkpt lat="43.89002" lon="7.28649">
        <ele>1002.442375</ele>
        <time>2011-11-19T13:15:35Z</time>
      </trkpt>
      <trkpt lat="43.89007" lon="7.28659">
        <ele>989.442406</ele>
        <time>2011-11-19T13:15:52Z</time>
      </trkpt>
      <trkpt lat="43.89011" lon="7.28672">
        <ele>978.442436</ele>
        <time>2011-11-19T13:16:09Z</time>
      </trkpt>
      <trkpt lat="43.8901" lon="7.28685">
        <ele>968.442463</ele>
        <time>2011-11-19T13:17:06Z</time>
      </trkpt>
      <trkpt lat="43.89007" lon="7.28674">
        <ele>961.442436</ele>
        <time>2011-11-19T13:17:44Z</time>
      </trkpt>
      <trkpt lat="43.88996" lon="7.28674">
        <ele>960.442421</ele>
        <time>2011-11-19T13:19:45Z</time>
      </trkpt>
      <trkpt lat="43.88987" lon="7.2868">
        <ele>961.442421</ele>
        <time>2011-11-19T13:19:50Z</time>
      </trkpt>
      <trkpt lat="43.88975" lon="7.2868">
        <ele>962.442406</ele>
        <time>2011-11-19T13:19:57Z</time>
      </trkpt>
      <trkpt lat="43.88968" lon="7.28668">
        <ele>970.442368</ele>
        <time>2011-11-19T13:20:07Z</time>
      </trkpt>
      <trkpt lat="43.88967" lon="7.28667">
        <ele>970.442368</ele>
        <time>2011-11-19T13:20:11Z</time>
      </trkpt>
      <trkpt lat="43.88961" lon="7.28654">
        <ele>975.442337</ele>
        <time>2011-11-19T13:20:17Z</time>
      </trkpt>
      <trkpt lat="43.8896" lon="7.28653">
        <ele>976.442329</ele>
        <time>2011-11-19T13:20:18Z</time>
      </trkpt>
      <trkpt lat="43.88952" lon="7.28643">
        <ele>978.442299</ele>
        <time>2011-11-19T13:20:25Z</time>
      </trkpt>
      <trkpt lat="43.88945" lon="7.28636">
        <ele>981.442268</ele>
        <time>2011-11-19T13:20:32Z</time>
      </trkpt>
      <trkpt lat="43.88936" lon="7.28629">
        <ele>981.442245</ele>
        <time>2011-11-19T13:20:40Z</time>
      </trkpt>
      <trkpt lat="43.88928" lon="7.28623">
        <ele>982.442223</ele>
        <time>2011-11-19T13:20:46Z</time>
      </trkpt>
      <trkpt lat="43.88921" lon="7.28614">
        <ele>984.442192</ele>
        <time>2011-11-19T13:20:55Z</time>
      </trkpt>
      <trkpt lat="43.88915" lon="7.28603">
        <ele>986.442165</ele>
        <time>2011-11-19T13:21:05Z</time>
      </trkpt>
      <trkpt lat="43.8891" lon="7.28593">
        <ele>989.442139</ele>
        <time>2011-11-19T13:21:15Z</time>
      </trkpt>
      <trkpt lat="43.88906" lon="7.28589">
        <ele>990.442123</ele>
        <time>2011-11-19T13:21:20Z</time>
      </trkpt>
      <trkpt lat="43.889" lon="7.2858">
        <ele>991.442097</ele>
        <time>2011-11-19T13:21:23Z</time>
      </trkpt>
      <trkpt lat="43.88888" lon="7.28569">
        <ele>991.442055</ele>
        <time>2011-11-19T13:21:29Z</time>
      </trkpt>
      <trkpt lat="43.8888" lon="7.2856">
        <ele>992.442024</ele>
        <time>2011-11-19T13:21:34Z</time>
      </trkpt>
      <trkpt lat="43.88876" lon="7.28555">
        <ele>992.442009</ele>
        <time>2011-11-19T13:21:37Z</time>
      </trkpt>
      <trkpt lat="43.88867" lon="7.28546">
        <ele>994.441986</ele>
        <time>2011-11-19T13:21:43Z</time>
      </trkpt>
      <trkpt lat="43.8886" lon="7.28537">
        <ele>997.441952</ele>
        <time>2011-11-19T13:21:50Z</time>
      </trkpt>
      <trkpt lat="43.88853" lon="7.28529">
        <ele>998.441925</ele>
        <time>2011-11-19T13:21:56Z</time>
      </trkpt>
      <trkpt lat="43.88853" lon="7.28529">
        <ele>998.441925</ele>
        <time>2011-11-19T13:21:57Z</time>
      </trkpt>
      <trkpt lat="43.88844" lon="7.28518">
        <ele>1000.441895</ele>
        <time>2011-11-19T13:22:08Z</time>
      </trkpt>
      <trkpt lat="43.88839" lon="7.28507">
        <ele>1002.44186</ele>
        <time>2011-11-19T13:22:17Z</time>
      </trkpt>
      <trkpt lat="43.88834" lon="7.28494">
        <ele>1003.441833</ele>
        <time>2011-11-19T13:22:24Z</time>
      </trkpt>
      <trkpt lat="43.88834" lon="7.28492">
        <ele>1003.441826</ele>
        <time>2011-11-19T13:22:26Z</time>
      </trkpt>
      <trkpt lat="43.88827" lon="7.28476">
        <ele>1006.44178</ele>
        <time>2011-11-19T13:22:33Z</time>
      </trkpt>
      <trkpt lat="43.88822" lon="7.28463">
        <ele>1011.441746</ele>
        <time>2011-11-19T13:22:39Z</time>
      </trkpt>
      <trkpt lat="43.88814" lon="7.28456">
        <ele>1012.441727</ele>
        <time>2011-11-19T13:22:44Z</time>
      </trkpt>
      <trkpt lat="43.88799" lon="7.28456">
        <ele>1013.441704</ele>
        <time>2011-11-19T13:22:48Z</time>
      </trkpt>
      <trkpt lat="43.8879" lon="7.28458">
        <ele>1013.441696</ele>
        <time>2011-11-19T13:22:51Z</time>
      </trkpt>
      <trkpt lat="43.88773" lon="7.28468">
        <ele>1013.441696</ele>
        <time>2011-11-19T13:22:58Z</time>
      </trkpt>
      <trkpt lat="43.88768" lon="7.28471">
        <ele>1012.441696</ele>
        <time>2011-11-19T13:23:01Z</time>
      </trkpt>
      <trkpt lat="43.88759" lon="7.28476">
        <ele>1010.441689</ele>
        <time>2011-11-19T13:23:06Z</time>
      </trkpt>
      <trkpt lat="43.88751" lon="7.28483">
        <ele>1011.441696</ele>
        <time>2011-11-19T13:23:12Z</time>
      </trkpt>
      <trkpt lat="43.8874" lon="7.28499">
        <ele>1015.441711</ele>
        <time>2011-11-19T13:23:23Z</time>
      </trkpt>
      <trkpt lat="43.88732" lon="7.28509">
        <ele>1017.441719</ele>
        <time>2011-11-19T13:23:30Z</time>
      </trkpt>
      <trkpt lat="43.88725" lon="7.28517">
        <ele>1021.441727</ele>
        <time>2011-11-19T13:23:38Z</time>
      </trkpt>
      <trkpt lat="43.88716" lon="7.28527">
        <ele>1024.441738</ele>
        <time>2011-11-19T13:23:46Z</time>
      </trkpt>
      <trkpt lat="43.88709" lon="7.28539">
        <ele>1025.441757</ele>
        <time>2011-11-19T13:23:53Z</time>
      </trkpt>
      <trkpt lat="43.88703" lon="7.2855">
        <ele>1026.441769</ele>
        <time>2011-11-19T13:24:00Z</time>
      </trkpt>
      <trkpt lat="43.88692" lon="7.28556">
        <ele>1024.441765</ele>
        <time>2011-11-19T13:24:10Z</time>
      </trkpt>
      <trkpt lat="43.8868" lon="7.28551">
        <ele>1023.441738</ele>
        <time>2011-11-19T13:24:20Z</time>
      </trkpt>
      <trkpt lat="43.8867" lon="7.28544">
        <ele>1023.441711</ele>
        <time>2011-11-19T13:24:27Z</time>
      </trkpt>
      <trkpt lat="43.88666" lon="7.28542">
        <ele>1024.441704</ele>
        <time>2011-11-19T13:24:30Z</time>
      </trkpt>
      <trkpt lat="43.88656" lon="7.2854">
        <ele>1024.441685</ele>
        <time>2011-11-19T13:24:36Z</time>
      </trkpt>
      <trkpt lat="43.88647" lon="7.28539">
        <ele>1022.441666</ele>
        <time>2011-11-19T13:24:42Z</time>
      </trkpt>
      <trkpt lat="43.88632" lon="7.28544">
        <ele>1015.441658</ele>
        <time>2011-11-19T13:24:52Z</time>
      </trkpt>
      <trkpt lat="43.88625" lon="7.28547">
        <ele>1014.44165</ele>
        <time>2011-11-19T13:24:57Z</time>
      </trkpt>
      <trkpt lat="43.88612" lon="7.28555">
        <ele>1020.44165</ele>
        <time>2011-11-19T13:25:07Z</time>
      </trkpt>
      <trkpt lat="43.886" lon="7.28561">
        <ele>1021.44165</ele>
        <time>2011-11-19T13:25:17Z</time>
      </trkpt>
      <trkpt lat="43.88592" lon="7.28568">
        <ele>1024.441658</ele>
        <time>2011-11-19T13:25:24Z</time>
      </trkpt>
      <trkpt lat="43.88584" lon="7.28576">
        <ele>1027.441658</ele>
        <time>2011-11-19T13:25:31Z</time>
      </trkpt>
      <trkpt lat="43.88575" lon="7.2858">
        <ele>1030.441658</ele>
        <time>2011-11-19T13:25:38Z</time>
      </trkpt>
      <trkpt lat="43.88562" lon="7.28577">
        <ele>1033.441628</ele>
        <time>2011-11-19T13:25:51Z</time>
      </trkpt>
      <trkpt lat="43.88551" lon="7.28576">
        <ele>1035.441612</ele>
        <time>2011-11-19T13:26:01Z</time>
      </trkpt>
      <trkpt lat="43.88542" lon="7.28573">
        <ele>1038.441597</ele>
        <time>2011-11-19T13:26:08Z</time>
      </trkpt>
      <trkpt lat="43.88532" lon="7.28567">
        <ele>1041.44157</ele>
        <time>2011-11-19T13:26:15Z</time>
      </trkpt>
      <trkpt lat="43.88524" lon="7.28561">
        <ele>1043.441547</ele>
        <time>2011-11-19T13:26:21Z</time>
      </trkpt>
      <trkpt lat="43.88515" lon="7.28556">
        <ele>1042.441521</ele>
        <time>2011-11-19T13:26:28Z</time>
      </trkpt>
      <trkpt lat="43.88506" lon="7.28551">
        <ele>1043.441502</ele>
        <time>2011-11-19T13:26:34Z</time>
      </trkpt>
      <trkpt lat="43.88496" lon="7.28547">
        <ele>1045.441483</ele>
        <time>2011-11-19T13:26:40Z</time>
      </trkpt>
      <trkpt lat="43.88487" lon="7.28545">
        <ele>1046.44146</ele>
        <time>2011-11-19T13:26:47Z</time>
      </trkpt>
      <trkpt lat="43.88477" lon="7.28543">
        <ele>1048.441444</ele>
        <time>2011-11-19T13:26:54Z</time>
      </trkpt>
      <trkpt lat="43.88467" lon="7.28542">
        <ele>1049.441433</ele>
        <time>2011-11-19T13:27:01Z</time>
      </trkpt>
      <trkpt lat="43.88458" lon="7.28542">
        <ele>1053.441418</ele>
        <time>2011-11-19T13:27:07Z</time>
      </trkpt>
      <trkpt lat="43.88456" lon="7.28542">
        <ele>1054.441418</ele>
        <time>2011-11-19T13:27:08Z</time>
      </trkpt>
      <trkpt lat="43.88446" lon="7.28541">
        <ele>1056.441399</ele>
        <time>2011-11-19T13:27:14Z</time>
      </trkpt>
      <trkpt lat="43.88437" lon="7.28541">
        <ele>1058.441387</ele>
        <time>2011-11-19T13:27:19Z</time>
      </trkpt>
      <trkpt lat="43.88435" lon="7.28542">
        <ele>1058.441391</ele>
        <time>2011-11-19T13:27:20Z</time>
      </trkpt>
      <trkpt lat="43.88425" lon="7.28541">
        <ele>1058.441376</ele>
        <time>2011-11-19T13:27:25Z</time>
      </trkpt>
      <trkpt lat="43.88424" lon="7.28541">
        <ele>1058.441368</ele>
        <time>2011-11-19T13:27:26Z</time>
      </trkpt>
      <trkpt lat="43.8842" lon="7.28541">
        <ele>1059.441368</ele>
        <time>2011-11-19T13:27:28Z</time>
      </trkpt>
      <trkpt lat="43.88411" lon="7.28541">
        <ele>1059.441353</ele>
        <time>2011-11-19T13:27:34Z</time>
      </trkpt>
      <trkpt lat="43.88401" lon="7.28538">
        <ele>1060.441334</ele>
        <time>2011-11-19T13:27:41Z</time>
      </trkpt>
      <trkpt lat="43.88389" lon="7.28531">
        <ele>1062.441299</ele>
        <time>2011-11-19T13:27:51Z</time>
      </trkpt>
      <trkpt lat="43.88386" lon="7.28529">
        <ele>1062.441292</ele>
        <time>2011-11-19T13:27:54Z</time>
      </trkpt>
      <trkpt lat="43.88375" lon="7.28523">
        <ele>1061.441265</ele>
        <time>2011-11-19T13:28:04Z</time>
      </trkpt>
      <trkpt lat="43.88373" lon="7.28521">
        <ele>1061.441261</ele>
        <time>2011-11-19T13:28:07Z</time>
      </trkpt>
      <trkpt lat="43.88364" lon="7.28516">
        <ele>1062.441238</ele>
        <time>2011-11-19T13:28:13Z</time>
      </trkpt>
      <trkpt lat="43.88352" lon="7.2851">
        <ele>1061.441208</ele>
        <time>2011-11-19T13:28:22Z</time>
      </trkpt>
      <trkpt lat="43.88343" lon="7.28505">
        <ele>1063.441185</ele>
        <time>2011-11-19T13:28:29Z</time>
      </trkpt>
      <trkpt lat="43.88329" lon="7.28501">
        <ele>1069.441154</ele>
        <time>2011-11-19T13:28:38Z</time>
      </trkpt>
      <trkpt lat="43.88322" lon="7.285">
        <ele>1070.441147</ele>
        <time>2011-11-19T13:28:42Z</time>
      </trkpt>
      <trkpt lat="43.8831" lon="7.28501">
        <ele>1068.441132</ele>
        <time>2011-11-19T13:28:49Z</time>
      </trkpt>
      <trkpt lat="43.88295" lon="7.285">
        <ele>1068.441116</ele>
        <time>2011-11-19T13:28:58Z</time>
      </trkpt>
      <trkpt lat="43.88285" lon="7.28497">
        <ele>1068.44109</ele>
        <time>2011-11-19T13:29:05Z</time>
      </trkpt>
      <trkpt lat="43.88276" lon="7.28494">
        <ele>1068.441071</ele>
        <time>2011-11-19T13:29:11Z</time>
      </trkpt>
      <trkpt lat="43.88266" lon="7.28491">
        <ele>1070.441055</ele>
        <time>2011-11-19T13:29:17Z</time>
      </trkpt>
      <trkpt lat="43.88264" lon="7.2849">
        <ele>1070.441048</ele>
        <time>2011-11-19T13:29:18Z</time>
      </trkpt>
      <trkpt lat="43.88255" lon="7.28488">
        <ele>1072.441029</ele>
        <time>2011-11-19T13:29:23Z</time>
      </trkpt>
      <trkpt lat="43.88246" lon="7.28486">
        <ele>1072.44101</ele>
        <time>2011-11-19T13:29:28Z</time>
      </trkpt>
      <trkpt lat="43.88232" lon="7.28483">
        <ele>1073.44099</ele>
        <time>2011-11-19T13:29:35Z</time>
      </trkpt>
      <trkpt lat="43.88223" lon="7.28481">
        <ele>1076.440971</ele>
        <time>2011-11-19T13:29:39Z</time>
      </trkpt>
      <trkpt lat="43.88218" lon="7.2848">
        <ele>1076.440964</ele>
        <time>2011-11-19T13:29:41Z</time>
      </trkpt>
      <trkpt lat="43.88207" lon="7.28479">
        <ele>1078.440948</ele>
        <time>2011-11-19T13:29:45Z</time>
      </trkpt>
      <trkpt lat="43.88197" lon="7.28478">
        <ele>1080.440933</ele>
        <time>2011-11-19T13:29:48Z</time>
      </trkpt>
      <trkpt lat="43.88185" lon="7.28478">
        <ele>1081.440914</ele>
        <time>2011-11-19T13:29:51Z</time>
      </trkpt>
      <trkpt lat="43.88178" lon="7.28478">
        <ele>1082.440907</ele>
        <time>2011-11-19T13:29:53Z</time>
      </trkpt>
      <trkpt lat="43.88167" lon="7.28478">
        <ele>1082.440891</ele>
        <time>2011-11-19T13:29:56Z</time>
      </trkpt>
      <trkpt lat="43.88157" lon="7.28479">
        <ele>1083.44088</ele>
        <time>2011-11-19T13:29:59Z</time>
      </trkpt>
      <trkpt lat="43.88148" lon="7.28481">
        <ele>1084.440872</ele>
        <time>2011-11-19T13:30:02Z</time>
      </trkpt>
      <trkpt lat="43.88139" lon="7.28483">
        <ele>1085.440865</ele>
        <time>2011-11-19T13:30:05Z</time>
      </trkpt>
      <trkpt lat="43.88127" lon="7.28485">
        <ele>1087.440853</ele>
        <time>2011-11-19T13:30:09Z</time>
      </trkpt>
      <trkpt lat="43.88115" lon="7.28486">
        <ele>1088.440834</ele>
        <time>2011-11-19T13:30:13Z</time>
      </trkpt>
      <trkpt lat="43.88105" lon="7.28485">
        <ele>1087.440823</ele>
        <time>2011-11-19T13:30:16Z</time>
      </trkpt>
      <trkpt lat="43.88093" lon="7.28486">
        <ele>1087.440804</ele>
        <time>2011-11-19T13:30:19Z</time>
      </trkpt>
      <trkpt lat="43.88081" lon="7.28486">
        <ele>1086.440792</ele>
        <time>2011-11-19T13:30:22Z</time>
      </trkpt>
      <trkpt lat="43.88068" lon="7.28486">
        <ele>1085.440773</ele>
        <time>2011-11-19T13:30:25Z</time>
      </trkpt>
      <trkpt lat="43.88058" lon="7.28487">
        <ele>1085.440758</ele>
        <time>2011-11-19T13:30:27Z</time>
      </trkpt>
      <trkpt lat="43.88049" lon="7.28487">
        <ele>1085.44075</ele>
        <time>2011-11-19T13:30:29Z</time>
      </trkpt>
      <trkpt lat="43.88036" lon="7.28489">
        <ele>1084.440735</ele>
        <time>2011-11-19T13:30:32Z</time>
      </trkpt>
      <trkpt lat="43.88032" lon="7.28489">
        <ele>1083.440731</ele>
        <time>2011-11-19T13:30:33Z</time>
      </trkpt>
      <trkpt lat="43.8802" lon="7.2849">
        <ele>1084.440716</ele>
        <time>2011-11-19T13:30:36Z</time>
      </trkpt>
      <trkpt lat="43.88009" lon="7.28489">
        <ele>1085.440697</ele>
        <time>2011-11-19T13:30:39Z</time>
      </trkpt>
      <trkpt lat="43.87998" lon="7.28489">
        <ele>1086.440689</ele>
        <time>2011-11-19T13:30:42Z</time>
      </trkpt>
      <trkpt lat="43.87989" lon="7.28488">
        <ele>1085.440674</ele>
        <time>2011-11-19T13:30:45Z</time>
      </trkpt>
      <trkpt lat="43.87978" lon="7.28487">
        <ele>1085.440651</ele>
        <time>2011-11-19T13:30:49Z</time>
      </trkpt>
      <trkpt lat="43.87969" lon="7.28485">
        <ele>1085.440636</ele>
        <time>2011-11-19T13:30:53Z</time>
      </trkpt>
      <trkpt lat="43.87959" lon="7.28483">
        <ele>1084.44062</ele>
        <time>2011-11-19T13:30:58Z</time>
      </trkpt>
      <trkpt lat="43.87948" lon="7.28481">
        <ele>1084.440601</ele>
        <time>2011-11-19T13:31:04Z</time>
      </trkpt>
      <trkpt lat="43.87939" lon="7.28476">
        <ele>1084.440575</ele>
        <time>2011-11-19T13:31:11Z</time>
      </trkpt>
      <trkpt lat="43.8793" lon="7.28471">
        <ele>1086.440552</ele>
        <time>2011-11-19T13:31:17Z</time>
      </trkpt>
      <trkpt lat="43.8792" lon="7.28461">
        <ele>1087.440521</ele>
        <time>2011-11-19T13:31:24Z</time>
      </trkpt>
      <trkpt lat="43.87912" lon="7.28454">
        <ele>1087.440498</ele>
        <time>2011-11-19T13:31:30Z</time>
      </trkpt>
      <trkpt lat="43.87905" lon="7.28446">
        <ele>1087.440468</ele>
        <time>2011-11-19T13:31:36Z</time>
      </trkpt>
      <trkpt lat="43.87897" lon="7.28433">
        <ele>1088.440434</ele>
        <time>2011-11-19T13:31:44Z</time>
      </trkpt>
      <trkpt lat="43.87892" lon="7.28423">
        <ele>1088.440403</ele>
        <time>2011-11-19T13:31:50Z</time>
      </trkpt>
      <trkpt lat="43.8789" lon="7.2841">
        <ele>1089.440376</ele>
        <time>2011-11-19T13:31:57Z</time>
      </trkpt>
      <trkpt lat="43.8789" lon="7.28397">
        <ele>1091.44035</ele>
        <time>2011-11-19T13:32:04Z</time>
      </trkpt>
      <trkpt lat="43.87889" lon="7.28384">
        <ele>1095.440323</ele>
        <time>2011-11-19T13:32:11Z</time>
      </trkpt>
      <trkpt lat="43.87887" lon="7.2837">
        <ele>1096.440292</ele>
        <time>2011-11-19T13:32:18Z</time>
      </trkpt>
      <trkpt lat="43.87885" lon="7.28357">
        <ele>1095.440262</ele>
        <time>2011-11-19T13:32:25Z</time>
      </trkpt>
      <trkpt lat="43.87885" lon="7.28337">
        <ele>1097.440216</ele>
        <time>2011-11-19T13:32:37Z</time>
      </trkpt>
      <trkpt lat="43.87885" lon="7.28324">
        <ele>1100.440189</ele>
        <time>2011-11-19T13:32:44Z</time>
      </trkpt>
      <trkpt lat="43.87884" lon="7.28311">
        <ele>1101.440163</ele>
        <time>2011-11-19T13:32:51Z</time>
      </trkpt>
      <trkpt lat="43.87884" lon="7.28296">
        <ele>1102.440132</ele>
        <time>2011-11-19T13:32:58Z</time>
      </trkpt>
      <trkpt lat="43.87883" lon="7.28275">
        <ele>1105.440086</ele>
        <time>2011-11-19T13:33:07Z</time>
      </trkpt>
      <trkpt lat="43.87881" lon="7.28262">
        <ele>1105.440056</ele>
        <time>2011-11-19T13:33:12Z</time>
      </trkpt>
      <trkpt lat="43.87881" lon="7.28249">
        <ele>1107.440033</ele>
        <time>2011-11-19T13:33:17Z</time>
      </trkpt>
      <trkpt lat="43.87882" lon="7.28235">
        <ele>1107.440002</ele>
        <time>2011-11-19T13:33:23Z</time>
      </trkpt>
      <trkpt lat="43.87883" lon="7.2822">
        <ele>1108.439976</ele>
        <time>2011-11-19T13:33:29Z</time>
      </trkpt>
      <trkpt lat="43.87884" lon="7.28206">
        <ele>1109.439941</ele>
        <time>2011-11-19T13:33:35Z</time>
      </trkpt>
      <trkpt lat="43.87884" lon="7.28189">
        <ele>1112.439911</ele>
        <time>2011-11-19T13:33:42Z</time>
      </trkpt>
      <trkpt lat="43.87883" lon="7.28175">
        <ele>1113.43988</ele>
        <time>2011-11-19T13:33:48Z</time>
      </trkpt>
      <trkpt lat="43.87878" lon="7.28161">
        <ele>1117.439842</ele>
        <time>2011-11-19T13:33:56Z</time>
      </trkpt>
      <trkpt lat="43.87871" lon="7.28152">
        <ele>1119.439816</ele>
        <time>2011-11-19T13:34:03Z</time>
      </trkpt>
      <trkpt lat="43.87869" lon="7.28149">
        <ele>1119.439808</ele>
        <time>2011-11-19T13:34:05Z</time>
      </trkpt>
      <trkpt lat="43.8786" lon="7.28138">
        <ele>1120.439774</ele>
        <time>2011-11-19T13:34:13Z</time>
      </trkpt>
      <trkpt lat="43.87852" lon="7.28131">
        <ele>1120.439751</ele>
        <time>2011-11-19T13:34:19Z</time>
      </trkpt>
      <trkpt lat="43.87843" lon="7.28122">
        <ele>1124.43972</ele>
        <time>2011-11-19T13:34:28Z</time>
      </trkpt>
      <trkpt lat="43.87841" lon="7.28121">
        <ele>1123.439713</ele>
        <time>2011-11-19T13:34:29Z</time>
      </trkpt>
      <trkpt lat="43.87833" lon="7.28114">
        <ele>1124.43969</ele>
        <time>2011-11-19T13:34:34Z</time>
      </trkpt>
      <trkpt lat="43.87825" lon="7.28109">
        <ele>1123.439667</ele>
        <time>2011-11-19T13:34:38Z</time>
      </trkpt>
      <trkpt lat="43.87813" lon="7.28102">
        <ele>1123.439636</ele>
        <time>2011-11-19T13:34:44Z</time>
      </trkpt>
      <trkpt lat="43.87805" lon="7.28097">
        <ele>1124.439613</ele>
        <time>2011-11-19T13:34:49Z</time>
      </trkpt>
      <trkpt lat="43.87791" lon="7.28088">
        <ele>1124.439575</ele>
        <time>2011-11-19T13:34:58Z</time>
      </trkpt>
      <trkpt lat="43.8779" lon="7.28088">
        <ele>1124.439575</ele>
        <time>2011-11-19T13:34:59Z</time>
      </trkpt>
      <trkpt lat="43.87782" lon="7.28081">
        <ele>1125.439548</ele>
        <time>2011-11-19T13:35:09Z</time>
      </trkpt>
      <trkpt lat="43.87773" lon="7.28066">
        <ele>1128.439507</ele>
        <time>2011-11-19T13:35:22Z</time>
      </trkpt>
      <trkpt lat="43.87761" lon="7.28048">
        <ele>1131.439453</ele>
        <time>2011-11-19T13:35:35Z</time>
      </trkpt>
      <trkpt lat="43.87754" lon="7.28041">
        <ele>1132.43943</ele>
        <time>2011-11-19T13:35:40Z</time>
      </trkpt>
      <trkpt lat="43.87741" lon="7.28033">
        <ele>1136.439396</ele>
        <time>2011-11-19T13:35:48Z</time>
      </trkpt>
      <trkpt lat="43.87739" lon="7.28032">
        <ele>1137.439392</ele>
        <time>2011-11-19T13:35:49Z</time>
      </trkpt>
      <trkpt lat="43.87723" lon="7.28026">
        <ele>1136.439354</ele>
        <time>2011-11-19T13:35:58Z</time>
      </trkpt>
      <trkpt lat="43.87714" lon="7.28022">
        <ele>1136.439339</ele>
        <time>2011-11-19T13:36:04Z</time>
      </trkpt>
      <trkpt lat="43.87706" lon="7.28017">
        <ele>1136.439316</ele>
        <time>2011-11-19T13:36:12Z</time>
      </trkpt>
      <trkpt lat="43.87696" lon="7.28007">
        <ele>1136.439278</ele>
        <time>2011-11-19T13:36:23Z</time>
      </trkpt>
      <trkpt lat="43.8769" lon="7.28002">
        <ele>1138.439262</ele>
        <time>2011-11-19T13:36:28Z</time>
      </trkpt>
      <trkpt lat="43.8768" lon="7.27993">
        <ele>1139.439232</ele>
        <time>2011-11-19T13:36:36Z</time>
      </trkpt>
      <trkpt lat="43.87672" lon="7.27986">
        <ele>1141.439209</ele>
        <time>2011-11-19T13:36:42Z</time>
      </trkpt>
      <trkpt lat="43.87663" lon="7.2798">
        <ele>1141.439178</ele>
        <time>2011-11-19T13:36:49Z</time>
      </trkpt>
      <trkpt lat="43.87654" lon="7.27975">
        <ele>1142.439159</ele>
        <time>2011-11-19T13:36:55Z</time>
      </trkpt>
      <trkpt lat="43.87645" lon="7.27968">
        <ele>1141.439133</ele>
        <time>2011-11-19T13:37:02Z</time>
      </trkpt>
      <trkpt lat="43.87636" lon="7.27963">
        <ele>1142.43911</ele>
        <time>2011-11-19T13:37:09Z</time>
      </trkpt>
      <trkpt lat="43.87626" lon="7.27959">
        <ele>1143.439087</ele>
        <time>2011-11-19T13:37:16Z</time>
      </trkpt>
      <trkpt lat="43.87611" lon="7.27954">
        <ele>1145.439056</ele>
        <time>2011-11-19T13:37:26Z</time>
      </trkpt>
      <trkpt lat="43.87601" lon="7.27952">
        <ele>1147.439041</ele>
        <time>2011-11-19T13:37:32Z</time>
      </trkpt>
      <trkpt lat="43.8759" lon="7.27949">
        <ele>1149.439018</ele>
        <time>2011-11-19T13:37:39Z</time>
      </trkpt>
      <trkpt lat="43.87586" lon="7.27946">
        <ele>1150.439003</ele>
        <time>2011-11-19T13:37:44Z</time>
      </trkpt>
      <trkpt lat="43.87577" lon="7.2794">
        <ele>1151.43898</ele>
        <time>2011-11-19T13:37:48Z</time>
      </trkpt>
      <trkpt lat="43.87569" lon="7.27932">
        <ele>1154.438957</ele>
        <time>2011-11-19T13:37:57Z</time>
      </trkpt>
      <trkpt lat="43.87561" lon="7.27925">
        <ele>1157.438927</ele>
        <time>2011-11-19T13:38:12Z</time>
      </trkpt>
      <trkpt lat="43.8756" lon="7.27924">
        <ele>1157.438927</ele>
        <time>2011-11-19T13:38:13Z</time>
      </trkpt>
      <trkpt lat="43.87551" lon="7.27917">
        <ele>1158.438896</ele>
        <time>2011-11-19T13:38:21Z</time>
      </trkpt>
      <trkpt lat="43.87538" lon="7.27907">
        <ele>1159.438858</ele>
        <time>2011-11-19T13:38:33Z</time>
      </trkpt>
      <trkpt lat="43.8753" lon="7.27892">
        <ele>1163.43882</ele>
        <time>2011-11-19T13:38:46Z</time>
      </trkpt>
      <trkpt lat="43.8753" lon="7.27891">
        <ele>1163.438812</ele>
        <time>2011-11-19T13:38:47Z</time>
      </trkpt>
      <trkpt lat="43.87525" lon="7.27872">
        <ele>1166.43877</ele>
        <time>2011-11-19T13:38:59Z</time>
      </trkpt>
      <trkpt lat="43.8752" lon="7.27852">
        <ele>1171.438721</ele>
        <time>2011-11-19T13:39:12Z</time>
      </trkpt>
      <trkpt lat="43.87516" lon="7.2784">
        <ele>1173.43869</ele>
        <time>2011-11-19T13:39:18Z</time>
      </trkpt>
      <trkpt lat="43.87515" lon="7.27838">
        <ele>1173.43869</ele>
        <time>2011-11-19T13:39:21Z</time>
      </trkpt>
      <trkpt lat="43.8751" lon="7.27827">
        <ele>1172.438656</ele>
        <time>2011-11-19T13:39:25Z</time>
      </trkpt>
      <trkpt lat="43.87508" lon="7.27822">
        <ele>1172.438641</ele>
        <time>2011-11-19T13:39:30Z</time>
      </trkpt>
      <trkpt lat="43.87502" lon="7.27812">
        <ele>1172.438614</ele>
        <time>2011-11-19T13:39:34Z</time>
      </trkpt>
      <trkpt lat="43.87497" lon="7.27804">
        <ele>1171.438591</ele>
        <time>2011-11-19T13:39:40Z</time>
      </trkpt>
      <trkpt lat="43.87489" lon="7.27795">
        <ele>1172.43856</ele>
        <time>2011-11-19T13:39:45Z</time>
      </trkpt>
      <trkpt lat="43.87483" lon="7.27786">
        <ele>1175.438538</ele>
        <time>2011-11-19T13:39:50Z</time>
      </trkpt>
      <trkpt lat="43.87473" lon="7.27773">
        <ele>1176.438499</ele>
        <time>2011-11-19T13:39:56Z</time>
      </trkpt>
      <trkpt lat="43.87465" lon="7.27764">
        <ele>1177.438465</ele>
        <time>2011-11-19T13:40:01Z</time>
      </trkpt>
      <trkpt lat="43.87458" lon="7.27754">
        <ele>1178.438438</ele>
        <time>2011-11-19T13:40:06Z</time>
      </trkpt>
      <trkpt lat="43.87457" lon="7.27752">
        <ele>1178.438431</ele>
        <time>2011-11-19T13:40:07Z</time>
      </trkpt>
      <trkpt lat="43.8745" lon="7.27743">
        <ele>1178.4384</ele>
        <time>2011-11-19T13:40:13Z</time>
      </trkpt>
      <trkpt lat="43.87448" lon="7.27743">
        <ele>1178.4384</ele>
        <time>2011-11-19T13:40:14Z</time>
      </trkpt>
      <trkpt lat="43.87439" lon="7.27749">
        <ele>1181.4384</ele>
        <time>2011-11-19T13:40:21Z</time>
      </trkpt>
      <trkpt lat="43.87435" lon="7.2777">
        <ele>1181.438438</ele>
        <time>2011-11-19T13:40:29Z</time>
      </trkpt>
      <trkpt lat="43.87438" lon="7.27786">
        <ele>1181.438477</ele>
        <time>2011-11-19T13:40:36Z</time>
      </trkpt>
      <trkpt lat="43.87444" lon="7.27804">
        <ele>1183.438522</ele>
        <time>2011-11-19T13:40:42Z</time>
      </trkpt>
      <trkpt lat="43.87448" lon="7.27813">
        <ele>1183.438545</ele>
        <time>2011-11-19T13:40:46Z</time>
      </trkpt>
      <trkpt lat="43.87457" lon="7.27838">
        <ele>1183.43861</ele>
        <time>2011-11-19T13:40:55Z</time>
      </trkpt>
      <trkpt lat="43.87462" lon="7.27851">
        <ele>1184.438641</ele>
        <time>2011-11-19T13:40:59Z</time>
      </trkpt>
      <trkpt lat="43.87469" lon="7.27878">
        <ele>1185.438705</ele>
        <time>2011-11-19T13:41:06Z</time>
      </trkpt>
      <trkpt lat="43.87472" lon="7.27891">
        <ele>1185.43874</ele>
        <time>2011-11-19T13:41:10Z</time>
      </trkpt>
      <trkpt lat="43.87473" lon="7.27906">
        <ele>1185.43877</ele>
        <time>2011-11-19T13:41:15Z</time>
      </trkpt>
      <trkpt lat="43.87472" lon="7.27922">
        <ele>1185.438801</ele>
        <time>2011-11-19T13:41:21Z</time>
      </trkpt>
      <trkpt lat="43.87479" lon="7.27903">
        <ele>1190.438774</ele>
        <time>2011-11-19T13:41:44Z</time>
      </trkpt>
      <trkpt lat="43.87485" lon="7.27894">
        <ele>1191.438759</ele>
        <time>2011-11-19T13:41:52Z</time>
      </trkpt>
      <trkpt lat="43.87484" lon="7.2788">
        <ele>1192.438732</ele>
        <time>2011-11-19T13:42:00Z</time>
      </trkpt>
      <trkpt lat="43.87481" lon="7.27867">
        <ele>1193.438698</ele>
        <time>2011-11-19T13:42:07Z</time>
      </trkpt>
      <trkpt lat="43.87477" lon="7.27856">
        <ele>1194.438671</ele>
        <time>2011-11-19T13:42:13Z</time>
      </trkpt>
      <trkpt lat="43.87474" lon="7.27851">
        <ele>1194.43866</ele>
        <time>2011-11-19T13:42:15Z</time>
      </trkpt>
      <trkpt lat="43.87468" lon="7.2784">
        <ele>1195.438629</ele>
        <time>2011-11-19T13:42:21Z</time>
      </trkpt>
      <trkpt lat="43.87467" lon="7.27839">
        <ele>1195.438622</ele>
        <time>2011-11-19T13:42:26Z</time>
      </trkpt>
      <trkpt lat="43.87461" lon="7.27829">
        <ele>1196.438595</ele>
        <time>2011-11-19T13:42:30Z</time>
      </trkpt>
      <trkpt lat="43.8746" lon="7.27827">
        <ele>1196.438591</ele>
        <time>2011-11-19T13:42:31Z</time>
      </trkpt>
      <trkpt lat="43.87453" lon="7.27819">
        <ele>1197.438564</ele>
        <time>2011-11-19T13:42:38Z</time>
      </trkpt>
      <trkpt lat="43.87444" lon="7.27811">
        <ele>1198.438534</ele>
        <time>2011-11-19T13:42:46Z</time>
      </trkpt>
      <trkpt lat="43.87443" lon="7.2781">
        <ele>1198.43853</ele>
        <time>2011-11-19T13:42:47Z</time>
      </trkpt>
      <trkpt lat="43.87433" lon="7.27804">
        <ele>1200.438507</ele>
        <time>2011-11-19T13:42:55Z</time>
      </trkpt>
      <trkpt lat="43.87432" lon="7.27803">
        <ele>1199.438499</ele>
        <time>2011-11-19T13:42:57Z</time>
      </trkpt>
      <trkpt lat="43.87422" lon="7.27798">
        <ele>1198.438477</ele>
        <time>2011-11-19T13:43:04Z</time>
      </trkpt>
      <trkpt lat="43.87421" lon="7.27798">
        <ele>1198.438477</ele>
        <time>2011-11-19T13:43:05Z</time>
      </trkpt>
      <trkpt lat="43.87412" lon="7.27786">
        <ele>1196.438442</ele>
        <time>2011-11-19T13:43:20Z</time>
      </trkpt>
      <trkpt lat="43.87407" lon="7.27773">
        <ele>1197.438408</ele>
        <time>2011-11-19T13:43:30Z</time>
      </trkpt>
      <trkpt lat="43.87401" lon="7.27762">
        <ele>1195.438374</ele>
        <time>2011-11-19T13:43:36Z</time>
      </trkpt>
      <trkpt lat="43.87394" lon="7.27754">
        <ele>1192.438347</ele>
        <time>2011-11-19T13:43:40Z</time>
      </trkpt>
      <trkpt lat="43.87393" lon="7.27752">
        <ele>1192.438347</ele>
        <time>2011-11-19T13:43:41Z</time>
      </trkpt>
      <trkpt lat="43.87383" lon="7.2775">
        <ele>1192.438324</ele>
        <time>2011-11-19T13:43:48Z</time>
      </trkpt>
      <trkpt lat="43.87373" lon="7.27747">
        <ele>1194.438305</ele>
        <time>2011-11-19T13:43:59Z</time>
      </trkpt>
      <trkpt lat="43.87364" lon="7.27744">
        <ele>1189.438286</ele>
        <time>2011-11-19T13:46:07Z</time>
      </trkpt>
      <trkpt lat="43.8735" lon="7.27742">
        <ele>1189.438263</ele>
        <time>2011-11-19T13:46:10Z</time>
      </trkpt>
      <trkpt lat="43.87338" lon="7.27742">
        <ele>1189.438248</ele>
        <time>2011-11-19T13:46:13Z</time>
      </trkpt>
      <trkpt lat="43.87328" lon="7.27746">
        <ele>1190.43824</ele>
        <time>2011-11-19T13:46:16Z</time>
      </trkpt>
      <trkpt lat="43.87319" lon="7.27752">
        <ele>1189.43824</ele>
        <time>2011-11-19T13:46:19Z</time>
      </trkpt>
      <trkpt lat="43.8731" lon="7.2776">
        <ele>1190.438248</ele>
        <time>2011-11-19T13:46:22Z</time>
      </trkpt>
      <trkpt lat="43.87298" lon="7.27767">
        <ele>1189.43824</ele>
        <time>2011-11-19T13:46:25Z</time>
      </trkpt>
      <trkpt lat="43.87287" lon="7.27774">
        <ele>1189.43824</ele>
        <time>2011-11-19T13:46:28Z</time>
      </trkpt>
      <trkpt lat="43.87278" lon="7.2778">
        <ele>1188.43824</ele>
        <time>2011-11-19T13:46:31Z</time>
      </trkpt>
      <trkpt lat="43.87268" lon="7.27788">
        <ele>1188.438248</ele>
        <time>2011-11-19T13:46:34Z</time>
      </trkpt>
      <trkpt lat="43.87259" lon="7.27796">
        <ele>1188.438255</ele>
        <time>2011-11-19T13:46:36Z</time>
      </trkpt>
      <trkpt lat="43.8725" lon="7.27804">
        <ele>1188.438255</ele>
        <time>2011-11-19T13:46:38Z</time>
      </trkpt>
      <trkpt lat="43.87241" lon="7.2781">
        <ele>1188.438255</ele>
        <time>2011-11-19T13:46:40Z</time>
      </trkpt>
      <trkpt lat="43.87233" lon="7.27815">
        <ele>1188.438255</ele>
        <time>2011-11-19T13:46:42Z</time>
      </trkpt>
      <trkpt lat="43.87223" lon="7.27822">
        <ele>1187.438255</ele>
        <time>2011-11-19T13:46:44Z</time>
      </trkpt>
      <trkpt lat="43.87214" lon="7.27826">
        <ele>1187.438248</ele>
        <time>2011-11-19T13:46:46Z</time>
      </trkpt>
      <trkpt lat="43.87204" lon="7.27836">
        <ele>1187.438263</ele>
        <time>2011-11-19T13:46:49Z</time>
      </trkpt>
      <trkpt lat="43.87194" lon="7.27849">
        <ele>1187.438274</ele>
        <time>2011-11-19T13:46:52Z</time>
      </trkpt>
      <trkpt lat="43.87185" lon="7.27859">
        <ele>1185.438282</ele>
        <time>2011-11-19T13:46:54Z</time>
      </trkpt>
      <trkpt lat="43.87175" lon="7.27869">
        <ele>1185.438286</ele>
        <time>2011-11-19T13:46:56Z</time>
      </trkpt>
      <trkpt lat="43.87167" lon="7.2788">
        <ele>1184.438297</ele>
        <time>2011-11-19T13:46:58Z</time>
      </trkpt>
      <trkpt lat="43.87159" lon="7.27891">
        <ele>1184.438316</ele>
        <time>2011-11-19T13:47:00Z</time>
      </trkpt>
      <trkpt lat="43.87152" lon="7.27904">
        <ele>1184.438324</ele>
        <time>2011-11-19T13:47:02Z</time>
      </trkpt>
      <trkpt lat="43.87146" lon="7.27915">
        <ele>1169.438343</ele>
        <time>2011-11-19T13:47:58Z</time>
      </trkpt>
      <trkpt lat="43.87137" lon="7.27911">
        <ele>1168.438324</ele>
        <time>2011-11-19T13:48:02Z</time>
      </trkpt>
      <trkpt lat="43.87131" lon="7.2791">
        <ele>1168.438313</ele>
        <time>2011-11-19T13:48:04Z</time>
      </trkpt>
      <trkpt lat="43.87119" lon="7.27907">
        <ele>1166.438286</ele>
        <time>2011-11-19T13:48:07Z</time>
      </trkpt>
      <trkpt lat="43.8711" lon="7.27904">
        <ele>1165.438271</ele>
        <time>2011-11-19T13:48:10Z</time>
      </trkpt>
      <trkpt lat="43.871" lon="7.27901">
        <ele>1162.438251</ele>
        <time>2011-11-19T13:48:16Z</time>
      </trkpt>
      <trkpt lat="43.87086" lon="7.27901">
        <ele>1151.438232</ele>
        <time>2011-11-19T13:48:37Z</time>
      </trkpt>
      <trkpt lat="43.87075" lon="7.27902">
        <ele>1149.438221</ele>
        <time>2011-11-19T13:48:46Z</time>
      </trkpt>
      <trkpt lat="43.87064" lon="7.27901">
        <ele>1149.438206</ele>
        <time>2011-11-19T13:48:49Z</time>
      </trkpt>
      <trkpt lat="43.87053" lon="7.279">
        <ele>1148.438187</ele>
        <time>2011-11-19T13:48:52Z</time>
      </trkpt>
      <trkpt lat="43.87045" lon="7.279">
        <ele>1147.438171</ele>
        <time>2011-11-19T13:48:54Z</time>
      </trkpt>
      <trkpt lat="43.87033" lon="7.27898">
        <ele>1146.438156</ele>
        <time>2011-11-19T13:48:57Z</time>
      </trkpt>
      <trkpt lat="43.87023" lon="7.27894">
        <ele>1145.438133</ele>
        <time>2011-11-19T13:49:00Z</time>
      </trkpt>
      <trkpt lat="43.87014" lon="7.27893">
        <ele>1143.438118</ele>
        <time>2011-11-19T13:49:04Z</time>
      </trkpt>
      <trkpt lat="43.87003" lon="7.27894">
        <ele>1141.438103</ele>
        <time>2011-11-19T13:49:09Z</time>
      </trkpt>
      <trkpt lat="43.86994" lon="7.27889">
        <ele>1141.438087</ele>
        <time>2011-11-19T13:49:12Z</time>
      </trkpt>
      <trkpt lat="43.86983" lon="7.27884">
        <ele>1139.438061</ele>
        <time>2011-11-19T13:49:16Z</time>
      </trkpt>
      <trkpt lat="43.86973" lon="7.27888">
        <ele>1137.438053</ele>
        <time>2011-11-19T13:49:20Z</time>
      </trkpt>
      <trkpt lat="43.86964" lon="7.27892">
        <ele>1135.438049</ele>
        <time>2011-11-19T13:49:24Z</time>
      </trkpt>
      <trkpt lat="43.86954" lon="7.27893">
        <ele>1133.438038</ele>
        <time>2011-11-19T13:49:28Z</time>
      </trkpt>
      <trkpt lat="43.86944" lon="7.27894">
        <ele>1132.438026</ele>
        <time>2011-11-19T13:49:31Z</time>
      </trkpt>
      <trkpt lat="43.86935" lon="7.27895">
        <ele>1132.438019</ele>
        <time>2011-11-19T13:49:34Z</time>
      </trkpt>
      <trkpt lat="43.86925" lon="7.279">
        <ele>1130.438011</ele>
        <time>2011-11-19T13:49:37Z</time>
      </trkpt>
      <trkpt lat="43.86913" lon="7.27901">
        <ele>1129.437996</ele>
        <time>2011-11-19T13:49:40Z</time>
      </trkpt>
      <trkpt lat="43.86901" lon="7.27901">
        <ele>1129.437981</ele>
        <time>2011-11-19T13:49:43Z</time>
      </trkpt>
      <trkpt lat="43.86892" lon="7.27902">
        <ele>1128.437969</ele>
        <time>2011-11-19T13:49:46Z</time>
      </trkpt>
      <trkpt lat="43.86882" lon="7.27903">
        <ele>1126.437958</ele>
        <time>2011-11-19T13:49:49Z</time>
      </trkpt>
      <trkpt lat="43.86872" lon="7.27904">
        <ele>1125.437946</ele>
        <time>2011-11-19T13:49:52Z</time>
      </trkpt>
      <trkpt lat="43.86861" lon="7.27904">
        <ele>1125.437927</ele>
        <time>2011-11-19T13:49:55Z</time>
      </trkpt>
      <trkpt lat="43.86849" lon="7.27904">
        <ele>1123.437912</ele>
        <time>2011-11-19T13:49:58Z</time>
      </trkpt>
      <trkpt lat="43.86836" lon="7.27903">
        <ele>1122.437897</ele>
        <time>2011-11-19T13:50:01Z</time>
      </trkpt>
      <trkpt lat="43.86825" lon="7.279">
        <ele>1120.437874</ele>
        <time>2011-11-19T13:50:05Z</time>
      </trkpt>
      <trkpt lat="43.86812" lon="7.27899">
        <ele>1120.437855</ele>
        <time>2011-11-19T13:50:09Z</time>
      </trkpt>
      <trkpt lat="43.86801" lon="7.279">
        <ele>1119.437843</ele>
        <time>2011-11-19T13:50:11Z</time>
      </trkpt>
      <trkpt lat="43.86792" lon="7.27903">
        <ele>1119.43784</ele>
        <time>2011-11-19T13:50:13Z</time>
      </trkpt>
      <trkpt lat="43.8678" lon="7.27905">
        <ele>1118.437828</ele>
        <time>2011-11-19T13:50:16Z</time>
      </trkpt>
      <trkpt lat="43.86769" lon="7.27907">
        <ele>1117.437813</ele>
        <time>2011-11-19T13:50:19Z</time>
      </trkpt>
      <trkpt lat="43.8676" lon="7.27908">
        <ele>1117.437801</ele>
        <time>2011-11-19T13:50:22Z</time>
      </trkpt>
      <trkpt lat="43.86753" lon="7.2791">
        <ele>1117.437798</ele>
        <time>2011-11-19T13:50:24Z</time>
      </trkpt>
      <trkpt lat="43.86743" lon="7.27913">
        <ele>1116.43779</ele>
        <time>2011-11-19T13:50:27Z</time>
      </trkpt>
      <trkpt lat="43.86734" lon="7.27913">
        <ele>1114.437778</ele>
        <time>2011-11-19T13:50:31Z</time>
      </trkpt>
      <trkpt lat="43.86725" lon="7.27914">
        <ele>1113.437767</ele>
        <time>2011-11-19T13:50:34Z</time>
      </trkpt>
      <trkpt lat="43.86715" lon="7.27915">
        <ele>1112.437756</ele>
        <time>2011-11-19T13:50:37Z</time>
      </trkpt>
      <trkpt lat="43.86704" lon="7.27916">
        <ele>1111.437744</ele>
        <time>2011-11-19T13:50:40Z</time>
      </trkpt>
      <trkpt lat="43.86693" lon="7.27917">
        <ele>1111.437733</ele>
        <time>2011-11-19T13:50:43Z</time>
      </trkpt>
      <trkpt lat="43.86682" lon="7.27916">
        <ele>1110.437714</ele>
        <time>2011-11-19T13:50:47Z</time>
      </trkpt>
      <trkpt lat="43.86671" lon="7.27914">
        <ele>1108.437691</ele>
        <time>2011-11-19T13:50:51Z</time>
      </trkpt>
      <trkpt lat="43.86661" lon="7.27916">
        <ele>1106.437687</ele>
        <time>2011-11-19T13:50:55Z</time>
      </trkpt>
      <trkpt lat="43.86648" lon="7.27922">
        <ele>1106.437683</ele>
        <time>2011-11-19T13:50:58Z</time>
      </trkpt>
      <trkpt lat="43.86643" lon="7.27924">
        <ele>1106.437675</ele>
        <time>2011-11-19T13:50:59Z</time>
      </trkpt>
      <trkpt lat="43.86633" lon="7.27928">
        <ele>1105.437672</ele>
        <time>2011-11-19T13:51:02Z</time>
      </trkpt>
      <trkpt lat="43.86631" lon="7.27929">
        <ele>1104.437675</ele>
        <time>2011-11-19T13:51:03Z</time>
      </trkpt>
      <trkpt lat="43.86619" lon="7.27935">
        <ele>1102.437668</ele>
        <time>2011-11-19T13:51:11Z</time>
      </trkpt>
      <trkpt lat="43.866" lon="7.27944">
        <ele>1100.43766</ele>
        <time>2011-11-19T13:51:31Z</time>
      </trkpt>
      <trkpt lat="43.86591" lon="7.27956">
        <ele>1095.437672</ele>
        <time>2011-11-19T13:51:49Z</time>
      </trkpt>
      <trkpt lat="43.8659" lon="7.27957">
        <ele>1095.437672</ele>
        <time>2011-11-19T13:51:50Z</time>
      </trkpt>
      <trkpt lat="43.86582" lon="7.27965">
        <ele>1093.437675</ele>
        <time>2011-11-19T13:51:54Z</time>
      </trkpt>
      <trkpt lat="43.86575" lon="7.27977">
        <ele>1092.437691</ele>
        <time>2011-11-19T13:51:57Z</time>
      </trkpt>
      <trkpt lat="43.86567" lon="7.27986">
        <ele>1091.437702</ele>
        <time>2011-11-19T13:52:00Z</time>
      </trkpt>
      <trkpt lat="43.86559" lon="7.27994">
        <ele>1090.43771</ele>
        <time>2011-11-19T13:52:03Z</time>
      </trkpt>
      <trkpt lat="43.8655" lon="7.28001">
        <ele>1089.43771</ele>
        <time>2011-11-19T13:52:06Z</time>
      </trkpt>
      <trkpt lat="43.8654" lon="7.28008">
        <ele>1089.43771</ele>
        <time>2011-11-19T13:52:09Z</time>
      </trkpt>
      <trkpt lat="43.86533" lon="7.28016">
        <ele>1089.437714</ele>
        <time>2011-11-19T13:52:11Z</time>
      </trkpt>
      <trkpt lat="43.86525" lon="7.28025">
        <ele>1088.437729</ele>
        <time>2011-11-19T13:52:13Z</time>
      </trkpt>
      <trkpt lat="43.86515" lon="7.28033">
        <ele>1088.437729</ele>
        <time>2011-11-19T13:52:16Z</time>
      </trkpt>
      <trkpt lat="43.86506" lon="7.28039">
        <ele>1087.437729</ele>
        <time>2011-11-19T13:52:19Z</time>
      </trkpt>
      <trkpt lat="43.86495" lon="7.28046">
        <ele>1086.437729</ele>
        <time>2011-11-19T13:52:22Z</time>
      </trkpt>
      <trkpt lat="43.86484" lon="7.28052">
        <ele>1086.437725</ele>
        <time>2011-11-19T13:52:26Z</time>
      </trkpt>
      <trkpt lat="43.86476" lon="7.28063">
        <ele>1086.437737</ele>
        <time>2011-11-19T13:52:30Z</time>
      </trkpt>
      <trkpt lat="43.86466" lon="7.28063">
        <ele>1085.437725</ele>
        <time>2011-11-19T13:52:34Z</time>
      </trkpt>
      <trkpt lat="43.86455" lon="7.28064">
        <ele>1083.43771</ele>
        <time>2011-11-19T13:52:38Z</time>
      </trkpt>
      <trkpt lat="43.86446" lon="7.28065">
        <ele>1082.437698</ele>
        <time>2011-11-19T13:52:43Z</time>
      </trkpt>
      <trkpt lat="43.86435" lon="7.28065">
        <ele>1076.437691</ele>
        <time>2011-11-19T13:53:09Z</time>
      </trkpt>
      <trkpt lat="43.86426" lon="7.28073">
        <ele>1075.437691</ele>
        <time>2011-11-19T13:53:15Z</time>
      </trkpt>
      <trkpt lat="43.86416" lon="7.28076">
        <ele>1074.437683</ele>
        <time>2011-11-19T13:53:20Z</time>
      </trkpt>
      <trkpt lat="43.86406" lon="7.28076">
        <ele>1070.437668</ele>
        <time>2011-11-19T13:55:19Z</time>
      </trkpt>
      <trkpt lat="43.86397" lon="7.28081">
        <ele>1069.437668</ele>
        <time>2011-11-19T13:55:27Z</time>
      </trkpt>
      <trkpt lat="43.86388" lon="7.28081">
        <ele>1069.437653</ele>
        <time>2011-11-19T13:55:31Z</time>
      </trkpt>
      <trkpt lat="43.86376" lon="7.28079">
        <ele>1069.437637</ele>
        <time>2011-11-19T13:55:35Z</time>
      </trkpt>
      <trkpt lat="43.86368" lon="7.2807">
        <ele>1068.437607</ele>
        <time>2011-11-19T13:55:38Z</time>
      </trkpt>
      <trkpt lat="43.86359" lon="7.28062">
        <ele>1068.437576</ele>
        <time>2011-11-19T13:55:41Z</time>
      </trkpt>
      <trkpt lat="43.86351" lon="7.28054">
        <ele>1068.437546</ele>
        <time>2011-11-19T13:55:45Z</time>
      </trkpt>
      <trkpt lat="43.86341" lon="7.28058">
        <ele>1060.437546</ele>
        <time>2011-11-19T13:56:14Z</time>
      </trkpt>
      <trkpt lat="43.86339" lon="7.28072">
        <ele>1059.437569</ele>
        <time>2011-11-19T13:56:18Z</time>
      </trkpt>
      <trkpt lat="43.86345" lon="7.28081">
        <ele>1053.437595</ele>
        <time>2011-11-19T13:56:31Z</time>
      </trkpt>
      <trkpt lat="43.86351" lon="7.2809">
        <ele>1052.437626</ele>
        <time>2011-11-19T13:56:38Z</time>
      </trkpt>
      <trkpt lat="43.86356" lon="7.28101">
        <ele>1050.437653</ele>
        <time>2011-11-19T13:57:03Z</time>
      </trkpt>
      <trkpt lat="43.86362" lon="7.28112">
        <ele>1049.437683</ele>
        <time>2011-11-19T13:57:16Z</time>
      </trkpt>
      <trkpt lat="43.86367" lon="7.28123">
        <ele>1049.437714</ele>
        <time>2011-11-19T13:57:22Z</time>
      </trkpt>
      <trkpt lat="43.86375" lon="7.28135">
        <ele>1049.437752</ele>
        <time>2011-11-19T13:57:26Z</time>
      </trkpt>
      <trkpt lat="43.8638" lon="7.28147">
        <ele>1047.437782</ele>
        <time>2011-11-19T13:57:29Z</time>
      </trkpt>
      <trkpt lat="43.86385" lon="7.28161">
        <ele>1045.437813</ele>
        <time>2011-11-19T13:57:33Z</time>
      </trkpt>
      <trkpt lat="43.86389" lon="7.28174">
        <ele>1043.437851</ele>
        <time>2011-11-19T13:57:40Z</time>
      </trkpt>
      <trkpt lat="43.86394" lon="7.28184">
        <ele>1041.437874</ele>
        <time>2011-11-19T13:57:44Z</time>
      </trkpt>
      <trkpt lat="43.864" lon="7.28194">
        <ele>1040.437904</ele>
        <time>2011-11-19T13:57:48Z</time>
      </trkpt>
      <trkpt lat="43.86406" lon="7.28205">
        <ele>1038.437935</ele>
        <time>2011-11-19T13:57:52Z</time>
      </trkpt>
      <trkpt lat="43.86414" lon="7.28214">
        <ele>1032.437965</ele>
        <time>2011-11-19T13:58:01Z</time>
      </trkpt>
      <trkpt lat="43.86418" lon="7.28217">
        <ele>1031.437981</ele>
        <time>2011-11-19T13:58:03Z</time>
      </trkpt>
      <trkpt lat="43.86427" lon="7.28228">
        <ele>1030.438011</ele>
        <time>2011-11-19T13:58:07Z</time>
      </trkpt>
      <trkpt lat="43.86435" lon="7.28237">
        <ele>1029.438042</ele>
        <time>2011-11-19T13:58:10Z</time>
      </trkpt>
      <trkpt lat="43.86439" lon="7.28248">
        <ele>1027.438068</ele>
        <time>2011-11-19T13:58:16Z</time>
      </trkpt>
      <trkpt lat="43.86432" lon="7.28257">
        <ele>1024.43808</ele>
        <time>2011-11-19T13:58:20Z</time>
      </trkpt>
      <trkpt lat="43.86423" lon="7.28263">
        <ele>1022.43808</ele>
        <time>2011-11-19T13:58:24Z</time>
      </trkpt>
      <trkpt lat="43.86419" lon="7.28265">
        <ele>1022.438076</ele>
        <time>2011-11-19T13:58:26Z</time>
      </trkpt>
      <trkpt lat="43.86423" lon="7.28278">
        <ele>1017.43811</ele>
        <time>2011-11-19T13:58:36Z</time>
      </trkpt>
      <trkpt lat="43.86431" lon="7.28283">
        <ele>1016.438133</ele>
        <time>2011-11-19T13:58:40Z</time>
      </trkpt>
      <trkpt lat="43.86427" lon="7.28295">
        <ele>1010.438148</ele>
        <time>2011-11-19T13:58:47Z</time>
      </trkpt>
      <trkpt lat="43.86416" lon="7.283">
        <ele>1007.438145</ele>
        <time>2011-11-19T13:58:52Z</time>
      </trkpt>
      <trkpt lat="43.86405" lon="7.28304">
        <ele>1004.438141</ele>
        <time>2011-11-19T13:58:56Z</time>
      </trkpt>
      <trkpt lat="43.86407" lon="7.28317">
        <ele>988.438171</ele>
        <time>2011-11-19T13:59:28Z</time>
      </trkpt>
      <trkpt lat="43.86403" lon="7.28329">
        <ele>982.438187</ele>
        <time>2011-11-19T13:59:41Z</time>
      </trkpt>
      <trkpt lat="43.86409" lon="7.28338">
        <ele>980.438217</ele>
        <time>2011-11-19T13:59:45Z</time>
      </trkpt>
      <trkpt lat="43.86412" lon="7.2834">
        <ele>980.438225</ele>
        <time>2011-11-19T13:59:46Z</time>
      </trkpt>
      <trkpt lat="43.8642" lon="7.28346">
        <ele>978.438248</ele>
        <time>2011-11-19T13:59:49Z</time>
      </trkpt>
      <trkpt lat="43.86428" lon="7.28351">
        <ele>976.438271</ele>
        <time>2011-11-19T13:59:52Z</time>
      </trkpt>
      <trkpt lat="43.86438" lon="7.28356">
        <ele>976.438293</ele>
        <time>2011-11-19T13:59:56Z</time>
      </trkpt>
      <trkpt lat="43.86434" lon="7.28368">
        <ele>973.438316</ele>
        <time>2011-11-19T14:00:00Z</time>
      </trkpt>
      <trkpt lat="43.86424" lon="7.28378">
        <ele>971.43832</ele>
        <time>2011-11-19T14:00:03Z</time>
      </trkpt>
      <trkpt lat="43.86413" lon="7.28384">
        <ele>970.438316</ele>
        <time>2011-11-19T14:00:06Z</time>
      </trkpt>
      <trkpt lat="43.86403" lon="7.28384">
        <ele>968.438301</ele>
        <time>2011-11-19T14:00:09Z</time>
      </trkpt>
      <trkpt lat="43.86406" lon="7.28401">
        <ele>965.438343</ele>
        <time>2011-11-19T14:00:14Z</time>
      </trkpt>
      <trkpt lat="43.86409" lon="7.28405">
        <ele>964.438354</ele>
        <time>2011-11-19T14:00:15Z</time>
      </trkpt>
      <trkpt lat="43.8642" lon="7.28411">
        <ele>962.438385</ele>
        <time>2011-11-19T14:00:18Z</time>
      </trkpt>
      <trkpt lat="43.86421" lon="7.28424">
        <ele>958.438408</ele>
        <time>2011-11-19T14:00:24Z</time>
      </trkpt>
      <trkpt lat="43.86412" lon="7.2843">
        <ele>955.438408</ele>
        <time>2011-11-19T14:00:27Z</time>
      </trkpt>
      <trkpt lat="43.86407" lon="7.28431">
        <ele>953.438408</ele>
        <time>2011-11-19T14:00:29Z</time>
      </trkpt>
      <trkpt lat="43.86413" lon="7.28443">
        <ele>947.438438</ele>
        <time>2011-11-19T14:00:36Z</time>
      </trkpt>
      <trkpt lat="43.86413" lon="7.28456">
        <ele>939.438465</ele>
        <time>2011-11-19T14:00:48Z</time>
      </trkpt>
      <trkpt lat="43.86403" lon="7.2846">
        <ele>936.438461</ele>
        <time>2011-11-19T14:00:52Z</time>
      </trkpt>
      <trkpt lat="43.86394" lon="7.28462">
        <ele>932.438454</ele>
        <time>2011-11-19T14:00:56Z</time>
      </trkpt>
      <trkpt lat="43.86384" lon="7.28461">
        <ele>929.438438</ele>
        <time>2011-11-19T14:01:00Z</time>
      </trkpt>
      <trkpt lat="43.86387" lon="7.28474">
        <ele>924.438465</ele>
        <time>2011-11-19T14:01:05Z</time>
      </trkpt>
      <trkpt lat="43.8639" lon="7.28487">
        <ele>909.438499</ele>
        <time>2011-11-19T14:01:25Z</time>
      </trkpt>
      <trkpt lat="43.86395" lon="7.285">
        <ele>888.438534</ele>
        <time>2011-11-19T14:04:49Z</time>
      </trkpt>
      <trkpt lat="43.86391" lon="7.28511">
        <ele>884.438549</ele>
        <time>2011-11-19T14:04:58Z</time>
      </trkpt>
      <trkpt lat="43.86395" lon="7.28525">
        <ele>881.438583</ele>
        <time>2011-11-19T14:05:02Z</time>
      </trkpt>
      <trkpt lat="43.86403" lon="7.28538">
        <ele>879.438622</ele>
        <time>2011-11-19T14:05:06Z</time>
      </trkpt>
      <trkpt lat="43.86415" lon="7.28546">
        <ele>878.438652</ele>
        <time>2011-11-19T14:05:09Z</time>
      </trkpt>
      <trkpt lat="43.86425" lon="7.28549">
        <ele>877.438675</ele>
        <time>2011-11-19T14:05:12Z</time>
      </trkpt>
      <trkpt lat="43.86423" lon="7.28565">
        <ele>873.438705</ele>
        <time>2011-11-19T14:05:19Z</time>
      </trkpt>
      <trkpt lat="43.86411" lon="7.28571">
        <ele>872.438698</ele>
        <time>2011-11-19T14:05:22Z</time>
      </trkpt>
      <trkpt lat="43.86406" lon="7.28583">
        <ele>870.438717</ele>
        <time>2011-11-19T14:05:26Z</time>
      </trkpt>
      <trkpt lat="43.86414" lon="7.28591">
        <ele>869.43874</ele>
        <time>2011-11-19T14:05:29Z</time>
      </trkpt>
      <trkpt lat="43.86425" lon="7.28593">
        <ele>868.438763</ele>
        <time>2011-11-19T14:05:32Z</time>
      </trkpt>
      <trkpt lat="43.86435" lon="7.28593">
        <ele>867.438774</ele>
        <time>2011-11-19T14:05:36Z</time>
      </trkpt>
      <trkpt lat="43.86429" lon="7.28607">
        <ele>865.438797</ele>
        <time>2011-11-19T14:05:42Z</time>
      </trkpt>
      <trkpt lat="43.86419" lon="7.28615">
        <ele>863.438805</ele>
        <time>2011-11-19T14:05:45Z</time>
      </trkpt>
      <trkpt lat="43.86408" lon="7.28621">
        <ele>861.438797</ele>
        <time>2011-11-19T14:05:48Z</time>
      </trkpt>
      <trkpt lat="43.86402" lon="7.28623">
        <ele>859.438793</ele>
        <time>2011-11-19T14:05:51Z</time>
      </trkpt>
      <trkpt lat="43.86402" lon="7.28637">
        <ele>854.438824</ele>
        <time>2011-11-19T14:06:00Z</time>
      </trkpt>
      <trkpt lat="43.86408" lon="7.28649">
        <ele>852.438854</ele>
        <time>2011-11-19T14:06:03Z</time>
      </trkpt>
      <trkpt lat="43.86417" lon="7.2866">
        <ele>849.438896</ele>
        <time>2011-11-19T14:06:06Z</time>
      </trkpt>
      <trkpt lat="43.86427" lon="7.28666">
        <ele>847.438919</ele>
        <time>2011-11-19T14:06:09Z</time>
      </trkpt>
      <trkpt lat="43.86431" lon="7.28677">
        <ele>841.43895</ele>
        <time>2011-11-19T14:06:15Z</time>
      </trkpt>
      <trkpt lat="43.86425" lon="7.28691">
        <ele>838.438969</ele>
        <time>2011-11-19T14:06:18Z</time>
      </trkpt>
      <trkpt lat="43.86419" lon="7.28701">
        <ele>837.43898</ele>
        <time>2011-11-19T14:06:20Z</time>
      </trkpt>
      <trkpt lat="43.86411" lon="7.2871">
        <ele>835.438988</ele>
        <time>2011-11-19T14:06:22Z</time>
      </trkpt>
      <trkpt lat="43.86401" lon="7.28718">
        <ele>833.438992</ele>
        <time>2011-11-19T14:06:25Z</time>
      </trkpt>
      <trkpt lat="43.86402" lon="7.28732">
        <ele>829.439026</ele>
        <time>2011-11-19T14:06:30Z</time>
      </trkpt>
      <trkpt lat="43.86412" lon="7.28735">
        <ele>823.439041</ele>
        <time>2011-11-19T14:06:36Z</time>
      </trkpt>
      <trkpt lat="43.86422" lon="7.28736">
        <ele>820.439056</ele>
        <time>2011-11-19T14:06:39Z</time>
      </trkpt>
      <trkpt lat="43.86424" lon="7.28747">
        <ele>817.439083</ele>
        <time>2011-11-19T14:06:43Z</time>
      </trkpt>
      <trkpt lat="43.86418" lon="7.28757">
        <ele>815.439095</ele>
        <time>2011-11-19T14:06:45Z</time>
      </trkpt>
      <trkpt lat="43.86413" lon="7.28766">
        <ele>813.439102</ele>
        <time>2011-11-19T14:06:47Z</time>
      </trkpt>
      <trkpt lat="43.86422" lon="7.28773">
        <ele>795.439133</ele>
        <time>2011-11-19T14:07:12Z</time>
      </trkpt>
      <trkpt lat="43.86417" lon="7.28786">
        <ele>789.439152</ele>
        <time>2011-11-19T14:07:19Z</time>
      </trkpt>
      <trkpt lat="43.86409" lon="7.28797">
        <ele>787.439167</ele>
        <time>2011-11-19T14:07:22Z</time>
      </trkpt>
      <trkpt lat="43.86405" lon="7.28811">
        <ele>784.43919</ele>
        <time>2011-11-19T14:07:26Z</time>
      </trkpt>
      <trkpt lat="43.86416" lon="7.28817">
        <ele>782.439217</ele>
        <time>2011-11-19T14:07:29Z</time>
      </trkpt>
      <trkpt lat="43.8641" lon="7.2883">
        <ele>777.439232</ele>
        <time>2011-11-19T14:07:34Z</time>
      </trkpt>
      <trkpt lat="43.86418" lon="7.28835">
        <ele>767.439255</ele>
        <time>2011-11-19T14:07:55Z</time>
      </trkpt>
      <trkpt lat="43.86421" lon="7.28836">
        <ele>767.439262</ele>
        <time>2011-11-19T14:07:56Z</time>
      </trkpt>
      <trkpt lat="43.86426" lon="7.28846">
        <ele>764.439285</ele>
        <time>2011-11-19T14:08:00Z</time>
      </trkpt>
      <trkpt lat="43.86424" lon="7.28861">
        <ele>762.439316</ele>
        <time>2011-11-19T14:08:03Z</time>
      </trkpt>
      <trkpt lat="43.86434" lon="7.28862">
        <ele>759.439335</ele>
        <time>2011-11-19T14:08:07Z</time>
      </trkpt>
      <trkpt lat="43.86444" lon="7.28854">
        <ele>756.439331</ele>
        <time>2011-11-19T14:08:10Z</time>
      </trkpt>
      <trkpt lat="43.86443" lon="7.2887">
        <ele>741.439362</ele>
        <time>2011-11-19T14:09:04Z</time>
      </trkpt>
      <trkpt lat="43.86438" lon="7.28883">
        <ele>741.439384</ele>
        <time>2011-11-19T14:09:08Z</time>
      </trkpt>
      <trkpt lat="43.86445" lon="7.2889">
        <ele>739.439404</ele>
        <time>2011-11-19T14:09:20Z</time>
      </trkpt>
      <trkpt lat="43.86446" lon="7.28903">
        <ele>738.439434</ele>
        <time>2011-11-19T14:09:27Z</time>
      </trkpt>
      <trkpt lat="43.86445" lon="7.28916">
        <ele>737.439461</ele>
        <time>2011-11-19T14:09:32Z</time>
      </trkpt>
      <trkpt lat="43.8645" lon="7.28928">
        <ele>735.439491</ele>
        <time>2011-11-19T14:09:43Z</time>
      </trkpt>
      <trkpt lat="43.8646" lon="7.28926">
        <ele>733.439499</ele>
        <time>2011-11-19T14:09:49Z</time>
      </trkpt>
      <trkpt lat="43.86469" lon="7.28923">
        <ele>731.43951</ele>
        <time>2011-11-19T14:09:53Z</time>
      </trkpt>
      <trkpt lat="43.86478" lon="7.28918">
        <ele>730.439507</ele>
        <time>2011-11-19T14:09:56Z</time>
      </trkpt>
      <trkpt lat="43.86488" lon="7.28913">
        <ele>728.43951</ele>
        <time>2011-11-19T14:10:00Z</time>
      </trkpt>
      <trkpt lat="43.86488" lon="7.28929">
        <ele>726.439545</ele>
        <time>2011-11-19T14:10:04Z</time>
      </trkpt>
      <trkpt lat="43.86484" lon="7.28941">
        <ele>723.439564</ele>
        <time>2011-11-19T14:10:12Z</time>
      </trkpt>
      <trkpt lat="43.86477" lon="7.28949">
        <ele>723.439568</ele>
        <time>2011-11-19T14:10:15Z</time>
      </trkpt>
      <trkpt lat="43.86469" lon="7.28958">
        <ele>721.439575</ele>
        <time>2011-11-19T14:10:19Z</time>
      </trkpt>
      <trkpt lat="43.86475" lon="7.28971">
        <ele>719.43961</ele>
        <time>2011-11-19T14:10:23Z</time>
      </trkpt>
      <trkpt lat="43.86479" lon="7.28983">
        <ele>716.439644</ele>
        <time>2011-11-19T14:10:28Z</time>
      </trkpt>
      <trkpt lat="43.86478" lon="7.28992">
        <ele>712.439659</ele>
        <time>2011-11-19T14:10:32Z</time>
      </trkpt>
      <trkpt lat="43.86488" lon="7.28993">
        <ele>708.439674</ele>
        <time>2011-11-19T14:10:38Z</time>
      </trkpt>
      <trkpt lat="43.86497" lon="7.28998">
        <ele>705.439697</ele>
        <time>2011-11-19T14:10:44Z</time>
      </trkpt>
      <trkpt lat="43.86506" lon="7.28993">
        <ele>702.439701</ele>
        <time>2011-11-19T14:10:49Z</time>
      </trkpt>
      <trkpt lat="43.86508" lon="7.28989">
        <ele>702.439697</ele>
        <time>2011-11-19T14:10:50Z</time>
      </trkpt>
      <trkpt lat="43.86512" lon="7.28975">
        <ele>702.439674</ele>
        <time>2011-11-19T14:10:53Z</time>
      </trkpt>
      <trkpt lat="43.86517" lon="7.28965">
        <ele>700.439655</ele>
        <time>2011-11-19T14:10:56Z</time>
      </trkpt>
      <trkpt lat="43.86524" lon="7.28954">
        <ele>697.439644</ele>
        <time>2011-11-19T14:11:00Z</time>
      </trkpt>
      <trkpt lat="43.86528" lon="7.28949">
        <ele>693.439636</ele>
        <time>2011-11-19T14:11:04Z</time>
      </trkpt>
      <trkpt lat="43.86532" lon="7.28961">
        <ele>685.439674</ele>
        <time>2011-11-19T14:11:23Z</time>
      </trkpt>
      <trkpt lat="43.86529" lon="7.28975">
        <ele>684.439697</ele>
        <time>2011-11-19T14:11:27Z</time>
      </trkpt>
      <trkpt lat="43.86526" lon="7.28989">
        <ele>682.43972</ele>
        <time>2011-11-19T14:11:31Z</time>
      </trkpt>
      <trkpt lat="43.86525" lon="7.29005">
        <ele>681.439751</ele>
        <time>2011-11-19T14:11:35Z</time>
      </trkpt>
      <trkpt lat="43.86521" lon="7.29021">
        <ele>680.439781</ele>
        <time>2011-11-19T14:11:39Z</time>
      </trkpt>
      <trkpt lat="43.86516" lon="7.29032">
        <ele>679.439796</ele>
        <time>2011-11-19T14:11:42Z</time>
      </trkpt>
      <trkpt lat="43.86509" lon="7.29044">
        <ele>678.439812</ele>
        <time>2011-11-19T14:11:46Z</time>
      </trkpt>
      <trkpt lat="43.86504" lon="7.29058">
        <ele>676.439831</ele>
        <time>2011-11-19T14:11:50Z</time>
      </trkpt>
      <trkpt lat="43.86502" lon="7.29071">
        <ele>673.439857</ele>
        <time>2011-11-19T14:11:54Z</time>
      </trkpt>
      <trkpt lat="43.86499" lon="7.2908">
        <ele>666.439873</ele>
        <time>2011-11-19T14:12:01Z</time>
      </trkpt>
      <trkpt lat="43.86492" lon="7.29092">
        <ele>663.439888</ele>
        <time>2011-11-19T14:12:06Z</time>
      </trkpt>
      <trkpt lat="43.86484" lon="7.29103">
        <ele>661.439899</ele>
        <time>2011-11-19T14:12:09Z</time>
      </trkpt>
      <trkpt lat="43.86478" lon="7.29112">
        <ele>661.439911</ele>
        <time>2011-11-19T14:12:12Z</time>
      </trkpt>
      <trkpt lat="43.8647" lon="7.29119">
        <ele>655.439911</ele>
        <time>2011-11-19T14:12:32Z</time>
      </trkpt>
      <trkpt lat="43.86462" lon="7.29125">
        <ele>654.439919</ele>
        <time>2011-11-19T14:12:37Z</time>
      </trkpt>
      <trkpt lat="43.86453" lon="7.29134">
        <ele>653.439919</ele>
        <time>2011-11-19T14:12:41Z</time>
      </trkpt>
      <trkpt lat="43.86458" lon="7.29121">
        <ele>647.439899</ele>
        <time>2011-11-19T14:13:11Z</time>
      </trkpt>
      <trkpt lat="43.86468" lon="7.29113">
        <ele>646.439896</ele>
        <time>2011-11-19T14:13:16Z</time>
      </trkpt>
      <trkpt lat="43.86475" lon="7.29105">
        <ele>645.439892</ele>
        <time>2011-11-19T14:13:20Z</time>
      </trkpt>
      <trkpt lat="43.86482" lon="7.29095">
        <ele>643.43988</ele>
        <time>2011-11-19T14:13:26Z</time>
      </trkpt>
      <trkpt lat="43.86489" lon="7.29086">
        <ele>641.439873</ele>
        <time>2011-11-19T14:13:38Z</time>
      </trkpt>
      <trkpt lat="43.86497" lon="7.29077">
        <ele>641.439865</ele>
        <time>2011-11-19T14:13:48Z</time>
      </trkpt>
      <trkpt lat="43.86503" lon="7.29087">
        <ele>639.439892</ele>
        <time>2011-11-19T14:14:07Z</time>
      </trkpt>
      <trkpt lat="43.86504" lon="7.291">
        <ele>639.439919</ele>
        <time>2011-11-19T14:14:12Z</time>
      </trkpt>
      <trkpt lat="43.86503" lon="7.29113">
        <ele>639.439941</ele>
        <time>2011-11-19T14:14:17Z</time>
      </trkpt>
      <trkpt lat="43.86502" lon="7.29127">
        <ele>639.439976</ele>
        <time>2011-11-19T14:14:23Z</time>
      </trkpt>
      <trkpt lat="43.86499" lon="7.2914">
        <ele>640.439995</ele>
        <time>2011-11-19T14:14:29Z</time>
      </trkpt>
      <trkpt lat="43.86494" lon="7.29153">
        <ele>641.440018</ele>
        <time>2011-11-19T14:14:33Z</time>
      </trkpt>
      <trkpt lat="43.8649" lon="7.2917">
        <ele>641.440048</ele>
        <time>2011-11-19T14:14:36Z</time>
      </trkpt>
      <trkpt lat="43.86488" lon="7.29186">
        <ele>642.440075</ele>
        <time>2011-11-19T14:14:39Z</time>
      </trkpt>
      <trkpt lat="43.86489" lon="7.29199">
        <ele>642.440102</ele>
        <time>2011-11-19T14:14:42Z</time>
      </trkpt>
      <trkpt lat="43.865" lon="7.29205">
        <ele>638.440128</ele>
        <time>2011-11-19T14:15:32Z</time>
      </trkpt>
      <trkpt lat="43.86502" lon="7.29219">
        <ele>639.440163</ele>
        <time>2011-11-19T14:15:48Z</time>
      </trkpt>
      <trkpt lat="43.86505" lon="7.29237">
        <ele>638.440201</ele>
        <time>2011-11-19T14:15:52Z</time>
      </trkpt>
      <trkpt lat="43.86506" lon="7.29252">
        <ele>638.440231</ele>
        <time>2011-11-19T14:15:54Z</time>
      </trkpt>
      <trkpt lat="43.86504" lon="7.29271">
        <ele>638.440273</ele>
        <time>2011-11-19T14:15:56Z</time>
      </trkpt>
      <trkpt lat="43.86503" lon="7.29288">
        <ele>638.440308</ele>
        <time>2011-11-19T14:15:58Z</time>
      </trkpt>
      <trkpt lat="43.86504" lon="7.29302">
        <ele>638.440338</ele>
        <time>2011-11-19T14:16:00Z</time>
      </trkpt>
      <trkpt lat="43.8651" lon="7.29318">
        <ele>637.44038</ele>
        <time>2011-11-19T14:16:03Z</time>
      </trkpt>
      <trkpt lat="43.86516" lon="7.29328">
        <ele>636.440407</ele>
        <time>2011-11-19T14:16:05Z</time>
      </trkpt>
      <trkpt lat="43.86522" lon="7.29342">
        <ele>636.440445</ele>
        <time>2011-11-19T14:16:08Z</time>
      </trkpt>
      <trkpt lat="43.86519" lon="7.29354">
        <ele>637.44046</ele>
        <time>2011-11-19T14:16:12Z</time>
      </trkpt>
      <trkpt lat="43.86511" lon="7.29365">
        <ele>636.440475</ele>
        <time>2011-11-19T14:16:18Z</time>
      </trkpt>
      <trkpt lat="43.86504" lon="7.29376">
        <ele>636.440491</ele>
        <time>2011-11-19T14:16:24Z</time>
      </trkpt>
      <trkpt lat="43.86497" lon="7.29386">
        <ele>636.440498</ele>
        <time>2011-11-19T14:16:30Z</time>
      </trkpt>
      <trkpt lat="43.8649" lon="7.294">
        <ele>637.440521</ele>
        <time>2011-11-19T14:16:38Z</time>
      </trkpt>
      <trkpt lat="43.86485" lon="7.29411">
        <ele>637.440536</ele>
        <time>2011-11-19T14:16:44Z</time>
      </trkpt>
      <trkpt lat="43.86489" lon="7.29424">
        <ele>637.440571</ele>
        <time>2011-11-19T14:16:51Z</time>
      </trkpt>
      <trkpt lat="43.8649" lon="7.29437">
        <ele>638.440598</ele>
        <time>2011-11-19T14:16:57Z</time>
      </trkpt>
      <trkpt lat="43.8649" lon="7.29437">
        <ele>638.440598</ele>
        <time>2011-11-19T14:16:59Z</time>
      </trkpt>
      <trkpt lat="43.86485" lon="7.29451">
        <ele>638.44062</ele>
        <time>2011-11-19T14:17:04Z</time>
      </trkpt>
      <trkpt lat="43.8648" lon="7.29462">
        <ele>638.440636</ele>
        <time>2011-11-19T14:17:10Z</time>
      </trkpt>
      <trkpt lat="43.86478" lon="7.29476">
        <ele>637.440659</ele>
        <time>2011-11-19T14:17:17Z</time>
      </trkpt>
      <trkpt lat="43.8648" lon="7.29489">
        <ele>637.440689</ele>
        <time>2011-11-19T14:17:23Z</time>
      </trkpt>
      <trkpt lat="43.86486" lon="7.29501">
        <ele>638.440727</ele>
        <time>2011-11-19T14:17:27Z</time>
      </trkpt>
      <trkpt lat="43.86491" lon="7.29512">
        <ele>637.44075</ele>
        <time>2011-11-19T14:17:29Z</time>
      </trkpt>
      <trkpt lat="43.86496" lon="7.29524">
        <ele>636.440781</ele>
        <time>2011-11-19T14:17:31Z</time>
      </trkpt>
      <trkpt lat="43.86502" lon="7.29539">
        <ele>635.440823</ele>
        <time>2011-11-19T14:17:34Z</time>
      </trkpt>
      <trkpt lat="43.8651" lon="7.29551">
        <ele>635.440857</ele>
        <time>2011-11-19T14:17:37Z</time>
      </trkpt>
      <trkpt lat="43.8652" lon="7.29562">
        <ele>633.440895</ele>
        <time>2011-11-19T14:17:40Z</time>
      </trkpt>
      <trkpt lat="43.86528" lon="7.29575">
        <ele>632.440933</ele>
        <time>2011-11-19T14:17:43Z</time>
      </trkpt>
      <trkpt lat="43.86531" lon="7.29592">
        <ele>631.440975</ele>
        <time>2011-11-19T14:17:46Z</time>
      </trkpt>
      <trkpt lat="43.86535" lon="7.29607">
        <ele>630.44101</ele>
        <time>2011-11-19T14:17:49Z</time>
      </trkpt>
      <trkpt lat="43.86533" lon="7.29621">
        <ele>626.441032</ele>
        <time>2011-11-19T14:17:53Z</time>
      </trkpt>
      <trkpt lat="43.86531" lon="7.29623">
        <ele>626.441036</ele>
        <time>2011-11-19T14:17:54Z</time>
      </trkpt>
      <trkpt lat="43.86523" lon="7.29635">
        <ele>624.441051</ele>
        <time>2011-11-19T14:17:58Z</time>
      </trkpt>
      <trkpt lat="43.86528" lon="7.29648">
        <ele>621.441086</ele>
        <time>2011-11-19T14:18:02Z</time>
      </trkpt>
      <trkpt lat="43.86535" lon="7.29656">
        <ele>620.441109</ele>
        <time>2011-11-19T14:18:05Z</time>
      </trkpt>
      <trkpt lat="43.86546" lon="7.29663">
        <ele>619.441139</ele>
        <time>2011-11-19T14:18:09Z</time>
      </trkpt>
      <trkpt lat="43.86552" lon="7.29673">
        <ele>616.44117</ele>
        <time>2011-11-19T14:18:14Z</time>
      </trkpt>
      <trkpt lat="43.86553" lon="7.29686">
        <ele>612.441196</ele>
        <time>2011-11-19T14:18:19Z</time>
      </trkpt>
      <trkpt lat="43.86554" lon="7.297">
        <ele>607.441227</ele>
        <time>2011-11-19T14:18:24Z</time>
      </trkpt>
      <trkpt lat="43.86556" lon="7.29715">
        <ele>604.441261</ele>
        <time>2011-11-19T14:18:28Z</time>
      </trkpt>
      <trkpt lat="43.86562" lon="7.29728">
        <ele>600.441299</ele>
        <time>2011-11-19T14:18:33Z</time>
      </trkpt>
      <trkpt lat="43.86563" lon="7.29742">
        <ele>597.44133</ele>
        <time>2011-11-19T14:18:37Z</time>
      </trkpt>
      <trkpt lat="43.86555" lon="7.29752">
        <ele>596.441338</ele>
        <time>2011-11-19T14:18:42Z</time>
      </trkpt>
      <trkpt lat="43.8655" lon="7.29763">
        <ele>595.441353</ele>
        <time>2011-11-19T14:18:46Z</time>
      </trkpt>
      <trkpt lat="43.86551" lon="7.29777">
        <ele>594.44138</ele>
        <time>2011-11-19T14:18:53Z</time>
      </trkpt>
      <trkpt lat="43.86541" lon="7.2978">
        <ele>592.441376</ele>
        <time>2011-11-19T14:19:00Z</time>
      </trkpt>
      <trkpt lat="43.86542" lon="7.29795">
        <ele>589.441406</ele>
        <time>2011-11-19T14:19:06Z</time>
      </trkpt>
      <trkpt lat="43.86544" lon="7.29808">
        <ele>587.441437</ele>
        <time>2011-11-19T14:19:09Z</time>
      </trkpt>
      <trkpt lat="43.86543" lon="7.29824">
        <ele>585.441467</ele>
        <time>2011-11-19T14:19:13Z</time>
      </trkpt>
      <trkpt lat="43.86542" lon="7.2984">
        <ele>583.441498</ele>
        <time>2011-11-19T14:19:17Z</time>
      </trkpt>
      <trkpt lat="43.86544" lon="7.29853">
        <ele>582.441528</ele>
        <time>2011-11-19T14:19:20Z</time>
      </trkpt>
      <trkpt lat="43.8655" lon="7.29865">
        <ele>579.441566</ele>
        <time>2011-11-19T14:19:24Z</time>
      </trkpt>
      <trkpt lat="43.86555" lon="7.29877">
        <ele>577.441597</ele>
        <time>2011-11-19T14:19:28Z</time>
      </trkpt>
      <trkpt lat="43.86557" lon="7.29891">
        <ele>572.441628</ele>
        <time>2011-11-19T14:19:35Z</time>
      </trkpt>
      <trkpt lat="43.86556" lon="7.29908">
        <ele>569.441658</ele>
        <time>2011-11-19T14:19:39Z</time>
      </trkpt>
      <trkpt lat="43.86555" lon="7.29924">
        <ele>567.441696</ele>
        <time>2011-11-19T14:19:42Z</time>
      </trkpt>
      <trkpt lat="43.86555" lon="7.29939">
        <ele>565.441719</ele>
        <time>2011-11-19T14:19:45Z</time>
      </trkpt>
      <trkpt lat="43.86554" lon="7.29952">
        <ele>564.44175</ele>
        <time>2011-11-19T14:19:47Z</time>
      </trkpt>
      <trkpt lat="43.86549" lon="7.29969">
        <ele>562.44178</ele>
        <time>2011-11-19T14:19:50Z</time>
      </trkpt>
      <trkpt lat="43.86543" lon="7.2998">
        <ele>560.441792</ele>
        <time>2011-11-19T14:19:53Z</time>
      </trkpt>
      <trkpt lat="43.86535" lon="7.29991">
        <ele>558.441803</ele>
        <time>2011-11-19T14:19:56Z</time>
      </trkpt>
      <trkpt lat="43.86528" lon="7.3">
        <ele>555.441811</ele>
        <time>2011-11-19T14:19:59Z</time>
      </trkpt>
      <trkpt lat="43.86524" lon="7.30012">
        <ele>552.441833</ele>
        <time>2011-11-19T14:20:02Z</time>
      </trkpt>
      <trkpt lat="43.86521" lon="7.30024">
        <ele>549.441853</ele>
        <time>2011-11-19T14:20:04Z</time>
      </trkpt>
      <trkpt lat="43.86517" lon="7.3004">
        <ele>547.441879</ele>
        <time>2011-11-19T14:20:06Z</time>
      </trkpt>
      <trkpt lat="43.86515" lon="7.30049">
        <ele>545.441895</ele>
        <time>2011-11-19T14:20:08Z</time>
      </trkpt>
      <trkpt lat="43.86516" lon="7.30064">
        <ele>542.441929</ele>
        <time>2011-11-19T14:20:12Z</time>
      </trkpt>
      <trkpt lat="43.86522" lon="7.30079">
        <ele>538.441971</ele>
        <time>2011-11-19T14:20:15Z</time>
      </trkpt>
      <trkpt lat="43.86526" lon="7.30094">
        <ele>534.442001</ele>
        <time>2011-11-19T14:20:18Z</time>
      </trkpt>
      <trkpt lat="43.86527" lon="7.3011">
        <ele>531.442039</ele>
        <time>2011-11-19T14:20:21Z</time>
      </trkpt>
      <trkpt lat="43.86531" lon="7.30124">
        <ele>510.442074</ele>
        <time>2011-11-19T14:22:09Z</time>
      </trkpt>
      <trkpt lat="43.86535" lon="7.30138">
        <ele>510.442108</ele>
        <time>2011-11-19T14:22:13Z</time>
      </trkpt>
      <trkpt lat="43.86542" lon="7.30147">
        <ele>510.442131</ele>
        <time>2011-11-19T14:22:18Z</time>
      </trkpt>
      <trkpt lat="43.86549" lon="7.30158">
        <ele>510.442169</ele>
        <time>2011-11-19T14:22:21Z</time>
      </trkpt>
      <trkpt lat="43.86558" lon="7.30168">
        <ele>509.4422</ele>
        <time>2011-11-19T14:22:25Z</time>
      </trkpt>
      <trkpt lat="43.86567" lon="7.30176">
        <ele>507.44223</ele>
        <time>2011-11-19T14:22:29Z</time>
      </trkpt>
      <trkpt lat="43.86576" lon="7.30185">
        <ele>507.442261</ele>
        <time>2011-11-19T14:22:34Z</time>
      </trkpt>
      <trkpt lat="43.86582" lon="7.30194">
        <ele>506.442284</ele>
        <time>2011-11-19T14:22:37Z</time>
      </trkpt>
      <trkpt lat="43.8659" lon="7.30201">
        <ele>504.442314</ele>
        <time>2011-11-19T14:22:41Z</time>
      </trkpt>
      <trkpt lat="43.86599" lon="7.30197">
        <ele>502.442318</ele>
        <time>2011-11-19T14:22:46Z</time>
      </trkpt>
      <trkpt lat="43.86605" lon="7.3021">
        <ele>499.442345</ele>
        <time>2011-11-19T14:22:54Z</time>
      </trkpt>
      <trkpt lat="43.86604" lon="7.30225">
        <ele>496.442383</ele>
        <time>2011-11-19T14:23:00Z</time>
      </trkpt>
      <trkpt lat="43.86603" lon="7.30228">
        <ele>496.442387</ele>
        <time>2011-11-19T14:23:01Z</time>
      </trkpt>
      <trkpt lat="43.86603" lon="7.30241">
        <ele>494.442413</ele>
        <time>2011-11-19T14:23:06Z</time>
      </trkpt>
      <trkpt lat="43.866" lon="7.30255">
        <ele>493.442436</ele>
        <time>2011-11-19T14:23:10Z</time>
      </trkpt>
      <trkpt lat="43.86597" lon="7.3027">
        <ele>493.442467</ele>
        <time>2011-11-19T14:23:13Z</time>
      </trkpt>
      <trkpt lat="43.86597" lon="7.30274">
        <ele>493.442474</ele>
        <time>2011-11-19T14:23:14Z</time>
      </trkpt>
      <trkpt lat="43.86595" lon="7.30287">
        <ele>493.442497</ele>
        <time>2011-11-19T14:23:17Z</time>
      </trkpt>
      <trkpt lat="43.8659" lon="7.30299">
        <ele>492.442513</ele>
        <time>2011-11-19T14:23:21Z</time>
      </trkpt>
      <trkpt lat="43.86585" lon="7.30311">
        <ele>491.442532</ele>
        <time>2011-11-19T14:23:25Z</time>
      </trkpt>
      <trkpt lat="43.86587" lon="7.30325">
        <ele>489.442566</ele>
        <time>2011-11-19T14:23:29Z</time>
      </trkpt>
      <trkpt lat="43.86589" lon="7.3034">
        <ele>487.442596</ele>
        <time>2011-11-19T14:23:33Z</time>
      </trkpt>
      <trkpt lat="43.86598" lon="7.30343">
        <ele>485.442616</ele>
        <time>2011-11-19T14:23:38Z</time>
      </trkpt>
      <trkpt lat="43.86609" lon="7.30339">
        <ele>482.442619</ele>
        <time>2011-11-19T14:23:43Z</time>
      </trkpt>
      <trkpt lat="43.86616" lon="7.30331">
        <ele>478.442619</ele>
        <time>2011-11-19T14:23:54Z</time>
      </trkpt>
      <trkpt lat="43.86616" lon="7.3033">
        <ele>477.442612</ele>
        <time>2011-11-19T14:23:58Z</time>
      </trkpt>
      <trkpt lat="43.86623" lon="7.30339">
        <ele>474.442642</ele>
        <time>2011-11-19T14:24:16Z</time>
      </trkpt>
      <trkpt lat="43.86625" lon="7.30355">
        <ele>473.442677</ele>
        <time>2011-11-19T14:24:19Z</time>
      </trkpt>
      <trkpt lat="43.8662" lon="7.30367">
        <ele>473.442696</ele>
        <time>2011-11-19T14:24:21Z</time>
      </trkpt>
      <trkpt lat="43.86611" lon="7.30378">
        <ele>473.442703</ele>
        <time>2011-11-19T14:24:23Z</time>
      </trkpt>
      <trkpt lat="43.86605" lon="7.30389">
        <ele>472.442719</ele>
        <time>2011-11-19T14:24:25Z</time>
      </trkpt>
      <trkpt lat="43.86618" lon="7.30391">
        <ele>471.442741</ele>
        <time>2011-11-19T14:24:29Z</time>
      </trkpt>
      <trkpt lat="43.86629" lon="7.3038">
        <ele>470.442734</ele>
        <time>2011-11-19T14:24:31Z</time>
      </trkpt>
      <trkpt lat="43.86639" lon="7.30369">
        <ele>469.442722</ele>
        <time>2011-11-19T14:24:33Z</time>
      </trkpt>
      <trkpt lat="43.86646" lon="7.3036">
        <ele>467.442719</ele>
        <time>2011-11-19T14:24:36Z</time>
      </trkpt>
      <trkpt lat="43.86652" lon="7.3037">
        <ele>467.442741</ele>
        <time>2011-11-19T14:26:33Z</time>
      </trkpt>
      <trkpt lat="43.86646" lon="7.30383">
        <ele>467.442764</ele>
        <time>2011-11-19T14:26:36Z</time>
      </trkpt>
      <trkpt lat="43.86641" lon="7.30393">
        <ele>466.442776</ele>
        <time>2011-11-19T14:26:39Z</time>
      </trkpt>
      <trkpt lat="43.86637" lon="7.30405">
        <ele>466.442799</ele>
        <time>2011-11-19T14:26:42Z</time>
      </trkpt>
      <trkpt lat="43.86634" lon="7.30423">
        <ele>465.442829</ele>
        <time>2011-11-19T14:26:45Z</time>
      </trkpt>
      <trkpt lat="43.86634" lon="7.30439">
        <ele>464.44286</ele>
        <time>2011-11-19T14:26:47Z</time>
      </trkpt>
      <trkpt lat="43.86635" lon="7.30456">
        <ele>463.442898</ele>
        <time>2011-11-19T14:26:49Z</time>
      </trkpt>
      <trkpt lat="43.86635" lon="7.3047">
        <ele>462.442924</ele>
        <time>2011-11-19T14:26:51Z</time>
      </trkpt>
      <trkpt lat="43.86628" lon="7.30481">
        <ele>460.442944</ele>
        <time>2011-11-19T14:26:54Z</time>
      </trkpt>
      <trkpt lat="43.86616" lon="7.30487">
        <ele>458.44294</ele>
        <time>2011-11-19T14:26:57Z</time>
      </trkpt>
      <trkpt lat="43.86607" lon="7.30491">
        <ele>456.44294</ele>
        <time>2011-11-19T14:27:00Z</time>
      </trkpt>
      <trkpt lat="43.86598" lon="7.30495">
        <ele>452.442932</ele>
        <time>2011-11-19T14:27:13Z</time>
      </trkpt>
      <trkpt lat="43.86588" lon="7.30494">
        <ele>452.442917</ele>
        <time>2011-11-19T14:27:22Z</time>
      </trkpt>
      <trkpt lat="43.86578" lon="7.30494">
        <ele>452.442902</ele>
        <time>2011-11-19T14:27:29Z</time>
      </trkpt>
      <trkpt lat="43.86567" lon="7.30496">
        <ele>451.44289</ele>
        <time>2011-11-19T14:27:39Z</time>
      </trkpt>
      <trkpt lat="43.8656" lon="7.30504">
        <ele>452.442894</ele>
        <time>2011-11-19T14:27:47Z</time>
      </trkpt>
      <trkpt lat="43.86553" lon="7.30514">
        <ele>452.442913</ele>
        <time>2011-11-19T14:27:55Z</time>
      </trkpt>
      <trkpt lat="43.86546" lon="7.30526">
        <ele>452.442924</ele>
        <time>2011-11-19T14:28:03Z</time>
      </trkpt>
      <trkpt lat="43.8654" lon="7.30536">
        <ele>452.442936</ele>
        <time>2011-11-19T14:28:10Z</time>
      </trkpt>
      <trkpt lat="43.86533" lon="7.30545">
        <ele>452.442947</ele>
        <time>2011-11-19T14:28:17Z</time>
      </trkpt>
      <trkpt lat="43.86526" lon="7.30555">
        <ele>452.442955</ele>
        <time>2011-11-19T14:28:24Z</time>
      </trkpt>
      <trkpt lat="43.86519" lon="7.30564">
        <ele>452.442966</ele>
        <time>2011-11-19T14:28:30Z</time>
      </trkpt>
      <trkpt lat="43.86511" lon="7.30574">
        <ele>453.442974</ele>
        <time>2011-11-19T14:28:36Z</time>
      </trkpt>
      <trkpt lat="43.86503" lon="7.30581">
        <ele>453.442982</ele>
        <time>2011-11-19T14:28:40Z</time>
      </trkpt>
      <trkpt lat="43.86496" lon="7.30589">
        <ele>453.442986</ele>
        <time>2011-11-19T14:28:44Z</time>
      </trkpt>
      <trkpt lat="43.86489" lon="7.30598">
        <ele>453.443001</ele>
        <time>2011-11-19T14:28:48Z</time>
      </trkpt>
      <trkpt lat="43.86482" lon="7.30607">
        <ele>454.443001</ele>
        <time>2011-11-19T14:28:52Z</time>
      </trkpt>
      <trkpt lat="43.86474" lon="7.30614">
        <ele>453.443008</ele>
        <time>2011-11-19T14:28:56Z</time>
      </trkpt>
      <trkpt lat="43.86467" lon="7.30621">
        <ele>454.443016</ele>
        <time>2011-11-19T14:29:00Z</time>
      </trkpt>
      <trkpt lat="43.86459" lon="7.30628">
        <ele>454.443016</ele>
        <time>2011-11-19T14:29:04Z</time>
      </trkpt>
      <trkpt lat="43.8645" lon="7.30636">
        <ele>454.443024</ele>
        <time>2011-11-19T14:29:09Z</time>
      </trkpt>
      <trkpt lat="43.86442" lon="7.30644">
        <ele>454.443027</ele>
        <time>2011-11-19T14:29:13Z</time>
      </trkpt>
      <trkpt lat="43.86438" lon="7.30659">
        <ele>454.443054</ele>
        <time>2011-11-19T14:29:18Z</time>
      </trkpt>
      <trkpt lat="43.86439" lon="7.30673">
        <ele>455.443085</ele>
        <time>2011-11-19T14:29:23Z</time>
      </trkpt>
      <trkpt lat="43.86443" lon="7.30687">
        <ele>455.443115</ele>
        <time>2011-11-19T14:29:28Z</time>
      </trkpt>
      <trkpt lat="43.86447" lon="7.30699">
        <ele>456.443153</ele>
        <time>2011-11-19T14:29:33Z</time>
      </trkpt>
      <trkpt lat="43.86452" lon="7.30712">
        <ele>456.443184</ele>
        <time>2011-11-19T14:29:38Z</time>
      </trkpt>
      <trkpt lat="43.86456" lon="7.30725">
        <ele>456.443214</ele>
        <time>2011-11-19T14:29:43Z</time>
      </trkpt>
      <trkpt lat="43.86461" lon="7.30739">
        <ele>456.443253</ele>
        <time>2011-11-19T14:29:48Z</time>
      </trkpt>
      <trkpt lat="43.86464" lon="7.30754">
        <ele>456.443283</ele>
        <time>2011-11-19T14:29:52Z</time>
      </trkpt>
      <trkpt lat="43.86465" lon="7.30769">
        <ele>456.443321</ele>
        <time>2011-11-19T14:29:55Z</time>
      </trkpt>
      <trkpt lat="43.86465" lon="7.30785">
        <ele>456.443352</ele>
        <time>2011-11-19T14:29:58Z</time>
      </trkpt>
      <trkpt lat="43.86461" lon="7.30798">
        <ele>456.443375</ele>
        <time>2011-11-19T14:30:01Z</time>
      </trkpt>
      <trkpt lat="43.86454" lon="7.30808">
        <ele>456.443382</ele>
        <time>2011-11-19T14:30:04Z</time>
      </trkpt>
      <trkpt lat="43.86445" lon="7.30817">
        <ele>456.44339</ele>
        <time>2011-11-19T14:30:08Z</time>
      </trkpt>
      <trkpt lat="43.86436" lon="7.30822">
        <ele>456.443386</ele>
        <time>2011-11-19T14:30:12Z</time>
      </trkpt>
      <trkpt lat="43.86426" lon="7.30823">
        <ele>457.443378</ele>
        <time>2011-11-19T14:30:17Z</time>
      </trkpt>
      <trkpt lat="43.86416" lon="7.30823">
        <ele>457.443363</ele>
        <time>2011-11-19T14:30:23Z</time>
      </trkpt>
      <trkpt lat="43.86406" lon="7.30825">
        <ele>458.443356</ele>
        <time>2011-11-19T14:30:30Z</time>
      </trkpt>
      <trkpt lat="43.86396" lon="7.30829">
        <ele>458.443352</ele>
        <time>2011-11-19T14:30:37Z</time>
      </trkpt>
      <trkpt lat="43.86387" lon="7.30834">
        <ele>459.443348</ele>
        <time>2011-11-19T14:30:43Z</time>
      </trkpt>
      <trkpt lat="43.86378" lon="7.30842">
        <ele>460.443352</ele>
        <time>2011-11-19T14:30:49Z</time>
      </trkpt>
      <trkpt lat="43.86369" lon="7.30849">
        <ele>461.443352</ele>
        <time>2011-11-19T14:30:55Z</time>
      </trkpt>
      <trkpt lat="43.86362" lon="7.30858">
        <ele>462.443359</ele>
        <time>2011-11-19T14:31:01Z</time>
      </trkpt>
      <trkpt lat="43.86356" lon="7.30868">
        <ele>462.443378</ele>
        <time>2011-11-19T14:31:06Z</time>
      </trkpt>
      <trkpt lat="43.86354" lon="7.30883">
        <ele>463.443405</ele>
        <time>2011-11-19T14:31:11Z</time>
      </trkpt>
      <trkpt lat="43.86355" lon="7.30896">
        <ele>463.443432</ele>
        <time>2011-11-19T14:31:15Z</time>
      </trkpt>
      <trkpt lat="43.86356" lon="7.30909">
        <ele>463.443462</ele>
        <time>2011-11-19T14:31:19Z</time>
      </trkpt>
      <trkpt lat="43.86358" lon="7.30923">
        <ele>463.443489</ele>
        <time>2011-11-19T14:31:23Z</time>
      </trkpt>
      <trkpt lat="43.86359" lon="7.30936">
        <ele>463.44352</ele>
        <time>2011-11-19T14:31:27Z</time>
      </trkpt>
      <trkpt lat="43.8636" lon="7.3095">
        <ele>464.44355</ele>
        <time>2011-11-19T14:31:32Z</time>
      </trkpt>
      <trkpt lat="43.86359" lon="7.30964">
        <ele>464.443581</ele>
        <time>2011-11-19T14:31:37Z</time>
      </trkpt>
      <trkpt lat="43.86354" lon="7.30975">
        <ele>465.443596</ele>
        <time>2011-11-19T14:31:42Z</time>
      </trkpt>
      <trkpt lat="43.86345" lon="7.30976">
        <ele>466.443584</ele>
        <time>2011-11-19T14:31:47Z</time>
      </trkpt>
      <trkpt lat="43.86335" lon="7.30971">
        <ele>467.443562</ele>
        <time>2011-11-19T14:31:52Z</time>
      </trkpt>
      <trkpt lat="43.86327" lon="7.30965">
        <ele>467.443535</ele>
        <time>2011-11-19T14:31:57Z</time>
      </trkpt>
      <trkpt lat="43.86317" lon="7.30961">
        <ele>468.443516</ele>
        <time>2011-11-19T14:32:03Z</time>
      </trkpt>
      <trkpt lat="43.86307" lon="7.3096">
        <ele>468.443497</ele>
        <time>2011-11-19T14:32:09Z</time>
      </trkpt>
      <trkpt lat="43.86297" lon="7.30961">
        <ele>469.443489</ele>
        <time>2011-11-19T14:32:14Z</time>
      </trkpt>
      <trkpt lat="43.86287" lon="7.30966">
        <ele>469.443489</ele>
        <time>2011-11-19T14:32:19Z</time>
      </trkpt>
      <trkpt lat="43.86278" lon="7.30974">
        <ele>470.443493</ele>
        <time>2011-11-19T14:32:24Z</time>
      </trkpt>
      <trkpt lat="43.86271" lon="7.30982">
        <ele>470.443497</ele>
        <time>2011-11-19T14:32:30Z</time>
      </trkpt>
      <trkpt lat="43.86264" lon="7.30991">
        <ele>472.443512</ele>
        <time>2011-11-19T14:32:37Z</time>
      </trkpt>
      <trkpt lat="43.86259" lon="7.31003">
        <ele>473.443523</ele>
        <time>2011-11-19T14:32:43Z</time>
      </trkpt>
      <trkpt lat="43.86254" lon="7.31014">
        <ele>474.443542</ele>
        <time>2011-11-19T14:32:48Z</time>
      </trkpt>
      <trkpt lat="43.8625" lon="7.31025">
        <ele>475.443558</ele>
        <time>2011-11-19T14:32:53Z</time>
      </trkpt>
      <trkpt lat="43.86245" lon="7.31036">
        <ele>476.443573</ele>
        <time>2011-11-19T14:32:58Z</time>
      </trkpt>
      <trkpt lat="43.86239" lon="7.31046">
        <ele>476.443588</ele>
        <time>2011-11-19T14:33:03Z</time>
      </trkpt>
      <trkpt lat="43.86229" lon="7.31052">
        <ele>477.443588</ele>
        <time>2011-11-19T14:33:09Z</time>
      </trkpt>
      <trkpt lat="43.8622" lon="7.31057">
        <ele>477.443581</ele>
        <time>2011-11-19T14:33:15Z</time>
      </trkpt>
      <trkpt lat="43.86211" lon="7.31061">
        <ele>478.443581</ele>
        <time>2011-11-19T14:33:21Z</time>
      </trkpt>
      <trkpt lat="43.86214" lon="7.31073">
        <ele>478.443611</ele>
        <time>2011-11-19T14:33:33Z</time>
      </trkpt>
      <trkpt lat="43.86222" lon="7.31078">
        <ele>478.443626</ele>
        <time>2011-11-19T14:33:41Z</time>
      </trkpt>
      <trkpt lat="43.86229" lon="7.31086">
        <ele>480.443657</ele>
        <time>2011-11-19T14:33:52Z</time>
      </trkpt>
      <trkpt lat="43.86232" lon="7.311">
        <ele>481.443691</ele>
        <time>2011-11-19T14:34:03Z</time>
      </trkpt>
      <trkpt lat="43.86234" lon="7.31112">
        <ele>482.443718</ele>
        <time>2011-11-19T14:34:13Z</time>
      </trkpt>
      <trkpt lat="43.8623" lon="7.31124">
        <ele>486.443733</ele>
        <time>2011-11-19T14:34:28Z</time>
      </trkpt>
      <trkpt lat="43.86221" lon="7.31129">
        <ele>488.443733</ele>
        <time>2011-11-19T14:34:40Z</time>
      </trkpt>
      <trkpt lat="43.86212" lon="7.31136">
        <ele>490.443737</ele>
        <time>2011-11-19T14:34:51Z</time>
      </trkpt>
      <trkpt lat="43.86206" lon="7.31145">
        <ele>490.443748</ele>
        <time>2011-11-19T14:35:01Z</time>
      </trkpt>
      <trkpt lat="43.86198" lon="7.31153">
        <ele>491.443756</ele>
        <time>2011-11-19T14:35:13Z</time>
      </trkpt>
      <trkpt lat="43.86191" lon="7.31161">
        <ele>493.443756</ele>
        <time>2011-11-19T14:35:28Z</time>
      </trkpt>
      <trkpt lat="43.86188" lon="7.31173">
        <ele>495.443779</ele>
        <time>2011-11-19T14:35:49Z</time>
      </trkpt>
      <trkpt lat="43.86186" lon="7.31186">
        <ele>497.443802</ele>
        <time>2011-11-19T14:36:04Z</time>
      </trkpt>
      <trkpt lat="43.86183" lon="7.31198">
        <ele>499.443825</ele>
        <time>2011-11-19T14:36:15Z</time>
      </trkpt>
      <trkpt lat="43.86177" lon="7.31209">
        <ele>501.44384</ele>
        <time>2011-11-19T14:36:25Z</time>
      </trkpt>
      <trkpt lat="43.86172" lon="7.3122">
        <ele>501.443855</ele>
        <time>2011-11-19T14:36:32Z</time>
      </trkpt>
      <trkpt lat="43.86168" lon="7.31232">
        <ele>502.443874</ele>
        <time>2011-11-19T14:36:36Z</time>
      </trkpt>
      <trkpt lat="43.86164" lon="7.31246">
        <ele>501.443901</ele>
        <time>2011-11-19T14:36:40Z</time>
      </trkpt>
      <trkpt lat="43.86165" lon="7.3126">
        <ele>502.443932</ele>
        <time>2011-11-19T14:36:44Z</time>
      </trkpt>
      <trkpt lat="43.86167" lon="7.31274">
        <ele>503.443962</ele>
        <time>2011-11-19T14:36:49Z</time>
      </trkpt>
      <trkpt lat="43.86166" lon="7.31289">
        <ele>503.443993</ele>
        <time>2011-11-19T14:36:55Z</time>
      </trkpt>
      <trkpt lat="43.86164" lon="7.31303">
        <ele>503.444016</ele>
        <time>2011-11-19T14:37:01Z</time>
      </trkpt>
      <trkpt lat="43.8616" lon="7.31317">
        <ele>503.444042</ele>
        <time>2011-11-19T14:37:07Z</time>
      </trkpt>
      <trkpt lat="43.86158" lon="7.31334">
        <ele>504.444069</ele>
        <time>2011-11-19T14:37:11Z</time>
      </trkpt>
      <trkpt lat="43.86155" lon="7.31347">
        <ele>504.444092</ele>
        <time>2011-11-19T14:37:14Z</time>
      </trkpt>
      <trkpt lat="43.86149" lon="7.31358">
        <ele>504.444111</ele>
        <time>2011-11-19T14:37:17Z</time>
      </trkpt>
      <trkpt lat="43.86142" lon="7.31367">
        <ele>505.444118</ele>
        <time>2011-11-19T14:37:21Z</time>
      </trkpt>
      <trkpt lat="43.86141" lon="7.31381">
        <ele>505.444145</ele>
        <time>2011-11-19T14:37:29Z</time>
      </trkpt>
      <trkpt lat="43.86148" lon="7.3139">
        <ele>506.444176</ele>
        <time>2011-11-19T14:37:34Z</time>
      </trkpt>
      <trkpt lat="43.86143" lon="7.31406">
        <ele>507.444202</ele>
        <time>2011-11-19T14:37:39Z</time>
      </trkpt>
      <trkpt lat="43.8614" lon="7.31419">
        <ele>506.444225</ele>
        <time>2011-11-19T14:37:43Z</time>
      </trkpt>
      <trkpt lat="43.86139" lon="7.31422">
        <ele>507.444229</ele>
        <time>2011-11-19T14:37:44Z</time>
      </trkpt>
      <trkpt lat="43.86135" lon="7.31434">
        <ele>507.444248</ele>
        <time>2011-11-19T14:37:48Z</time>
      </trkpt>
      <trkpt lat="43.86127" lon="7.31439">
        <ele>507.444252</ele>
        <time>2011-11-19T14:37:54Z</time>
      </trkpt>
      <trkpt lat="43.86126" lon="7.31439">
        <ele>508.444248</ele>
        <time>2011-11-19T14:37:55Z</time>
      </trkpt>
      <trkpt lat="43.86116" lon="7.3144">
        <ele>509.444237</ele>
        <time>2011-11-19T14:38:08Z</time>
      </trkpt>
      <trkpt lat="43.86106" lon="7.3144">
        <ele>509.444221</ele>
        <time>2011-11-19T14:38:15Z</time>
      </trkpt>
      <trkpt lat="43.86097" lon="7.31449">
        <ele>509.444229</ele>
        <time>2011-11-19T14:38:19Z</time>
      </trkpt>
      <trkpt lat="43.8609" lon="7.3146">
        <ele>509.444241</ele>
        <time>2011-11-19T14:38:23Z</time>
      </trkpt>
      <trkpt lat="43.86082" lon="7.31468">
        <ele>508.444252</ele>
        <time>2011-11-19T14:38:28Z</time>
      </trkpt>
      <trkpt lat="43.86077" lon="7.31479">
        <ele>509.44426</ele>
        <time>2011-11-19T14:38:33Z</time>
      </trkpt>
      <trkpt lat="43.8607" lon="7.3149">
        <ele>508.444283</ele>
        <time>2011-11-19T14:38:37Z</time>
      </trkpt>
      <trkpt lat="43.86061" lon="7.31491">
        <ele>509.444267</ele>
        <time>2011-11-19T14:38:44Z</time>
      </trkpt>
      <trkpt lat="43.86052" lon="7.31494">
        <ele>508.444263</ele>
        <time>2011-11-19T14:39:34Z</time>
      </trkpt>
      <trkpt lat="43.86044" lon="7.31503">
        <ele>509.444271</ele>
        <time>2011-11-19T14:39:51Z</time>
      </trkpt>
      <trkpt lat="43.86035" lon="7.31506">
        <ele>510.444267</ele>
        <time>2011-11-19T14:40:06Z</time>
      </trkpt>
      <trkpt lat="43.86027" lon="7.31512">
        <ele>514.444267</ele>
        <time>2011-11-19T14:40:22Z</time>
      </trkpt>
      <trkpt lat="43.86022" lon="7.31523">
        <ele>515.444283</ele>
        <time>2011-11-19T14:40:34Z</time>
      </trkpt>
      <trkpt lat="43.86013" lon="7.31524">
        <ele>516.444271</ele>
        <time>2011-11-19T14:40:48Z</time>
      </trkpt>
      <trkpt lat="43.86012" lon="7.31537">
        <ele>526.444298</ele>
        <time>2011-11-19T14:41:22Z</time>
      </trkpt>
      <trkpt lat="43.86017" lon="7.31549">
        <ele>527.444328</ele>
        <time>2011-11-19T14:41:36Z</time>
      </trkpt>
      <trkpt lat="43.86012" lon="7.31559">
        <ele>528.444344</ele>
        <time>2011-11-19T14:41:58Z</time>
      </trkpt>
      <trkpt lat="43.86004" lon="7.31568">
        <ele>532.444351</ele>
        <time>2011-11-19T14:42:11Z</time>
      </trkpt>
      <trkpt lat="43.86" lon="7.3158">
        <ele>534.44437</ele>
        <time>2011-11-19T14:42:27Z</time>
      </trkpt>
      <trkpt lat="43.85995" lon="7.3159">
        <ele>536.444386</ele>
        <time>2011-11-19T14:42:42Z</time>
      </trkpt>
      <trkpt lat="43.85988" lon="7.31598">
        <ele>539.444389</ele>
        <time>2011-11-19T14:42:56Z</time>
      </trkpt>
      <trkpt lat="43.85978" lon="7.316">
        <ele>540.444382</ele>
        <time>2011-11-19T14:43:08Z</time>
      </trkpt>
      <trkpt lat="43.85969" lon="7.31597">
        <ele>542.444363</ele>
        <time>2011-11-19T14:43:20Z</time>
      </trkpt>
      <trkpt lat="43.8596" lon="7.31594">
        <ele>547.444344</ele>
        <time>2011-11-19T14:43:44Z</time>
      </trkpt>
      <trkpt lat="43.85956" lon="7.31606">
        <ele>549.444363</ele>
        <time>2011-11-19T14:44:02Z</time>
      </trkpt>
      <trkpt lat="43.85952" lon="7.31618">
        <ele>549.444389</ele>
        <time>2011-11-19T14:44:14Z</time>
      </trkpt>
      <trkpt lat="43.85945" lon="7.31626">
        <ele>552.444393</ele>
        <time>2011-11-19T14:44:29Z</time>
      </trkpt>
      <trkpt lat="43.85937" lon="7.31634">
        <ele>551.444397</ele>
        <time>2011-11-19T14:44:43Z</time>
      </trkpt>
      <trkpt lat="43.85933" lon="7.31646">
        <ele>553.44442</ele>
        <time>2011-11-19T14:44:55Z</time>
      </trkpt>
      <trkpt lat="43.85928" lon="7.31657">
        <ele>556.444435</ele>
        <time>2011-11-19T14:45:15Z</time>
      </trkpt>
      <trkpt lat="43.85923" lon="7.31667">
        <ele>561.444447</ele>
        <time>2011-11-19T14:45:34Z</time>
      </trkpt>
      <trkpt lat="43.85916" lon="7.31676">
        <ele>565.444454</ele>
        <time>2011-11-19T14:46:02Z</time>
      </trkpt>
      <trkpt lat="43.85908" lon="7.31681">
        <ele>568.44445</ele>
        <time>2011-11-19T14:46:21Z</time>
      </trkpt>
      <trkpt lat="43.859" lon="7.31688">
        <ele>572.444458</ele>
        <time>2011-11-19T14:46:38Z</time>
      </trkpt>
      <trkpt lat="43.85895" lon="7.31699">
        <ele>575.444473</ele>
        <time>2011-11-19T14:46:52Z</time>
      </trkpt>
      <trkpt lat="43.85892" lon="7.31711">
        <ele>575.444496</ele>
        <time>2011-11-19T14:47:15Z</time>
      </trkpt>
      <trkpt lat="43.85887" lon="7.31722">
        <ele>577.444511</ele>
        <time>2011-11-19T14:47:50Z</time>
      </trkpt>
      <trkpt lat="43.8588" lon="7.31731">
        <ele>583.444523</ele>
        <time>2011-11-19T14:48:29Z</time>
      </trkpt>
      <trkpt lat="43.85876" lon="7.31742">
        <ele>588.444542</ele>
        <time>2011-11-19T14:48:57Z</time>
      </trkpt>
      <trkpt lat="43.85872" lon="7.31753">
        <ele>591.444557</ele>
        <time>2011-11-19T14:49:22Z</time>
      </trkpt>
      <trkpt lat="43.85864" lon="7.3176">
        <ele>592.444561</ele>
        <time>2011-11-19T14:49:40Z</time>
      </trkpt>
      <trkpt lat="43.85867" lon="7.31772">
        <ele>597.444588</ele>
        <time>2011-11-19T14:50:10Z</time>
      </trkpt>
      <trkpt lat="43.85874" lon="7.3178">
        <ele>599.444618</ele>
        <time>2011-11-19T14:50:26Z</time>
      </trkpt>
      <trkpt lat="43.85882" lon="7.31788">
        <ele>599.444641</ele>
        <time>2011-11-19T14:50:37Z</time>
      </trkpt>
      <trkpt lat="43.85889" lon="7.31798">
        <ele>600.444672</ele>
        <time>2011-11-19T14:50:48Z</time>
      </trkpt>
      <trkpt lat="43.85896" lon="7.31805">
        <ele>602.444698</ele>
        <time>2011-11-19T14:51:00Z</time>
      </trkpt>
      <trkpt lat="43.85905" lon="7.31808">
        <ele>603.444717</ele>
        <time>2011-11-19T14:51:10Z</time>
      </trkpt>
      <trkpt lat="43.85915" lon="7.31813">
        <ele>604.44474</ele>
        <time>2011-11-19T14:51:21Z</time>
      </trkpt>
      <trkpt lat="43.85924" lon="7.31814">
        <ele>605.444752</ele>
        <time>2011-11-19T14:51:31Z</time>
      </trkpt>
      <trkpt lat="43.85932" lon="7.3182">
        <ele>607.444778</ele>
        <time>2011-11-19T14:51:43Z</time>
      </trkpt>
      <trkpt lat="43.8594" lon="7.31828">
        <ele>609.444801</ele>
        <time>2011-11-19T14:52:01Z</time>
      </trkpt>
      <trkpt lat="43.85949" lon="7.31832">
        <ele>609.444824</ele>
        <time>2011-11-19T14:52:11Z</time>
      </trkpt>
      <trkpt lat="43.85957" lon="7.31839">
        <ele>610.444851</ele>
        <time>2011-11-19T14:52:21Z</time>
      </trkpt>
      <trkpt lat="43.85964" lon="7.31848">
        <ele>612.444878</ele>
        <time>2011-11-19T14:52:29Z</time>
      </trkpt>
      <trkpt lat="43.8597" lon="7.31858">
        <ele>614.444904</ele>
        <time>2011-11-19T14:52:42Z</time>
      </trkpt>
      <trkpt lat="43.85974" lon="7.31869">
        <ele>615.444931</ele>
        <time>2011-11-19T14:53:03Z</time>
      </trkpt>
      <trkpt lat="43.85977" lon="7.31881">
        <ele>618.444962</ele>
        <time>2011-11-19T14:53:16Z</time>
      </trkpt>
      <trkpt lat="43.85984" lon="7.3189">
        <ele>619.444992</ele>
        <time>2011-11-19T14:53:28Z</time>
      </trkpt>
      <trkpt lat="43.85992" lon="7.31895">
        <ele>621.445011</ele>
        <time>2011-11-19T14:53:39Z</time>
      </trkpt>
      <trkpt lat="43.86" lon="7.31903">
        <ele>623.445038</ele>
        <time>2011-11-19T14:53:53Z</time>
      </trkpt>
      <trkpt lat="43.86007" lon="7.31912">
        <ele>625.445068</ele>
        <time>2011-11-19T14:54:08Z</time>
      </trkpt>
      <trkpt lat="43.86013" lon="7.31922">
        <ele>627.445099</ele>
        <time>2011-11-19T14:54:20Z</time>
      </trkpt>
      <trkpt lat="43.86019" lon="7.31932">
        <ele>628.445126</ele>
        <time>2011-11-19T14:54:31Z</time>
      </trkpt>
      <trkpt lat="43.8602" lon="7.31945">
        <ele>630.445152</ele>
        <time>2011-11-19T14:54:46Z</time>
      </trkpt>
      <trkpt lat="43.86024" lon="7.31957">
        <ele>632.445179</ele>
        <time>2011-11-19T14:55:19Z</time>
      </trkpt>
      <trkpt lat="43.86027" lon="7.31969">
        <ele>634.445213</ele>
        <time>2011-11-19T14:55:31Z</time>
      </trkpt>
      <trkpt lat="43.86025" lon="7.31982">
        <ele>635.445236</ele>
        <time>2011-11-19T14:55:46Z</time>
      </trkpt>
      <trkpt lat="43.86023" lon="7.31995">
        <ele>636.445259</ele>
        <time>2011-11-19T14:55:59Z</time>
      </trkpt>
      <trkpt lat="43.86024" lon="7.32008">
        <ele>637.44529</ele>
        <time>2011-11-19T14:56:15Z</time>
      </trkpt>
      <trkpt lat="43.86026" lon="7.32021">
        <ele>638.44532</ele>
        <time>2011-11-19T14:56:34Z</time>
      </trkpt>
      <trkpt lat="43.8603" lon="7.32032">
        <ele>641.445347</ele>
        <time>2011-11-19T14:56:56Z</time>
      </trkpt>
      <trkpt lat="43.86029" lon="7.32045">
        <ele>644.445374</ele>
        <time>2011-11-19T14:57:17Z</time>
      </trkpt>
      <trkpt lat="43.86024" lon="7.32056">
        <ele>646.445389</ele>
        <time>2011-11-19T14:57:33Z</time>
      </trkpt>
      <trkpt lat="43.86015" lon="7.32055">
        <ele>652.445374</ele>
        <time>2011-11-19T15:01:47Z</time>
      </trkpt>
      <trkpt lat="43.86009" lon="7.32046">
        <ele>652.445347</ele>
        <time>2011-11-19T15:03:51Z</time>
      </trkpt>
      <trkpt lat="43.86018" lon="7.32048">
        <ele>652.445362</ele>
        <time>2011-11-19T15:04:28Z</time>
      </trkpt>
      <trkpt lat="43.8601" lon="7.32058">
        <ele>653.445374</ele>
        <time>2011-11-19T15:05:16Z</time>
      </trkpt>
      <trkpt lat="43.86001" lon="7.32071">
        <ele>653.445389</ele>
        <time>2011-11-19T15:05:20Z</time>
      </trkpt>
      <trkpt lat="43.85993" lon="7.32085">
        <ele>653.445408</ele>
        <time>2011-11-19T15:05:23Z</time>
      </trkpt>
      <trkpt lat="43.85986" lon="7.32093">
        <ele>652.445419</ele>
        <time>2011-11-19T15:05:25Z</time>
      </trkpt>
      <trkpt lat="43.85978" lon="7.321">
        <ele>651.445419</ele>
        <time>2011-11-19T15:05:27Z</time>
      </trkpt>
      <trkpt lat="43.85966" lon="7.32105">
        <ele>651.445412</ele>
        <time>2011-11-19T15:05:30Z</time>
      </trkpt>
      <trkpt lat="43.85958" lon="7.32109">
        <ele>651.445408</ele>
        <time>2011-11-19T15:05:33Z</time>
      </trkpt>
      <trkpt lat="43.85947" lon="7.32115">
        <ele>650.445408</ele>
        <time>2011-11-19T15:05:37Z</time>
      </trkpt>
      <trkpt lat="43.85936" lon="7.32121">
        <ele>649.445404</ele>
        <time>2011-11-19T15:05:41Z</time>
      </trkpt>
      <trkpt lat="43.85931" lon="7.32123">
        <ele>648.445404</ele>
        <time>2011-11-19T15:05:43Z</time>
      </trkpt>
      <trkpt lat="43.85922" lon="7.3213">
        <ele>647.445408</ele>
        <time>2011-11-19T15:05:50Z</time>
      </trkpt>
      <trkpt lat="43.85912" lon="7.32136">
        <ele>647.4454</ele>
        <time>2011-11-19T15:05:54Z</time>
      </trkpt>
      <trkpt lat="43.85903" lon="7.32142">
        <ele>647.445404</ele>
        <time>2011-11-19T15:05:57Z</time>
      </trkpt>
      <trkpt lat="43.85895" lon="7.32148">
        <ele>646.445412</ele>
        <time>2011-11-19T15:06:00Z</time>
      </trkpt>
      <trkpt lat="43.85891" lon="7.3216">
        <ele>643.445427</ele>
        <time>2011-11-19T15:06:12Z</time>
      </trkpt>
      <trkpt lat="43.85884" lon="7.3217">
        <ele>640.445435</ele>
        <time>2011-11-19T15:06:22Z</time>
      </trkpt>
      <trkpt lat="43.85875" lon="7.32177">
        <ele>638.445435</ele>
        <time>2011-11-19T15:06:26Z</time>
      </trkpt>
      <trkpt lat="43.85865" lon="7.32182">
        <ele>637.445435</ele>
        <time>2011-11-19T15:06:29Z</time>
      </trkpt>
      <trkpt lat="43.85854" lon="7.32186">
        <ele>636.445427</ele>
        <time>2011-11-19T15:06:32Z</time>
      </trkpt>
      <trkpt lat="43.85842" lon="7.32189">
        <ele>635.445419</ele>
        <time>2011-11-19T15:06:36Z</time>
      </trkpt>
      <trkpt lat="43.85832" lon="7.32191">
        <ele>634.445412</ele>
        <time>2011-11-19T15:06:40Z</time>
      </trkpt>
      <trkpt lat="43.85822" lon="7.32189">
        <ele>633.445393</ele>
        <time>2011-11-19T15:06:44Z</time>
      </trkpt>
      <trkpt lat="43.85812" lon="7.32186">
        <ele>631.445374</ele>
        <time>2011-11-19T15:06:47Z</time>
      </trkpt>
      <trkpt lat="43.85801" lon="7.32182">
        <ele>630.445351</ele>
        <time>2011-11-19T15:06:50Z</time>
      </trkpt>
      <trkpt lat="43.85788" lon="7.32185">
        <ele>630.445339</ele>
        <time>2011-11-19T15:06:53Z</time>
      </trkpt>
      <trkpt lat="43.85777" lon="7.32192">
        <ele>630.445343</ele>
        <time>2011-11-19T15:06:56Z</time>
      </trkpt>
      <trkpt lat="43.85765" lon="7.322">
        <ele>629.445343</ele>
        <time>2011-11-19T15:06:59Z</time>
      </trkpt>
      <trkpt lat="43.85753" lon="7.32205">
        <ele>628.445332</ele>
        <time>2011-11-19T15:07:02Z</time>
      </trkpt>
      <trkpt lat="43.8574" lon="7.32208">
        <ele>628.44532</ele>
        <time>2011-11-19T15:07:05Z</time>
      </trkpt>
      <trkpt lat="43.85731" lon="7.32198">
        <ele>627.44529</ele>
        <time>2011-11-19T15:07:08Z</time>
      </trkpt>
      <trkpt lat="43.8572" lon="7.32198">
        <ele>626.445274</ele>
        <time>2011-11-19T15:07:12Z</time>
      </trkpt>
      <trkpt lat="43.85713" lon="7.32206">
        <ele>624.445282</ele>
        <time>2011-11-19T15:07:15Z</time>
      </trkpt>
      <trkpt lat="43.85706" lon="7.32214">
        <ele>621.44529</ele>
        <time>2011-11-19T15:07:20Z</time>
      </trkpt>
      <trkpt lat="43.85698" lon="7.32223">
        <ele>613.445297</ele>
        <time>2011-11-19T15:07:42Z</time>
      </trkpt>
      <trkpt lat="43.85688" lon="7.32226">
        <ele>612.44529</ele>
        <time>2011-11-19T15:07:46Z</time>
      </trkpt>
      <trkpt lat="43.85678" lon="7.32231">
        <ele>611.44529</ele>
        <time>2011-11-19T15:07:50Z</time>
      </trkpt>
      <trkpt lat="43.85671" lon="7.32241">
        <ele>610.445297</ele>
        <time>2011-11-19T15:07:53Z</time>
      </trkpt>
      <trkpt lat="43.85663" lon="7.32253">
        <ele>609.445312</ele>
        <time>2011-11-19T15:07:56Z</time>
      </trkpt>
      <trkpt lat="43.85657" lon="7.32263">
        <ele>609.445328</ele>
        <time>2011-11-19T15:07:58Z</time>
      </trkpt>
      <trkpt lat="43.85646" lon="7.32272">
        <ele>608.445328</ele>
        <time>2011-11-19T15:08:01Z</time>
      </trkpt>
      <trkpt lat="43.85634" lon="7.32273">
        <ele>608.445312</ele>
        <time>2011-11-19T15:08:04Z</time>
      </trkpt>
      <trkpt lat="43.85626" lon="7.32267">
        <ele>608.445293</ele>
        <time>2011-11-19T15:08:06Z</time>
      </trkpt>
      <trkpt lat="43.85618" lon="7.32253">
        <ele>607.445251</ele>
        <time>2011-11-19T15:08:09Z</time>
      </trkpt>
      <trkpt lat="43.85616" lon="7.3224">
        <ele>605.445221</ele>
        <time>2011-11-19T15:08:12Z</time>
      </trkpt>
      <trkpt lat="43.85615" lon="7.32227">
        <ele>604.44519</ele>
        <time>2011-11-19T15:08:15Z</time>
      </trkpt>
      <trkpt lat="43.85606" lon="7.32225">
        <ele>601.445175</ele>
        <time>2011-11-19T15:08:21Z</time>
      </trkpt>
      <trkpt lat="43.856" lon="7.32236">
        <ele>601.44519</ele>
        <time>2011-11-19T15:08:26Z</time>
      </trkpt>
      <trkpt lat="43.85593" lon="7.32246">
        <ele>600.445206</ele>
        <time>2011-11-19T15:08:31Z</time>
      </trkpt>
      <trkpt lat="43.85585" lon="7.32257">
        <ele>599.445213</ele>
        <time>2011-11-19T15:08:36Z</time>
      </trkpt>
      <trkpt lat="43.8558" lon="7.32271">
        <ele>599.44524</ele>
        <time>2011-11-19T15:08:39Z</time>
      </trkpt>
      <trkpt lat="43.85574" lon="7.32282">
        <ele>598.445251</ele>
        <time>2011-11-19T15:08:42Z</time>
      </trkpt>
      <trkpt lat="43.85564" lon="7.32282">
        <ele>597.445236</ele>
        <time>2011-11-19T15:08:45Z</time>
      </trkpt>
      <trkpt lat="43.85554" lon="7.32284">
        <ele>596.445232</ele>
        <time>2011-11-19T15:08:50Z</time>
      </trkpt>
      <trkpt lat="43.85543" lon="7.32282">
        <ele>595.445213</ele>
        <time>2011-11-19T15:08:54Z</time>
      </trkpt>
      <trkpt lat="43.85531" lon="7.32287">
        <ele>594.445206</ele>
        <time>2011-11-19T15:08:57Z</time>
      </trkpt>
      <trkpt lat="43.85519" lon="7.32293">
        <ele>594.445198</ele>
        <time>2011-11-19T15:09:00Z</time>
      </trkpt>
      <trkpt lat="43.85509" lon="7.32298">
        <ele>593.445198</ele>
        <time>2011-11-19T15:09:03Z</time>
      </trkpt>
      <trkpt lat="43.85502" lon="7.32309">
        <ele>592.445213</ele>
        <time>2011-11-19T15:09:07Z</time>
      </trkpt>
      <trkpt lat="43.85494" lon="7.32318">
        <ele>592.445221</ele>
        <time>2011-11-19T15:09:12Z</time>
      </trkpt>
      <trkpt lat="43.85488" lon="7.32327">
        <ele>592.445229</ele>
        <time>2011-11-19T15:09:16Z</time>
      </trkpt>
      <trkpt lat="43.85482" lon="7.32344">
        <ele>592.445259</ele>
        <time>2011-11-19T15:09:19Z</time>
      </trkpt>
      <trkpt lat="43.85476" lon="7.32356">
        <ele>592.445274</ele>
        <time>2011-11-19T15:09:21Z</time>
      </trkpt>
      <trkpt lat="43.85474" lon="7.32372">
        <ele>591.445305</ele>
        <time>2011-11-19T15:09:24Z</time>
      </trkpt>
      <trkpt lat="43.85475" lon="7.32388">
        <ele>591.445339</ele>
        <time>2011-11-19T15:09:27Z</time>
      </trkpt>
      <trkpt lat="43.85473" lon="7.32405">
        <ele>590.445374</ele>
        <time>2011-11-19T15:09:30Z</time>
      </trkpt>
      <trkpt lat="43.85469" lon="7.32416">
        <ele>590.445389</ele>
        <time>2011-11-19T15:09:32Z</time>
      </trkpt>
      <trkpt lat="43.85465" lon="7.32427">
        <ele>589.445412</ele>
        <time>2011-11-19T15:09:34Z</time>
      </trkpt>
      <trkpt lat="43.8546" lon="7.32439">
        <ele>589.445427</ele>
        <time>2011-11-19T15:09:36Z</time>
      </trkpt>
      <trkpt lat="43.85458" lon="7.32445">
        <ele>589.445435</ele>
        <time>2011-11-19T15:09:37Z</time>
      </trkpt>
      <trkpt lat="43.85452" lon="7.32456">
        <ele>589.44545</ele>
        <time>2011-11-19T15:09:39Z</time>
      </trkpt>
      <trkpt lat="43.8544" lon="7.32478">
        <ele>588.44548</ele>
        <time>2011-11-19T15:09:43Z</time>
      </trkpt>
      <trkpt lat="43.85433" lon="7.32488">
        <ele>588.445492</ele>
        <time>2011-11-19T15:09:45Z</time>
      </trkpt>
      <trkpt lat="43.85417" lon="7.32503">
        <ele>587.445499</ele>
        <time>2011-11-19T15:09:49Z</time>
      </trkpt>
      <trkpt lat="43.85404" lon="7.32514">
        <ele>582.445507</ele>
        <time>2011-11-19T15:10:14Z</time>
      </trkpt>
      <trkpt lat="43.85397" lon="7.32523">
        <ele>580.445518</ele>
        <time>2011-11-19T15:10:24Z</time>
      </trkpt>
      <trkpt lat="43.85394" lon="7.32525">
        <ele>579.445518</ele>
        <time>2011-11-19T15:10:25Z</time>
      </trkpt>
      <trkpt lat="43.85386" lon="7.32535">
        <ele>579.445526</ele>
        <time>2011-11-19T15:10:28Z</time>
      </trkpt>
      <trkpt lat="43.85378" lon="7.3255">
        <ele>577.445549</ele>
        <time>2011-11-19T15:10:31Z</time>
      </trkpt>
      <trkpt lat="43.85373" lon="7.32561">
        <ele>575.445564</ele>
        <time>2011-11-19T15:10:33Z</time>
      </trkpt>
      <trkpt lat="43.85369" lon="7.32572">
        <ele>574.44558</ele>
        <time>2011-11-19T15:10:35Z</time>
      </trkpt>
      <trkpt lat="43.85364" lon="7.32584">
        <ele>574.445599</ele>
        <time>2011-11-19T15:10:37Z</time>
      </trkpt>
      <trkpt lat="43.85362" lon="7.32598">
        <ele>573.445625</ele>
        <time>2011-11-19T15:10:39Z</time>
      </trkpt>
      <trkpt lat="43.85361" lon="7.32613">
        <ele>571.445656</ele>
        <time>2011-11-19T15:10:41Z</time>
      </trkpt>
      <trkpt lat="43.85361" lon="7.32629">
        <ele>570.44569</ele>
        <time>2011-11-19T15:10:44Z</time>
      </trkpt>
      <trkpt lat="43.85361" lon="7.32643">
        <ele>569.445717</ele>
        <time>2011-11-19T15:10:48Z</time>
      </trkpt>
      <trkpt lat="43.85363" lon="7.32655">
        <ele>568.445747</ele>
        <time>2011-11-19T15:10:54Z</time>
      </trkpt>
      <trkpt lat="43.85365" lon="7.32669">
        <ele>566.445778</ele>
        <time>2011-11-19T15:11:01Z</time>
      </trkpt>
      <trkpt lat="43.85368" lon="7.32683">
        <ele>565.445812</ele>
        <time>2011-11-19T15:11:07Z</time>
      </trkpt>
      <trkpt lat="43.85365" lon="7.32696">
        <ele>564.445831</ele>
        <time>2011-11-19T15:11:15Z</time>
      </trkpt>
      <trkpt lat="43.85357" lon="7.32689">
        <ele>552.445808</ele>
        <time>2011-11-19T15:12:26Z</time>
      </trkpt>
      <trkpt lat="43.85351" lon="7.32675">
        <ele>552.44577</ele>
        <time>2011-11-19T15:12:30Z</time>
      </trkpt>
      <trkpt lat="43.85344" lon="7.32664">
        <ele>552.445736</ele>
        <time>2011-11-19T15:12:33Z</time>
      </trkpt>
      <trkpt lat="43.85334" lon="7.32656">
        <ele>552.445709</ele>
        <time>2011-11-19T15:12:36Z</time>
      </trkpt>
      <trkpt lat="43.85324" lon="7.32649">
        <ele>552.445679</ele>
        <time>2011-11-19T15:12:39Z</time>
      </trkpt>
      <trkpt lat="43.85314" lon="7.3264">
        <ele>552.445648</ele>
        <time>2011-11-19T15:12:42Z</time>
      </trkpt>
      <trkpt lat="43.85304" lon="7.3263">
        <ele>552.445618</ele>
        <time>2011-11-19T15:12:45Z</time>
      </trkpt>
      <trkpt lat="43.85297" lon="7.32621">
        <ele>552.445587</ele>
        <time>2011-11-19T15:12:47Z</time>
      </trkpt>
      <trkpt lat="43.85289" lon="7.32614">
        <ele>552.44556</ele>
        <time>2011-11-19T15:12:49Z</time>
      </trkpt>
      <trkpt lat="43.8528" lon="7.32608">
        <ele>552.445534</ele>
        <time>2011-11-19T15:12:51Z</time>
      </trkpt>
      <trkpt lat="43.8527" lon="7.32602">
        <ele>552.445511</ele>
        <time>2011-11-19T15:12:53Z</time>
      </trkpt>
      <trkpt lat="43.85263" lon="7.32593">
        <ele>552.44548</ele>
        <time>2011-11-19T15:12:55Z</time>
      </trkpt>
      <trkpt lat="43.85257" lon="7.32583">
        <ele>552.44545</ele>
        <time>2011-11-19T15:12:57Z</time>
      </trkpt>
      <trkpt lat="43.85246" lon="7.32556">
        <ele>552.445381</ele>
        <time>2011-11-19T15:13:01Z</time>
      </trkpt>
      <trkpt lat="43.85244" lon="7.32541">
        <ele>552.445347</ele>
        <time>2011-11-19T15:13:03Z</time>
      </trkpt>
      <trkpt lat="43.85244" lon="7.32507">
        <ele>551.445274</ele>
        <time>2011-11-19T15:13:07Z</time>
      </trkpt>
      <trkpt lat="43.85231" lon="7.32481">
        <ele>550.445206</ele>
        <time>2011-11-19T15:13:11Z</time>
      </trkpt>
      <trkpt lat="43.85223" lon="7.3247">
        <ele>550.445171</ele>
        <time>2011-11-19T15:13:13Z</time>
      </trkpt>
      <trkpt lat="43.85201" lon="7.32452">
        <ele>549.445107</ele>
        <time>2011-11-19T15:13:17Z</time>
      </trkpt>
      <trkpt lat="43.85192" lon="7.32444">
        <ele>549.44508</ele>
        <time>2011-11-19T15:13:19Z</time>
      </trkpt>
      <trkpt lat="43.85179" lon="7.32458">
        <ele>547.445091</ele>
        <time>2011-11-19T15:13:28Z</time>
      </trkpt>
      <trkpt lat="43.85184" lon="7.32471">
        <ele>547.445126</ele>
        <time>2011-11-19T15:13:36Z</time>
      </trkpt>
      <trkpt lat="43.85186" lon="7.32485">
        <ele>546.445152</ele>
        <time>2011-11-19T15:13:43Z</time>
      </trkpt>
      <trkpt lat="43.85185" lon="7.32497">
        <ele>545.445183</ele>
        <time>2011-11-19T15:13:49Z</time>
      </trkpt>
      <trkpt lat="43.85183" lon="7.3251">
        <ele>545.445206</ele>
        <time>2011-11-19T15:13:55Z</time>
      </trkpt>
      <trkpt lat="43.85181" lon="7.32523">
        <ele>545.445229</ele>
        <time>2011-11-19T15:14:01Z</time>
      </trkpt>
      <trkpt lat="43.85177" lon="7.32535">
        <ele>544.445244</ele>
        <time>2011-11-19T15:14:07Z</time>
      </trkpt>
      <trkpt lat="43.85172" lon="7.32547">
        <ele>543.445267</ele>
        <time>2011-11-19T15:14:14Z</time>
      </trkpt>
      <trkpt lat="43.85167" lon="7.32559">
        <ele>542.445282</ele>
        <time>2011-11-19T15:14:20Z</time>
      </trkpt>
      <trkpt lat="43.85165" lon="7.32574">
        <ele>542.445312</ele>
        <time>2011-11-19T15:14:26Z</time>
      </trkpt>
      <trkpt lat="43.85163" lon="7.32586">
        <ele>542.445335</ele>
        <time>2011-11-19T15:14:31Z</time>
      </trkpt>
      <trkpt lat="43.85162" lon="7.32599">
        <ele>541.445358</ele>
        <time>2011-11-19T15:14:36Z</time>
      </trkpt>
      <trkpt lat="43.85162" lon="7.32612">
        <ele>541.445389</ele>
        <time>2011-11-19T15:14:41Z</time>
      </trkpt>
      <trkpt lat="43.85164" lon="7.32628">
        <ele>536.445423</ele>
        <time>2011-11-19T15:15:04Z</time>
      </trkpt>
      <trkpt lat="43.85167" lon="7.32641">
        <ele>535.445454</ele>
        <time>2011-11-19T15:15:06Z</time>
      </trkpt>
      <trkpt lat="43.85172" lon="7.32655">
        <ele>534.445488</ele>
        <time>2011-11-19T15:15:08Z</time>
      </trkpt>
      <trkpt lat="43.85176" lon="7.3267">
        <ele>534.445526</ele>
        <time>2011-11-19T15:15:10Z</time>
      </trkpt>
      <trkpt lat="43.85181" lon="7.32687">
        <ele>533.445564</ele>
        <time>2011-11-19T15:15:12Z</time>
      </trkpt>
      <trkpt lat="43.85185" lon="7.32704">
        <ele>533.44561</ele>
        <time>2011-11-19T15:15:14Z</time>
      </trkpt>
      <trkpt lat="43.85186" lon="7.32723">
        <ele>532.445648</ele>
        <time>2011-11-19T15:15:16Z</time>
      </trkpt>
      <trkpt lat="43.85185" lon="7.32744">
        <ele>532.44569</ele>
        <time>2011-11-19T15:15:18Z</time>
      </trkpt>
      <trkpt lat="43.85181" lon="7.32788">
        <ele>529.445774</ele>
        <time>2011-11-19T15:15:22Z</time>
      </trkpt>
      <trkpt lat="43.85178" lon="7.32808">
        <ele>528.445812</ele>
        <time>2011-11-19T15:15:24Z</time>
      </trkpt>
      <trkpt lat="43.85167" lon="7.32845">
        <ele>527.445877</ele>
        <time>2011-11-19T15:15:28Z</time>
      </trkpt>
      <trkpt lat="43.85157" lon="7.32861">
        <ele>527.4459</ele>
        <time>2011-11-19T15:15:30Z</time>
      </trkpt>
      <trkpt lat="43.85136" lon="7.32889">
        <ele>525.445927</ele>
        <time>2011-11-19T15:15:34Z</time>
      </trkpt>
      <trkpt lat="43.85117" lon="7.32902">
        <ele>524.445923</ele>
        <time>2011-11-19T15:15:37Z</time>
      </trkpt>
      <trkpt lat="43.85092" lon="7.32907">
        <ele>523.445904</ele>
        <time>2011-11-19T15:15:41Z</time>
      </trkpt>
      <trkpt lat="43.85074" lon="7.32897">
        <ele>522.445862</ele>
        <time>2011-11-19T15:15:47Z</time>
      </trkpt>
      <trkpt lat="43.85066" lon="7.32888">
        <ele>516.445831</ele>
        <time>2011-11-19T15:16:22Z</time>
      </trkpt>
      <trkpt lat="43.85056" lon="7.32877">
        <ele>516.445793</ele>
        <time>2011-11-19T15:16:25Z</time>
      </trkpt>
      <trkpt lat="43.85046" lon="7.3287">
        <ele>516.445766</ele>
        <time>2011-11-19T15:16:27Z</time>
      </trkpt>
      <trkpt lat="43.85034" lon="7.32869">
        <ele>516.445747</ele>
        <time>2011-11-19T15:16:29Z</time>
      </trkpt>
      <trkpt lat="43.85024" lon="7.32874">
        <ele>515.445747</ele>
        <time>2011-11-19T15:16:31Z</time>
      </trkpt>
      <trkpt lat="43.85018" lon="7.32883">
        <ele>515.445755</ele>
        <time>2011-11-19T15:16:33Z</time>
      </trkpt>
      <trkpt lat="43.85013" lon="7.32894">
        <ele>515.445774</ele>
        <time>2011-11-19T15:16:35Z</time>
      </trkpt>
      <trkpt lat="43.85009" lon="7.32906">
        <ele>514.445793</ele>
        <time>2011-11-19T15:16:37Z</time>
      </trkpt>
      <trkpt lat="43.85005" lon="7.32918">
        <ele>514.445812</ele>
        <time>2011-11-19T15:16:39Z</time>
      </trkpt>
      <trkpt lat="43.84994" lon="7.32941">
        <ele>515.445843</ele>
        <time>2011-11-19T15:16:43Z</time>
      </trkpt>
      <trkpt lat="43.84977" lon="7.32963">
        <ele>514.445869</ele>
        <time>2011-11-19T15:16:47Z</time>
      </trkpt>
      <trkpt lat="43.84964" lon="7.32975">
        <ele>513.445877</ele>
        <time>2011-11-19T15:16:49Z</time>
      </trkpt>
      <trkpt lat="43.84941" lon="7.32993">
        <ele>513.445877</ele>
        <time>2011-11-19T15:16:52Z</time>
      </trkpt>
      <trkpt lat="43.84912" lon="7.33014">
        <ele>512.445885</ele>
        <time>2011-11-19T15:16:56Z</time>
      </trkpt>
      <trkpt lat="43.84895" lon="7.33029">
        <ele>509.445896</ele>
        <time>2011-11-19T15:17:04Z</time>
      </trkpt>
      <trkpt lat="43.84888" lon="7.33039">
        <ele>506.445904</ele>
        <time>2011-11-19T15:17:12Z</time>
      </trkpt>
      <trkpt lat="43.84882" lon="7.33049">
        <ele>503.445923</ele>
        <time>2011-11-19T15:17:19Z</time>
      </trkpt>
      <trkpt lat="43.84875" lon="7.33057">
        <ele>496.445927</ele>
        <time>2011-11-19T15:17:40Z</time>
      </trkpt>
      <trkpt lat="43.84867" lon="7.33069">
        <ele>496.445938</ele>
        <time>2011-11-19T15:17:42Z</time>
      </trkpt>
      <trkpt lat="43.84859" lon="7.33081">
        <ele>496.445957</ele>
        <time>2011-11-19T15:17:44Z</time>
      </trkpt>
      <trkpt lat="43.8485" lon="7.33088">
        <ele>496.445953</ele>
        <time>2011-11-19T15:17:46Z</time>
      </trkpt>
      <trkpt lat="43.84837" lon="7.33088">
        <ele>495.445938</ele>
        <time>2011-11-19T15:17:49Z</time>
      </trkpt>
      <trkpt lat="43.84828" lon="7.33082">
        <ele>494.445915</ele>
        <time>2011-11-19T15:17:51Z</time>
      </trkpt>
      <trkpt lat="43.8482" lon="7.33075">
        <ele>494.445889</ele>
        <time>2011-11-19T15:17:53Z</time>
      </trkpt>
      <trkpt lat="43.84812" lon="7.33066">
        <ele>493.445862</ele>
        <time>2011-11-19T15:17:55Z</time>
      </trkpt>
      <trkpt lat="43.84803" lon="7.33058">
        <ele>493.445831</ele>
        <time>2011-11-19T15:17:57Z</time>
      </trkpt>
      <trkpt lat="43.84786" lon="7.33037">
        <ele>492.445766</ele>
        <time>2011-11-19T15:18:01Z</time>
      </trkpt>
      <trkpt lat="43.84774" lon="7.33009">
        <ele>491.445694</ele>
        <time>2011-11-19T15:18:05Z</time>
      </trkpt>
      <trkpt lat="43.84769" lon="7.32993">
        <ele>490.445648</ele>
        <time>2011-11-19T15:18:07Z</time>
      </trkpt>
      <trkpt lat="43.84756" lon="7.32968">
        <ele>488.445583</ele>
        <time>2011-11-19T15:18:11Z</time>
      </trkpt>
      <trkpt lat="43.84745" lon="7.32968">
        <ele>488.445564</ele>
        <time>2011-11-19T15:18:14Z</time>
      </trkpt>
      <trkpt lat="43.84737" lon="7.32976">
        <ele>486.445572</ele>
        <time>2011-11-19T15:18:18Z</time>
      </trkpt>
      <trkpt lat="43.84729" lon="7.32981">
        <ele>482.445572</ele>
        <time>2011-11-19T15:18:28Z</time>
      </trkpt>
      <trkpt lat="43.8472" lon="7.3298">
        <ele>479.445557</ele>
        <time>2011-11-19T15:18:37Z</time>
      </trkpt>
      <trkpt lat="43.84722" lon="7.32994">
        <ele>477.445595</ele>
        <time>2011-11-19T15:18:47Z</time>
      </trkpt>
      <trkpt lat="43.84727" lon="7.33007">
        <ele>476.445625</ele>
        <time>2011-11-19T15:18:52Z</time>
      </trkpt>
      <trkpt lat="43.84732" lon="7.3302">
        <ele>474.445656</ele>
        <time>2011-11-19T15:18:57Z</time>
      </trkpt>
      <trkpt lat="43.84734" lon="7.33032">
        <ele>473.445686</ele>
        <time>2011-11-19T15:19:01Z</time>
      </trkpt>
      <trkpt lat="43.84737" lon="7.33048">
        <ele>473.445724</ele>
        <time>2011-11-19T15:19:05Z</time>
      </trkpt>
      <trkpt lat="43.84739" lon="7.33061">
        <ele>472.445755</ele>
        <time>2011-11-19T15:19:08Z</time>
      </trkpt>
      <trkpt lat="43.84739" lon="7.33076">
        <ele>472.445786</ele>
        <time>2011-11-19T15:19:11Z</time>
      </trkpt>
      <trkpt lat="43.8474" lon="7.33092">
        <ele>471.445816</ele>
        <time>2011-11-19T15:19:14Z</time>
      </trkpt>
      <trkpt lat="43.84743" lon="7.33107">
        <ele>471.445854</ele>
        <time>2011-11-19T15:19:17Z</time>
      </trkpt>
      <trkpt lat="43.84742" lon="7.33121">
        <ele>470.445881</ele>
        <time>2011-11-19T15:19:20Z</time>
      </trkpt>
      <trkpt lat="43.84741" lon="7.33134">
        <ele>470.445908</ele>
        <time>2011-11-19T15:19:23Z</time>
      </trkpt>
      <trkpt lat="43.84743" lon="7.3315">
        <ele>469.445946</ele>
        <time>2011-11-19T15:19:26Z</time>
      </trkpt>
      <trkpt lat="43.84747" lon="7.33164">
        <ele>469.445976</ele>
        <time>2011-11-19T15:19:29Z</time>
      </trkpt>
      <trkpt lat="43.84751" lon="7.33175">
        <ele>469.446007</ele>
        <time>2011-11-19T15:19:32Z</time>
      </trkpt>
      <trkpt lat="43.84756" lon="7.33189">
        <ele>468.446041</ele>
        <time>2011-11-19T15:19:35Z</time>
      </trkpt>
      <trkpt lat="43.84757" lon="7.33202">
        <ele>468.446068</ele>
        <time>2011-11-19T15:19:37Z</time>
      </trkpt>
      <trkpt lat="43.84755" lon="7.33214">
        <ele>468.446091</ele>
        <time>2011-11-19T15:19:39Z</time>
      </trkpt>
      <trkpt lat="43.84753" lon="7.33227">
        <ele>466.446114</ele>
        <time>2011-11-19T15:19:42Z</time>
      </trkpt>
      <trkpt lat="43.84759" lon="7.33238">
        <ele>466.446144</ele>
        <time>2011-11-19T15:19:46Z</time>
      </trkpt>
      <trkpt lat="43.84762" lon="7.33252">
        <ele>465.446178</ele>
        <time>2011-11-19T15:19:49Z</time>
      </trkpt>
      <trkpt lat="43.84766" lon="7.33268">
        <ele>465.446217</ele>
        <time>2011-11-19T15:19:52Z</time>
      </trkpt>
      <trkpt lat="43.84766" lon="7.33284">
        <ele>464.446251</ele>
        <time>2011-11-19T15:19:55Z</time>
      </trkpt>
      <trkpt lat="43.84769" lon="7.33297">
        <ele>463.446281</ele>
        <time>2011-11-19T15:19:58Z</time>
      </trkpt>
      <trkpt lat="43.8477" lon="7.33301">
        <ele>463.446289</ele>
        <time>2011-11-19T15:19:59Z</time>
      </trkpt>
      <trkpt lat="43.84769" lon="7.33315">
        <ele>462.44632</ele>
        <time>2011-11-19T15:20:02Z</time>
      </trkpt>
      <trkpt lat="43.84768" lon="7.33328">
        <ele>461.446342</ele>
        <time>2011-11-19T15:20:05Z</time>
      </trkpt>
      <trkpt lat="43.84769" lon="7.33356">
        <ele>460.446404</ele>
        <time>2011-11-19T15:20:11Z</time>
      </trkpt>
      <trkpt lat="43.84769" lon="7.3337">
        <ele>458.446434</ele>
        <time>2011-11-19T15:20:14Z</time>
      </trkpt>
      <trkpt lat="43.84767" lon="7.33383">
        <ele>456.446457</ele>
        <time>2011-11-19T15:20:17Z</time>
      </trkpt>
      <trkpt lat="43.84761" lon="7.33393">
        <ele>455.446472</ele>
        <time>2011-11-19T15:20:20Z</time>
      </trkpt>
      <trkpt lat="43.84753" lon="7.33399">
        <ele>454.446472</ele>
        <time>2011-11-19T15:20:23Z</time>
      </trkpt>
      <trkpt lat="43.84744" lon="7.33399">
        <ele>453.446457</ele>
        <time>2011-11-19T15:20:31Z</time>
      </trkpt>
      <trkpt lat="43.84737" lon="7.33407">
        <ele>452.446465</ele>
        <time>2011-11-19T15:20:41Z</time>
      </trkpt>
      <trkpt lat="43.84745" lon="7.33418">
        <ele>452.446503</ele>
        <time>2011-11-19T15:20:46Z</time>
      </trkpt>
      <trkpt lat="43.84751" lon="7.3343">
        <ele>451.446533</ele>
        <time>2011-11-19T15:20:49Z</time>
      </trkpt>
      <trkpt lat="43.84751" lon="7.33443">
        <ele>450.44656</ele>
        <time>2011-11-19T15:20:52Z</time>
      </trkpt>
      <trkpt lat="43.84745" lon="7.33455">
        <ele>450.446583</ele>
        <time>2011-11-19T15:20:55Z</time>
      </trkpt>
      <trkpt lat="43.84739" lon="7.33469">
        <ele>449.446602</ele>
        <time>2011-11-19T15:20:58Z</time>
      </trkpt>
      <trkpt lat="43.84731" lon="7.33481">
        <ele>449.446613</ele>
        <time>2011-11-19T15:21:01Z</time>
      </trkpt>
      <trkpt lat="43.84728" lon="7.33496">
        <ele>448.44664</ele>
        <time>2011-11-19T15:21:04Z</time>
      </trkpt>
      <trkpt lat="43.8473" lon="7.3351">
        <ele>448.446674</ele>
        <time>2011-11-19T15:21:07Z</time>
      </trkpt>
      <trkpt lat="43.84729" lon="7.33524">
        <ele>447.446701</ele>
        <time>2011-11-19T15:21:11Z</time>
      </trkpt>
      <trkpt lat="43.84725" lon="7.33536">
        <ele>446.446724</ele>
        <time>2011-11-19T15:21:15Z</time>
      </trkpt>
      <trkpt lat="43.84726" lon="7.3355">
        <ele>445.446754</ele>
        <time>2011-11-19T15:21:21Z</time>
      </trkpt>
      <trkpt lat="43.84734" lon="7.33561">
        <ele>445.446785</ele>
        <time>2011-11-19T15:21:24Z</time>
      </trkpt>
      <trkpt lat="43.84742" lon="7.33572">
        <ele>445.446819</ele>
        <time>2011-11-19T15:21:27Z</time>
      </trkpt>
      <trkpt lat="43.84746" lon="7.33586">
        <ele>445.44685</ele>
        <time>2011-11-19T15:21:30Z</time>
      </trkpt>
      <trkpt lat="43.84746" lon="7.33602">
        <ele>444.446884</ele>
        <time>2011-11-19T15:21:33Z</time>
      </trkpt>
      <trkpt lat="43.84744" lon="7.3362">
        <ele>443.446922</ele>
        <time>2011-11-19T15:21:36Z</time>
      </trkpt>
      <trkpt lat="43.84742" lon="7.33632">
        <ele>443.446941</ele>
        <time>2011-11-19T15:21:38Z</time>
      </trkpt>
      <trkpt lat="43.84737" lon="7.33648">
        <ele>442.446968</ele>
        <time>2011-11-19T15:21:41Z</time>
      </trkpt>
      <trkpt lat="43.84733" lon="7.33666">
        <ele>441.446999</ele>
        <time>2011-11-19T15:21:44Z</time>
      </trkpt>
      <trkpt lat="43.8473" lon="7.33678">
        <ele>440.447025</ele>
        <time>2011-11-19T15:21:47Z</time>
      </trkpt>
      <trkpt lat="43.84724" lon="7.33689">
        <ele>440.447041</ele>
        <time>2011-11-19T15:21:51Z</time>
      </trkpt>
      <trkpt lat="43.84717" lon="7.33701">
        <ele>438.447052</ele>
        <time>2011-11-19T15:21:56Z</time>
      </trkpt>
      <trkpt lat="43.84724" lon="7.33711">
        <ele>437.447083</ele>
        <time>2011-11-19T15:22:01Z</time>
      </trkpt>
      <trkpt lat="43.84731" lon="7.33725">
        <ele>437.447121</ele>
        <time>2011-11-19T15:22:05Z</time>
      </trkpt>
      <trkpt lat="43.84734" lon="7.33741">
        <ele>437.447155</ele>
        <time>2011-11-19T15:22:08Z</time>
      </trkpt>
      <trkpt lat="43.84728" lon="7.33753">
        <ele>436.447174</ele>
        <time>2011-11-19T15:22:11Z</time>
      </trkpt>
      <trkpt lat="43.84735" lon="7.33765">
        <ele>435.447208</ele>
        <time>2011-11-19T15:22:15Z</time>
      </trkpt>
      <trkpt lat="43.84734" lon="7.33779">
        <ele>435.447239</ele>
        <time>2011-11-19T15:22:19Z</time>
      </trkpt>
      <trkpt lat="43.84726" lon="7.33788">
        <ele>434.447243</ele>
        <time>2011-11-19T15:22:23Z</time>
      </trkpt>
      <trkpt lat="43.84729" lon="7.33801">
        <ele>434.447273</ele>
        <time>2011-11-19T15:22:30Z</time>
      </trkpt>
      <trkpt lat="43.84722" lon="7.33813">
        <ele>433.447292</ele>
        <time>2011-11-19T15:22:35Z</time>
      </trkpt>
      <trkpt lat="43.84718" lon="7.33825">
        <ele>432.447311</ele>
        <time>2011-11-19T15:22:38Z</time>
      </trkpt>
      <trkpt lat="43.84716" lon="7.33833">
        <ele>432.447327</ele>
        <time>2011-11-19T15:22:40Z</time>
      </trkpt>
      <trkpt lat="43.84712" lon="7.33846">
        <ele>431.44735</ele>
        <time>2011-11-19T15:22:43Z</time>
      </trkpt>
      <trkpt lat="43.84704" lon="7.33856">
        <ele>429.447357</ele>
        <time>2011-11-19T15:22:47Z</time>
      </trkpt>
      <trkpt lat="43.84695" lon="7.33857">
        <ele>429.447342</ele>
        <time>2011-11-19T15:22:51Z</time>
      </trkpt>
      <trkpt lat="43.84692" lon="7.33869">
        <ele>428.447372</ele>
        <time>2011-11-19T15:22:55Z</time>
      </trkpt>
      <trkpt lat="43.84687" lon="7.33881">
        <ele>427.447388</ele>
        <time>2011-11-19T15:22:59Z</time>
      </trkpt>
      <trkpt lat="43.84682" lon="7.33895">
        <ele>426.447411</ele>
        <time>2011-11-19T15:23:03Z</time>
      </trkpt>
      <trkpt lat="43.84677" lon="7.33911">
        <ele>426.447433</ele>
        <time>2011-11-19T15:23:06Z</time>
      </trkpt>
      <trkpt lat="43.84676" lon="7.33924">
        <ele>426.447456</ele>
        <time>2011-11-19T15:23:08Z</time>
      </trkpt>
      <trkpt lat="43.84672" lon="7.33941">
        <ele>425.447487</ele>
        <time>2011-11-19T15:23:11Z</time>
      </trkpt>
      <trkpt lat="43.84662" lon="7.33942">
        <ele>425.447479</ele>
        <time>2011-11-19T15:23:15Z</time>
      </trkpt>
      <trkpt lat="43.8465" lon="7.33941">
        <ele>425.447464</ele>
        <time>2011-11-19T15:23:18Z</time>
      </trkpt>
      <trkpt lat="43.84645" lon="7.33952">
        <ele>425.447475</ele>
        <time>2011-11-19T15:23:21Z</time>
      </trkpt>
      <trkpt lat="43.84639" lon="7.33965">
        <ele>426.447495</ele>
        <time>2011-11-19T15:23:26Z</time>
      </trkpt>
      <trkpt lat="43.84629" lon="7.3397">
        <ele>426.447495</ele>
        <time>2011-11-19T15:23:30Z</time>
      </trkpt>
      <trkpt lat="43.84618" lon="7.33967">
        <ele>426.447472</ele>
        <time>2011-11-19T15:23:34Z</time>
      </trkpt>
      <trkpt lat="43.84609" lon="7.33971">
        <ele>427.447472</ele>
        <time>2011-11-19T15:23:38Z</time>
      </trkpt>
      <trkpt lat="43.8461" lon="7.33984">
        <ele>426.447498</ele>
        <time>2011-11-19T15:23:42Z</time>
      </trkpt>
      <trkpt lat="43.84618" lon="7.33994">
        <ele>426.447525</ele>
        <time>2011-11-19T15:23:48Z</time>
      </trkpt>
      <trkpt lat="43.84625" lon="7.34006">
        <ele>426.447563</ele>
        <time>2011-11-19T15:23:51Z</time>
      </trkpt>
      <trkpt lat="43.84618" lon="7.34014">
        <ele>427.447571</ele>
        <time>2011-11-19T15:23:57Z</time>
      </trkpt>
      <trkpt lat="43.8461" lon="7.34024">
        <ele>426.447578</ele>
        <time>2011-11-19T15:24:01Z</time>
      </trkpt>
      <trkpt lat="43.84602" lon="7.3403">
        <ele>426.447582</ele>
        <time>2011-11-19T15:24:04Z</time>
      </trkpt>
      <trkpt lat="43.84589" lon="7.34031">
        <ele>426.447571</ele>
        <time>2011-11-19T15:24:07Z</time>
      </trkpt>
      <trkpt lat="43.84579" lon="7.34031">
        <ele>426.447548</ele>
        <time>2011-11-19T15:24:09Z</time>
      </trkpt>
      <trkpt lat="43.84566" lon="7.34026">
        <ele>426.447525</ele>
        <time>2011-11-19T15:24:12Z</time>
      </trkpt>
      <trkpt lat="43.84557" lon="7.34034">
        <ele>425.447533</ele>
        <time>2011-11-19T15:24:15Z</time>
      </trkpt>
      <trkpt lat="43.84546" lon="7.34036">
        <ele>426.447521</ele>
        <time>2011-11-19T15:24:18Z</time>
      </trkpt>
      <trkpt lat="43.84534" lon="7.34037">
        <ele>425.44751</ele>
        <time>2011-11-19T15:24:21Z</time>
      </trkpt>
      <trkpt lat="43.84522" lon="7.34039">
        <ele>425.447495</ele>
        <time>2011-11-19T15:24:24Z</time>
      </trkpt>
      <trkpt lat="43.84511" lon="7.3404">
        <ele>425.447479</ele>
        <time>2011-11-19T15:24:27Z</time>
      </trkpt>
      <trkpt lat="43.84503" lon="7.34049">
        <ele>424.447491</ele>
        <time>2011-11-19T15:24:30Z</time>
      </trkpt>
      <trkpt lat="43.84498" lon="7.3406">
        <ele>424.44751</ele>
        <time>2011-11-19T15:24:32Z</time>
      </trkpt>
      <trkpt lat="43.84489" lon="7.34071">
        <ele>424.447517</ele>
        <time>2011-11-19T15:24:35Z</time>
      </trkpt>
      <trkpt lat="43.84479" lon="7.34072">
        <ele>424.447502</ele>
        <time>2011-11-19T15:24:38Z</time>
      </trkpt>
      <trkpt lat="43.8447" lon="7.34083">
        <ele>423.447521</ele>
        <time>2011-11-19T15:24:41Z</time>
      </trkpt>
      <trkpt lat="43.8446" lon="7.34095">
        <ele>423.447529</ele>
        <time>2011-11-19T15:24:44Z</time>
      </trkpt>
      <trkpt lat="43.84452" lon="7.34105">
        <ele>422.44754</ele>
        <time>2011-11-19T15:24:46Z</time>
      </trkpt>
      <trkpt lat="43.84441" lon="7.34128">
        <ele>420.447571</ele>
        <time>2011-11-19T15:24:50Z</time>
      </trkpt>
      <trkpt lat="43.84436" lon="7.3414">
        <ele>418.447594</ele>
        <time>2011-11-19T15:24:52Z</time>
      </trkpt>
      <trkpt lat="43.84429" lon="7.34166">
        <ele>417.447632</ele>
        <time>2011-11-19T15:24:56Z</time>
      </trkpt>
      <trkpt lat="43.84424" lon="7.34191">
        <ele>415.447678</ele>
        <time>2011-11-19T15:25:00Z</time>
      </trkpt>
      <trkpt lat="43.84416" lon="7.34207">
        <ele>413.447701</ele>
        <time>2011-11-19T15:25:03Z</time>
      </trkpt>
      <trkpt lat="43.844" lon="7.3422">
        <ele>411.447708</ele>
        <time>2011-11-19T15:25:07Z</time>
      </trkpt>
      <trkpt lat="43.84389" lon="7.34221">
        <ele>411.447697</ele>
        <time>2011-11-19T15:25:09Z</time>
      </trkpt>
      <trkpt lat="43.84368" lon="7.34219">
        <ele>409.447662</ele>
        <time>2011-11-19T15:25:13Z</time>
      </trkpt>
      <trkpt lat="43.8435" lon="7.3421">
        <ele>408.447617</ele>
        <time>2011-11-19T15:25:17Z</time>
      </trkpt>
      <trkpt lat="43.84327" lon="7.34182">
        <ele>405.447533</ele>
        <time>2011-11-19T15:25:24Z</time>
      </trkpt>
      <trkpt lat="43.84318" lon="7.34187">
        <ele>403.447529</ele>
        <time>2011-11-19T15:25:29Z</time>
      </trkpt>
      <trkpt lat="43.84309" lon="7.34191">
        <ele>397.447533</ele>
        <time>2011-11-19T15:25:43Z</time>
      </trkpt>
      <trkpt lat="43.84298" lon="7.34206">
        <ele>389.44754</ele>
        <time>2011-11-19T15:26:23Z</time>
      </trkpt>
      <trkpt lat="43.84289" lon="7.34191">
        <ele>390.447502</ele>
        <time>2011-11-19T15:26:48Z</time>
      </trkpt>
      <trkpt lat="43.84276" lon="7.34198">
        <ele>392.447498</ele>
        <time>2011-11-19T15:27:17Z</time>
      </trkpt>
      <trkpt lat="43.84268" lon="7.34205">
        <ele>393.447502</ele>
        <time>2011-11-19T15:27:30Z</time>
      </trkpt>
      <trkpt lat="43.84267" lon="7.34221">
        <ele>395.447533</ele>
        <time>2011-11-19T15:27:45Z</time>
      </trkpt>
      <trkpt lat="43.84274" lon="7.3423">
        <ele>397.447563</ele>
        <time>2011-11-19T15:27:57Z</time>
      </trkpt>
      <trkpt lat="43.8428" lon="7.3424">
        <ele>398.447594</ele>
        <time>2011-11-19T15:28:07Z</time>
      </trkpt>
      <trkpt lat="43.84285" lon="7.34252">
        <ele>400.44762</ele>
        <time>2011-11-19T15:28:18Z</time>
      </trkpt>
      <trkpt lat="43.84286" lon="7.34264">
        <ele>401.447647</ele>
        <time>2011-11-19T15:28:30Z</time>
      </trkpt>
      <trkpt lat="43.84283" lon="7.34277">
        <ele>402.44767</ele>
        <time>2011-11-19T15:28:41Z</time>
      </trkpt>
      <trkpt lat="43.8428" lon="7.34289">
        <ele>402.447693</ele>
        <time>2011-11-19T15:28:53Z</time>
      </trkpt>
      <trkpt lat="43.84276" lon="7.343">
        <ele>404.447712</ele>
        <time>2011-11-19T15:29:04Z</time>
      </trkpt>
      <trkpt lat="43.84272" lon="7.34312">
        <ele>405.447731</ele>
        <time>2011-11-19T15:29:14Z</time>
      </trkpt>
      <trkpt lat="43.84267" lon="7.34323">
        <ele>408.447746</ele>
        <time>2011-11-19T15:29:44Z</time>
      </trkpt>
      <trkpt lat="43.84265" lon="7.34336">
        <ele>408.447773</ele>
        <time>2011-11-19T15:29:50Z</time>
      </trkpt>
      <trkpt lat="43.84262" lon="7.34352">
        <ele>409.4478</ele>
        <time>2011-11-19T15:29:55Z</time>
      </trkpt>
      <trkpt lat="43.84259" lon="7.34366">
        <ele>409.447823</ele>
        <time>2011-11-19T15:29:58Z</time>
      </trkpt>
      <trkpt lat="43.84256" lon="7.34382">
        <ele>409.447853</ele>
        <time>2011-11-19T15:30:01Z</time>
      </trkpt>
      <trkpt lat="43.8425" lon="7.34397">
        <ele>409.447876</ele>
        <time>2011-11-19T15:30:04Z</time>
      </trkpt>
      <trkpt lat="43.84243" lon="7.34405">
        <ele>409.447884</ele>
        <time>2011-11-19T15:30:06Z</time>
      </trkpt>
      <trkpt lat="43.84233" lon="7.34413">
        <ele>409.447891</ele>
        <time>2011-11-19T15:30:08Z</time>
      </trkpt>
      <trkpt lat="43.84222" lon="7.34421">
        <ele>409.447891</ele>
        <time>2011-11-19T15:30:10Z</time>
      </trkpt>
      <trkpt lat="43.84211" lon="7.34431">
        <ele>409.447895</ele>
        <time>2011-11-19T15:30:12Z</time>
      </trkpt>
      <trkpt lat="43.842" lon="7.34442">
        <ele>409.447906</ele>
        <time>2011-11-19T15:30:14Z</time>
      </trkpt>
      <trkpt lat="43.84174" lon="7.3448">
        <ele>409.447945</ele>
        <time>2011-11-19T15:30:20Z</time>
      </trkpt>
      <trkpt lat="43.84166" lon="7.3449">
        <ele>410.44796</ele>
        <time>2011-11-19T15:30:22Z</time>
      </trkpt>
      <trkpt lat="43.84147" lon="7.34533">
        <ele>410.448025</ele>
        <time>2011-11-19T15:30:30Z</time>
      </trkpt>
      <trkpt lat="43.84137" lon="7.34545">
        <ele>409.448036</ele>
        <time>2011-11-19T15:30:33Z</time>
      </trkpt>
      <trkpt lat="43.84127" lon="7.34556">
        <ele>409.448044</ele>
        <time>2011-11-19T15:30:36Z</time>
      </trkpt>
      <trkpt lat="43.84122" lon="7.34567">
        <ele>408.448063</ele>
        <time>2011-11-19T15:30:38Z</time>
      </trkpt>
      <trkpt lat="43.84118" lon="7.3458">
        <ele>408.448086</ele>
        <time>2011-11-19T15:30:40Z</time>
      </trkpt>
      <trkpt lat="43.84117" lon="7.34612">
        <ele>407.448147</ele>
        <time>2011-11-19T15:30:44Z</time>
      </trkpt>
      <trkpt lat="43.84117" lon="7.34627">
        <ele>407.448181</ele>
        <time>2011-11-19T15:30:46Z</time>
      </trkpt>
      <trkpt lat="43.84109" lon="7.34651">
        <ele>407.448219</ele>
        <time>2011-11-19T15:30:50Z</time>
      </trkpt>
      <trkpt lat="43.8409" lon="7.34664">
        <ele>405.448219</ele>
        <time>2011-11-19T15:30:54Z</time>
      </trkpt>
      <trkpt lat="43.84069" lon="7.34682">
        <ele>404.448227</ele>
        <time>2011-11-19T15:30:58Z</time>
      </trkpt>
      <trkpt lat="43.84059" lon="7.34696">
        <ele>404.448246</ele>
        <time>2011-11-19T15:31:00Z</time>
      </trkpt>
      <trkpt lat="43.84049" lon="7.34731">
        <ele>403.448307</ele>
        <time>2011-11-19T15:31:04Z</time>
      </trkpt>
      <trkpt lat="43.84051" lon="7.34766">
        <ele>403.44838</ele>
        <time>2011-11-19T15:31:08Z</time>
      </trkpt>
      <trkpt lat="43.84057" lon="7.34796">
        <ele>401.448452</ele>
        <time>2011-11-19T15:31:13Z</time>
      </trkpt>
      <trkpt lat="43.84049" lon="7.34806">
        <ele>400.448463</ele>
        <time>2011-11-19T15:31:16Z</time>
      </trkpt>
      <trkpt lat="43.84032" lon="7.34805">
        <ele>399.448437</ele>
        <time>2011-11-19T15:31:18Z</time>
      </trkpt>
      <trkpt lat="43.84001" lon="7.34795">
        <ele>396.448372</ele>
        <time>2011-11-19T15:31:22Z</time>
      </trkpt>
      <trkpt lat="43.83986" lon="7.34791">
        <ele>394.448349</ele>
        <time>2011-11-19T15:31:24Z</time>
      </trkpt>
      <trkpt lat="43.83955" lon="7.34799">
        <ele>391.448318</ele>
        <time>2011-11-19T15:31:28Z</time>
      </trkpt>
      <trkpt lat="43.83923" lon="7.34816">
        <ele>389.448311</ele>
        <time>2011-11-19T15:31:32Z</time>
      </trkpt>
      <trkpt lat="43.83891" lon="7.34833">
        <ele>388.448307</ele>
        <time>2011-11-19T15:31:36Z</time>
      </trkpt>
      <trkpt lat="43.83878" lon="7.34845">
        <ele>387.448315</ele>
        <time>2011-11-19T15:31:38Z</time>
      </trkpt>
      <trkpt lat="43.83856" lon="7.3486">
        <ele>387.448318</ele>
        <time>2011-11-19T15:31:42Z</time>
      </trkpt>
      <trkpt lat="43.83835" lon="7.34869">
        <ele>386.448311</ele>
        <time>2011-11-19T15:31:46Z</time>
      </trkpt>
      <trkpt lat="43.83815" lon="7.34879">
        <ele>384.448303</ele>
        <time>2011-11-19T15:31:50Z</time>
      </trkpt>
      <trkpt lat="43.83805" lon="7.34884">
        <ele>384.448303</ele>
        <time>2011-11-19T15:31:52Z</time>
      </trkpt>
      <trkpt lat="43.83786" lon="7.34897">
        <ele>382.448303</ele>
        <time>2011-11-19T15:31:56Z</time>
      </trkpt>
      <trkpt lat="43.83772" lon="7.34921">
        <ele>381.448334</ele>
        <time>2011-11-19T15:32:00Z</time>
      </trkpt>
      <trkpt lat="43.83768" lon="7.34934">
        <ele>380.448357</ele>
        <time>2011-11-19T15:32:02Z</time>
      </trkpt>
      <trkpt lat="43.83766" lon="7.34963">
        <ele>379.44841</ele>
        <time>2011-11-19T15:32:06Z</time>
      </trkpt>
      <trkpt lat="43.83766" lon="7.34991">
        <ele>378.448471</ele>
        <time>2011-11-19T15:32:10Z</time>
      </trkpt>
      <trkpt lat="43.8376" lon="7.3503">
        <ele>376.44854</ele>
        <time>2011-11-19T15:32:16Z</time>
      </trkpt>
      <trkpt lat="43.83756" lon="7.35043">
        <ele>375.448563</ele>
        <time>2011-11-19T15:32:18Z</time>
      </trkpt>
      <trkpt lat="43.83753" lon="7.35055">
        <ele>374.448586</ele>
        <time>2011-11-19T15:32:20Z</time>
      </trkpt>
      <trkpt lat="43.83743" lon="7.35078">
        <ele>374.448624</ele>
        <time>2011-11-19T15:32:24Z</time>
      </trkpt>
      <trkpt lat="43.83733" lon="7.35104">
        <ele>373.448662</ele>
        <time>2011-11-19T15:32:29Z</time>
      </trkpt>
      <trkpt lat="43.83728" lon="7.35118">
        <ele>372.448689</ele>
        <time>2011-11-19T15:32:32Z</time>
      </trkpt>
      <trkpt lat="43.83721" lon="7.35132">
        <ele>372.448708</ele>
        <time>2011-11-19T15:32:35Z</time>
      </trkpt>
      <trkpt lat="43.83712" lon="7.35143">
        <ele>372.448715</ele>
        <time>2011-11-19T15:32:38Z</time>
      </trkpt>
      <trkpt lat="43.83702" lon="7.35153">
        <ele>372.448727</ele>
        <time>2011-11-19T15:32:41Z</time>
      </trkpt>
      <trkpt lat="43.83692" lon="7.35163">
        <ele>372.44873</ele>
        <time>2011-11-19T15:32:44Z</time>
      </trkpt>
      <trkpt lat="43.83672" lon="7.35181">
        <ele>372.448746</ele>
        <time>2011-11-19T15:32:50Z</time>
      </trkpt>
      <trkpt lat="43.83663" lon="7.3519">
        <ele>372.448746</ele>
        <time>2011-11-19T15:32:53Z</time>
      </trkpt>
      <trkpt lat="43.83653" lon="7.35199">
        <ele>371.448753</ele>
        <time>2011-11-19T15:32:56Z</time>
      </trkpt>
      <trkpt lat="43.83644" lon="7.35207">
        <ele>371.448757</ele>
        <time>2011-11-19T15:32:59Z</time>
      </trkpt>
      <trkpt lat="43.83635" lon="7.35216">
        <ele>371.448765</ele>
        <time>2011-11-19T15:33:02Z</time>
      </trkpt>
      <trkpt lat="43.83623" lon="7.35228">
        <ele>370.448772</ele>
        <time>2011-11-19T15:33:06Z</time>
      </trkpt>
      <trkpt lat="43.83615" lon="7.35237">
        <ele>370.448784</ele>
        <time>2011-11-19T15:33:09Z</time>
      </trkpt>
      <trkpt lat="43.83607" lon="7.35248">
        <ele>370.448799</ele>
        <time>2011-11-19T15:33:12Z</time>
      </trkpt>
    </trkseg>
  </trk>
</gpx>